Wetterdaten: Samstag, 21.09.2019
Datum Zeit Temp. A. Feuchte A. Luftdruck Regen Wind Richtung Richtung Sonnenschein ET UV Solar Taupunkt Windchill Windböen
21.09.2019 00:00 3,8 °C 92 % 1023,7 hPa 0,0 mm 0,0 km/h (0 Bft) S-SO 150 ° 0 min 0,000 mm 0,0 UV-I 0 W/m² 2,6 °C 3,8 °C 0,0 km/h (0 Bft)
21.09.2019 00:01 3,8 °C 93 % 1023,7 hPa 0,0 mm 0,0 km/h (0 Bft) S-SO 150 ° 0 min 0,000 mm 0,0 UV-I 0 W/m² 2,8 °C 3,8 °C 0,0 km/h (0 Bft)
21.09.2019 00:02 3,8 °C 93 % 1023,7 hPa 0,0 mm 0,0 km/h (0 Bft) S-SO 150 ° 0 min 0,000 mm 0,0 UV-I 0 W/m² 2,8 °C 3,8 °C 0,0 km/h (0 Bft)
21.09.2019 00:03 3,8 °C 92 % 1023,6 hPa 0,0 mm 0,0 km/h (0 Bft) S-SO 150 ° 0 min 0,000 mm 0,0 UV-I 0 W/m² 2,6 °C 3,8 °C 0,0 km/h (0 Bft)
21.09.2019 00:04 3,8 °C 92 % 1023,6 hPa 0,0 mm 0,0 km/h (0 Bft) S-SO 150 ° 0 min 0,000 mm 0,0 UV-I 0 W/m² 2,6 °C 3,8 °C 0,0 km/h (0 Bft)
21.09.2019 00:05 3,8 °C 92 % 1023,6 hPa 0,0 mm 0,0 km/h (0 Bft) S-SO 150 ° 0 min 0,000 mm 0,0 UV-I 0 W/m² 2,6 °C 3,8 °C 0,0 km/h (0 Bft)
21.09.2019 00:06 3,8 °C 92 % 1023,6 hPa 0,0 mm 0,0 km/h (0 Bft) S-SO 150 ° 0 min 0,000 mm 0,0 UV-I 0 W/m² 2,6 °C 3,8 °C 0,0 km/h (0 Bft)
21.09.2019 00:07 3,7 °C 92 % 1023,6 hPa 0,0 mm 0,0 km/h (0 Bft) S-SO 150 ° 0 min 0,000 mm 0,0 UV-I 0 W/m² 2,5 °C 3,7 °C 0,0 km/h (0 Bft)
21.09.2019 00:08 3,6 °C 92 % 1023,6 hPa 0,0 mm 0,0 km/h (0 Bft) S-SO 150 ° 0 min 0,000 mm 0,0 UV-I 0 W/m² 2,4 °C 3,6 °C 0,0 km/h (0 Bft)
21.09.2019 00:09 3,6 °C 92 % 1023,6 hPa 0,0 mm 0,0 km/h (0 Bft) S-SO 150 ° 0 min 0,000 mm 0,0 UV-I 0 W/m² 2,4 °C 3,6 °C 0,0 km/h (0 Bft)
21.09.2019 00:10 3,6 °C 92 % 1023,6 hPa 0,0 mm 0,0 km/h (0 Bft) S-SO 150 ° 0 min 0,000 mm 0,0 UV-I 0 W/m² 2,4 °C 3,6 °C 0,0 km/h (0 Bft)
21.09.2019 00:11 3,8 °C 93 % 1023,5 hPa 0,0 mm 0,0 km/h (0 Bft) S-SO 150 ° 0 min 0,000 mm 0,0 UV-I 0 W/m² 2,8 °C 3,8 °C 0,0 km/h (0 Bft)
21.09.2019 00:12 3,9 °C 93 % 1023,5 hPa 0,0 mm 0,0 km/h (0 Bft) S-SO 150 ° 0 min 0,000 mm 0,0 UV-I 0 W/m² 2,9 °C 3,9 °C 0,0 km/h (0 Bft)
21.09.2019 00:13 4,1 °C 93 % 1023,4 hPa 0,0 mm 0,0 km/h (0 Bft) S-SO 150 ° 0 min 0,000 mm 0,0 UV-I 0 W/m² 3,1 °C 4,1 °C 0,0 km/h (0 Bft)
21.09.2019 00:14 4,0 °C 92 % 1023,4 hPa 0,0 mm 0,0 km/h (0 Bft) S-SO 150 ° 0 min 0,000 mm 0,0 UV-I 0 W/m² 2,8 °C 4,0 °C 0,0 km/h (0 Bft)
21.09.2019 00:15 3,9 °C 92 % 1023,4 hPa 0,0 mm 0,0 km/h (0 Bft) S-SO 150 ° 0 min 0,000 mm 0,0 UV-I 0 W/m² 2,7 °C 3,9 °C 0,0 km/h (0 Bft)
21.09.2019 00:16 3,8 °C 92 % 1023,4 hPa 0,0 mm 0,0 km/h (0 Bft) S-SO 150 ° 0 min 0,000 mm 0,0 UV-I 0 W/m² 2,6 °C 3,8 °C 0,0 km/h (0 Bft)
21.09.2019 00:17 3,8 °C 92 % 1023,4 hPa 0,0 mm 0,0 km/h (0 Bft) S-SO 150 ° 0 min 0,000 mm 0,0 UV-I 0 W/m² 2,6 °C 3,8 °C 0,0 km/h (0 Bft)
21.09.2019 00:18 3,8 °C 92 % 1023,4 hPa 0,0 mm 0,0 km/h (0 Bft) S-SO 150 ° 0 min 0,000 mm 0,0 UV-I 0 W/m² 2,6 °C 3,8 °C 0,0 km/h (0 Bft)
21.09.2019 00:19 3,8 °C 92 % 1023,4 hPa 0,0 mm 0,0 km/h (0 Bft) S-SO 150 ° 0 min 0,000 mm 0,0 UV-I 0 W/m² 2,6 °C 3,8 °C 0,0 km/h (0 Bft)
21.09.2019 00:20 3,7 °C 92 % 1023,4 hPa 0,0 mm 0,0 km/h (0 Bft) S-SO 150 ° 0 min 0,000 mm 0,0 UV-I 0 W/m² 2,5 °C 3,7 °C 0,0 km/h (0 Bft)
21.09.2019 00:21 3,6 °C 92 % 1023,4 hPa 0,0 mm 0,0 km/h (0 Bft) S-SO 150 ° 0 min 0,000 mm 0,0 UV-I 0 W/m² 2,4 °C 3,6 °C 0,0 km/h (0 Bft)
21.09.2019 00:22 3,4 °C 91 % 1023,4 hPa 0,0 mm 0,0 km/h (0 Bft) S-SO 150 ° 0 min 0,000 mm 0,0 UV-I 0 W/m² 2,1 °C 3,4 °C 0,0 km/h (0 Bft)
21.09.2019 00:23 3,4 °C 92 % 1023,4 hPa 0,0 mm 0,0 km/h (0 Bft) S-SO 150 ° 0 min 0,000 mm 0,0 UV-I 0 W/m² 2,2 °C 3,4 °C 0,0 km/h (0 Bft)
21.09.2019 00:24 3,4 °C 92 % 1023,4 hPa 0,0 mm 0,0 km/h (0 Bft) S-SO 150 ° 0 min 0,000 mm 0,0 UV-I 0 W/m² 2,2 °C 3,4 °C 0,0 km/h (0 Bft)
21.09.2019 00:25 3,4 °C 92 % 1023,4 hPa 0,0 mm 0,0 km/h (0 Bft) S-SO 150 ° 0 min 0,000 mm 0,0 UV-I 0 W/m² 2,2 °C 3,4 °C 0,0 km/h (0 Bft)
21.09.2019 00:26 3,4 °C 92 % 1023,4 hPa 0,0 mm 0,0 km/h (0 Bft) S-SO 150 ° 0 min 0,000 mm 0,0 UV-I 0 W/m² 2,2 °C 3,4 °C 0,0 km/h (0 Bft)
21.09.2019 00:27 3,5 °C 92 % 1023,4 hPa 0,0 mm 0,0 km/h (0 Bft) S-SO 150 ° 0 min 0,000 mm 0,0 UV-I 0 W/m² 2,3 °C 3,5 °C 0,0 km/h (0 Bft)
21.09.2019 00:28 3,6 °C 93 % 1023,3 hPa 0,0 mm 0,0 km/h (0 Bft) S-SO 150 ° 0 min 0,000 mm 0,0 UV-I 0 W/m² 2,6 °C 3,6 °C 0,0 km/h (0 Bft)
21.09.2019 00:29 3,6 °C 93 % 1023,3 hPa 0,0 mm 0,0 km/h (0 Bft) S-SO 150 ° 0 min 0,000 mm 0,0 UV-I 0 W/m² 2,6 °C 3,6 °C 0,0 km/h (0 Bft)
21.09.2019 00:30 3,6 °C 92 % 1023,4 hPa 0,0 mm 0,0 km/h (0 Bft) S-SO 150 ° 0 min 0,000 mm 0,0 UV-I 0 W/m² 2,4 °C 3,6 °C 0,0 km/h (0 Bft)
21.09.2019 00:31 3,6 °C 92 % 1023,3 hPa 0,0 mm 0,0 km/h (0 Bft) S-SO 150 ° 0 min 0,000 mm 0,0 UV-I 0 W/m² 2,4 °C 3,6 °C 0,0 km/h (0 Bft)
21.09.2019 00:32 3,6 °C 92 % 1023,3 hPa 0,0 mm 0,0 km/h (0 Bft) S-SO 150 ° 0 min 0,000 mm 0,0 UV-I 0 W/m² 2,4 °C 3,6 °C 0,0 km/h (0 Bft)
21.09.2019 00:33 3,6 °C 92 % 1023,4 hPa 0,0 mm 0,0 km/h (0 Bft) S-SO 150 ° 0 min 0,000 mm 0,0 UV-I 0 W/m² 2,4 °C 3,6 °C 0,0 km/h (0 Bft)
21.09.2019 00:34 3,6 °C 93 % 1023,4 hPa 0,0 mm 0,0 km/h (0 Bft) S-SO 150 ° 0 min 0,000 mm 0,0 UV-I 0 W/m² 2,6 °C 3,6 °C 0,0 km/h (0 Bft)
21.09.2019 00:35 3,6 °C 92 % 1023,4 hPa 0,0 mm 0,0 km/h (0 Bft) S-SO 150 ° 0 min 0,000 mm 0,0 UV-I 0 W/m² 2,4 °C 3,6 °C 0,0 km/h (0 Bft)
21.09.2019 00:36 3,6 °C 92 % 1023,3 hPa 0,0 mm 0,0 km/h (0 Bft) S-SO 150 ° 0 min 0,000 mm 0,0 UV-I 0 W/m² 2,4 °C 3,6 °C 0,0 km/h (0 Bft)
21.09.2019 00:37 3,6 °C 92 % 1023,3 hPa 0,0 mm 0,0 km/h (0 Bft) S-SO 150 ° 0 min 0,000 mm 0,0 UV-I 0 W/m² 2,4 °C 3,6 °C 0,0 km/h (0 Bft)
21.09.2019 00:38 3,6 °C 92 % 1023,3 hPa 0,0 mm 0,0 km/h (0 Bft) S-SO 150 ° 0 min 0,000 mm 0,0 UV-I 0 W/m² 2,4 °C 3,6 °C 0,0 km/h (0 Bft)
21.09.2019 00:39 3,6 °C 92 % 1023,3 hPa 0,0 mm 0,0 km/h (0 Bft) S-SO 150 ° 0 min 0,000 mm 0,0 UV-I 0 W/m² 2,4 °C 3,6 °C 0,0 km/h (0 Bft)
21.09.2019 00:40 3,6 °C 92 % 1023,2 hPa 0,0 mm 0,0 km/h (0 Bft) S-SO 150 ° 0 min 0,000 mm 0,0 UV-I 0 W/m² 2,4 °C 3,6 °C 0,0 km/h (0 Bft)
21.09.2019 00:41 3,6 °C 92 % 1023,2 hPa 0,0 mm 2,1 km/h (1 Bft) S-SO 150 ° 0 min 0,000 mm 0,0 UV-I 0 W/m² 2,4 °C 3,6 °C 4,8 km/h (1 Bft)
21.09.2019 00:42 3,6 °C 93 % 1023,2 hPa 0,0 mm 1,9 km/h (1 Bft) S-SO 150 ° 0 min 0,000 mm 0,0 UV-I 0 W/m² 2,6 °C 3,6 °C 4,8 km/h (1 Bft)
21.09.2019 00:43 3,7 °C 92 % 1023,2 hPa 0,0 mm 3,5 km/h (1 Bft) S-SO 150 ° 0 min 0,000 mm 0,0 UV-I 0 W/m² 2,5 °C 3,7 °C 4,8 km/h (1 Bft)
21.09.2019 00:44 3,7 °C 92 % 1023,2 hPa 0,0 mm 3,1 km/h (1 Bft) S-SO 150 ° 0 min 0,000 mm 0,0 UV-I 0 W/m² 2,5 °C 3,7 °C 3,2 km/h (1 Bft)
21.09.2019 00:45 3,7 °C 92 % 1023,2 hPa 0,0 mm 0,8 km/h (0 Bft) S-SO 150 ° 0 min 0,000 mm 0,0 UV-I 0 W/m² 2,5 °C 3,7 °C 3,2 km/h (1 Bft)
21.09.2019 00:46 3,7 °C 92 % 1023,2 hPa 0,0 mm 0,0 km/h (0 Bft) S-SO 150 ° 0 min 0,000 mm 0,0 UV-I 0 W/m² 2,5 °C 3,7 °C 0,0 km/h (0 Bft)
21.09.2019 00:47 3,7 °C 92 % 1023,3 hPa 0,0 mm 0,0 km/h (0 Bft) S-SO 150 ° 0 min 0,000 mm 0,0 UV-I 0 W/m² 2,5 °C 3,7 °C 0,0 km/h (0 Bft)
21.09.2019 00:48 3,6 °C 92 % 1023,3 hPa 0,0 mm 0,0 km/h (0 Bft) S-SO 150 ° 0 min 0,000 mm 0,0 UV-I 0 W/m² 2,4 °C 3,6 °C 0,0 km/h (0 Bft)
21.09.2019 00:49 3,6 °C 92 % 1023,3 hPa 0,0 mm 0,0 km/h (0 Bft) S-SO 150 ° 0 min 0,000 mm 0,0 UV-I 0 W/m² 2,4 °C 3,6 °C 0,0 km/h (0 Bft)
21.09.2019 00:50 3,4 °C 92 % 1023,3 hPa 0,0 mm 0,0 km/h (0 Bft) S-SO 150 ° 0 min 0,000 mm 0,0 UV-I 0 W/m² 2,2 °C 3,4 °C 0,0 km/h (0 Bft)
21.09.2019 00:51 3,3 °C 92 % 1023,3 hPa 0,0 mm 0,0 km/h (0 Bft) S-SO 150 ° 0 min 0,000 mm 0,0 UV-I 0 W/m² 2,1 °C 3,3 °C 0,0 km/h (0 Bft)
21.09.2019 00:52 3,3 °C 92 % 1023,3 hPa 0,0 mm 0,0 km/h (0 Bft) S-SO 150 ° 0 min 0,000 mm 0,0 UV-I 0 W/m² 2,1 °C 3,3 °C 0,0 km/h (0 Bft)
21.09.2019 00:53 3,3 °C 92 % 1023,3 hPa 0,0 mm 0,0 km/h (0 Bft) S-SO 150 ° 0 min 0,000 mm 0,0 UV-I 0 W/m² 2,1 °C 3,3 °C 0,0 km/h (0 Bft)
21.09.2019 00:54 3,3 °C 92 % 1023,3 hPa 0,0 mm 0,0 km/h (0 Bft) S-SO 150 ° 0 min 0,000 mm 0,0 UV-I 0 W/m² 2,1 °C 3,3 °C 0,0 km/h (0 Bft)
21.09.2019 00:55 3,3 °C 92 % 1023,3 hPa 0,0 mm 0,0 km/h (0 Bft) S-SO 150 ° 0 min 0,000 mm 0,0 UV-I 0 W/m² 2,1 °C 3,3 °C 0,0 km/h (0 Bft)
21.09.2019 00:56 3,2 °C 92 % 1023,2 hPa 0,0 mm 0,0 km/h (0 Bft) S-SO 150 ° 0 min 0,000 mm 0,0 UV-I 0 W/m² 2,0 °C 3,2 °C 0,0 km/h (0 Bft)
21.09.2019 00:57 3,2 °C 92 % 1023,3 hPa 0,0 mm 0,0 km/h (0 Bft) S-SO 150 ° 0 min 0,000 mm 0,0 UV-I 0 W/m² 2,0 °C 3,2 °C 0,0 km/h (0 Bft)
21.09.2019 00:58 3,1 °C 92 % 1023,2 hPa 0,0 mm 0,0 km/h (0 Bft) S-SO 150 ° 0 min 0,000 mm 0,0 UV-I 0 W/m² 1,9 °C 3,1 °C 0,0 km/h (0 Bft)
21.09.2019 00:59 2,9 °C 92 % 1023,2 hPa 0,0 mm 0,0 km/h (0 Bft) S-SO 150 ° 0 min 0,000 mm 0,0 UV-I 0 W/m² 1,7 °C 2,9 °C 0,0 km/h (0 Bft)
21.09.2019 01:00 2,8 °C 92 % 1023,2 hPa 0,0 mm 0,0 km/h (0 Bft) S-SO 150 ° 0 min 0,000 mm 0,0 UV-I 0 W/m² 1,6 °C 2,8 °C 0,0 km/h (0 Bft)
21.09.2019 01:01 2,8 °C 92 % 1023,2 hPa 0,0 mm 0,0 km/h (0 Bft) S-SO 150 ° 0 min 0,000 mm 0,0 UV-I 0 W/m² 1,6 °C 2,8 °C 0,0 km/h (0 Bft)
21.09.2019 01:02 2,8 °C 92 % 1023,3 hPa 0,0 mm 0,0 km/h (0 Bft) S-SO 150 ° 0 min 0,000 mm 0,0 UV-I 0 W/m² 1,6 °C 2,8 °C 0,0 km/h (0 Bft)
21.09.2019 01:03 2,7 °C 92 % 1023,3 hPa 0,0 mm 0,0 km/h (0 Bft) S-SO 150 ° 0 min 0,000 mm 0,0 UV-I 0 W/m² 1,5 °C 2,7 °C 0,0 km/h (0 Bft)
21.09.2019 01:04 2,7 °C 92 % 1023,2 hPa 0,0 mm 0,0 km/h (0 Bft) S-SO 150 ° 0 min 0,000 mm 0,0 UV-I 0 W/m² 1,5 °C 2,7 °C 0,0 km/h (0 Bft)
21.09.2019 01:05 2,8 °C 92 % 1023,1 hPa 0,0 mm 0,0 km/h (0 Bft) S-SO 150 ° 0 min 0,000 mm 0,0 UV-I 0 W/m² 1,6 °C 2,8 °C 0,0 km/h (0 Bft)
21.09.2019 01:06 2,8 °C 92 % 1023,2 hPa 0,0 mm 0,0 km/h (0 Bft) S-SO 150 ° 0 min 0,000 mm 0,0 UV-I 0 W/m² 1,6 °C 2,8 °C 0,0 km/h (0 Bft)
21.09.2019 01:07 2,8 °C 92 % 1023,2 hPa 0,0 mm 0,0 km/h (0 Bft) S-SO 150 ° 0 min 0,000 mm 0,0 UV-I 0 W/m² 1,6 °C 2,8 °C 0,0 km/h (0 Bft)
21.09.2019 01:08 2,8 °C 93 % 1023,2 hPa 0,0 mm 0,0 km/h (0 Bft) S-SO 150 ° 0 min 0,000 mm 0,0 UV-I 0 W/m² 1,8 °C 2,8 °C 0,0 km/h (0 Bft)
21.09.2019 01:09 2,8 °C 93 % 1023,2 hPa 0,0 mm 0,0 km/h (0 Bft) S-SO 150 ° 0 min 0,000 mm 0,0 UV-I 0 W/m² 1,8 °C 2,8 °C 0,0 km/h (0 Bft)
21.09.2019 01:10 3,0 °C 93 % 1023,2 hPa 0,0 mm 0,0 km/h (0 Bft) S-SO 150 ° 0 min 0,000 mm 0,0 UV-I 0 W/m² 2,0 °C 3,0 °C 0,0 km/h (0 Bft)
21.09.2019 01:11 3,1 °C 93 % 1023,1 hPa 0,0 mm 0,0 km/h (0 Bft) S-SO 150 ° 0 min 0,000 mm 0,0 UV-I 0 W/m² 2,1 °C 3,1 °C 0,0 km/h (0 Bft)
21.09.2019 01:12 3,1 °C 93 % 1023,1 hPa 0,0 mm 0,0 km/h (0 Bft) S-SO 150 ° 0 min 0,000 mm 0,0 UV-I 0 W/m² 2,1 °C 3,1 °C 0,0 km/h (0 Bft)
21.09.2019 01:13 3,1 °C 93 % 1023,2 hPa 0,0 mm 0,0 km/h (0 Bft) S-SO 150 ° 0 min 0,000 mm 0,0 UV-I 0 W/m² 2,1 °C 3,1 °C 0,0 km/h (0 Bft)
21.09.2019 01:14 3,0 °C 93 % 1023,1 hPa 0,0 mm 0,0 km/h (0 Bft) S-SO 150 ° 0 min 0,000 mm 0,0 UV-I 0 W/m² 2,0 °C 3,0 °C 0,0 km/h (0 Bft)
21.09.2019 01:15 3,0 °C 93 % 1023,1 hPa 0,0 mm 0,0 km/h (0 Bft) S-SO 150 ° 0 min 0,000 mm 0,0 UV-I 0 W/m² 2,0 °C 3,0 °C 0,0 km/h (0 Bft)
21.09.2019 01:16 2,9 °C 93 % 1023,1 hPa 0,0 mm 0,0 km/h (0 Bft) S-SO 150 ° 0 min 0,000 mm 0,0 UV-I 0 W/m² 1,9 °C 2,9 °C 0,0 km/h (0 Bft)
21.09.2019 01:17 3,0 °C 93 % 1023,1 hPa 0,0 mm 0,0 km/h (0 Bft) S-SO 150 ° 0 min 0,000 mm 0,0 UV-I 0 W/m² 2,0 °C 3,0 °C 0,0 km/h (0 Bft)
21.09.2019 01:18 2,9 °C 93 % 1023,1 hPa 0,0 mm 0,0 km/h (0 Bft) S-SO 150 ° 0 min 0,000 mm 0,0 UV-I 0 W/m² 1,9 °C 2,9 °C 0,0 km/h (0 Bft)
21.09.2019 01:19 2,9 °C 93 % 1023,0 hPa 0,0 mm 0,0 km/h (0 Bft) S-SO 150 ° 0 min 0,000 mm 0,0 UV-I 0 W/m² 1,9 °C 2,9 °C 0,0 km/h (0 Bft)
21.09.2019 01:20 2,8 °C 93 % 1023,0 hPa 0,0 mm 0,0 km/h (0 Bft) S-SO 150 ° 0 min 0,000 mm 0,0 UV-I 0 W/m² 1,8 °C 2,8 °C 0,0 km/h (0 Bft)
21.09.2019 01:21 2,8 °C 93 % 1023,0 hPa 0,0 mm 0,0 km/h (0 Bft) S-SO 150 ° 0 min 0,000 mm 0,0 UV-I 0 W/m² 1,8 °C 2,8 °C 0,0 km/h (0 Bft)
21.09.2019 01:22 2,8 °C 93 % 1023,0 hPa 0,0 mm 0,0 km/h (0 Bft) S-SO 150 ° 0 min 0,000 mm 0,0 UV-I 0 W/m² 1,8 °C 2,8 °C 0,0 km/h (0 Bft)
21.09.2019 01:23 2,8 °C 93 % 1023,0 hPa 0,0 mm 0,0 km/h (0 Bft) S-SO 150 ° 0 min 0,000 mm 0,0 UV-I 0 W/m² 1,8 °C 2,8 °C 0,0 km/h (0 Bft)
21.09.2019 01:24 2,8 °C 93 % 1023,0 hPa 0,0 mm 0,0 km/h (0 Bft) S-SO 150 ° 0 min 0,000 mm 0,0 UV-I 0 W/m² 1,8 °C 2,8 °C 0,0 km/h (0 Bft)
21.09.2019 01:25 2,7 °C 93 % 1023,0 hPa 0,0 mm 0,0 km/h (0 Bft) S-SO 150 ° 0 min 0,000 mm 0,0 UV-I 0 W/m² 1,7 °C 2,7 °C 0,0 km/h (0 Bft)
21.09.2019 01:26 2,7 °C 93 % 1023,0 hPa 0,0 mm 0,0 km/h (0 Bft) S-SO 150 ° 0 min 0,000 mm 0,0 UV-I 0 W/m² 1,7 °C 2,7 °C 0,0 km/h (0 Bft)
21.09.2019 01:27 2,8 °C 93 % 1023,0 hPa 0,0 mm 0,0 km/h (0 Bft) S-SO 150 ° 0 min 0,000 mm 0,0 UV-I 0 W/m² 1,8 °C 2,8 °C 0,0 km/h (0 Bft)
21.09.2019 01:28 2,8 °C 93 % 1022,9 hPa 0,0 mm 0,0 km/h (0 Bft) S-SO 150 ° 0 min 0,000 mm 0,0 UV-I 0 W/m² 1,8 °C 2,8 °C 0,0 km/h (0 Bft)
21.09.2019 01:29 2,9 °C 93 % 1022,9 hPa 0,0 mm 0,0 km/h (0 Bft) S-SO 150 ° 0 min 0,000 mm 0,0 UV-I 0 W/m² 1,9 °C 2,9 °C 0,0 km/h (0 Bft)
21.09.2019 01:30 2,9 °C 93 % 1022,9 hPa 0,0 mm 0,0 km/h (0 Bft) S-SO 150 ° 0 min 0,000 mm 0,0 UV-I 0 W/m² 1,9 °C 2,9 °C 0,0 km/h (0 Bft)
21.09.2019 01:31 2,9 °C 93 % 1022,9 hPa 0,0 mm 0,0 km/h (0 Bft) S-SO 150 ° 0 min 0,000 mm 0,0 UV-I 0 W/m² 1,9 °C 2,9 °C 0,0 km/h (0 Bft)
21.09.2019 01:32 2,9 °C 93 % 1022,9 hPa 0,0 mm 0,0 km/h (0 Bft) S-SO 150 ° 0 min 0,000 mm 0,0 UV-I 0 W/m² 1,9 °C 2,9 °C 0,0 km/h (0 Bft)
21.09.2019 01:33 2,9 °C 93 % 1022,9 hPa 0,0 mm 0,0 km/h (0 Bft) S-SO 150 ° 0 min 0,000 mm 0,0 UV-I 0 W/m² 1,9 °C 2,9 °C 0,0 km/h (0 Bft)
21.09.2019 01:34 2,9 °C 93 % 1023,0 hPa 0,0 mm 0,0 km/h (0 Bft) S-SO 150 ° 0 min 0,000 mm 0,0 UV-I 0 W/m² 1,9 °C 2,9 °C 0,0 km/h (0 Bft)
21.09.2019 01:35 3,1 °C 93 % 1022,9 hPa 0,0 mm 0,0 km/h (0 Bft) S-SO 150 ° 0 min 0,000 mm 0,0 UV-I 0 W/m² 2,1 °C 3,1 °C 0,0 km/h (0 Bft)
21.09.2019 01:36 3,1 °C 93 % 1022,9 hPa 0,0 mm 0,0 km/h (0 Bft) S-SO 150 ° 0 min 0,000 mm 0,0 UV-I 0 W/m² 2,1 °C 3,1 °C 0,0 km/h (0 Bft)
21.09.2019 01:37 3,2 °C 93 % 1022,9 hPa 0,0 mm 0,0 km/h (0 Bft) S-SO 150 ° 0 min 0,000 mm 0,0 UV-I 0 W/m² 2,2 °C 3,2 °C 0,0 km/h (0 Bft)
21.09.2019 01:38 3,2 °C 93 % 1022,9 hPa 0,0 mm 0,0 km/h (0 Bft) S-SO 150 ° 0 min 0,000 mm 0,0 UV-I 0 W/m² 2,2 °C 3,2 °C 0,0 km/h (0 Bft)
21.09.2019 01:39 3,1 °C 93 % 1022,9 hPa 0,0 mm 0,0 km/h (0 Bft) S-SO 150 ° 0 min 0,000 mm 0,0 UV-I 0 W/m² 2,1 °C 3,1 °C 0,0 km/h (0 Bft)
21.09.2019 01:40 3,0 °C 93 % 1022,9 hPa 0,0 mm 0,0 km/h (0 Bft) S-SO 150 ° 0 min 0,000 mm 0,0 UV-I 0 W/m² 2,0 °C 3,0 °C 0,0 km/h (0 Bft)
21.09.2019 01:41 2,9 °C 93 % 1022,9 hPa 0,0 mm 0,0 km/h (0 Bft) S-SO 150 ° 0 min 0,000 mm 0,0 UV-I 0 W/m² 1,9 °C 2,9 °C 0,0 km/h (0 Bft)
21.09.2019 01:42 2,8 °C 93 % 1022,9 hPa 0,0 mm 0,0 km/h (0 Bft) S-SO 150 ° 0 min 0,000 mm 0,0 UV-I 0 W/m² 1,8 °C 2,8 °C 0,0 km/h (0 Bft)
21.09.2019 01:43 2,7 °C 93 % 1022,9 hPa 0,0 mm 0,0 km/h (0 Bft) S-SO 150 ° 0 min 0,000 mm 0,0 UV-I 0 W/m² 1,7 °C 2,7 °C 0,0 km/h (0 Bft)
21.09.2019 01:44 2,7 °C 93 % 1022,9 hPa 0,0 mm 0,0 km/h (0 Bft) S-SO 150 ° 0 min 0,000 mm 0,0 UV-I 0 W/m² 1,7 °C 2,7 °C 0,0 km/h (0 Bft)
21.09.2019 01:45 2,7 °C 93 % 1022,9 hPa 0,0 mm 0,0 km/h (0 Bft) S-SO 150 ° 0 min 0,000 mm 0,0 UV-I 0 W/m² 1,7 °C 2,7 °C 0,0 km/h (0 Bft)
21.09.2019 01:46 2,7 °C 93 % 1022,9 hPa 0,0 mm 0,0 km/h (0 Bft) S-SO 150 ° 0 min 0,000 mm 0,0 UV-I 0 W/m² 1,7 °C 2,7 °C 0,0 km/h (0 Bft)
21.09.2019 01:47 2,7 °C 93 % 1022,9 hPa 0,0 mm 0,0 km/h (0 Bft) S-SO 150 ° 0 min 0,000 mm 0,0 UV-I 0 W/m² 1,7 °C 2,7 °C 0,0 km/h (0 Bft)
21.09.2019 01:48 2,7 °C 93 % 1022,9 hPa 0,0 mm 0,0 km/h (0 Bft) S-SO 150 ° 0 min 0,000 mm 0,0 UV-I 0 W/m² 1,7 °C 2,7 °C 0,0 km/h (0 Bft)
21.09.2019 01:49 2,7 °C 93 % 1022,8 hPa 0,0 mm 0,0 km/h (0 Bft) S-SO 150 ° 0 min 0,000 mm 0,0 UV-I 0 W/m² 1,7 °C 2,7 °C 0,0 km/h (0 Bft)
21.09.2019 01:50 2,7 °C 93 % 1022,9 hPa 0,0 mm 0,0 km/h (0 Bft) S-SO 150 ° 0 min 0,000 mm 0,0 UV-I 0 W/m² 1,7 °C 2,7 °C 0,0 km/h (0 Bft)
21.09.2019 01:51 2,7 °C 93 % 1022,8 hPa 0,0 mm 0,0 km/h (0 Bft) S-SO 150 ° 0 min 0,000 mm 0,0 UV-I 0 W/m² 1,7 °C 2,7 °C 0,0 km/h (0 Bft)
21.09.2019 01:52 2,6 °C 93 % 1022,8 hPa 0,0 mm 0,0 km/h (0 Bft) S-SO 150 ° 0 min 0,000 mm 0,0 UV-I 0 W/m² 1,6 °C 2,6 °C 0,0 km/h (0 Bft)
21.09.2019 01:53 2,6 °C 93 % 1022,8 hPa 0,0 mm 0,0 km/h (0 Bft) S-SO 150 ° 0 min 0,000 mm 0,0 UV-I 0 W/m² 1,6 °C 2,6 °C 0,0 km/h (0 Bft)
21.09.2019 01:54 2,6 °C 93 % 1022,9 hPa 0,0 mm 0,0 km/h (0 Bft) S-SO 150 ° 0 min 0,000 mm 0,0 UV-I 0 W/m² 1,6 °C 2,6 °C 0,0 km/h (0 Bft)
21.09.2019 01:55 2,6 °C 93 % 1022,8 hPa 0,0 mm 0,0 km/h (0 Bft) S-SO 150 ° 0 min 0,000 mm 0,0 UV-I 0 W/m² 1,6 °C 2,6 °C 0,0 km/h (0 Bft)
21.09.2019 01:56 2,6 °C 93 % 1022,8 hPa 0,0 mm 0,0 km/h (0 Bft) S-SO 150 ° 0 min 0,000 mm 0,0 UV-I 0 W/m² 1,6 °C 2,6 °C 0,0 km/h (0 Bft)
21.09.2019 01:57 2,6 °C 93 % 1022,8 hPa 0,0 mm 0,0 km/h (0 Bft) S-SO 150 ° 0 min 0,000 mm 0,0 UV-I 0 W/m² 1,6 °C 2,6 °C 0,0 km/h (0 Bft)
21.09.2019 01:58 2,7 °C 93 % 1022,8 hPa 0,0 mm 0,0 km/h (0 Bft) S-SO 150 ° 0 min 0,000 mm 0,0 UV-I 0 W/m² 1,7 °C 2,7 °C 0,0 km/h (0 Bft)
21.09.2019 01:59 2,7 °C 93 % 1022,8 hPa 0,0 mm 0,0 km/h (0 Bft) S-SO 150 ° 0 min 0,000 mm 0,0 UV-I 0 W/m² 1,7 °C 2,7 °C 0,0 km/h (0 Bft)
21.09.2019 02:00 2,6 °C 93 % 1022,8 hPa 0,0 mm 0,0 km/h (0 Bft) S-SO 150 ° 0 min 0,000 mm 0,0 UV-I 0 W/m² 1,6 °C 2,6 °C 0,0 km/h (0 Bft)
21.09.2019 02:01 2,6 °C 93 % 1022,8 hPa 0,0 mm 0,7 km/h (0 Bft) S-SO 150 ° 0 min 0,000 mm 0,0 UV-I 0 W/m² 1,6 °C 2,6 °C 1,6 km/h (1 Bft)
21.09.2019 02:02 2,6 °C 93 % 1022,8 hPa 0,0 mm 0,0 km/h (0 Bft) S-SO 150 ° 0 min 0,000 mm 0,0 UV-I 0 W/m² 1,6 °C 2,6 °C 0,0 km/h (0 Bft)
21.09.2019 02:03 2,6 °C 93 % 1022,8 hPa 0,0 mm 0,0 km/h (0 Bft) S-SO 150 ° 0 min 0,000 mm 0,0 UV-I 0 W/m² 1,6 °C 2,6 °C 0,0 km/h (0 Bft)
21.09.2019 02:04 2,6 °C 93 % 1022,7 hPa 0,0 mm 0,0 km/h (0 Bft) S-SO 150 ° 0 min 0,000 mm 0,0 UV-I 0 W/m² 1,6 °C 2,6 °C 0,0 km/h (0 Bft)
21.09.2019 02:05 2,6 °C 93 % 1022,8 hPa 0,0 mm 0,0 km/h (0 Bft) S-SO 150 ° 0 min 0,000 mm 0,0 UV-I 0 W/m² 1,6 °C 2,6 °C 0,0 km/h (0 Bft)
21.09.2019 02:06 2,7 °C 93 % 1022,8 hPa 0,0 mm 0,0 km/h (0 Bft) S-SO 150 ° 0 min 0,000 mm 0,0 UV-I 0 W/m² 1,7 °C 2,7 °C 0,0 km/h (0 Bft)
21.09.2019 02:07 2,7 °C 93 % 1022,7 hPa 0,0 mm 0,0 km/h (0 Bft) S-SO 150 ° 0 min 0,000 mm 0,0 UV-I 0 W/m² 1,7 °C 2,7 °C 0,0 km/h (0 Bft)
21.09.2019 02:08 2,8 °C 93 % 1022,7 hPa 0,0 mm 0,0 km/h (0 Bft) S-SO 150 ° 0 min 0,000 mm 0,0 UV-I 0 W/m² 1,8 °C 2,8 °C 0,0 km/h (0 Bft)
21.09.2019 02:09 2,8 °C 94 % 1022,7 hPa 0,0 mm 0,0 km/h (0 Bft) S-SO 150 ° 0 min 0,000 mm 0,0 UV-I 0 W/m² 1,9 °C 2,8 °C 0,0 km/h (0 Bft)
21.09.2019 02:10 2,8 °C 93 % 1022,7 hPa 0,0 mm 0,0 km/h (0 Bft) S-SO 150 ° 0 min 0,000 mm 0,0 UV-I 0 W/m² 1,8 °C 2,8 °C 0,0 km/h (0 Bft)
21.09.2019 02:11 2,8 °C 93 % 1022,7 hPa 0,0 mm 0,0 km/h (0 Bft) S-SO 150 ° 0 min 0,000 mm 0,0 UV-I 0 W/m² 1,8 °C 2,8 °C 0,0 km/h (0 Bft)
21.09.2019 02:12 2,7 °C 93 % 1022,7 hPa 0,0 mm 0,0 km/h (0 Bft) S-SO 150 ° 0 min 0,000 mm 0,0 UV-I 0 W/m² 1,7 °C 2,7 °C 0,0 km/h (0 Bft)
21.09.2019 02:13 2,7 °C 93 % 1022,7 hPa 0,0 mm 0,0 km/h (0 Bft) S-SO 150 ° 0 min 0,000 mm 0,0 UV-I 0 W/m² 1,7 °C 2,7 °C 0,0 km/h (0 Bft)
21.09.2019 02:14 2,6 °C 93 % 1022,7 hPa 0,0 mm 0,0 km/h (0 Bft) S-SO 150 ° 0 min 0,000 mm 0,0 UV-I 0 W/m² 1,6 °C 2,6 °C 0,0 km/h (0 Bft)
21.09.2019 02:15 2,6 °C 93 % 1022,7 hPa 0,0 mm 0,0 km/h (0 Bft) S-SO 150 ° 0 min 0,000 mm 0,0 UV-I 0 W/m² 1,6 °C 2,6 °C 0,0 km/h (0 Bft)
21.09.2019 02:16 2,7 °C 93 % 1022,7 hPa 0,0 mm 0,0 km/h (0 Bft) S-SO 150 ° 0 min 0,000 mm 0,0 UV-I 0 W/m² 1,7 °C 2,7 °C 0,0 km/h (0 Bft)
21.09.2019 02:17 2,7 °C 93 % 1022,7 hPa 0,0 mm 0,0 km/h (0 Bft) S-SO 150 ° 0 min 0,000 mm 0,0 UV-I 0 W/m² 1,7 °C 2,7 °C 0,0 km/h (0 Bft)
21.09.2019 02:18 2,6 °C 93 % 1022,7 hPa 0,0 mm 0,0 km/h (0 Bft) S-SO 150 ° 0 min 0,000 mm 0,0 UV-I 0 W/m² 1,6 °C 2,6 °C 0,0 km/h (0 Bft)
21.09.2019 02:19 2,6 °C 93 % 1022,7 hPa 0,0 mm 0,0 km/h (0 Bft) S-SO 150 ° 0 min 0,000 mm 0,0 UV-I 0 W/m² 1,6 °C 2,6 °C 0,0 km/h (0 Bft)
21.09.2019 02:20 2,5 °C 93 % 1022,7 hPa 0,0 mm 0,0 km/h (0 Bft) S-SO 150 ° 0 min 0,000 mm 0,0 UV-I 0 W/m² 1,5 °C 2,5 °C 0,0 km/h (0 Bft)
21.09.2019 02:21 2,4 °C 93 % 1022,7 hPa 0,0 mm 0,0 km/h (0 Bft) S-SO 150 ° 0 min 0,000 mm 0,0 UV-I 0 W/m² 1,4 °C 2,4 °C 0,0 km/h (0 Bft)
21.09.2019 02:22 2,4 °C 93 % 1022,6 hPa 0,0 mm 0,0 km/h (0 Bft) S-SO 150 ° 0 min 0,000 mm 0,0 UV-I 0 W/m² 1,4 °C 2,4 °C 0,0 km/h (0 Bft)
21.09.2019 02:23 2,4 °C 94 % 1022,6 hPa 0,0 mm 0,0 km/h (0 Bft) S-SO 150 ° 0 min 0,000 mm 0,0 UV-I 0 W/m² 1,5 °C 2,4 °C 0,0 km/h (0 Bft)
21.09.2019 02:24 2,5 °C 93 % 1022,6 hPa 0,0 mm 0,0 km/h (0 Bft) S-SO 150 ° 0 min 0,000 mm 0,0 UV-I 0 W/m² 1,5 °C 2,5 °C 0,0 km/h (0 Bft)
21.09.2019 02:25 2,5 °C 94 % 1022,6 hPa 0,0 mm 0,0 km/h (0 Bft) S-SO 150 ° 0 min 0,000 mm 0,0 UV-I 0 W/m² 1,6 °C 2,5 °C 0,0 km/h (0 Bft)
21.09.2019 02:26 2,5 °C 93 % 1022,5 hPa 0,0 mm 0,0 km/h (0 Bft) S-SO 150 ° 0 min 0,000 mm 0,0 UV-I 0 W/m² 1,5 °C 2,5 °C 0,0 km/h (0 Bft)
21.09.2019 02:27 2,5 °C 94 % 1022,5 hPa 0,0 mm 0,0 km/h (0 Bft) S-SO 150 ° 0 min 0,000 mm 0,0 UV-I 0 W/m² 1,6 °C 2,5 °C 0,0 km/h (0 Bft)
21.09.2019 02:28 2,4 °C 94 % 1022,6 hPa 0,0 mm 0,0 km/h (0 Bft) S-SO 150 ° 0 min 0,000 mm 0,0 UV-I 0 W/m² 1,5 °C 2,4 °C 0,0 km/h (0 Bft)
21.09.2019 02:29 2,4 °C 94 % 1022,6 hPa 0,0 mm 0,0 km/h (0 Bft) S-SO 150 ° 0 min 0,000 mm 0,0 UV-I 0 W/m² 1,5 °C 2,4 °C 0,0 km/h (0 Bft)
21.09.2019 02:30 2,5 °C 93 % 1022,6 hPa 0,0 mm 0,0 km/h (0 Bft) S-SO 150 ° 0 min 0,000 mm 0,0 UV-I 0 W/m² 1,5 °C 2,5 °C 0,0 km/h (0 Bft)
21.09.2019 02:31 2,6 °C 94 % 1022,6 hPa 0,0 mm 0,0 km/h (0 Bft) S-SO 150 ° 0 min 0,000 mm 0,0 UV-I 0 W/m² 1,7 °C 2,6 °C 0,0 km/h (0 Bft)
21.09.2019 02:32 2,6 °C 94 % 1022,5 hPa 0,0 mm 0,0 km/h (0 Bft) S-SO 150 ° 0 min 0,000 mm 0,0 UV-I 0 W/m² 1,7 °C 2,6 °C 0,0 km/h (0 Bft)
21.09.2019 02:33 2,5 °C 93 % 1022,6 hPa 0,0 mm 0,0 km/h (0 Bft) S-SO 150 ° 0 min 0,000 mm 0,0 UV-I 0 W/m² 1,5 °C 2,5 °C 0,0 km/h (0 Bft)
21.09.2019 02:34 2,3 °C 93 % 1022,5 hPa 0,0 mm 0,0 km/h (0 Bft) S-SO 150 ° 0 min 0,000 mm 0,0 UV-I 0 W/m² 1,3 °C 2,3 °C 0,0 km/h (0 Bft)
21.09.2019 02:35 2,3 °C 93 % 1022,6 hPa 0,0 mm 0,0 km/h (0 Bft) S-SO 150 ° 0 min 0,000 mm 0,0 UV-I 0 W/m² 1,3 °C 2,3 °C 0,0 km/h (0 Bft)
21.09.2019 02:36 2,2 °C 93 % 1022,6 hPa 0,0 mm 0,0 km/h (0 Bft) S-SO 150 ° 0 min 0,000 mm 0,0 UV-I 0 W/m² 1,2 °C 2,2 °C 0,0 km/h (0 Bft)
21.09.2019 02:37 2,2 °C 93 % 1022,5 hPa 0,0 mm 0,0 km/h (0 Bft) S-SO 150 ° 0 min 0,000 mm 0,0 UV-I 0 W/m² 1,2 °C 2,2 °C 0,0 km/h (0 Bft)
21.09.2019 02:38 2,2 °C 94 % 1022,5 hPa 0,0 mm 0,0 km/h (0 Bft) S-SO 150 ° 0 min 0,000 mm 0,0 UV-I 0 W/m² 1,3 °C 2,2 °C 0,0 km/h (0 Bft)
21.09.2019 02:39 2,2 °C 93 % 1022,5 hPa 0,0 mm 0,0 km/h (0 Bft) S-SO 150 ° 0 min 0,000 mm 0,0 UV-I 0 W/m² 1,2 °C 2,2 °C 0,0 km/h (0 Bft)
21.09.2019 02:40 2,2 °C 93 % 1022,5 hPa 0,0 mm 0,0 km/h (0 Bft) S-SO 150 ° 0 min 0,000 mm 0,0 UV-I 0 W/m² 1,2 °C 2,2 °C 0,0 km/h (0 Bft)
21.09.2019 02:41 2,2 °C 94 % 1022,5 hPa 0,0 mm 0,0 km/h (0 Bft) S-SO 150 ° 0 min 0,000 mm 0,0 UV-I 0 W/m² 1,3 °C 2,2 °C 0,0 km/h (0 Bft)
21.09.2019 02:42 2,2 °C 93 % 1022,5 hPa 0,0 mm 0,0 km/h (0 Bft) S-SO 150 ° 0 min 0,000 mm 0,0 UV-I 0 W/m² 1,2 °C 2,2 °C 0,0 km/h (0 Bft)
21.09.2019 02:43 2,2 °C 94 % 1022,5 hPa 0,0 mm 0,0 km/h (0 Bft) S-SO 150 ° 0 min 0,000 mm 0,0 UV-I 0 W/m² 1,3 °C 2,2 °C 0,0 km/h (0 Bft)
21.09.2019 02:44 2,2 °C 94 % 1022,5 hPa 0,0 mm 0,0 km/h (0 Bft) S-SO 150 ° 0 min 0,000 mm 0,0 UV-I 0 W/m² 1,3 °C 2,2 °C 0,0 km/h (0 Bft)
21.09.2019 02:45 2,3 °C 94 % 1022,5 hPa 0,0 mm 0,0 km/h (0 Bft) S-SO 150 ° 0 min 0,000 mm 0,0 UV-I 0 W/m² 1,4 °C 2,3 °C 0,0 km/h (0 Bft)
21.09.2019 02:46 2,2 °C 94 % 1022,4 hPa 0,0 mm 0,0 km/h (0 Bft) S-SO 150 ° 0 min 0,000 mm 0,0 UV-I 0 W/m² 1,3 °C 2,2 °C 0,0 km/h (0 Bft)
21.09.2019 02:47 2,2 °C 94 % 1022,4 hPa 0,0 mm 0,0 km/h (0 Bft) S-SO 150 ° 0 min 0,000 mm 0,0 UV-I 0 W/m² 1,3 °C 2,2 °C 0,0 km/h (0 Bft)
21.09.2019 02:48 2,2 °C 94 % 1022,4 hPa 0,0 mm 0,0 km/h (0 Bft) S-SO 150 ° 0 min 0,000 mm 0,0 UV-I 0 W/m² 1,3 °C 2,2 °C 0,0 km/h (0 Bft)
21.09.2019 02:49 2,2 °C 94 % 1022,4 hPa 0,0 mm 0,0 km/h (0 Bft) S-SO 150 ° 0 min 0,000 mm 0,0 UV-I 0 W/m² 1,3 °C 2,2 °C 0,0 km/h (0 Bft)
21.09.2019 02:50 2,3 °C 94 % 1022,4 hPa 0,0 mm 0,0 km/h (0 Bft) S-SO 150 ° 0 min 0,000 mm 0,0 UV-I 0 W/m² 1,4 °C 2,3 °C 0,0 km/h (0 Bft)
21.09.2019 02:51 2,4 °C 94 % 1022,4 hPa 0,0 mm 0,0 km/h (0 Bft) S-SO 150 ° 0 min 0,000 mm 0,0 UV-I 0 W/m² 1,5 °C 2,4 °C 0,0 km/h (0 Bft)
21.09.2019 02:52 2,4 °C 94 % 1022,4 hPa 0,0 mm 0,0 km/h (0 Bft) S-SO 150 ° 0 min 0,000 mm 0,0 UV-I 0 W/m² 1,5 °C 2,4 °C 0,0 km/h (0 Bft)
21.09.2019 02:53 2,4 °C 94 % 1022,4 hPa 0,0 mm 0,0 km/h (0 Bft) S-SO 150 ° 0 min 0,000 mm 0,0 UV-I 0 W/m² 1,5 °C 2,4 °C 0,0 km/h (0 Bft)
21.09.2019 02:54 2,4 °C 94 % 1022,4 hPa 0,0 mm 0,0 km/h (0 Bft) S-SO 150 ° 0 min 0,000 mm 0,0 UV-I 0 W/m² 1,5 °C 2,4 °C 0,0 km/h (0 Bft)
21.09.2019 02:55 2,5 °C 94 % 1022,4 hPa 0,0 mm 0,0 km/h (0 Bft) S-SO 150 ° 0 min 0,000 mm 0,0 UV-I 0 W/m² 1,6 °C 2,5 °C 0,0 km/h (0 Bft)
21.09.2019 02:56 2,3 °C 94 % 1022,4 hPa 0,0 mm 0,0 km/h (0 Bft) S-SO 150 ° 0 min 0,000 mm 0,0 UV-I 0 W/m² 1,4 °C 2,3 °C 0,0 km/h (0 Bft)
21.09.2019 02:57 2,2 °C 93 % 1022,3 hPa 0,0 mm 0,0 km/h (0 Bft) S-SO 150 ° 0 min 0,000 mm 0,0 UV-I 0 W/m² 1,2 °C 2,2 °C 0,0 km/h (0 Bft)
21.09.2019 02:58 2,2 °C 93 % 1022,3 hPa 0,0 mm 0,0 km/h (0 Bft) S-SO 150 ° 0 min 0,000 mm 0,0 UV-I 0 W/m² 1,2 °C 2,2 °C 0,0 km/h (0 Bft)
21.09.2019 02:59 2,2 °C 93 % 1022,3 hPa 0,0 mm 0,0 km/h (0 Bft) S-SO 150 ° 0 min 0,000 mm 0,0 UV-I 0 W/m² 1,2 °C 2,2 °C 0,0 km/h (0 Bft)
21.09.2019 03:00 2,2 °C 93 % 1022,3 hPa 0,0 mm 0,0 km/h (0 Bft) S-SO 150 ° 0 min 0,000 mm 0,0 UV-I 0 W/m² 1,2 °C 2,2 °C 0,0 km/h (0 Bft)
21.09.2019 03:01 2,2 °C 94 % 1022,3 hPa 0,0 mm 0,0 km/h (0 Bft) S-SO 150 ° 0 min 0,000 mm 0,0 UV-I 0 W/m² 1,3 °C 2,2 °C 0,0 km/h (0 Bft)
21.09.2019 03:02 2,1 °C 93 % 1022,2 hPa 0,0 mm 0,0 km/h (0 Bft) S-SO 150 ° 0 min 0,000 mm 0,0 UV-I 0 W/m² 1,1 °C 2,1 °C 0,0 km/h (0 Bft)
21.09.2019 03:03 2,0 °C 93 % 1022,2 hPa 0,0 mm 0,0 km/h (0 Bft) S-SO 150 ° 0 min 0,000 mm 0,0 UV-I 0 W/m² 1,0 °C 2,0 °C 0,0 km/h (0 Bft)
21.09.2019 03:04 2,0 °C 94 % 1022,2 hPa 0,0 mm 0,0 km/h (0 Bft) S-SO 150 ° 0 min 0,000 mm 0,0 UV-I 0 W/m² 1,1 °C 2,0 °C 0,0 km/h (0 Bft)
21.09.2019 03:05 1,9 °C 94 % 1022,2 hPa 0,0 mm 0,0 km/h (0 Bft) S-SO 150 ° 0 min 0,000 mm 0,0 UV-I 0 W/m² 1,0 °C 1,9 °C 0,0 km/h (0 Bft)
21.09.2019 03:06 1,9 °C 94 % 1022,2 hPa 0,0 mm 0,0 km/h (0 Bft) S-SO 150 ° 0 min 0,000 mm 0,0 UV-I 0 W/m² 1,0 °C 1,9 °C 0,0 km/h (0 Bft)
21.09.2019 03:07 1,9 °C 94 % 1022,2 hPa 0,0 mm 0,0 km/h (0 Bft) S-SO 150 ° 0 min 0,000 mm 0,0 UV-I 0 W/m² 1,0 °C 1,9 °C 0,0 km/h (0 Bft)
21.09.2019 03:08 1,9 °C 94 % 1022,1 hPa 0,0 mm 0,0 km/h (0 Bft) S-SO 150 ° 0 min 0,000 mm 0,0 UV-I 0 W/m² 1,0 °C 1,9 °C 0,0 km/h (0 Bft)
21.09.2019 03:09 1,9 °C 94 % 1022,1 hPa 0,0 mm 0,0 km/h (0 Bft) S-SO 150 ° 0 min 0,000 mm 0,0 UV-I 0 W/m² 1,0 °C 1,9 °C 0,0 km/h (0 Bft)
21.09.2019 03:10 2,0 °C 94 % 1022,1 hPa 0,0 mm 0,0 km/h (0 Bft) S-SO 150 ° 0 min 0,000 mm 0,0 UV-I 0 W/m² 1,1 °C 2,0 °C 0,0 km/h (0 Bft)
21.09.2019 03:11 1,9 °C 94 % 1022,1 hPa 0,0 mm 0,0 km/h (0 Bft) S-SO 150 ° 0 min 0,000 mm 0,0 UV-I 0 W/m² 1,0 °C 1,9 °C 0,0 km/h (0 Bft)
21.09.2019 03:12 2,0 °C 94 % 1022,1 hPa 0,0 mm 0,0 km/h (0 Bft) S-SO 150 ° 0 min 0,000 mm 0,0 UV-I 0 W/m² 1,1 °C 2,0 °C 0,0 km/h (0 Bft)
21.09.2019 03:13 2,1 °C 94 % 1022,1 hPa 0,0 mm 0,0 km/h (0 Bft) S-SO 150 ° 0 min 0,000 mm 0,0 UV-I 0 W/m² 1,2 °C 2,1 °C 0,0 km/h (0 Bft)
21.09.2019 03:14 2,0 °C 94 % 1022,1 hPa 0,0 mm 0,0 km/h (0 Bft) S-SO 150 ° 0 min 0,000 mm 0,0 UV-I 0 W/m² 1,1 °C 2,0 °C 0,0 km/h (0 Bft)
21.09.2019 03:15 1,9 °C 94 % 1022,1 hPa 0,0 mm 0,0 km/h (0 Bft) S-SO 150 ° 0 min 0,000 mm 0,0 UV-I 0 W/m² 1,0 °C 1,9 °C 0,0 km/h (0 Bft)
21.09.2019 03:16 1,9 °C 94 % 1022,0 hPa 0,0 mm 0,0 km/h (0 Bft) S-SO 150 ° 0 min 0,000 mm 0,0 UV-I 0 W/m² 1,0 °C 1,9 °C 0,0 km/h (0 Bft)
21.09.2019 03:17 1,8 °C 94 % 1022,0 hPa 0,0 mm 0,0 km/h (0 Bft) S-SO 150 ° 0 min 0,000 mm 0,0 UV-I 0 W/m² 0,9 °C 1,8 °C 0,0 km/h (0 Bft)
21.09.2019 03:18 1,8 °C 94 % 1022,0 hPa 0,0 mm 0,0 km/h (0 Bft) S-SO 150 ° 0 min 0,000 mm 0,0 UV-I 0 W/m² 0,9 °C 1,8 °C 0,0 km/h (0 Bft)
21.09.2019 03:19 1,9 °C 94 % 1022,0 hPa 0,0 mm 0,0 km/h (0 Bft) S-SO 150 ° 0 min 0,000 mm 0,0 UV-I 0 W/m² 1,0 °C 1,9 °C 0,0 km/h (0 Bft)
21.09.2019 03:20 2,0 °C 94 % 1022,0 hPa 0,0 mm 0,0 km/h (0 Bft) S-SO 150 ° 0 min 0,000 mm 0,0 UV-I 0 W/m² 1,1 °C 2,0 °C 0,0 km/h (0 Bft)
21.09.2019 03:21 2,0 °C 94 % 1022,0 hPa 0,0 mm 0,0 km/h (0 Bft) S-SO 150 ° 0 min 0,000 mm 0,0 UV-I 0 W/m² 1,1 °C 2,0 °C 0,0 km/h (0 Bft)
21.09.2019 03:22 2,0 °C 94 % 1022,0 hPa 0,0 mm 0,0 km/h (0 Bft) S-SO 150 ° 0 min 0,000 mm 0,0 UV-I 0 W/m² 1,1 °C 2,0 °C 0,0 km/h (0 Bft)
21.09.2019 03:23 2,0 °C 94 % 1022,0 hPa 0,0 mm 0,0 km/h (0 Bft) S-SO 150 ° 0 min 0,000 mm 0,0 UV-I 0 W/m² 1,1 °C 2,0 °C 0,0 km/h (0 Bft)
21.09.2019 03:24 2,0 °C 94 % 1021,9 hPa 0,0 mm 0,0 km/h (0 Bft) S-SO 150 ° 0 min 0,000 mm 0,0 UV-I 0 W/m² 1,1 °C 2,0 °C 0,0 km/h (0 Bft)
21.09.2019 03:25 2,1 °C 94 % 1021,9 hPa 0,0 mm 0,0 km/h (0 Bft) S-SO 150 ° 0 min 0,000 mm 0,0 UV-I 0 W/m² 1,2 °C 2,1 °C 0,0 km/h (0 Bft)
21.09.2019 03:26 2,1 °C 94 % 1021,9 hPa 0,0 mm 0,0 km/h (0 Bft) S-SO 150 ° 0 min 0,000 mm 0,0 UV-I 0 W/m² 1,2 °C 2,1 °C 0,0 km/h (0 Bft)
21.09.2019 03:27 2,1 °C 94 % 1021,9 hPa 0,0 mm 0,0 km/h (0 Bft) S-SO 150 ° 0 min 0,000 mm 0,0 UV-I 0 W/m² 1,2 °C 2,1 °C 0,0 km/h (0 Bft)
21.09.2019 03:28 2,1 °C 94 % 1021,9 hPa 0,0 mm 0,0 km/h (0 Bft) S-SO 150 ° 0 min 0,000 mm 0,0 UV-I 0 W/m² 1,2 °C 2,1 °C 0,0 km/h (0 Bft)
21.09.2019 03:29 2,1 °C 94 % 1021,9 hPa 0,0 mm 0,0 km/h (0 Bft) S-SO 150 ° 0 min 0,000 mm 0,0 UV-I 0 W/m² 1,2 °C 2,1 °C 0,0 km/h (0 Bft)
21.09.2019 03:30 2,1 °C 94 % 1021,9 hPa 0,0 mm 0,0 km/h (0 Bft) S-SO 150 ° 0 min 0,000 mm 0,0 UV-I 0 W/m² 1,2 °C 2,1 °C 0,0 km/h (0 Bft)
21.09.2019 03:31 2,1 °C 94 % 1021,8 hPa 0,0 mm 0,0 km/h (0 Bft) S-SO 150 ° 0 min 0,000 mm 0,0 UV-I 0 W/m² 1,2 °C 2,1 °C 0,0 km/h (0 Bft)
21.09.2019 03:32 2,1 °C 94 % 1021,8 hPa 0,0 mm 0,0 km/h (0 Bft) S-SO 150 ° 0 min 0,000 mm 0,0 UV-I 0 W/m² 1,2 °C 2,1 °C 0,0 km/h (0 Bft)
21.09.2019 03:33 2,2 °C 94 % 1021,8 hPa 0,0 mm 0,0 km/h (0 Bft) S-SO 150 ° 0 min 0,000 mm 0,0 UV-I 0 W/m² 1,3 °C 2,2 °C 0,0 km/h (0 Bft)
21.09.2019 03:34 2,2 °C 94 % 1021,8 hPa 0,0 mm 0,0 km/h (0 Bft) S-SO 150 ° 0 min 0,000 mm 0,0 UV-I 0 W/m² 1,3 °C 2,2 °C 0,0 km/h (0 Bft)
21.09.2019 03:35 2,2 °C 94 % 1021,8 hPa 0,0 mm 0,0 km/h (0 Bft) S-SO 150 ° 0 min 0,000 mm 0,0 UV-I 0 W/m² 1,3 °C 2,2 °C 0,0 km/h (0 Bft)
21.09.2019 03:36 2,2 °C 94 % 1021,8 hPa 0,0 mm 0,0 km/h (0 Bft) S-SO 150 ° 0 min 0,000 mm 0,0 UV-I 0 W/m² 1,3 °C 2,2 °C 0,0 km/h (0 Bft)
21.09.2019 03:37 2,2 °C 94 % 1021,8 hPa 0,0 mm 0,0 km/h (0 Bft) S-SO 150 ° 0 min 0,000 mm 0,0 UV-I 0 W/m² 1,3 °C 2,2 °C 0,0 km/h (0 Bft)
21.09.2019 03:38 2,1 °C 94 % 1021,8 hPa 0,0 mm 0,0 km/h (0 Bft) S-SO 150 ° 0 min 0,000 mm 0,0 UV-I 0 W/m² 1,2 °C 2,1 °C 0,0 km/h (0 Bft)
21.09.2019 03:39 2,1 °C 94 % 1021,8 hPa 0,0 mm 0,0 km/h (0 Bft) S-SO 150 ° 0 min 0,000 mm 0,0 UV-I 0 W/m² 1,2 °C 2,1 °C 0,0 km/h (0 Bft)
21.09.2019 03:40 2,1 °C 94 % 1021,8 hPa 0,0 mm 0,0 km/h (0 Bft) S-SO 150 ° 0 min 0,000 mm 0,0 UV-I 0 W/m² 1,2 °C 2,1 °C 0,0 km/h (0 Bft)
21.09.2019 03:41 2,1 °C 94 % 1021,8 hPa 0,0 mm 0,0 km/h (0 Bft) S-SO 150 ° 0 min 0,000 mm 0,0 UV-I 0 W/m² 1,2 °C 2,1 °C 0,0 km/h (0 Bft)
21.09.2019 03:42 2,2 °C 94 % 1021,8 hPa 0,0 mm 0,0 km/h (0 Bft) S-SO 150 ° 0 min 0,000 mm 0,0 UV-I 0 W/m² 1,3 °C 2,2 °C 0,0 km/h (0 Bft)
21.09.2019 03:43 2,2 °C 94 % 1021,8 hPa 0,0 mm 0,0 km/h (0 Bft) S-SO 150 ° 0 min 0,000 mm 0,0 UV-I 0 W/m² 1,3 °C 2,2 °C 0,0 km/h (0 Bft)
21.09.2019 03:44 2,2 °C 94 % 1021,8 hPa 0,0 mm 0,0 km/h (0 Bft) S-SO 150 ° 0 min 0,000 mm 0,0 UV-I 0 W/m² 1,3 °C 2,2 °C 0,0 km/h (0 Bft)
21.09.2019 03:45 2,3 °C 94 % 1021,7 hPa 0,0 mm 0,0 km/h (0 Bft) S-SO 150 ° 0 min 0,000 mm 0,0 UV-I 0 W/m² 1,4 °C 2,3 °C 0,0 km/h (0 Bft)
21.09.2019 03:46 2,3 °C 94 % 1021,8 hPa 0,0 mm 0,0 km/h (0 Bft) S-SO 150 ° 0 min 0,000 mm 0,0 UV-I 0 W/m² 1,4 °C 2,3 °C 0,0 km/h (0 Bft)
21.09.2019 03:47 2,2 °C 94 % 1021,7 hPa 0,0 mm 0,0 km/h (0 Bft) S-SO 150 ° 0 min 0,000 mm 0,0 UV-I 0 W/m² 1,3 °C 2,2 °C 0,0 km/h (0 Bft)
21.09.2019 03:48 2,2 °C 94 % 1021,7 hPa 0,0 mm 0,0 km/h (0 Bft) S-SO 150 ° 0 min 0,000 mm 0,0 UV-I 0 W/m² 1,3 °C 2,2 °C 0,0 km/h (0 Bft)
21.09.2019 03:49 2,2 °C 94 % 1021,7 hPa 0,0 mm 0,0 km/h (0 Bft) S-SO 150 ° 0 min 0,000 mm 0,0 UV-I 0 W/m² 1,3 °C 2,2 °C 0,0 km/h (0 Bft)
21.09.2019 03:50 2,2 °C 94 % 1021,7 hPa 0,0 mm 0,0 km/h (0 Bft) S-SO 150 ° 0 min 0,000 mm 0,0 UV-I 0 W/m² 1,3 °C 2,2 °C 0,0 km/h (0 Bft)
21.09.2019 03:51 2,2 °C 94 % 1021,7 hPa 0,0 mm 0,0 km/h (0 Bft) S-SO 150 ° 0 min 0,000 mm 0,0 UV-I 0 W/m² 1,3 °C 2,2 °C 0,0 km/h (0 Bft)
21.09.2019 03:52 2,2 °C 94 % 1021,7 hPa 0,0 mm 0,0 km/h (0 Bft) S-SO 150 ° 0 min 0,000 mm 0,0 UV-I 0 W/m² 1,3 °C 2,2 °C 0,0 km/h (0 Bft)
21.09.2019 03:53 2,2 °C 94 % 1021,7 hPa 0,0 mm 0,0 km/h (0 Bft) S-SO 150 ° 0 min 0,000 mm 0,0 UV-I 0 W/m² 1,3 °C 2,2 °C 0,0 km/h (0 Bft)
21.09.2019 03:54 2,1 °C 94 % 1021,6 hPa 0,0 mm 0,0 km/h (0 Bft) S-SO 150 ° 0 min 0,000 mm 0,0 UV-I 0 W/m² 1,2 °C 2,1 °C 0,0 km/h (0 Bft)
21.09.2019 03:55 2,1 °C 94 % 1021,7 hPa 0,0 mm 0,0 km/h (0 Bft) S-SO 150 ° 0 min 0,000 mm 0,0 UV-I 0 W/m² 1,2 °C 2,1 °C 0,0 km/h (0 Bft)
21.09.2019 03:56 2,1 °C 94 % 1021,7 hPa 0,0 mm 0,0 km/h (0 Bft) S-SO 150 ° 0 min 0,000 mm 0,0 UV-I 0 W/m² 1,2 °C 2,1 °C 0,0 km/h (0 Bft)
21.09.2019 03:57 2,0 °C 94 % 1021,7 hPa 0,0 mm 0,0 km/h (0 Bft) S-SO 150 ° 0 min 0,000 mm 0,0 UV-I 0 W/m² 1,1 °C 2,0 °C 0,0 km/h (0 Bft)
21.09.2019 03:58 2,0 °C 94 % 1021,6 hPa 0,0 mm 0,0 km/h (0 Bft) S-SO 150 ° 0 min 0,000 mm 0,0 UV-I 0 W/m² 1,1 °C 2,0 °C 0,0 km/h (0 Bft)
21.09.2019 03:59 2,0 °C 94 % 1021,6 hPa 0,0 mm 0,0 km/h (0 Bft) S-SO 150 ° 0 min 0,000 mm 0,0 UV-I 0 W/m² 1,1 °C 2,0 °C 0,0 km/h (0 Bft)
21.09.2019 04:00 2,1 °C 94 % 1021,6 hPa 0,0 mm 0,0 km/h (0 Bft) S-SO 150 ° 0 min 0,000 mm 0,0 UV-I 0 W/m² 1,2 °C 2,1 °C 0,0 km/h (0 Bft)
21.09.2019 04:01 2,2 °C 94 % 1021,6 hPa 0,0 mm 1,9 km/h (1 Bft) S-SO 150 ° 0 min 0,000 mm 0,0 UV-I 0 W/m² 1,3 °C 2,2 °C 4,8 km/h (1 Bft)
21.09.2019 04:02 2,4 °C 94 % 1021,6 hPa 0,0 mm 2,5 km/h (1 Bft) S-SO 150 ° 0 min 0,000 mm 0,0 UV-I 0 W/m² 1,5 °C 2,4 °C 4,8 km/h (1 Bft)
21.09.2019 04:03 2,6 °C 95 % 1021,6 hPa 0,0 mm 0,5 km/h (0 Bft) S-SO 150 ° 0 min 0,000 mm 0,0 UV-I 0 W/m² 1,9 °C 2,6 °C 1,6 km/h (1 Bft)
21.09.2019 04:04 2,6 °C 94 % 1021,5 hPa 0,0 mm 0,5 km/h (0 Bft) S-SO 150 ° 0 min 0,000 mm 0,0 UV-I 0 W/m² 1,7 °C 2,6 °C 1,6 km/h (1 Bft)
21.09.2019 04:05 2,4 °C 94 % 1021,5 hPa 0,0 mm 0,0 km/h (0 Bft) S-SO 150 ° 0 min 0,000 mm 0,0 UV-I 0 W/m² 1,5 °C 2,4 °C 0,0 km/h (0 Bft)
21.09.2019 04:06 2,3 °C 94 % 1021,5 hPa 0,0 mm 0,0 km/h (0 Bft) S-SO 150 ° 0 min 0,000 mm 0,0 UV-I 0 W/m² 1,4 °C 2,3 °C 0,0 km/h (0 Bft)
21.09.2019 04:07 2,2 °C 94 % 1021,5 hPa 0,0 mm 0,0 km/h (0 Bft) S-SO 150 ° 0 min 0,000 mm 0,0 UV-I 0 W/m² 1,3 °C 2,2 °C 0,0 km/h (0 Bft)
21.09.2019 04:08 2,1 °C 94 % 1021,4 hPa 0,0 mm 0,0 km/h (0 Bft) S-SO 150 ° 0 min 0,000 mm 0,0 UV-I 0 W/m² 1,2 °C 2,1 °C 0,0 km/h (0 Bft)
21.09.2019 04:09 2,0 °C 94 % 1021,4 hPa 0,0 mm 0,0 km/h (0 Bft) S-SO 150 ° 0 min 0,000 mm 0,0 UV-I 0 W/m² 1,1 °C 2,0 °C 0,0 km/h (0 Bft)
21.09.2019 04:10 1,9 °C 94 % 1021,4 hPa 0,0 mm 0,0 km/h (0 Bft) S-SO 150 ° 0 min 0,000 mm 0,0 UV-I 0 W/m² 1,0 °C 1,9 °C 0,0 km/h (0 Bft)
21.09.2019 04:11 1,8 °C 94 % 1021,3 hPa 0,0 mm 0,0 km/h (0 Bft) S-SO 150 ° 0 min 0,000 mm 0,0 UV-I 0 W/m² 0,9 °C 1,8 °C 0,0 km/h (0 Bft)
21.09.2019 04:12 1,8 °C 94 % 1021,3 hPa 0,0 mm 0,0 km/h (0 Bft) S-SO 150 ° 0 min 0,000 mm 0,0 UV-I 0 W/m² 0,9 °C 1,8 °C 0,0 km/h (0 Bft)
21.09.2019 04:13 1,8 °C 94 % 1021,3 hPa 0,0 mm 0,0 km/h (0 Bft) S-SO 150 ° 0 min 0,000 mm 0,0 UV-I 0 W/m² 0,9 °C 1,8 °C 0,0 km/h (0 Bft)
21.09.2019 04:14 1,8 °C 94 % 1021,3 hPa 0,0 mm 0,0 km/h (0 Bft) S-SO 150 ° 0 min 0,000 mm 0,0 UV-I 0 W/m² 0,9 °C 1,8 °C 0,0 km/h (0 Bft)
21.09.2019 04:15 1,7 °C 94 % 1021,3 hPa 0,0 mm 0,0 km/h (0 Bft) S-SO 150 ° 0 min 0,000 mm 0,0 UV-I 0 W/m² 0,8 °C 1,7 °C 0,0 km/h (0 Bft)
21.09.2019 04:16 1,8 °C 94 % 1021,3 hPa 0,0 mm 0,0 km/h (0 Bft) S-SO 150 ° 0 min 0,000 mm 0,0 UV-I 0 W/m² 0,9 °C 1,8 °C 0,0 km/h (0 Bft)
21.09.2019 04:17 1,7 °C 94 % 1021,3 hPa 0,0 mm 0,0 km/h (0 Bft) S-SO 150 ° 0 min 0,000 mm 0,0 UV-I 0 W/m² 0,8 °C 1,7 °C 0,0 km/h (0 Bft)
21.09.2019 04:18 1,7 °C 94 % 1021,3 hPa 0,0 mm 0,0 km/h (0 Bft) S-SO 150 ° 0 min 0,000 mm 0,0 UV-I 0 W/m² 0,8 °C 1,7 °C 0,0 km/h (0 Bft)
21.09.2019 04:19 1,7 °C 94 % 1021,3 hPa 0,0 mm 0,0 km/h (0 Bft) S-SO 150 ° 0 min 0,000 mm 0,0 UV-I 0 W/m² 0,8 °C 1,7 °C 0,0 km/h (0 Bft)
21.09.2019 04:20 1,7 °C 94 % 1021,2 hPa 0,0 mm 0,0 km/h (0 Bft) S-SO 150 ° 0 min 0,000 mm 0,0 UV-I 0 W/m² 0,8 °C 1,7 °C 0,0 km/h (0 Bft)
21.09.2019 04:21 1,7 °C 94 % 1021,3 hPa 0,0 mm 0,0 km/h (0 Bft) S-SO 150 ° 0 min 0,000 mm 0,0 UV-I 0 W/m² 0,8 °C 1,7 °C 0,0 km/h (0 Bft)
21.09.2019 04:22 1,7 °C 94 % 1021,3 hPa 0,0 mm 0,0 km/h (0 Bft) S-SO 150 ° 0 min 0,000 mm 0,0 UV-I 0 W/m² 0,8 °C 1,7 °C 0,0 km/h (0 Bft)
21.09.2019 04:23 1,7 °C 94 % 1021,2 hPa 0,0 mm 0,0 km/h (0 Bft) S-SO 150 ° 0 min 0,000 mm 0,0 UV-I 0 W/m² 0,8 °C 1,7 °C 0,0 km/h (0 Bft)
21.09.2019 04:24 1,7 °C 94 % 1021,2 hPa 0,0 mm 0,0 km/h (0 Bft) S-SO 150 ° 0 min 0,000 mm 0,0 UV-I 0 W/m² 0,8 °C 1,7 °C 0,0 km/h (0 Bft)
21.09.2019 04:25 1,7 °C 94 % 1021,2 hPa 0,0 mm 0,0 km/h (0 Bft) S-SO 150 ° 0 min 0,000 mm 0,0 UV-I 0 W/m² 0,8 °C 1,7 °C 0,0 km/h (0 Bft)
21.09.2019 04:26 1,8 °C 94 % 1021,2 hPa 0,0 mm 0,0 km/h (0 Bft) S-SO 150 ° 0 min 0,000 mm 0,0 UV-I 0 W/m² 0,9 °C 1,8 °C 0,0 km/h (0 Bft)
21.09.2019 04:27 2,0 °C 94 % 1021,2 hPa 0,0 mm 0,0 km/h (0 Bft) S-SO 150 ° 0 min 0,000 mm 0,0 UV-I 0 W/m² 1,1 °C 2,0 °C 0,0 km/h (0 Bft)
21.09.2019 04:28 2,0 °C 94 % 1021,2 hPa 0,0 mm 0,0 km/h (0 Bft) S-SO 150 ° 0 min 0,000 mm 0,0 UV-I 0 W/m² 1,1 °C 2,0 °C 0,0 km/h (0 Bft)
21.09.2019 04:29 1,9 °C 94 % 1021,1 hPa 0,0 mm 0,0 km/h (0 Bft) S-SO 150 ° 0 min 0,000 mm 0,0 UV-I 0 W/m² 1,0 °C 1,9 °C 0,0 km/h (0 Bft)
21.09.2019 04:30 1,8 °C 94 % 1021,1 hPa 0,0 mm 0,0 km/h (0 Bft) S-SO 150 ° 0 min 0,000 mm 0,0 UV-I 0 W/m² 0,9 °C 1,8 °C 0,0 km/h (0 Bft)
21.09.2019 04:31 1,8 °C 94 % 1021,1 hPa 0,0 mm 0,0 km/h (0 Bft) S-SO 150 ° 0 min 0,000 mm 0,0 UV-I 0 W/m² 0,9 °C 1,8 °C 0,0 km/h (0 Bft)
21.09.2019 04:32 1,8 °C 94 % 1021,1 hPa 0,0 mm 0,0 km/h (0 Bft) S-SO 150 ° 0 min 0,000 mm 0,0 UV-I 0 W/m² 0,9 °C 1,8 °C 0,0 km/h (0 Bft)
21.09.2019 04:33 1,8 °C 94 % 1021,1 hPa 0,0 mm 0,0 km/h (0 Bft) S-SO 150 ° 0 min 0,000 mm 0,0 UV-I 0 W/m² 0,9 °C 1,8 °C 0,0 km/h (0 Bft)
21.09.2019 04:34 1,8 °C 94 % 1021,1 hPa 0,0 mm 0,0 km/h (0 Bft) S-SO 150 ° 0 min 0,000 mm 0,0 UV-I 0 W/m² 0,9 °C 1,8 °C 0,0 km/h (0 Bft)
21.09.2019 04:35 1,8 °C 94 % 1021,1 hPa 0,0 mm 0,0 km/h (0 Bft) S-SO 150 ° 0 min 0,000 mm 0,0 UV-I 0 W/m² 0,9 °C 1,8 °C 0,0 km/h (0 Bft)
21.09.2019 04:36 1,8 °C 94 % 1021,1 hPa 0,0 mm 0,0 km/h (0 Bft) S-SO 150 ° 0 min 0,000 mm 0,0 UV-I 0 W/m² 0,9 °C 1,8 °C 0,0 km/h (0 Bft)
21.09.2019 04:37 1,7 °C 94 % 1021,1 hPa 0,0 mm 0,0 km/h (0 Bft) S-SO 150 ° 0 min 0,000 mm 0,0 UV-I 0 W/m² 0,8 °C 1,7 °C 0,0 km/h (0 Bft)
21.09.2019 04:38 1,7 °C 94 % 1021,1 hPa 0,0 mm 0,0 km/h (0 Bft) S-SO 150 ° 0 min 0,000 mm 0,0 UV-I 0 W/m² 0,8 °C 1,7 °C 0,0 km/h (0 Bft)
21.09.2019 04:39 1,6 °C 94 % 1021,1 hPa 0,0 mm 0,0 km/h (0 Bft) S-SO 150 ° 0 min 0,000 mm 0,0 UV-I 0 W/m² 0,7 °C 1,6 °C 0,0 km/h (0 Bft)
21.09.2019 04:40 1,6 °C 94 % 1021,0 hPa 0,0 mm 0,0 km/h (0 Bft) S-SO 150 ° 0 min 0,000 mm 0,0 UV-I 0 W/m² 0,7 °C 1,6 °C 0,0 km/h (0 Bft)
21.09.2019 04:41 1,6 °C 94 % 1021,1 hPa 0,0 mm 0,0 km/h (0 Bft) S-SO 150 ° 0 min 0,000 mm 0,0 UV-I 0 W/m² 0,7 °C 1,6 °C 0,0 km/h (0 Bft)
21.09.2019 04:42 1,6 °C 94 % 1021,0 hPa 0,0 mm 0,0 km/h (0 Bft) S-SO 150 ° 0 min 0,000 mm 0,0 UV-I 0 W/m² 0,7 °C 1,6 °C 0,0 km/h (0 Bft)
21.09.2019 04:43 1,6 °C 94 % 1021,0 hPa 0,0 mm 0,0 km/h (0 Bft) S-SO 150 ° 0 min 0,000 mm 0,0 UV-I 0 W/m² 0,7 °C 1,6 °C 0,0 km/h (0 Bft)
21.09.2019 04:44 1,6 °C 94 % 1021,0 hPa 0,0 mm 0,0 km/h (0 Bft) S-SO 150 ° 0 min 0,000 mm 0,0 UV-I 0 W/m² 0,7 °C 1,6 °C 0,0 km/h (0 Bft)
21.09.2019 04:45 1,6 °C 94 % 1021,0 hPa 0,0 mm 0,0 km/h (0 Bft) S-SO 150 ° 0 min 0,000 mm 0,0 UV-I 0 W/m² 0,7 °C 1,6 °C 0,0 km/h (0 Bft)
21.09.2019 04:46 1,6 °C 94 % 1021,0 hPa 0,0 mm 0,0 km/h (0 Bft) S-SO 150 ° 0 min 0,000 mm 0,0 UV-I 0 W/m² 0,7 °C 1,6 °C 0,0 km/h (0 Bft)
21.09.2019 04:47 1,6 °C 94 % 1021,0 hPa 0,0 mm 0,0 km/h (0 Bft) S-SO 150 ° 0 min 0,000 mm 0,0 UV-I 0 W/m² 0,7 °C 1,6 °C 0,0 km/h (0 Bft)
21.09.2019 04:48 1,6 °C 94 % 1021,0 hPa 0,0 mm 0,0 km/h (0 Bft) S-SO 150 ° 0 min 0,000 mm 0,0 UV-I 0 W/m² 0,7 °C 1,6 °C 0,0 km/h (0 Bft)
21.09.2019 04:49 1,6 °C 94 % 1021,0 hPa 0,0 mm 0,0 km/h (0 Bft) S-SO 150 ° 0 min 0,000 mm 0,0 UV-I 0 W/m² 0,7 °C 1,6 °C 0,0 km/h (0 Bft)
21.09.2019 04:50 1,6 °C 94 % 1021,0 hPa 0,0 mm 0,0 km/h (0 Bft) S-SO 150 ° 0 min 0,000 mm 0,0 UV-I 0 W/m² 0,7 °C 1,6 °C 0,0 km/h (0 Bft)
21.09.2019 04:51 1,6 °C 94 % 1021,0 hPa 0,0 mm 0,0 km/h (0 Bft) S-SO 150 ° 0 min 0,000 mm 0,0 UV-I 0 W/m² 0,7 °C 1,6 °C 0,0 km/h (0 Bft)
21.09.2019 04:52 1,6 °C 94 % 1020,9 hPa 0,0 mm 0,0 km/h (0 Bft) S-SO 150 ° 0 min 0,000 mm 0,0 UV-I 0 W/m² 0,7 °C 1,6 °C 0,0 km/h (0 Bft)
21.09.2019 04:53 1,6 °C 94 % 1021,0 hPa 0,0 mm 0,0 km/h (0 Bft) S-SO 150 ° 0 min 0,000 mm 0,0 UV-I 0 W/m² 0,7 °C 1,6 °C 0,0 km/h (0 Bft)
21.09.2019 04:54 1,6 °C 94 % 1021,0 hPa 0,0 mm 0,0 km/h (0 Bft) S-SO 150 ° 0 min 0,000 mm 0,0 UV-I 0 W/m² 0,7 °C 1,6 °C 0,0 km/h (0 Bft)
21.09.2019 04:55 1,6 °C 94 % 1021,0 hPa 0,0 mm 0,0 km/h (0 Bft) S-SO 150 ° 0 min 0,000 mm 0,0 UV-I 0 W/m² 0,7 °C 1,6 °C 0,0 km/h (0 Bft)
21.09.2019 04:56 1,6 °C 94 % 1021,0 hPa 0,0 mm 0,0 km/h (0 Bft) S-SO 150 ° 0 min 0,000 mm 0,0 UV-I 0 W/m² 0,7 °C 1,6 °C 0,0 km/h (0 Bft)
21.09.2019 04:57 1,6 °C 94 % 1021,0 hPa 0,0 mm 0,0 km/h (0 Bft) S-SO 150 ° 0 min 0,000 mm 0,0 UV-I 0 W/m² 0,7 °C 1,6 °C 0,0 km/h (0 Bft)
21.09.2019 04:58 1,6 °C 94 % 1021,0 hPa 0,0 mm 0,0 km/h (0 Bft) S-SO 150 ° 0 min 0,000 mm 0,0 UV-I 0 W/m² 0,7 °C 1,6 °C 0,0 km/h (0 Bft)
21.09.2019 04:59 1,6 °C 94 % 1020,9 hPa 0,0 mm 0,0 km/h (0 Bft) S-SO 150 ° 0 min 0,000 mm 0,0 UV-I 0 W/m² 0,7 °C 1,6 °C 0,0 km/h (0 Bft)
21.09.2019 05:00 1,7 °C 94 % 1020,9 hPa 0,0 mm 0,0 km/h (0 Bft) S-SO 150 ° 0 min 0,000 mm 0,0 UV-I 0 W/m² 0,8 °C 1,7 °C 0,0 km/h (0 Bft)
21.09.2019 05:01 1,7 °C 94 % 1020,9 hPa 0,0 mm 0,0 km/h (0 Bft) S-SO 150 ° 0 min 0,000 mm 0,0 UV-I 0 W/m² 0,8 °C 1,7 °C 0,0 km/h (0 Bft)
21.09.2019 05:02 1,7 °C 94 % 1020,9 hPa 0,0 mm 0,0 km/h (0 Bft) S-SO 150 ° 0 min 0,000 mm 0,0 UV-I 0 W/m² 0,8 °C 1,7 °C 0,0 km/h (0 Bft)
21.09.2019 05:03 1,7 °C 94 % 1020,9 hPa 0,0 mm 0,0 km/h (0 Bft) S-SO 150 ° 0 min 0,000 mm 0,0 UV-I 0 W/m² 0,8 °C 1,7 °C 0,0 km/h (0 Bft)
21.09.2019 05:04 1,7 °C 94 % 1020,9 hPa 0,0 mm 0,0 km/h (0 Bft) S-SO 150 ° 0 min 0,000 mm 0,0 UV-I 0 W/m² 0,8 °C 1,7 °C 0,0 km/h (0 Bft)
21.09.2019 05:05 1,7 °C 94 % 1020,9 hPa 0,0 mm 0,0 km/h (0 Bft) S-SO 150 ° 0 min 0,000 mm 0,0 UV-I 0 W/m² 0,8 °C 1,7 °C 0,0 km/h (0 Bft)
21.09.2019 05:06 1,7 °C 94 % 1020,9 hPa 0,0 mm 0,0 km/h (0 Bft) S-SO 150 ° 0 min 0,000 mm 0,0 UV-I 0 W/m² 0,8 °C 1,7 °C 0,0 km/h (0 Bft)
21.09.2019 05:07 1,7 °C 94 % 1020,9 hPa 0,0 mm 0,0 km/h (0 Bft) S-SO 150 ° 0 min 0,000 mm 0,0 UV-I 0 W/m² 0,8 °C 1,7 °C 0,0 km/h (0 Bft)
21.09.2019 05:08 1,7 °C 94 % 1020,9 hPa 0,0 mm 0,0 km/h (0 Bft) S-SO 150 ° 0 min 0,000 mm 0,0 UV-I 0 W/m² 0,8 °C 1,7 °C 0,0 km/h (0 Bft)
21.09.2019 05:09 1,7 °C 94 % 1020,9 hPa 0,0 mm 0,0 km/h (0 Bft) S-SO 150 ° 0 min 0,000 mm 0,0 UV-I 0 W/m² 0,8 °C 1,7 °C 0,0 km/h (0 Bft)
21.09.2019 05:10 1,7 °C 94 % 1020,9 hPa 0,0 mm 0,0 km/h (0 Bft) S-SO 150 ° 0 min 0,000 mm 0,0 UV-I 0 W/m² 0,8 °C 1,7 °C 0,0 km/h (0 Bft)
21.09.2019 05:11 1,7 °C 94 % 1020,9 hPa 0,0 mm 0,0 km/h (0 Bft) S-SO 150 ° 0 min 0,000 mm 0,0 UV-I 0 W/m² 0,8 °C 1,7 °C 0,0 km/h (0 Bft)
21.09.2019 05:12 1,8 °C 94 % 1020,9 hPa 0,0 mm 0,0 km/h (0 Bft) S-SO 150 ° 0 min 0,000 mm 0,0 UV-I 0 W/m² 0,9 °C 1,8 °C 0,0 km/h (0 Bft)
21.09.2019 05:13 1,8 °C 94 % 1020,8 hPa 0,0 mm 0,0 km/h (0 Bft) S-SO 150 ° 0 min 0,000 mm 0,0 UV-I 0 W/m² 0,9 °C 1,8 °C 0,0 km/h (0 Bft)
21.09.2019 05:14 1,8 °C 94 % 1020,9 hPa 0,0 mm 0,0 km/h (0 Bft) S-SO 150 ° 0 min 0,000 mm 0,0 UV-I 0 W/m² 0,9 °C 1,8 °C 0,0 km/h (0 Bft)
21.09.2019 05:15 1,7 °C 94 % 1020,9 hPa 0,0 mm 0,0 km/h (0 Bft) S-SO 150 ° 0 min 0,000 mm 0,0 UV-I 0 W/m² 0,8 °C 1,7 °C 0,0 km/h (0 Bft)
21.09.2019 05:16 1,6 °C 94 % 1020,9 hPa 0,0 mm 0,0 km/h (0 Bft) S-SO 150 ° 0 min 0,000 mm 0,0 UV-I 0 W/m² 0,7 °C 1,6 °C 0,0 km/h (0 Bft)
21.09.2019 05:17 1,6 °C 94 % 1020,8 hPa 0,0 mm 0,0 km/h (0 Bft) S-SO 150 ° 0 min 0,000 mm 0,0 UV-I 0 W/m² 0,7 °C 1,6 °C 0,0 km/h (0 Bft)
21.09.2019 05:18 1,5 °C 94 % 1020,8 hPa 0,0 mm 0,0 km/h (0 Bft) S-SO 150 ° 0 min 0,000 mm 0,0 UV-I 0 W/m² 0,6 °C 1,5 °C 0,0 km/h (0 Bft)
21.09.2019 05:19 1,6 °C 94 % 1020,8 hPa 0,0 mm 0,0 km/h (0 Bft) S-SO 150 ° 0 min 0,000 mm 0,0 UV-I 0 W/m² 0,7 °C 1,6 °C 0,0 km/h (0 Bft)
21.09.2019 05:20 1,6 °C 94 % 1020,9 hPa 0,0 mm 0,0 km/h (0 Bft) S-SO 150 ° 0 min 0,000 mm 0,0 UV-I 0 W/m² 0,7 °C 1,6 °C 0,0 km/h (0 Bft)
21.09.2019 05:21 1,6 °C 94 % 1020,9 hPa 0,0 mm 0,0 km/h (0 Bft) S-SO 150 ° 0 min 0,000 mm 0,0 UV-I 0 W/m² 0,7 °C 1,6 °C 0,0 km/h (0 Bft)
21.09.2019 05:22 1,6 °C 94 % 1020,9 hPa 0,0 mm 0,0 km/h (0 Bft) S-SO 150 ° 0 min 0,000 mm 0,0 UV-I 0 W/m² 0,7 °C 1,6 °C 0,0 km/h (0 Bft)
21.09.2019 05:23 1,5 °C 94 % 1020,8 hPa 0,0 mm 0,0 km/h (0 Bft) S-SO 150 ° 0 min 0,000 mm 0,0 UV-I 0 W/m² 0,6 °C 1,5 °C 0,0 km/h (0 Bft)
21.09.2019 05:24 1,5 °C 94 % 1020,9 hPa 0,0 mm 0,0 km/h (0 Bft) S-SO 150 ° 0 min 0,000 mm 0,0 UV-I 0 W/m² 0,6 °C 1,5 °C 0,0 km/h (0 Bft)
21.09.2019 05:25 1,6 °C 94 % 1020,8 hPa 0,0 mm 0,0 km/h (0 Bft) S-SO 150 ° 0 min 0,000 mm 0,0 UV-I 0 W/m² 0,7 °C 1,6 °C 0,0 km/h (0 Bft)
21.09.2019 05:26 1,6 °C 94 % 1020,9 hPa 0,0 mm 0,0 km/h (0 Bft) S-SO 150 ° 0 min 0,000 mm 0,0 UV-I 0 W/m² 0,7 °C 1,6 °C 0,0 km/h (0 Bft)
21.09.2019 05:27 1,6 °C 94 % 1020,9 hPa 0,0 mm 0,0 km/h (0 Bft) S-SO 150 ° 0 min 0,000 mm 0,0 UV-I 0 W/m² 0,7 °C 1,6 °C 0,0 km/h (0 Bft)
21.09.2019 05:28 1,6 °C 94 % 1020,8 hPa 0,0 mm 0,0 km/h (0 Bft) S-SO 150 ° 0 min 0,000 mm 0,0 UV-I 0 W/m² 0,7 °C 1,6 °C 0,0 km/h (0 Bft)
21.09.2019 05:29 1,6 °C 94 % 1020,8 hPa 0,0 mm 0,0 km/h (0 Bft) S-SO 150 ° 0 min 0,000 mm 0,0 UV-I 0 W/m² 0,7 °C 1,6 °C 0,0 km/h (0 Bft)
21.09.2019 05:30 1,6 °C 94 % 1020,9 hPa 0,0 mm 0,0 km/h (0 Bft) S-SO 150 ° 0 min 0,000 mm 0,0 UV-I 0 W/m² 0,7 °C 1,6 °C 0,0 km/h (0 Bft)
21.09.2019 05:31 1,6 °C 94 % 1020,7 hPa 0,0 mm 0,0 km/h (0 Bft) S-SO 150 ° 0 min 0,000 mm 0,0 UV-I 0 W/m² 0,7 °C 1,6 °C 0,0 km/h (0 Bft)
21.09.2019 05:32 1,7 °C 94 % 1020,7 hPa 0,0 mm 0,0 km/h (0 Bft) S-SO 150 ° 0 min 0,000 mm 0,0 UV-I 0 W/m² 0,8 °C 1,7 °C 0,0 km/h (0 Bft)
21.09.2019 05:33 1,7 °C 94 % 1020,7 hPa 0,0 mm 0,0 km/h (0 Bft) S-SO 150 ° 0 min 0,000 mm 0,0 UV-I 0 W/m² 0,8 °C 1,7 °C 0,0 km/h (0 Bft)
21.09.2019 05:34 1,7 °C 94 % 1020,7 hPa 0,0 mm 0,0 km/h (0 Bft) S-SO 150 ° 0 min 0,000 mm 0,0 UV-I 0 W/m² 0,8 °C 1,7 °C 0,0 km/h (0 Bft)
21.09.2019 05:35 1,7 °C 94 % 1020,7 hPa 0,0 mm 0,0 km/h (0 Bft) S-SO 150 ° 0 min 0,000 mm 0,0 UV-I 0 W/m² 0,8 °C 1,7 °C 0,0 km/h (0 Bft)
21.09.2019 05:36 1,7 °C 94 % 1020,7 hPa 0,0 mm 0,0 km/h (0 Bft) S-SO 150 ° 0 min 0,000 mm 0,0 UV-I 0 W/m² 0,8 °C 1,7 °C 0,0 km/h (0 Bft)
21.09.2019 05:37 1,7 °C 94 % 1020,7 hPa 0,0 mm 0,0 km/h (0 Bft) S-SO 150 ° 0 min 0,000 mm 0,0 UV-I 0 W/m² 0,8 °C 1,7 °C 0,0 km/h (0 Bft)
21.09.2019 05:38 1,8 °C 94 % 1020,7 hPa 0,0 mm 0,0 km/h (0 Bft) S-SO 150 ° 0 min 0,000 mm 0,0 UV-I 0 W/m² 0,9 °C 1,8 °C 0,0 km/h (0 Bft)
21.09.2019 05:39 1,8 °C 94 % 1020,8 hPa 0,0 mm 0,0 km/h (0 Bft) S-SO 150 ° 0 min 0,000 mm 0,0 UV-I 0 W/m² 0,9 °C 1,8 °C 0,0 km/h (0 Bft)
21.09.2019 05:40 1,8 °C 94 % 1020,7 hPa 0,0 mm 0,0 km/h (0 Bft) S-SO 150 ° 0 min 0,000 mm 0,0 UV-I 0 W/m² 0,9 °C 1,8 °C 0,0 km/h (0 Bft)
21.09.2019 05:41 1,8 °C 94 % 1020,7 hPa 0,0 mm 0,0 km/h (0 Bft) S-SO 150 ° 0 min 0,000 mm 0,0 UV-I 0 W/m² 0,9 °C 1,8 °C 0,0 km/h (0 Bft)
21.09.2019 05:42 1,7 °C 94 % 1020,7 hPa 0,0 mm 0,0 km/h (0 Bft) S-SO 150 ° 0 min 0,000 mm 0,0 UV-I 0 W/m² 0,8 °C 1,7 °C 0,0 km/h (0 Bft)
21.09.2019 05:43 1,6 °C 94 % 1020,7 hPa 0,0 mm 0,0 km/h (0 Bft) S-SO 150 ° 0 min 0,000 mm 0,0 UV-I 0 W/m² 0,7 °C 1,6 °C 0,0 km/h (0 Bft)
21.09.2019 05:44 1,5 °C 94 % 1020,7 hPa 0,0 mm 0,0 km/h (0 Bft) S-SO 150 ° 0 min 0,000 mm 0,0 UV-I 0 W/m² 0,6 °C 1,5 °C 0,0 km/h (0 Bft)
21.09.2019 05:45 1,4 °C 94 % 1020,7 hPa 0,0 mm 0,0 km/h (0 Bft) S-SO 150 ° 0 min 0,000 mm 0,0 UV-I 0 W/m² 0,5 °C 1,4 °C 0,0 km/h (0 Bft)
21.09.2019 05:46 1,4 °C 94 % 1020,7 hPa 0,0 mm 0,0 km/h (0 Bft) S-SO 150 ° 0 min 0,000 mm 0,0 UV-I 0 W/m² 0,5 °C 1,4 °C 0,0 km/h (0 Bft)
21.09.2019 05:47 1,4 °C 94 % 1020,7 hPa 0,0 mm 0,0 km/h (0 Bft) S-SO 150 ° 0 min 0,000 mm 0,0 UV-I 0 W/m² 0,5 °C 1,4 °C 0,0 km/h (0 Bft)
21.09.2019 05:48 1,4 °C 94 % 1020,7 hPa 0,0 mm 0,0 km/h (0 Bft) S-SO 150 ° 0 min 0,000 mm 0,0 UV-I 0 W/m² 0,5 °C 1,4 °C 0,0 km/h (0 Bft)
21.09.2019 05:49 1,4 °C 94 % 1020,7 hPa 0,0 mm 0,0 km/h (0 Bft) S-SO 150 ° 0 min 0,000 mm 0,0 UV-I 0 W/m² 0,5 °C 1,4 °C 0,0 km/h (0 Bft)
21.09.2019 05:50 1,4 °C 94 % 1020,7 hPa 0,0 mm 0,0 km/h (0 Bft) S-SO 150 ° 0 min 0,000 mm 0,0 UV-I 0 W/m² 0,5 °C 1,4 °C 0,0 km/h (0 Bft)
21.09.2019 05:51 1,4 °C 94 % 1020,7 hPa 0,0 mm 0,0 km/h (0 Bft) S-SO 150 ° 0 min 0,000 mm 0,0 UV-I 0 W/m² 0,5 °C 1,4 °C 0,0 km/h (0 Bft)
21.09.2019 05:52 1,4 °C 94 % 1020,7 hPa 0,0 mm 0,0 km/h (0 Bft) S-SO 150 ° 0 min 0,000 mm 0,0 UV-I 0 W/m² 0,5 °C 1,4 °C 0,0 km/h (0 Bft)
21.09.2019 05:53 1,4 °C 94 % 1020,7 hPa 0,0 mm 0,0 km/h (0 Bft) S-SO 150 ° 0 min 0,000 mm 0,0 UV-I 0 W/m² 0,5 °C 1,4 °C 0,0 km/h (0 Bft)
21.09.2019 05:54 1,5 °C 94 % 1020,8 hPa 0,0 mm 0,0 km/h (0 Bft) S-SO 150 ° 0 min 0,000 mm 0,0 UV-I 0 W/m² 0,6 °C 1,5 °C 0,0 km/h (0 Bft)
21.09.2019 05:55 1,5 °C 94 % 1020,8 hPa 0,0 mm 0,0 km/h (0 Bft) S-SO 150 ° 0 min 0,000 mm 0,0 UV-I 0 W/m² 0,6 °C 1,5 °C 0,0 km/h (0 Bft)
21.09.2019 05:56 1,4 °C 94 % 1020,7 hPa 0,0 mm 0,0 km/h (0 Bft) S-SO 150 ° 0 min 0,000 mm 0,0 UV-I 0 W/m² 0,5 °C 1,4 °C 0,0 km/h (0 Bft)
21.09.2019 05:57 1,4 °C 94 % 1020,7 hPa 0,0 mm 0,0 km/h (0 Bft) S-SO 150 ° 0 min 0,000 mm 0,0 UV-I 0 W/m² 0,5 °C 1,4 °C 0,0 km/h (0 Bft)
21.09.2019 05:58 1,4 °C 94 % 1020,8 hPa 0,0 mm 0,0 km/h (0 Bft) S-SO 150 ° 0 min 0,000 mm 0,0 UV-I 0 W/m² 0,5 °C 1,4 °C 0,0 km/h (0 Bft)
21.09.2019 05:59 1,3 °C 94 % 1020,8 hPa 0,0 mm 0,0 km/h (0 Bft) S-SO 150 ° 0 min 0,000 mm 0,0 UV-I 0 W/m² 0,4 °C 1,3 °C 0,0 km/h (0 Bft)
21.09.2019 06:00 1,3 °C 94 % 1020,8 hPa 0,0 mm 0,0 km/h (0 Bft) S-SO 150 ° 0 min 0,000 mm 0,0 UV-I 0 W/m² 0,4 °C 1,3 °C 0,0 km/h (0 Bft)
21.09.2019 06:01 1,3 °C 94 % 1020,9 hPa 0,0 mm 0,0 km/h (0 Bft) S-SO 150 ° 0 min 0,000 mm 0,0 UV-I 0 W/m² 0,4 °C 1,3 °C 0,0 km/h (0 Bft)
21.09.2019 06:02 1,3 °C 94 % 1020,9 hPa 0,0 mm 0,0 km/h (0 Bft) S-SO 150 ° 0 min 0,000 mm 0,0 UV-I 0 W/m² 0,4 °C 1,3 °C 0,0 km/h (0 Bft)
21.09.2019 06:03 1,4 °C 94 % 1020,9 hPa 0,0 mm 0,0 km/h (0 Bft) S-SO 150 ° 0 min 0,000 mm 0,0 UV-I 0 W/m² 0,5 °C 1,4 °C 0,0 km/h (0 Bft)
21.09.2019 06:04 1,6 °C 94 % 1020,9 hPa 0,0 mm 0,0 km/h (0 Bft) S-SO 150 ° 0 min 0,000 mm 0,0 UV-I 0 W/m² 0,7 °C 1,6 °C 0,0 km/h (0 Bft)
21.09.2019 06:05 1,6 °C 94 % 1020,9 hPa 0,0 mm 0,0 km/h (0 Bft) S-SO 150 ° 0 min 0,000 mm 0,0 UV-I 0 W/m² 0,7 °C 1,6 °C 0,0 km/h (0 Bft)
21.09.2019 06:06 1,7 °C 94 % 1020,9 hPa 0,0 mm 0,0 km/h (0 Bft) S-SO 150 ° 0 min 0,000 mm 0,0 UV-I 0 W/m² 0,8 °C 1,7 °C 0,0 km/h (0 Bft)
21.09.2019 06:07 1,7 °C 94 % 1020,9 hPa 0,0 mm 0,0 km/h (0 Bft) S-SO 150 ° 0 min 0,000 mm 0,0 UV-I 0 W/m² 0,8 °C 1,7 °C 0,0 km/h (0 Bft)
21.09.2019 06:08 1,8 °C 94 % 1020,9 hPa 0,0 mm 0,0 km/h (0 Bft) S-SO 150 ° 0 min 0,000 mm 0,0 UV-I 0 W/m² 0,9 °C 1,8 °C 0,0 km/h (0 Bft)
21.09.2019 06:09 1,9 °C 95 % 1020,9 hPa 0,0 mm 0,0 km/h (0 Bft) S-SO 150 ° 0 min 0,000 mm 0,0 UV-I 0 W/m² 1,2 °C 1,9 °C 0,0 km/h (0 Bft)
21.09.2019 06:10 2,2 °C 95 % 1020,9 hPa 0,0 mm 0,0 km/h (0 Bft) S-SO 150 ° 0 min 0,000 mm 0,0 UV-I 0 W/m² 1,5 °C 2,2 °C 0,0 km/h (0 Bft)
21.09.2019 06:11 2,2 °C 95 % 1020,9 hPa 0,0 mm 0,0 km/h (0 Bft) S-SO 150 ° 0 min 0,000 mm 0,0 UV-I 0 W/m² 1,5 °C 2,2 °C 0,0 km/h (0 Bft)
21.09.2019 06:12 2,3 °C 95 % 1020,9 hPa 0,0 mm 0,0 km/h (0 Bft) S-SO 150 ° 0 min 0,000 mm 0,0 UV-I 0 W/m² 1,6 °C 2,3 °C 0,0 km/h (0 Bft)
21.09.2019 06:13 2,5 °C 95 % 1020,9 hPa 0,0 mm 0,9 km/h (0 Bft) S-SO 150 ° 0 min 0,000 mm 0,0 UV-I 0 W/m² 1,8 °C 2,5 °C 3,2 km/h (1 Bft)
21.09.2019 06:14 2,5 °C 95 % 1020,9 hPa 0,0 mm 2,0 km/h (1 Bft) S-SO 150 ° 0 min 0,000 mm 0,0 UV-I 0 W/m² 1,8 °C 2,5 °C 3,2 km/h (1 Bft)
21.09.2019 06:15 2,4 °C 95 % 1020,9 hPa 0,0 mm 0,4 km/h (0 Bft) S-SO 150 ° 0 min 0,000 mm 0,0 UV-I 0 W/m² 1,7 °C 2,4 °C 3,2 km/h (1 Bft)
21.09.2019 06:16 2,3 °C 94 % 1020,9 hPa 0,0 mm 0,1 km/h (0 Bft) S-SO 150 ° 0 min 0,000 mm 0,0 UV-I 0 W/m² 1,4 °C 2,3 °C 1,6 km/h (1 Bft)
21.09.2019 06:17 2,1 °C 94 % 1020,9 hPa 0,0 mm 0,7 km/h (0 Bft) S-SO 150 ° 0 min 0,000 mm 0,0 UV-I 0 W/m² 1,2 °C 2,1 °C 1,6 km/h (1 Bft)
21.09.2019 06:18 1,9 °C 94 % 1020,9 hPa 0,0 mm 0,0 km/h (0 Bft) S-SO 150 ° 0 min 0,000 mm 0,0 UV-I 0 W/m² 1,0 °C 1,9 °C 0,0 km/h (0 Bft)
21.09.2019 06:19 1,8 °C 94 % 1020,9 hPa 0,0 mm 0,0 km/h (0 Bft) S-SO 150 ° 0 min 0,000 mm 0,0 UV-I 0 W/m² 0,9 °C 1,8 °C 0,0 km/h (0 Bft)
21.09.2019 06:20 1,7 °C 94 % 1020,9 hPa 0,0 mm 0,0 km/h (0 Bft) S-SO 150 ° 0 min 0,000 mm 0,0 UV-I 0 W/m² 0,8 °C 1,7 °C 0,0 km/h (0 Bft)
21.09.2019 06:21 1,6 °C 94 % 1021,0 hPa 0,0 mm 0,0 km/h (0 Bft) S-SO 150 ° 0 min 0,000 mm 0,0 UV-I 0 W/m² 0,7 °C 1,6 °C 0,0 km/h (0 Bft)
21.09.2019 06:22 1,4 °C 94 % 1021,0 hPa 0,0 mm 0,0 km/h (0 Bft) S-SO 150 ° 0 min 0,000 mm 0,0 UV-I 0 W/m² 0,5 °C 1,4 °C 0,0 km/h (0 Bft)
21.09.2019 06:23 1,3 °C 94 % 1021,0 hPa 0,0 mm 0,0 km/h (0 Bft) S-SO 150 ° 0 min 0,000 mm 0,0 UV-I 0 W/m² 0,4 °C 1,3 °C 0,0 km/h (0 Bft)
21.09.2019 06:24 1,2 °C 94 % 1021,0 hPa 0,0 mm 0,0 km/h (0 Bft) S-SO 150 ° 0 min 0,000 mm 0,0 UV-I 0 W/m² 0,3 °C 1,2 °C 0,0 km/h (0 Bft)
21.09.2019 06:25 1,2 °C 94 % 1021,0 hPa 0,0 mm 0,0 km/h (0 Bft) S-SO 150 ° 0 min 0,000 mm 0,0 UV-I 0 W/m² 0,3 °C 1,2 °C 0,0 km/h (0 Bft)
21.09.2019 06:26 1,1 °C 94 % 1021,0 hPa 0,0 mm 0,0 km/h (0 Bft) S-SO 150 ° 0 min 0,000 mm 0,0 UV-I 0 W/m² 0,2 °C 1,1 °C 0,0 km/h (0 Bft)
21.09.2019 06:27 1,1 °C 94 % 1021,0 hPa 0,0 mm 0,0 km/h (0 Bft) S-SO 150 ° 0 min 0,000 mm 0,0 UV-I 0 W/m² 0,2 °C 1,1 °C 0,0 km/h (0 Bft)
21.09.2019 06:28 1,1 °C 94 % 1021,0 hPa 0,0 mm 0,0 km/h (0 Bft) S-SO 150 ° 0 min 0,000 mm 0,0 UV-I 0 W/m² 0,2 °C 1,1 °C 0,0 km/h (0 Bft)
21.09.2019 06:29 1,0 °C 94 % 1021,0 hPa 0,0 mm 0,0 km/h (0 Bft) S-SO 150 ° 0 min 0,000 mm 0,0 UV-I 0 W/m² 0,1 °C 1,0 °C 0,0 km/h (0 Bft)
21.09.2019 06:30 0,9 °C 94 % 1021,0 hPa 0,0 mm 0,0 km/h (0 Bft) S-SO 150 ° 0 min 0,000 mm 0,0 UV-I 0 W/m² 0,0 °C 0,9 °C 0,0 km/h (0 Bft)
21.09.2019 06:31 0,9 °C 94 % 1021,0 hPa 0,0 mm 0,0 km/h (0 Bft) S-SO 150 ° 0 min 0,000 mm 0,0 UV-I 0 W/m² 0,0 °C 0,9 °C 0,0 km/h (0 Bft)
21.09.2019 06:32 0,8 °C 94 % 1021,0 hPa 0,0 mm 0,0 km/h (0 Bft) S-SO 150 ° 0 min 0,000 mm 0,0 UV-I 0 W/m² -0,1 °C 0,8 °C 0,0 km/h (0 Bft)
21.09.2019 06:33 0,9 °C 94 % 1021,0 hPa 0,0 mm 0,0 km/h (0 Bft) S-SO 150 ° 0 min 0,000 mm 0,0 UV-I 0 W/m² 0,0 °C 0,9 °C 0,0 km/h (0 Bft)
21.09.2019 06:34 0,9 °C 94 % 1021,0 hPa 0,0 mm 0,0 km/h (0 Bft) S-SO 150 ° 0 min 0,000 mm 0,0 UV-I 0 W/m² 0,0 °C 0,9 °C 0,0 km/h (0 Bft)
21.09.2019 06:35 0,9 °C 94 % 1021,0 hPa 0,0 mm 1,4 km/h (1 Bft) S-SO 150 ° 0 min 0,000 mm 0,0 UV-I 0 W/m² 0,0 °C 0,9 °C 3,2 km/h (1 Bft)
21.09.2019 06:36 0,9 °C 94 % 1020,9 hPa 0,0 mm 0,5 km/h (0 Bft) S-SO 150 ° 0 min 0,000 mm 0,0 UV-I 0 W/m² 0,0 °C 0,9 °C 1,6 km/h (1 Bft)
21.09.2019 06:37 0,9 °C 94 % 1020,9 hPa 0,0 mm 0,0 km/h (0 Bft) S-SO 150 ° 0 min 0,000 mm 0,0 UV-I 0 W/m² 0,0 °C 0,9 °C 0,0 km/h (0 Bft)
21.09.2019 06:38 1,0 °C 94 % 1020,9 hPa 0,0 mm 0,0 km/h (0 Bft) S-SO 150 ° 0 min 0,000 mm 0,0 UV-I 0 W/m² 0,1 °C 1,0 °C 0,0 km/h (0 Bft)
21.09.2019 06:39 1,0 °C 94 % 1020,9 hPa 0,0 mm 0,0 km/h (0 Bft) S-SO 150 ° 0 min 0,000 mm 0,0 UV-I 0 W/m² 0,1 °C 1,0 °C 0,0 km/h (0 Bft)
21.09.2019 06:40 1,0 °C 94 % 1021,0 hPa 0,0 mm 0,0 km/h (0 Bft) S-SO 150 ° 0 min 0,000 mm 0,0 UV-I 0 W/m² 0,1 °C 1,0 °C 0,0 km/h (0 Bft)
21.09.2019 06:41 1,0 °C 94 % 1020,9 hPa 0,0 mm 0,0 km/h (0 Bft) S-SO 150 ° 0 min 0,000 mm 0,0 UV-I 0 W/m² 0,1 °C 1,0 °C 0,0 km/h (0 Bft)
21.09.2019 06:42 1,0 °C 94 % 1020,9 hPa 0,0 mm 0,0 km/h (0 Bft) S-SO 150 ° 0 min 0,000 mm 0,0 UV-I 0 W/m² 0,1 °C 1,0 °C 0,0 km/h (0 Bft)
21.09.2019 06:43 1,0 °C 94 % 1021,0 hPa 0,0 mm 0,0 km/h (0 Bft) S-SO 150 ° 0 min 0,000 mm 0,0 UV-I 0 W/m² 0,1 °C 1,0 °C 0,0 km/h (0 Bft)
21.09.2019 06:44 1,1 °C 94 % 1021,0 hPa 0,0 mm 0,0 km/h (0 Bft) S-SO 150 ° 0 min 0,000 mm 0,0 UV-I 0 W/m² 0,2 °C 1,1 °C 0,0 km/h (0 Bft)
21.09.2019 06:45 1,1 °C 94 % 1021,0 hPa 0,0 mm 0,0 km/h (0 Bft) S-SO 150 ° 0 min 0,000 mm 0,0 UV-I 0 W/m² 0,2 °C 1,1 °C 0,0 km/h (0 Bft)
21.09.2019 06:46 1,1 °C 94 % 1021,0 hPa 0,0 mm 0,0 km/h (0 Bft) S-SO 150 ° 0 min 0,000 mm 0,0 UV-I 0 W/m² 0,2 °C 1,1 °C 0,0 km/h (0 Bft)
21.09.2019 06:47 1,1 °C 94 % 1021,0 hPa 0,0 mm 0,0 km/h (0 Bft) S-SO 150 ° 0 min 0,000 mm 0,0 UV-I 0 W/m² 0,2 °C 1,1 °C 0,0 km/h (0 Bft)
21.09.2019 06:48 1,1 °C 94 % 1021,0 hPa 0,0 mm 0,0 km/h (0 Bft) S-SO 150 ° 0 min 0,000 mm 0,0 UV-I 0 W/m² 0,2 °C 1,1 °C 0,0 km/h (0 Bft)
21.09.2019 06:49 1,2 °C 94 % 1021,0 hPa 0,0 mm 0,0 km/h (0 Bft) S-SO 150 ° 0 min 0,000 mm 0,0 UV-I 0 W/m² 0,3 °C 1,2 °C 0,0 km/h (0 Bft)
21.09.2019 06:50 1,2 °C 94 % 1021,0 hPa 0,0 mm 0,0 km/h (0 Bft) S-SO 150 ° 0 min 0,000 mm 0,0 UV-I 0 W/m² 0,3 °C 1,2 °C 0,0 km/h (0 Bft)
21.09.2019 06:51 1,2 °C 94 % 1021,0 hPa 0,0 mm 0,0 km/h (0 Bft) S-SO 150 ° 0 min 0,000 mm 0,0 UV-I 0 W/m² 0,3 °C 1,2 °C 0,0 km/h (0 Bft)
21.09.2019 06:52 1,3 °C 94 % 1021,1 hPa 0,0 mm 0,0 km/h (0 Bft) S-SO 150 ° 0 min 0,000 mm 0,0 UV-I 0 W/m² 0,4 °C 1,3 °C 0,0 km/h (0 Bft)
21.09.2019 06:53 1,3 °C 94 % 1021,1 hPa 0,0 mm 0,0 km/h (0 Bft) S-SO 150 ° 0 min 0,000 mm 0,0 UV-I 0 W/m² 0,4 °C 1,3 °C 0,0 km/h (0 Bft)
21.09.2019 06:54 1,4 °C 94 % 1021,0 hPa 0,0 mm 0,0 km/h (0 Bft) S-SO 150 ° 0 min 0,000 mm 0,0 UV-I 0 W/m² 0,5 °C 1,4 °C 0,0 km/h (0 Bft)
21.09.2019 06:55 1,4 °C 94 % 1021,1 hPa 0,0 mm 0,0 km/h (0 Bft) S-SO 150 ° 0 min 0,000 mm 0,0 UV-I 0 W/m² 0,5 °C 1,4 °C 0,0 km/h (0 Bft)
21.09.2019 06:56 1,4 °C 94 % 1021,1 hPa 0,0 mm 0,0 km/h (0 Bft) S-SO 150 ° 0 min 0,000 mm 0,0 UV-I 0 W/m² 0,5 °C 1,4 °C 0,0 km/h (0 Bft)
21.09.2019 06:57 1,3 °C 94 % 1021,1 hPa 0,0 mm 0,0 km/h (0 Bft) S-SO 150 ° 0 min 0,000 mm 0,0 UV-I 0 W/m² 0,4 °C 1,3 °C 0,0 km/h (0 Bft)
21.09.2019 06:58 1,3 °C 94 % 1021,1 hPa 0,0 mm 0,0 km/h (0 Bft) S-SO 150 ° 0 min 0,000 mm 0,0 UV-I 0 W/m² 0,4 °C 1,3 °C 0,0 km/h (0 Bft)
21.09.2019 06:59 1,3 °C 94 % 1021,1 hPa 0,0 mm 0,0 km/h (0 Bft) S-SO 150 ° 0 min 0,000 mm 0,0 UV-I 0 W/m² 0,4 °C 1,3 °C 0,0 km/h (0 Bft)
21.09.2019 07:00 1,3 °C 94 % 1021,1 hPa 0,0 mm 0,0 km/h (0 Bft) S-SO 150 ° 0 min 0,000 mm 0,0 UV-I 0 W/m² 0,4 °C 1,3 °C 0,0 km/h (0 Bft)
21.09.2019 07:01 1,4 °C 94 % 1021,0 hPa 0,0 mm 0,0 km/h (0 Bft) S-SO 150 ° 0 min 0,000 mm 0,0 UV-I 0 W/m² 0,5 °C 1,4 °C 0,0 km/h (0 Bft)
21.09.2019 07:02 1,4 °C 94 % 1021,1 hPa 0,0 mm 0,0 km/h (0 Bft) S-SO 150 ° 0 min 0,000 mm 0,0 UV-I 5 W/m² 0,5 °C 1,4 °C 0,0 km/h (0 Bft)
21.09.2019 07:03 1,4 °C 94 % 1021,0 hPa 0,0 mm 0,0 km/h (0 Bft) S-SO 150 ° 0 min 0,000 mm 0,0 UV-I 5 W/m² 0,5 °C 1,4 °C 0,0 km/h (0 Bft)
21.09.2019 07:04 1,5 °C 94 % 1021,0 hPa 0,0 mm 0,0 km/h (0 Bft) S-SO 150 ° 0 min 0,000 mm 0,0 UV-I 5 W/m² 0,6 °C 1,5 °C 0,0 km/h (0 Bft)
21.09.2019 07:05 1,6 °C 94 % 1021,0 hPa 0,0 mm 0,0 km/h (0 Bft) S-SO 150 ° 0 min 0,000 mm 0,0 UV-I 5 W/m² 0,7 °C 1,6 °C 0,0 km/h (0 Bft)
21.09.2019 07:06 1,6 °C 95 % 1021,0 hPa 0,0 mm 0,0 km/h (0 Bft) S-SO 150 ° 0 min 0,000 mm 0,0 UV-I 5 W/m² 0,9 °C 1,6 °C 0,0 km/h (0 Bft)
21.09.2019 07:07 1,6 °C 95 % 1021,0 hPa 0,0 mm 0,0 km/h (0 Bft) S-SO 150 ° 0 min 0,000 mm 0,0 UV-I 7 W/m² 0,9 °C 1,6 °C 0,0 km/h (0 Bft)
21.09.2019 07:08 1,7 °C 95 % 1021,0 hPa 0,0 mm 0,0 km/h (0 Bft) S-SO 150 ° 0 min 0,000 mm 0,0 UV-I 7 W/m² 1,0 °C 1,7 °C 0,0 km/h (0 Bft)
21.09.2019 07:09 1,7 °C 95 % 1020,9 hPa 0,0 mm 0,0 km/h (0 Bft) S-SO 150 ° 0 min 0,000 mm 0,0 UV-I 7 W/m² 1,0 °C 1,7 °C 0,0 km/h (0 Bft)
21.09.2019 07:10 1,7 °C 94 % 1021,0 hPa 0,0 mm 0,0 km/h (0 Bft) S-SO 150 ° 0 min 0,000 mm 0,0 UV-I 7 W/m² 0,8 °C 1,7 °C 0,0 km/h (0 Bft)
21.09.2019 07:11 1,7 °C 94 % 1021,0 hPa 0,0 mm 0,0 km/h (0 Bft) S-SO 150 ° 0 min 0,000 mm 0,0 UV-I 7 W/m² 0,8 °C 1,7 °C 0,0 km/h (0 Bft)
21.09.2019 07:12 1,7 °C 94 % 1021,0 hPa 0,0 mm 0,0 km/h (0 Bft) S-SO 150 ° 0 min 0,000 mm 0,0 UV-I 9 W/m² 0,8 °C 1,7 °C 0,0 km/h (0 Bft)
21.09.2019 07:13 1,6 °C 94 % 1021,1 hPa 0,0 mm 0,0 km/h (0 Bft) S-SO 150 ° 0 min 0,000 mm 0,0 UV-I 9 W/m² 0,7 °C 1,6 °C 0,0 km/h (0 Bft)
21.09.2019 07:14 1,4 °C 94 % 1021,1 hPa 0,0 mm 0,0 km/h (0 Bft) S-SO 150 ° 0 min 0,000 mm 0,0 UV-I 9 W/m² 0,5 °C 1,4 °C 0,0 km/h (0 Bft)
21.09.2019 07:15 1,4 °C 94 % 1021,1 hPa 0,0 mm 0,0 km/h (0 Bft) S-SO 150 ° 0 min 0,000 mm 0,0 UV-I 9 W/m² 0,5 °C 1,4 °C 0,0 km/h (0 Bft)
21.09.2019 07:16 1,3 °C 94 % 1021,1 hPa 0,0 mm 0,0 km/h (0 Bft) S-SO 150 ° 0 min 0,000 mm 0,0 UV-I 9 W/m² 0,4 °C 1,3 °C 0,0 km/h (0 Bft)
21.09.2019 07:17 1,2 °C 94 % 1021,1 hPa 0,0 mm 0,0 km/h (0 Bft) S-SO 150 ° 0 min 0,000 mm 0,0 UV-I 11 W/m² 0,3 °C 1,2 °C 0,0 km/h (0 Bft)
21.09.2019 07:18 1,1 °C 94 % 1021,1 hPa 0,0 mm 0,0 km/h (0 Bft) S-SO 150 ° 0 min 0,000 mm 0,0 UV-I 11 W/m² 0,2 °C 1,1 °C 0,0 km/h (0 Bft)
21.09.2019 07:19 1,1 °C 94 % 1021,1 hPa 0,0 mm 0,0 km/h (0 Bft) S-SO 150 ° 0 min 0,000 mm 0,0 UV-I 11 W/m² 0,2 °C 1,1 °C 0,0 km/h (0 Bft)
21.09.2019 07:20 1,1 °C 94 % 1021,1 hPa 0,0 mm 0,0 km/h (0 Bft) S-SO 150 ° 0 min 0,000 mm 0,0 UV-I 11 W/m² 0,2 °C 1,1 °C 0,0 km/h (0 Bft)
21.09.2019 07:21 1,1 °C 94 % 1021,1 hPa 0,0 mm 0,0 km/h (0 Bft) S-SO 150 ° 0 min 0,000 mm 0,0 UV-I 11 W/m² 0,2 °C 1,1 °C 0,0 km/h (0 Bft)
21.09.2019 07:22 1,2 °C 94 % 1021,2 hPa 0,0 mm 0,0 km/h (0 Bft) S-SO 150 ° 0 min 0,000 mm 0,0 UV-I 12 W/m² 0,3 °C 1,2 °C 0,0 km/h (0 Bft)
21.09.2019 07:23 1,2 °C 94 % 1021,1 hPa 0,0 mm 0,0 km/h (0 Bft) S-SO 150 ° 0 min 0,000 mm 0,0 UV-I 12 W/m² 0,3 °C 1,2 °C 0,0 km/h (0 Bft)
21.09.2019 07:24 1,2 °C 94 % 1021,2 hPa 0,0 mm 0,0 km/h (0 Bft) S-SO 150 ° 0 min 0,000 mm 0,0 UV-I 12 W/m² 0,3 °C 1,2 °C 0,0 km/h (0 Bft)
21.09.2019 07:25 1,3 °C 94 % 1021,2 hPa 0,0 mm 0,0 km/h (0 Bft) S-SO 150 ° 0 min 0,000 mm 0,0 UV-I 12 W/m² 0,4 °C 1,3 °C 0,0 km/h (0 Bft)
21.09.2019 07:26 1,3 °C 94 % 1021,1 hPa 0,0 mm 0,0 km/h (0 Bft) S-SO 150 ° 0 min 0,000 mm 0,0 UV-I 12 W/m² 0,4 °C 1,3 °C 0,0 km/h (0 Bft)
21.09.2019 07:27 1,3 °C 94 % 1021,1 hPa 0,0 mm 0,0 km/h (0 Bft) S-SO 150 ° 0 min 0,000 mm 0,0 UV-I 12 W/m² 0,4 °C 1,3 °C 0,0 km/h (0 Bft)
21.09.2019 07:28 1,4 °C 94 % 1021,2 hPa 0,0 mm 0,0 km/h (0 Bft) S-SO 150 ° 0 min 0,000 mm 0,0 UV-I 14 W/m² 0,5 °C 1,4 °C 0,0 km/h (0 Bft)
21.09.2019 07:29 1,5 °C 94 % 1021,1 hPa 0,0 mm 0,0 km/h (0 Bft) S-SO 150 ° 0 min 0,000 mm 0,0 UV-I 14 W/m² 0,6 °C 1,5 °C 0,0 km/h (0 Bft)
21.09.2019 07:30 1,5 °C 94 % 1021,1 hPa 0,0 mm 0,0 km/h (0 Bft) S-SO 150 ° 0 min 0,000 mm 0,0 UV-I 14 W/m² 0,6 °C 1,5 °C 0,0 km/h (0 Bft)
21.09.2019 07:31 1,6 °C 94 % 1021,1 hPa 0,0 mm 0,0 km/h (0 Bft) S-SO 150 ° 0 min 0,000 mm 0,0 UV-I 14 W/m² 0,7 °C 1,6 °C 0,0 km/h (0 Bft)
21.09.2019 07:32 1,6 °C 95 % 1021,1 hPa 0,0 mm 0,0 km/h (0 Bft) S-SO 150 ° 0 min 0,000 mm 0,0 UV-I 14 W/m² 0,9 °C 1,6 °C 0,0 km/h (0 Bft)
21.09.2019 07:33 1,6 °C 95 % 1021,1 hPa 0,0 mm 0,0 km/h (0 Bft) S-SO 150 ° 0 min 0,000 mm 0,0 UV-I 14 W/m² 0,9 °C 1,6 °C 0,0 km/h (0 Bft)
21.09.2019 07:34 1,7 °C 95 % 1021,1 hPa 0,0 mm 0,0 km/h (0 Bft) S-SO 150 ° 0 min 0,000 mm 0,0 UV-I 16 W/m² 1,0 °C 1,7 °C 0,0 km/h (0 Bft)
21.09.2019 07:35 1,7 °C 95 % 1021,0 hPa 0,0 mm 0,0 km/h (0 Bft) S-SO 150 ° 0 min 0,000 mm 0,0 UV-I 16 W/m² 1,0 °C 1,7 °C 0,0 km/h (0 Bft)
21.09.2019 07:36 1,7 °C 95 % 1021,1 hPa 0,0 mm 0,0 km/h (0 Bft) S-SO 150 ° 0 min 0,000 mm 0,0 UV-I 16 W/m² 1,0 °C 1,7 °C 0,0 km/h (0 Bft)
21.09.2019 07:37 1,7 °C 95 % 1021,1 hPa 0,0 mm 0,0 km/h (0 Bft) S-SO 150 ° 0 min 0,000 mm 0,0 UV-I 16 W/m² 1,0 °C 1,7 °C 0,0 km/h (0 Bft)
21.09.2019 07:38 1,7 °C 94 % 1021,1 hPa 0,0 mm 0,0 km/h (0 Bft) S-SO 150 ° 0 min 0,000 mm 0,0 UV-I 16 W/m² 0,8 °C 1,7 °C 0,0 km/h (0 Bft)
21.09.2019 07:39 1,9 °C 95 % 1021,1 hPa 0,0 mm 0,0 km/h (0 Bft) S-SO 150 ° 0 min 0,000 mm 0,0 UV-I 16 W/m² 1,2 °C 1,9 °C 0,0 km/h (0 Bft)
21.09.2019 07:40 2,2 °C 95 % 1021,1 hPa 0,0 mm 0,0 km/h (0 Bft) S-SO 150 ° 0 min 0,000 mm 0,0 UV-I 16 W/m² 1,5 °C 2,2 °C 0,0 km/h (0 Bft)
21.09.2019 07:41 2,3 °C 95 % 1021,1 hPa 0,0 mm 0,0 km/h (0 Bft) S-SO 150 ° 0 min 0,000 mm 0,0 UV-I 18 W/m² 1,6 °C 2,3 °C 0,0 km/h (0 Bft)
21.09.2019 07:42 2,3 °C 95 % 1021,1 hPa 0,0 mm 0,5 km/h (0 Bft) S-SO 150 ° 0 min 0,000 mm 0,0 UV-I 18 W/m² 1,6 °C 2,3 °C 3,2 km/h (1 Bft)
21.09.2019 07:43 2,1 °C 95 % 1021,1 hPa 0,0 mm 2,9 km/h (1 Bft) S-SO 150 ° 0 min 0,000 mm 0,0 UV-I 18 W/m² 1,4 °C 2,1 °C 3,2 km/h (1 Bft)
21.09.2019 07:44 1,8 °C 94 % 1021,1 hPa 0,0 mm 0,1 km/h (0 Bft) S-SO 150 ° 0 min 0,000 mm 0,0 UV-I 18 W/m² 0,9 °C 1,8 °C 1,6 km/h (1 Bft)
21.09.2019 07:45 1,7 °C 94 % 1021,1 hPa 0,0 mm 0,0 km/h (0 Bft) S-SO 150 ° 0 min 0,000 mm 0,0 UV-I 18 W/m² 0,8 °C 1,7 °C 0,0 km/h (0 Bft)
21.09.2019 07:46 1,4 °C 94 % 1021,1 hPa 0,0 mm 0,0 km/h (0 Bft) S-SO 150 ° 0 min 0,000 mm 0,0 UV-I 19 W/m² 0,5 °C 1,4 °C 0,0 km/h (0 Bft)
21.09.2019 07:47 1,4 °C 94 % 1021,1 hPa 0,0 mm 0,0 km/h (0 Bft) S-SO 150 ° 0 min 0,000 mm 0,0 UV-I 19 W/m² 0,5 °C 1,4 °C 0,0 km/h (0 Bft)
21.09.2019 07:48 1,3 °C 94 % 1021,1 hPa 0,0 mm 0,0 km/h (0 Bft) S-SO 150 ° 0 min 0,000 mm 0,0 UV-I 19 W/m² 0,4 °C 1,3 °C 0,0 km/h (0 Bft)
21.09.2019 07:49 1,4 °C 94 % 1021,1 hPa 0,0 mm 0,0 km/h (0 Bft) S-SO 150 ° 0 min 0,000 mm 0,0 UV-I 19 W/m² 0,5 °C 1,4 °C 0,0 km/h (0 Bft)
21.09.2019 07:50 1,4 °C 94 % 1021,1 hPa 0,0 mm 0,0 km/h (0 Bft) S-SO 150 ° 0 min 0,000 mm 0,0 UV-I 19 W/m² 0,5 °C 1,4 °C 0,0 km/h (0 Bft)
21.09.2019 07:51 1,4 °C 94 % 1021,1 hPa 0,0 mm 0,0 km/h (0 Bft) S-SO 150 ° 0 min 0,000 mm 0,0 UV-I 19 W/m² 0,5 °C 1,4 °C 0,0 km/h (0 Bft)
21.09.2019 07:52 1,6 °C 94 % 1021,1 hPa 0,0 mm 0,0 km/h (0 Bft) S-SO 150 ° 0 min 0,000 mm 0,0 UV-I 21 W/m² 0,7 °C 1,6 °C 0,0 km/h (0 Bft)
21.09.2019 07:53 1,6 °C 95 % 1021,0 hPa 0,0 mm 0,0 km/h (0 Bft) S-SO 150 ° 0 min 0,000 mm 0,0 UV-I 21 W/m² 0,9 °C 1,6 °C 0,0 km/h (0 Bft)
21.09.2019 07:54 1,7 °C 95 % 1021,1 hPa 0,0 mm 0,0 km/h (0 Bft) S-SO 150 ° 0 min 0,000 mm 0,0 UV-I 21 W/m² 1,0 °C 1,7 °C 0,0 km/h (0 Bft)
21.09.2019 07:55 1,8 °C 95 % 1021,1 hPa 0,0 mm 0,0 km/h (0 Bft) S-SO 150 ° 0 min 0,000 mm 0,0 UV-I 21 W/m² 1,1 °C 1,8 °C 0,0 km/h (0 Bft)
21.09.2019 07:56 1,9 °C 95 % 1021,1 hPa 0,0 mm 0,0 km/h (0 Bft) S-SO 150 ° 0 min 0,000 mm 0,0 UV-I 21 W/m² 1,2 °C 1,9 °C 0,0 km/h (0 Bft)
21.09.2019 07:57 2,1 °C 95 % 1021,2 hPa 0,0 mm 0,0 km/h (0 Bft) S-SO 150 ° 0 min 0,000 mm 0,0 UV-I 23 W/m² 1,4 °C 2,1 °C 0,0 km/h (0 Bft)
21.09.2019 07:58 2,1 °C 95 % 1021,2 hPa 0,0 mm 0,0 km/h (0 Bft) S-SO 150 ° 0 min 0,000 mm 0,0 UV-I 23 W/m² 1,4 °C 2,1 °C 0,0 km/h (0 Bft)
21.09.2019 07:59 2,1 °C 95 % 1021,1 hPa 0,0 mm 0,0 km/h (0 Bft) S-SO 150 ° 0 min 0,000 mm 0,0 UV-I 23 W/m² 1,4 °C 2,1 °C 0,0 km/h (0 Bft)
21.09.2019 08:00 2,1 °C 95 % 1021,1 hPa 0,0 mm 0,0 km/h (0 Bft) S-SO 150 ° 0 min 0,000 mm 0,0 UV-I 23 W/m² 1,4 °C 2,1 °C 0,0 km/h (0 Bft)
21.09.2019 08:01 2,1 °C 95 % 1021,2 hPa 0,0 mm 0,0 km/h (0 Bft) S-SO 150 ° 0 min 0,000 mm 0,0 UV-I 23 W/m² 1,4 °C 2,1 °C 0,0 km/h (0 Bft)
21.09.2019 08:02 2,2 °C 95 % 1021,2 hPa 0,0 mm 0,0 km/h (0 Bft) S-SO 150 ° 0 min 0,000 mm 0,0 UV-I 23 W/m² 1,5 °C 2,2 °C 0,0 km/h (0 Bft)
21.09.2019 08:04 2,3 °C 95 % 1021,2 hPa 0,0 mm 0,0 km/h (0 Bft) S-SO 150 ° 0 min 0,000 mm 0,0 UV-I 25 W/m² 1,6 °C 2,3 °C 0,0 km/h (0 Bft)
21.09.2019 08:05 2,3 °C 95 % 1021,2 hPa 0,0 mm 0,0 km/h (0 Bft) S-SO 150 ° 0 min 0,000 mm 0,0 UV-I 25 W/m² 1,6 °C 2,3 °C 0,0 km/h (0 Bft)
21.09.2019 08:06 2,3 °C 95 % 1021,2 hPa 0,0 mm 0,0 km/h (0 Bft) S-SO 150 ° 0 min 0,000 mm 0,0 UV-I 25 W/m² 1,6 °C 2,3 °C 0,0 km/h (0 Bft)
21.09.2019 08:07 2,3 °C 95 % 1021,1 hPa 0,0 mm 0,0 km/h (0 Bft) S-SO 150 ° 0 min 0,000 mm 0,0 UV-I 25 W/m² 1,6 °C 2,3 °C 0,0 km/h (0 Bft)
21.09.2019 08:08 2,4 °C 95 % 1021,1 hPa 0,0 mm 0,0 km/h (0 Bft) S-SO 150 ° 0 min 0,000 mm 0,0 UV-I 25 W/m² 1,7 °C 2,4 °C 0,0 km/h (0 Bft)
21.09.2019 08:09 2,5 °C 95 % 1021,2 hPa 0,0 mm 0,0 km/h (0 Bft) S-SO 150 ° 0 min 0,000 mm 0,0 UV-I 26 W/m² 1,8 °C 2,5 °C 0,0 km/h (0 Bft)
21.09.2019 08:10 2,6 °C 95 % 1021,2 hPa 0,0 mm 0,0 km/h (0 Bft) S-SO 150 ° 0 min 0,000 mm 0,0 UV-I 26 W/m² 1,9 °C 2,6 °C 0,0 km/h (0 Bft)
21.09.2019 08:11 2,6 °C 95 % 1021,2 hPa 0,0 mm 0,0 km/h (0 Bft) S-SO 150 ° 0 min 0,000 mm 0,0 UV-I 26 W/m² 1,9 °C 2,6 °C 0,0 km/h (0 Bft)
21.09.2019 08:12 2,5 °C 95 % 1021,2 hPa 0,0 mm 0,0 km/h (0 Bft) S-SO 150 ° 0 min 0,000 mm 0,0 UV-I 26 W/m² 1,8 °C 2,5 °C 0,0 km/h (0 Bft)
21.09.2019 08:13 2,6 °C 95 % 1021,2 hPa 0,0 mm 0,0 km/h (0 Bft) S-SO 150 ° 0 min 0,000 mm 0,0 UV-I 26 W/m² 1,9 °C 2,6 °C 0,0 km/h (0 Bft)
21.09.2019 08:14 2,6 °C 95 % 1021,2 hPa 0,0 mm 0,0 km/h (0 Bft) S-SO 150 ° 0 min 0,000 mm 0,0 UV-I 26 W/m² 1,9 °C 2,6 °C 0,0 km/h (0 Bft)
21.09.2019 08:15 2,6 °C 95 % 1021,2 hPa 0,0 mm 0,0 km/h (0 Bft) S-SO 150 ° 0 min 0,000 mm 0,0 UV-I 26 W/m² 1,9 °C 2,6 °C 0,0 km/h (0 Bft)
21.09.2019 08:16 2,7 °C 95 % 1021,2 hPa 0,0 mm 0,0 km/h (0 Bft) S-SO 150 ° 0 min 0,000 mm 0,0 UV-I 28 W/m² 2,0 °C 2,7 °C 0,0 km/h (0 Bft)
21.09.2019 08:17 2,7 °C 95 % 1021,2 hPa 0,0 mm 0,0 km/h (0 Bft) S-SO 150 ° 0 min 0,000 mm 0,0 UV-I 28 W/m² 2,0 °C 2,7 °C 0,0 km/h (0 Bft)
21.09.2019 08:18 2,8 °C 95 % 1021,2 hPa 0,0 mm 0,0 km/h (0 Bft) S-SO 150 ° 0 min 0,000 mm 0,0 UV-I 28 W/m² 2,1 °C 2,8 °C 0,0 km/h (0 Bft)
21.09.2019 08:19 3,0 °C 95 % 1021,2 hPa 0,0 mm 0,0 km/h (0 Bft) S-SO 150 ° 0 min 0,000 mm 0,0 UV-I 28 W/m² 2,3 °C 3,0 °C 0,0 km/h (0 Bft)
21.09.2019 08:20 3,0 °C 95 % 1021,2 hPa 0,0 mm 0,0 km/h (0 Bft) S-SO 150 ° 0 min 0,000 mm 0,0 UV-I 28 W/m² 2,3 °C 3,0 °C 0,0 km/h (0 Bft)
21.09.2019 08:21 3,1 °C 95 % 1021,2 hPa 0,0 mm 0,0 km/h (0 Bft) S-SO 150 ° 0 min 0,000 mm 0,0 UV-I 28 W/m² 2,4 °C 3,1 °C 0,0 km/h (0 Bft)
21.09.2019 08:22 3,1 °C 95 % 1021,1 hPa 0,0 mm 0,0 km/h (0 Bft) S-SO 150 ° 0 min 0,000 mm 0,0 UV-I 28 W/m² 2,4 °C 3,1 °C 0,0 km/h (0 Bft)
21.09.2019 08:23 3,1 °C 95 % 1021,1 hPa 0,0 mm 0,0 km/h (0 Bft) S-SO 150 ° 0 min 0,000 mm 0,0 UV-I 30 W/m² 2,4 °C 3,1 °C 0,0 km/h (0 Bft)
21.09.2019 08:24 3,2 °C 95 % 1021,2 hPa 0,0 mm 0,0 km/h (0 Bft) S-SO 150 ° 0 min 0,000 mm 0,0 UV-I 30 W/m² 2,5 °C 3,2 °C 0,0 km/h (0 Bft)
21.09.2019 08:25 3,3 °C 95 % 1021,2 hPa 0,0 mm 0,0 km/h (0 Bft) S-SO 150 ° 0 min 0,000 mm 0,0 UV-I 30 W/m² 2,6 °C 3,3 °C 0,0 km/h (0 Bft)
21.09.2019 08:26 3,3 °C 95 % 1021,2 hPa 0,0 mm 0,0 km/h (0 Bft) S-SO 150 ° 0 min 0,000 mm 0,0 UV-I 30 W/m² 2,6 °C 3,3 °C 0,0 km/h (0 Bft)
21.09.2019 08:27 3,4 °C 95 % 1021,3 hPa 0,0 mm 0,0 km/h (0 Bft) S-SO 150 ° 0 min 0,000 mm 0,0 UV-I 30 W/m² 2,7 °C 3,4 °C 0,0 km/h (0 Bft)
21.09.2019 08:28 3,4 °C 95 % 1021,3 hPa 0,0 mm 0,0 km/h (0 Bft) S-SO 150 ° 0 min 0,000 mm 0,0 UV-I 30 W/m² 2,7 °C 3,4 °C 0,0 km/h (0 Bft)
21.09.2019 08:29 3,6 °C 95 % 1021,2 hPa 0,0 mm 0,0 km/h (0 Bft) S-SO 150 ° 0 min 0,000 mm 0,0 UV-I 30 W/m² 2,9 °C 3,6 °C 0,0 km/h (0 Bft)
21.09.2019 08:30 3,6 °C 95 % 1021,3 hPa 0,0 mm 0,0 km/h (0 Bft) S-SO 150 ° 0 min 0,000 mm 0,0 UV-I 30 W/m² 2,9 °C 3,6 °C 0,0 km/h (0 Bft)
21.09.2019 08:31 3,7 °C 95 % 1021,2 hPa 0,0 mm 0,0 km/h (0 Bft) S-SO 150 ° 0 min 0,000 mm 0,0 UV-I 32 W/m² 3,0 °C 3,7 °C 0,0 km/h (0 Bft)
21.09.2019 08:32 3,8 °C 95 % 1021,2 hPa 0,0 mm 0,0 km/h (0 Bft) S-SO 150 ° 0 min 0,000 mm 0,0 UV-I 32 W/m² 3,1 °C 3,8 °C 0,0 km/h (0 Bft)
21.09.2019 08:33 3,9 °C 95 % 1021,2 hPa 0,0 mm 0,0 km/h (0 Bft) S-SO 150 ° 0 min 0,000 mm 0,0 UV-I 32 W/m² 3,2 °C 3,9 °C 0,0 km/h (0 Bft)
21.09.2019 08:34 4,0 °C 95 % 1021,2 hPa 0,0 mm 0,0 km/h (0 Bft) S-SO 150 ° 0 min 0,000 mm 0,0 UV-I 32 W/m² 3,3 °C 4,0 °C 0,0 km/h (0 Bft)
21.09.2019 08:35 4,1 °C 95 % 1021,2 hPa 0,0 mm 0,0 km/h (0 Bft) S-SO 150 ° 0 min 0,000 mm 0,0 UV-I 32 W/m² 3,4 °C 4,1 °C 0,0 km/h (0 Bft)
21.09.2019 08:36 4,1 °C 95 % 1021,2 hPa 0,0 mm 0,0 km/h (0 Bft) S-SO 150 ° 0 min 0,000 mm 0,0 UV-I 32 W/m² 3,4 °C 4,1 °C 0,0 km/h (0 Bft)
21.09.2019 08:37 4,1 °C 95 % 1021,3 hPa 0,0 mm 0,0 km/h (0 Bft) S-SO 150 ° 0 min 0,000 mm 0,0 UV-I 32 W/m² 3,4 °C 4,1 °C 0,0 km/h (0 Bft)
21.09.2019 08:38 4,1 °C 95 % 1021,3 hPa 0,0 mm 0,0 km/h (0 Bft) S-SO 150 ° 0 min 0,000 mm 0,0 UV-I 32 W/m² 3,4 °C 4,1 °C 0,0 km/h (0 Bft)
21.09.2019 08:39 4,1 °C 95 % 1021,2 hPa 0,0 mm 0,0 km/h (0 Bft) S-SO 150 ° 0 min 0,000 mm 0,0 UV-I 32 W/m² 3,4 °C 4,1 °C 0,0 km/h (0 Bft)
21.09.2019 08:40 4,1 °C 95 % 1021,2 hPa 0,0 mm 0,0 km/h (0 Bft) S-SO 150 ° 0 min 0,000 mm 0,0 UV-I 33 W/m² 3,4 °C 4,1 °C 0,0 km/h (0 Bft)
21.09.2019 08:41 4,2 °C 95 % 1021,3 hPa 0,0 mm 0,0 km/h (0 Bft) S-SO 150 ° 0 min 0,000 mm 0,0 UV-I 33 W/m² 3,5 °C 4,2 °C 0,0 km/h (0 Bft)
21.09.2019 08:42 4,2 °C 95 % 1021,2 hPa 0,0 mm 0,0 km/h (0 Bft) S-SO 150 ° 0 min 0,000 mm 0,0 UV-I 35 W/m² 3,5 °C 4,2 °C 0,0 km/h (0 Bft)
21.09.2019 08:43 4,2 °C 95 % 1021,3 hPa 0,0 mm 0,0 km/h (0 Bft) S-SO 150 ° 0 min 0,000 mm 0,0 UV-I 54 W/m² 3,5 °C 4,2 °C 0,0 km/h (0 Bft)
21.09.2019 08:44 4,3 °C 95 % 1021,3 hPa 0,0 mm 0,0 km/h (0 Bft) S-SO 150 ° 0 min 0,000 mm 0,8 UV-I 195 W/m² 3,6 °C 4,3 °C 0,0 km/h (0 Bft)
21.09.2019 08:45 4,4 °C 95 % 1021,3 hPa 0,0 mm 0,0 km/h (0 Bft) S-SO 150 ° 0 min 0,000 mm 0,9 UV-I 197 W/m² 3,7 °C 4,4 °C 0,0 km/h (0 Bft)
21.09.2019 08:46 4,5 °C 95 % 1021,3 hPa 0,0 mm 0,0 km/h (0 Bft) S-SO 150 ° 0 min 0,000 mm 0,9 UV-I 197 W/m² 3,8 °C 4,5 °C 0,0 km/h (0 Bft)
21.09.2019 08:47 4,6 °C 95 % 1021,3 hPa 0,0 mm 0,0 km/h (0 Bft) S-SO 150 ° 0 min 0,000 mm 0,9 UV-I 197 W/m² 3,9 °C 4,6 °C 0,0 km/h (0 Bft)
21.09.2019 08:48 4,6 °C 95 % 1021,3 hPa 0,0 mm 0,0 km/h (0 Bft) S-SO 150 ° 0 min 0,000 mm 0,9 UV-I 158 W/m² 3,9 °C 4,6 °C 0,0 km/h (0 Bft)
21.09.2019 08:49 4,6 °C 95 % 1021,4 hPa 0,0 mm 0,0 km/h (0 Bft) S-SO 150 ° 0 min 0,000 mm 0,8 UV-I 102 W/m² 3,9 °C 4,6 °C 0,0 km/h (0 Bft)
21.09.2019 08:50 4,7 °C 95 % 1021,4 hPa 0,0 mm 0,0 km/h (0 Bft) S-SO 150 ° 0 min 0,000 mm 0,8 UV-I 42 W/m² 4,0 °C 4,7 °C 0,0 km/h (0 Bft)
21.09.2019 08:51 4,8 °C 95 % 1021,3 hPa 0,0 mm 0,0 km/h (0 Bft) S-SO 150 ° 0 min 0,000 mm 0,0 UV-I 37 W/m² 4,1 °C 4,8 °C 0,0 km/h (0 Bft)
21.09.2019 08:52 4,9 °C 95 % 1021,3 hPa 0,0 mm 0,0 km/h (0 Bft) S-SO 150 ° 0 min 0,000 mm 0,0 UV-I 35 W/m² 4,2 °C 4,9 °C 0,0 km/h (0 Bft)
21.09.2019 08:53 5,0 °C 95 % 1021,3 hPa 0,0 mm 0,0 km/h (0 Bft) S-SO 150 ° 0 min 0,000 mm 0,0 UV-I 33 W/m² 4,3 °C 5,0 °C 0,0 km/h (0 Bft)
21.09.2019 08:54 5,1 °C 95 % 1021,3 hPa 0,0 mm 0,0 km/h (0 Bft) S-SO 150 ° 0 min 0,000 mm 0,0 UV-I 35 W/m² 4,4 °C 5,1 °C 0,0 km/h (0 Bft)
21.09.2019 08:55 5,1 °C 95 % 1021,3 hPa 0,0 mm 0,0 km/h (0 Bft) S-SO 150 ° 0 min 0,000 mm 0,0 UV-I 35 W/m² 4,4 °C 5,1 °C 0,0 km/h (0 Bft)
21.09.2019 08:56 5,2 °C 95 % 1021,4 hPa 0,0 mm 0,0 km/h (0 Bft) S-SO 150 ° 0 min 0,000 mm 0,0 UV-I 62 W/m² 4,5 °C 5,2 °C 0,0 km/h (0 Bft)
21.09.2019 08:57 5,3 °C 95 % 1021,4 hPa 0,0 mm 0,0 km/h (0 Bft) S-SO 150 ° 0 min 0,000 mm 0,8 UV-I 81 W/m² 4,6 °C 5,3 °C 0,0 km/h (0 Bft)
21.09.2019 08:58 5,3 °C 95 % 1021,4 hPa 0,0 mm 0,0 km/h (0 Bft) S-SO 150 ° 0 min 0,000 mm 0,9 UV-I 88 W/m² 4,6 °C 5,3 °C 0,0 km/h (0 Bft)
21.09.2019 08:59 5,4 °C 95 % 1021,4 hPa 0,0 mm 0,0 km/h (0 Bft) S-SO 150 ° 0 min 0,000 mm 0,9 UV-I 123 W/m² 4,7 °C 5,4 °C 0,0 km/h (0 Bft)
21.09.2019 09:00 5,5 °C 95 % 1021,4 hPa 0,0 mm 0,0 km/h (0 Bft) S-SO 150 ° 0 min 0,000 mm 1,0 UV-I 139 W/m² 4,8 °C 5,5 °C 0,0 km/h (0 Bft)
21.09.2019 09:01 5,6 °C 95 % 1021,4 hPa 0,0 mm 0,0 km/h (0 Bft) S-SO 150 ° 0 min 0,025 mm 0,9 UV-I 116 W/m² 4,9 °C 5,6 °C 0,0 km/h (0 Bft)
21.09.2019 09:02 5,6 °C 95 % 1021,4 hPa 0,0 mm 0,0 km/h (0 Bft) S-SO 150 ° 0 min 0,000 mm 1,0 UV-I 142 W/m² 4,9 °C 5,6 °C 0,0 km/h (0 Bft)
21.09.2019 09:03 5,7 °C 95 % 1021,4 hPa 0,0 mm 0,0 km/h (0 Bft) S-SO 150 ° 0 min 0,000 mm 1,0 UV-I 123 W/m² 5,0 °C 5,7 °C 0,0 km/h (0 Bft)
21.09.2019 09:04 5,8 °C 95 % 1021,4 hPa 0,0 mm 0,0 km/h (0 Bft) S-SO 150 ° 0 min 0,000 mm 1,0 UV-I 105 W/m² 5,1 °C 5,8 °C 0,0 km/h (0 Bft)
21.09.2019 09:05 5,9 °C 95 % 1021,4 hPa 0,0 mm 0,0 km/h (0 Bft) S-SO 150 ° 0 min 0,000 mm 0,9 UV-I 105 W/m² 5,2 °C 5,9 °C 0,0 km/h (0 Bft)
21.09.2019 09:06 6,0 °C 95 % 1021,4 hPa 0,0 mm 0,0 km/h (0 Bft) S-SO 150 ° 0 min 0,000 mm 0,9 UV-I 118 W/m² 5,3 °C 6,0 °C 0,0 km/h (0 Bft)
21.09.2019 09:07 6,1 °C 95 % 1021,4 hPa 0,0 mm 0,0 km/h (0 Bft) S-SO 150 ° 0 min 0,000 mm 1,1 UV-I 213 W/m² 5,4 °C 6,1 °C 0,0 km/h (0 Bft)
21.09.2019 09:08 6,2 °C 95 % 1021,3 hPa 0,0 mm 0,0 km/h (0 Bft) S-SO 150 ° 0 min 0,000 mm 1,2 UV-I 283 W/m² 5,5 °C 6,2 °C 0,0 km/h (0 Bft)
21.09.2019 09:09 6,2 °C 95 % 1021,4 hPa 0,0 mm 0,0 km/h (0 Bft) S-SO 150 ° 0 min 0,000 mm 1,2 UV-I 285 W/m² 5,5 °C 6,2 °C 0,0 km/h (0 Bft)
21.09.2019 09:10 6,2 °C 95 % 1021,3 hPa 0,0 mm 0,0 km/h (0 Bft) S-SO 150 ° 0 min 0,000 mm 1,3 UV-I 288 W/m² 5,5 °C 6,2 °C 0,0 km/h (0 Bft)
21.09.2019 09:11 6,2 °C 94 % 1021,3 hPa 0,0 mm 0,0 km/h (0 Bft) S-SO 150 ° 0 min 0,000 mm 1,3 UV-I 290 W/m² 5,3 °C 6,2 °C 0,0 km/h (0 Bft)
21.09.2019 09:12 6,4 °C 95 % 1021,3 hPa 0,0 mm 0,0 km/h (0 Bft) S-SO 150 ° 0 min 0,000 mm 1,3 UV-I 292 W/m² 5,7 °C 6,4 °C 0,0 km/h (0 Bft)
21.09.2019 09:13 6,6 °C 95 % 1021,3 hPa 0,0 mm 0,0 km/h (0 Bft) S-SO 150 ° 0 min 0,000 mm 1,3 UV-I 292 W/m² 5,9 °C 6,6 °C 0,0 km/h (0 Bft)
21.09.2019 09:14 6,7 °C 95 % 1021,3 hPa 0,0 mm 0,0 km/h (0 Bft) S-SO 150 ° 0 min 0,000 mm 1,3 UV-I 301 W/m² 6,0 °C 6,7 °C 0,0 km/h (0 Bft)
21.09.2019 09:15 6,8 °C 95 % 1021,2 hPa 0,0 mm 0,0 km/h (0 Bft) S-SO 150 ° 0 min 0,000 mm 1,3 UV-I 302 W/m² 6,1 °C 6,8 °C 0,0 km/h (0 Bft)
21.09.2019 09:16 6,9 °C 95 % 1021,2 hPa 0,0 mm 0,0 km/h (0 Bft) S-SO 150 ° 0 min 0,000 mm 1,3 UV-I 304 W/m² 6,2 °C 6,9 °C 0,0 km/h (0 Bft)
21.09.2019 09:17 6,9 °C 95 % 1021,2 hPa 0,0 mm 0,0 km/h (0 Bft) S-SO 150 ° 0 min 0,000 mm 1,4 UV-I 306 W/m² 6,2 °C 6,9 °C 0,0 km/h (0 Bft)
21.09.2019 09:18 7,1 °C 94 % 1021,2 hPa 0,0 mm 0,0 km/h (0 Bft) S-SO 150 ° 0 min 0,000 mm 1,4 UV-I 309 W/m² 6,2 °C 7,1 °C 0,0 km/h (0 Bft)
21.09.2019 09:19 7,2 °C 94 % 1021,2 hPa 0,0 mm 0,0 km/h (0 Bft) S-SO 150 ° 0 min 0,000 mm 1,4 UV-I 311 W/m² 6,3 °C 7,2 °C 0,0 km/h (0 Bft)
21.09.2019 09:20 7,3 °C 94 % 1021,2 hPa 0,0 mm 0,0 km/h (0 Bft) S-SO 150 ° 0 min 0,000 mm 1,4 UV-I 315 W/m² 6,4 °C 7,3 °C 0,0 km/h (0 Bft)
21.09.2019 09:21 7,5 °C 94 % 1021,2 hPa 0,0 mm 0,0 km/h (0 Bft) S-SO 150 ° 0 min 0,000 mm 1,4 UV-I 318 W/m² 6,6 °C 7,5 °C 0,0 km/h (0 Bft)
21.09.2019 09:22 7,7 °C 94 % 1021,2 hPa 0,0 mm 0,0 km/h (0 Bft) S-SO 150 ° 0 min 0,000 mm 1,4 UV-I 320 W/m² 6,8 °C 7,7 °C 0,0 km/h (0 Bft)
21.09.2019 09:23 7,9 °C 94 % 1021,1 hPa 0,0 mm 0,0 km/h (0 Bft) S-SO 150 ° 0 min 0,000 mm 1,5 UV-I 320 W/m² 7,0 °C 7,9 °C 0,0 km/h (0 Bft)
21.09.2019 09:24 8,2 °C 94 % 1021,2 hPa 0,0 mm 0,0 km/h (0 Bft) S-SO 150 ° 0 min 0,000 mm 1,5 UV-I 325 W/m² 7,3 °C 8,2 °C 0,0 km/h (0 Bft)
21.09.2019 09:25 8,3 °C 93 % 1021,2 hPa 0,0 mm 0,0 km/h (0 Bft) S-SO 150 ° 0 min 0,000 mm 1,5 UV-I 330 W/m² 7,2 °C 8,3 °C 0,0 km/h (0 Bft)
21.09.2019 09:26 8,4 °C 93 % 1021,2 hPa 0,0 mm 0,0 km/h (0 Bft) S-SO 150 ° 0 min 0,000 mm 1,5 UV-I 332 W/m² 7,3 °C 8,4 °C 0,0 km/h (0 Bft)
21.09.2019 09:27 8,4 °C 92 % 1021,2 hPa 0,0 mm 0,0 km/h (0 Bft) S-SO 150 ° 0 min 0,000 mm 1,5 UV-I 336 W/m² 7,2 °C 8,4 °C 0,0 km/h (0 Bft)
21.09.2019 09:28 8,6 °C 92 % 1021,1 hPa 0,0 mm 0,0 km/h (0 Bft) S-SO 150 ° 0 min 0,000 mm 1,5 UV-I 338 W/m² 7,4 °C 8,6 °C 0,0 km/h (0 Bft)
21.09.2019 09:29 8,4 °C 91 % 1021,1 hPa 0,0 mm 0,0 km/h (0 Bft) S-SO 150 ° 0 min 0,000 mm 1,6 UV-I 341 W/m² 7,0 °C 8,4 °C 0,0 km/h (0 Bft)
21.09.2019 09:30 8,4 °C 91 % 1021,1 hPa 0,0 mm 0,0 km/h (0 Bft) S-SO 150 ° 0 min 0,000 mm 1,6 UV-I 341 W/m² 7,0 °C 8,4 °C 0,0 km/h (0 Bft)
21.09.2019 09:31 8,4 °C 91 % 1021,1 hPa 0,0 mm 0,0 km/h (0 Bft) S-SO 150 ° 0 min 0,000 mm 1,6 UV-I 346 W/m² 7,0 °C 8,4 °C 0,0 km/h (0 Bft)
21.09.2019 09:32 8,6 °C 91 % 1021,1 hPa 0,0 mm 0,0 km/h (0 Bft) S-SO 150 ° 0 min 0,000 mm 1,6 UV-I 348 W/m² 7,2 °C 8,6 °C 0,0 km/h (0 Bft)
21.09.2019 09:33 8,8 °C 90 % 1021,1 hPa 0,0 mm 0,0 km/h (0 Bft) S-SO 150 ° 0 min 0,000 mm 1,6 UV-I 309 W/m² 7,3 °C 8,8 °C 0,0 km/h (0 Bft)
21.09.2019 09:34 8,9 °C 90 % 1021,1 hPa 0,0 mm 0,0 km/h (0 Bft) S-SO 150 ° 0 min 0,000 mm 1,6 UV-I 299 W/m² 7,4 °C 8,9 °C 0,0 km/h (0 Bft)
21.09.2019 09:35 9,1 °C 90 % 1021,1 hPa 0,0 mm 0,0 km/h (0 Bft) S-SO 150 ° 0 min 0,000 mm 1,6 UV-I 327 W/m² 7,5 °C 9,1 °C 0,0 km/h (0 Bft)
21.09.2019 09:36 9,2 °C 89 % 1021,1 hPa 0,0 mm 0,0 km/h (0 Bft) S-SO 150 ° 0 min 0,000 mm 1,7 UV-I 357 W/m² 7,5 °C 9,2 °C 0,0 km/h (0 Bft)
21.09.2019 09:37 9,2 °C 89 % 1021,1 hPa 0,0 mm 0,0 km/h (0 Bft) S-SO 150 ° 0 min 0,000 mm 1,7 UV-I 364 W/m² 7,5 °C 9,2 °C 0,0 km/h (0 Bft)
21.09.2019 09:38 9,2 °C 89 % 1021,1 hPa 0,0 mm 0,0 km/h (0 Bft) S-SO 150 ° 0 min 0,000 mm 1,7 UV-I 366 W/m² 7,5 °C 9,2 °C 0,0 km/h (0 Bft)
21.09.2019 09:39 9,3 °C 89 % 1021,1 hPa 0,0 mm 0,0 km/h (0 Bft) S-SO 150 ° 0 min 0,000 mm 1,8 UV-I 367 W/m² 7,6 °C 9,3 °C 0,0 km/h (0 Bft)
21.09.2019 09:40 9,4 °C 89 % 1021,1 hPa 0,0 mm 0,0 km/h (0 Bft) S-SO 150 ° 0 min 0,000 mm 1,8 UV-I 371 W/m² 7,7 °C 9,4 °C 0,0 km/h (0 Bft)
21.09.2019 09:41 9,4 °C 89 % 1021,1 hPa 0,0 mm 0,0 km/h (0 Bft) S-SO 150 ° 0 min 0,000 mm 1,8 UV-I 371 W/m² 7,7 °C 9,4 °C 0,0 km/h (0 Bft)
21.09.2019 09:42 9,4 °C 88 % 1021,1 hPa 0,0 mm 0,0 km/h (0 Bft) S-SO 150 ° 0 min 0,000 mm 1,8 UV-I 378 W/m² 7,5 °C 9,4 °C 0,0 km/h (0 Bft)
21.09.2019 09:43 9,5 °C 88 % 1021,1 hPa 0,0 mm 0,0 km/h (0 Bft) S-SO 150 ° 0 min 0,000 mm 1,8 UV-I 385 W/m² 7,6 °C 9,5 °C 0,0 km/h (0 Bft)
21.09.2019 09:44 9,6 °C 88 % 1021,1 hPa 0,0 mm 0,0 km/h (0 Bft) S-SO 150 ° 0 min 0,000 mm 1,8 UV-I 392 W/m² 7,7 °C 9,6 °C 0,0 km/h (0 Bft)
21.09.2019 09:45 9,7 °C 88 % 1021,1 hPa 0,0 mm 0,0 km/h (0 Bft) S-SO 150 ° 0 min 0,000 mm 1,9 UV-I 396 W/m² 7,8 °C 9,7 °C 0,0 km/h (0 Bft)
21.09.2019 09:46 9,7 °C 88 % 1021,0 hPa 0,0 mm 0,0 km/h (0 Bft) S-SO 150 ° 0 min 0,000 mm 1,9 UV-I 399 W/m² 7,8 °C 9,7 °C 0,0 km/h (0 Bft)
21.09.2019 09:47 9,8 °C 87 % 1021,0 hPa 0,0 mm 0,0 km/h (0 Bft) S-SO 150 ° 0 min 0,000 mm 1,9 UV-I 401 W/m² 7,7 °C 9,8 °C 0,0 km/h (0 Bft)
21.09.2019 09:48 9,9 °C 87 % 1021,1 hPa 0,0 mm 0,0 km/h (0 Bft) S-SO 150 ° 0 min 0,000 mm 1,9 UV-I 404 W/m² 7,8 °C 9,9 °C 0,0 km/h (0 Bft)
21.09.2019 09:49 9,9 °C 87 % 1021,0 hPa 0,0 mm 0,0 km/h (0 Bft) S-SO 150 ° 0 min 0,000 mm 2,0 UV-I 408 W/m² 7,8 °C 9,9 °C 0,0 km/h (0 Bft)
21.09.2019 09:50 9,9 °C 86 % 1021,0 hPa 0,0 mm 0,0 km/h (0 Bft) S-SO 150 ° 0 min 0,000 mm 2,0 UV-I 411 W/m² 7,7 °C 9,9 °C 0,0 km/h (0 Bft)
21.09.2019 09:51 10,0 °C 86 % 1021,0 hPa 0,0 mm 0,0 km/h (0 Bft) S-SO 150 ° 0 min 0,000 mm 2,0 UV-I 413 W/m² 7,8 °C 10,0 °C 0,0 km/h (0 Bft)
21.09.2019 09:52 10,1 °C 85 % 1021,0 hPa 0,0 mm 0,0 km/h (0 Bft) S-SO 150 ° 0 min 0,000 mm 2,0 UV-I 417 W/m² 7,7 °C 10,1 °C 0,0 km/h (0 Bft)
21.09.2019 09:53 10,2 °C 85 % 1021,0 hPa 0,0 mm 0,0 km/h (0 Bft) S-SO 150 ° 0 min 0,000 mm 2,1 UV-I 418 W/m² 7,8 °C 10,2 °C 0,0 km/h (0 Bft)
21.09.2019 09:54 10,2 °C 84 % 1021,0 hPa 0,0 mm 0,0 km/h (0 Bft) S-SO 150 ° 0 min 0,000 mm 2,1 UV-I 420 W/m² 7,6 °C 10,2 °C 0,0 km/h (0 Bft)
21.09.2019 09:55 10,3 °C 84 % 1021,0 hPa 0,0 mm 0,0 km/h (0 Bft) S-SO 150 ° 0 min 0,000 mm 2,1 UV-I 424 W/m² 7,7 °C 10,3 °C 0,0 km/h (0 Bft)
21.09.2019 09:56 10,4 °C 83 % 1021,0 hPa 0,0 mm 0,0 km/h (0 Bft) S-SO 150 ° 0 min 0,000 mm 2,2 UV-I 427 W/m² 7,6 °C 10,4 °C 0,0 km/h (0 Bft)
21.09.2019 09:57 10,4 °C 83 % 1021,0 hPa 0,0 mm 0,0 km/h (0 Bft) S-SO 150 ° 0 min 0,000 mm 2,2 UV-I 429 W/m² 7,6 °C 10,4 °C 0,0 km/h (0 Bft)
21.09.2019 09:58 10,5 °C 82 % 1021,0 hPa 0,0 mm 0,0 km/h (0 Bft) S-SO 150 ° 0 min 0,000 mm 2,2 UV-I 431 W/m² 7,6 °C 10,5 °C 0,0 km/h (0 Bft)
21.09.2019 09:59 10,6 °C 82 % 1021,0 hPa 0,0 mm 0,0 km/h (0 Bft) S-SO 150 ° 0 min 0,000 mm 2,2 UV-I 431 W/m² 7,7 °C 10,6 °C 0,0 km/h (0 Bft)
21.09.2019 10:00 10,7 °C 82 % 1021,0 hPa 0,0 mm 0,0 km/h (0 Bft) S-SO 150 ° 0 min 0,000 mm 2,3 UV-I 439 W/m² 7,8 °C 10,7 °C 0,0 km/h (0 Bft)
21.09.2019 10:01 10,7 °C 82 % 1021,1 hPa 0,0 mm 0,0 km/h (0 Bft) S-SO 150 ° 0 min 0,153 mm 2,3 UV-I 443 W/m² 7,8 °C 10,7 °C 0,0 km/h (0 Bft)
21.09.2019 10:02 10,7 °C 83 % 1021,1 hPa 0,0 mm 0,0 km/h (0 Bft) S-SO 150 ° 0 min 0,000 mm 2,3 UV-I 446 W/m² 7,9 °C 10,7 °C 0,0 km/h (0 Bft)
21.09.2019 10:03 10,8 °C 83 % 1021,1 hPa 0,0 mm 0,0 km/h (0 Bft) S-SO 150 ° 0 min 0,000 mm 2,4 UV-I 450 W/m² 8,0 °C 10,8 °C 0,0 km/h (0 Bft)
21.09.2019 10:04 10,9 °C 82 % 1021,1 hPa 0,0 mm 0,0 km/h (0 Bft) S-SO 150 ° 0 min 0,000 mm 2,4 UV-I 452 W/m² 7,9 °C 10,9 °C 0,0 km/h (0 Bft)
21.09.2019 10:05 10,9 °C 82 % 1021,0 hPa 0,0 mm 0,0 km/h (0 Bft) S-SO 150 ° 0 min 0,000 mm 2,4 UV-I 454 W/m² 7,9 °C 10,9 °C 0,0 km/h (0 Bft)
21.09.2019 10:06 10,9 °C 82 % 1021,1 hPa 0,0 mm 0,0 km/h (0 Bft) S-SO 150 ° 0 min 0,000 mm 2,4 UV-I 457 W/m² 7,9 °C 10,9 °C 0,0 km/h (0 Bft)
21.09.2019 10:07 11,0 °C 82 % 1021,0 hPa 0,0 mm 0,0 km/h (0 Bft) S-SO 150 ° 0 min 0,000 mm 2,4 UV-I 461 W/m² 8,0 °C 11,0 °C 0,0 km/h (0 Bft)
21.09.2019 10:08 11,1 °C 82 % 1021,0 hPa 0,0 mm 0,0 km/h (0 Bft) S-SO 150 ° 0 min 0,000 mm 2,5 UV-I 462 W/m² 8,1 °C 11,1 °C 0,0 km/h (0 Bft)
21.09.2019 10:09 11,1 °C 82 % 1021,0 hPa 0,0 mm 0,0 km/h (0 Bft) S-SO 150 ° 0 min 0,000 mm 2,5 UV-I 466 W/m² 8,1 °C 11,1 °C 0,0 km/h (0 Bft)
21.09.2019 10:10 11,2 °C 81 % 1021,0 hPa 0,0 mm 0,0 km/h (0 Bft) S-SO 150 ° 0 min 0,000 mm 2,5 UV-I 466 W/m² 8,1 °C 11,2 °C 0,0 km/h (0 Bft)
21.09.2019 10:11 11,2 °C 81 % 1021,0 hPa 0,0 mm 0,0 km/h (0 Bft) S-SO 150 ° 0 min 0,000 mm 2,5 UV-I 468 W/m² 8,1 °C 11,2 °C 0,0 km/h (0 Bft)
21.09.2019 10:12 11,2 °C 81 % 1021,0 hPa 0,0 mm 0,0 km/h (0 Bft) S-SO 150 ° 0 min 0,000 mm 2,5 UV-I 471 W/m² 8,1 °C 11,2 °C 0,0 km/h (0 Bft)
21.09.2019 10:13 11,3 °C 81 % 1021,0 hPa 0,0 mm 0,0 km/h (0 Bft) S-SO 150 ° 0 min 0,000 mm 2,5 UV-I 475 W/m² 8,2 °C 11,3 °C 0,0 km/h (0 Bft)
21.09.2019 10:14 11,3 °C 80 % 1021,0 hPa 0,0 mm 0,0 km/h (0 Bft) S-SO 150 ° 0 min 0,000 mm 2,6 UV-I 476 W/m² 8,0 °C 11,3 °C 0,0 km/h (0 Bft)
21.09.2019 10:15 11,4 °C 80 % 1021,0 hPa 0,0 mm 0,0 km/h (0 Bft) S-SO 150 ° 0 min 0,000 mm 2,6 UV-I 478 W/m² 8,1 °C 11,4 °C 0,0 km/h (0 Bft)
21.09.2019 10:16 11,4 °C 81 % 1021,0 hPa 0,0 mm 0,0 km/h (0 Bft) S-SO 150 ° 0 min 0,000 mm 2,6 UV-I 480 W/m² 8,3 °C 11,4 °C 0,0 km/h (0 Bft)
21.09.2019 10:17 11,4 °C 81 % 1021,0 hPa 0,0 mm 0,0 km/h (0 Bft) S-SO 150 ° 0 min 0,000 mm 2,6 UV-I 480 W/m² 8,3 °C 11,4 °C 0,0 km/h (0 Bft)
21.09.2019 10:18 11,5 °C 81 % 1021,0 hPa 0,0 mm 0,0 km/h (0 Bft) S-SO 150 ° 0 min 0,000 mm 2,7 UV-I 487 W/m² 8,4 °C 11,5 °C 0,0 km/h (0 Bft)
21.09.2019 10:19 11,5 °C 81 % 1021,0 hPa 0,0 mm 0,0 km/h (0 Bft) S-SO 150 ° 0 min 0,000 mm 2,7 UV-I 489 W/m² 8,4 °C 11,5 °C 0,0 km/h (0 Bft)
21.09.2019 10:20 11,4 °C 81 % 1020,9 hPa 0,0 mm 0,0 km/h (0 Bft) S-SO 150 ° 0 min 0,000 mm 2,7 UV-I 490 W/m² 8,3 °C 11,4 °C 0,0 km/h (0 Bft)
21.09.2019 10:21 11,6 °C 81 % 1021,0 hPa 0,0 mm 0,0 km/h (0 Bft) S-SO 150 ° 0 min 0,000 mm 2,7 UV-I 494 W/m² 8,5 °C 11,6 °C 0,0 km/h (0 Bft)
21.09.2019 10:22 11,6 °C 81 % 1020,9 hPa 0,0 mm 0,0 km/h (0 Bft) S-SO 150 ° 0 min 0,000 mm 2,7 UV-I 494 W/m² 8,5 °C 11,6 °C 0,0 km/h (0 Bft)
21.09.2019 10:23 11,7 °C 81 % 1020,9 hPa 0,0 mm 0,0 km/h (0 Bft) S-SO 150 ° 0 min 0,000 mm 2,8 UV-I 497 W/m² 8,5 °C 11,7 °C 0,0 km/h (0 Bft)
21.09.2019 10:24 11,8 °C 80 % 1020,9 hPa 0,0 mm 0,0 km/h (0 Bft) S-SO 150 ° 0 min 0,000 mm 2,8 UV-I 501 W/m² 8,5 °C 11,8 °C 0,0 km/h (0 Bft)
21.09.2019 10:25 11,9 °C 80 % 1021,0 hPa 0,0 mm 0,0 km/h (0 Bft) S-SO 150 ° 0 min 0,000 mm 2,8 UV-I 503 W/m² 8,6 °C 11,9 °C 0,0 km/h (0 Bft)
21.09.2019 10:26 12,0 °C 80 % 1020,9 hPa 0,0 mm 0,0 km/h (0 Bft) S-SO 150 ° 0 min 0,000 mm 2,8 UV-I 503 W/m² 8,7 °C 12,0 °C 0,0 km/h (0 Bft)
21.09.2019 10:27 12,2 °C 79 % 1021,0 hPa 0,0 mm 0,0 km/h (0 Bft) S-SO 150 ° 0 min 0,000 mm 2,8 UV-I 506 W/m² 8,7 °C 12,2 °C 0,0 km/h (0 Bft)
21.09.2019 10:28 12,3 °C 79 % 1020,9 hPa 0,0 mm 0,0 km/h (0 Bft) S-SO 150 ° 0 min 0,000 mm 2,9 UV-I 508 W/m² 8,8 °C 12,3 °C 0,0 km/h (0 Bft)
21.09.2019 10:29 12,4 °C 79 % 1021,0 hPa 0,0 mm 0,0 km/h (0 Bft) S-SO 150 ° 0 min 0,000 mm 2,9 UV-I 510 W/m² 8,9 °C 12,4 °C 0,0 km/h (0 Bft)
21.09.2019 10:30 12,6 °C 78 % 1021,0 hPa 0,0 mm 0,0 km/h (0 Bft) S-SO 150 ° 0 min 0,000 mm 2,9 UV-I 513 W/m² 8,9 °C 12,6 °C 0,0 km/h (0 Bft)
21.09.2019 10:31 12,6 °C 78 % 1021,0 hPa 0,0 mm 0,0 km/h (0 Bft) S-SO 150 ° 0 min 0,000 mm 2,9 UV-I 515 W/m² 8,9 °C 12,6 °C 0,0 km/h (0 Bft)
21.09.2019 10:32 12,6 °C 78 % 1021,0 hPa 0,0 mm 0,0 km/h (0 Bft) S-SO 150 ° 0 min 0,000 mm 3,0 UV-I 519 W/m² 8,9 °C 12,6 °C 0,0 km/h (0 Bft)
21.09.2019 10:33 12,6 °C 78 % 1020,9 hPa 0,0 mm 0,0 km/h (0 Bft) S-SO 150 ° 0 min 0,000 mm 3,0 UV-I 520 W/m² 8,9 °C 12,6 °C 0,0 km/h (0 Bft)
21.09.2019 10:34 12,6 °C 78 % 1021,0 hPa 0,0 mm 0,0 km/h (0 Bft) S-SO 150 ° 0 min 0,000 mm 3,0 UV-I 522 W/m² 8,9 °C 12,6 °C 0,0 km/h (0 Bft)
21.09.2019 10:35 12,5 °C 79 % 1021,0 hPa 0,0 mm 0,0 km/h (0 Bft) S-SO 150 ° 0 min 0,000 mm 3,0 UV-I 522 W/m² 9,0 °C 12,5 °C 0,0 km/h (0 Bft)
21.09.2019 10:36 12,5 °C 79 % 1020,9 hPa 0,0 mm 0,0 km/h (0 Bft) S-SO 150 ° 0 min 0,000 mm 3,0 UV-I 527 W/m² 9,0 °C 12,5 °C 0,0 km/h (0 Bft)
21.09.2019 10:37 12,6 °C 79 % 1020,9 hPa 0,0 mm 0,3 km/h (0 Bft) W 281 ° 0 min 0,000 mm 3,1 UV-I 529 W/m² 9,1 °C 12,6 °C 3,2 km/h (1 Bft)
21.09.2019 10:38 12,6 °C 80 % 1020,9 hPa 0,0 mm 2,4 km/h (1 Bft) W 281 ° 0 min 0,000 mm 3,1 UV-I 531 W/m² 9,2 °C 12,6 °C 4,8 km/h (1 Bft)
21.09.2019 10:39 12,7 °C 77 % 1020,9 hPa 0,0 mm 0,2 km/h (0 Bft) W 281 ° 0 min 0,000 mm 3,1 UV-I 533 W/m² 8,8 °C 12,7 °C 1,6 km/h (1 Bft)
21.09.2019 10:40 13,0 °C 76 % 1020,9 hPa 0,0 mm 0,0 km/h (0 Bft) W 281 ° 0 min 0,000 mm 3,1 UV-I 534 W/m² 8,9 °C 13,0 °C 0,0 km/h (0 Bft)
21.09.2019 10:41 13,2 °C 75 % 1020,9 hPa 0,0 mm 0,0 km/h (0 Bft) W 281 ° 0 min 0,000 mm 3,1 UV-I 536 W/m² 8,9 °C 13,2 °C 0,0 km/h (0 Bft)
21.09.2019 10:42 13,3 °C 74 % 1020,9 hPa 0,0 mm 1,0 km/h (0 Bft) W 281 ° 0 min 0,000 mm 3,1 UV-I 538 W/m² 8,8 °C 13,3 °C 1,6 km/h (1 Bft)
21.09.2019 10:43 13,3 °C 74 % 1020,9 hPa 0,0 mm 0,0 km/h (0 Bft) W 281 ° 0 min 0,000 mm 3,2 UV-I 543 W/m² 8,8 °C 13,3 °C 0,0 km/h (0 Bft)
21.09.2019 10:44 13,2 °C 75 % 1020,9 hPa 0,0 mm 0,0 km/h (0 Bft) W 281 ° 0 min 0,000 mm 3,2 UV-I 545 W/m² 8,9 °C 13,2 °C 0,0 km/h (0 Bft)
21.09.2019 10:45 13,2 °C 75 % 1020,9 hPa 0,0 mm 0,0 km/h (0 Bft) W 281 ° 0 min 0,000 mm 3,2 UV-I 545 W/m² 8,9 °C 13,2 °C 0,0 km/h (0 Bft)
21.09.2019 10:46 13,2 °C 75 % 1020,9 hPa 0,0 mm 2,6 km/h (1 Bft) W 281 ° 0 min 0,000 mm 3,2 UV-I 548 W/m² 8,9 °C 13,2 °C 4,8 km/h (1 Bft)
21.09.2019 10:47 13,1 °C 76 % 1020,9 hPa 0,0 mm 1,7 km/h (1 Bft) W 281 ° 0 min 0,000 mm 3,2 UV-I 550 W/m² 9,0 °C 13,1 °C 3,2 km/h (1 Bft)
21.09.2019 10:48 13,1 °C 77 % 1020,9 hPa 0,0 mm 2,6 km/h (1 Bft) W 280 ° 0 min 0,000 mm 3,2 UV-I 550 W/m² 9,2 °C 13,1 °C 6,4 km/h (2 Bft)
21.09.2019 10:49 13,2 °C 77 % 1020,9 hPa 0,0 mm 3,0 km/h (1 Bft) S-SW 213 ° 0 min 0,000 mm 3,3 UV-I 554 W/m² 9,3 °C 13,2 °C 4,8 km/h (1 Bft)
21.09.2019 10:50 13,4 °C 77 % 1020,9 hPa 0,0 mm 0,5 km/h (0 Bft) S-SW 213 ° 0 min 0,000 mm 3,3 UV-I 555 W/m² 9,5 °C 13,4 °C 1,6 km/h (1 Bft)
21.09.2019 10:51 13,5 °C 73 % 1020,8 hPa 0,0 mm 0,0 km/h (0 Bft) S-SW 213 ° 0 min 0,000 mm 3,3 UV-I 557 W/m² 8,8 °C 13,5 °C 0,0 km/h (0 Bft)
21.09.2019 10:52 13,5 °C 73 % 1020,8 hPa 0,0 mm 0,0 km/h (0 Bft) S-SW 213 ° 0 min 0,000 mm 3,3 UV-I 559 W/m² 8,8 °C 13,5 °C 0,0 km/h (0 Bft)
21.09.2019 10:53 13,5 °C 72 % 1020,8 hPa 0,0 mm 0,4 km/h (0 Bft) S-SW 213 ° 0 min 0,000 mm 3,3 UV-I 563 W/m² 8,6 °C 13,5 °C 3,2 km/h (1 Bft)
21.09.2019 10:54 13,4 °C 73 % 1020,8 hPa 0,0 mm 0,7 km/h (0 Bft) S-SW 213 ° 0 min 0,000 mm 3,3 UV-I 564 W/m² 8,7 °C 13,4 °C 3,2 km/h (1 Bft)
21.09.2019 10:55 13,4 °C 73 % 1020,8 hPa 0,0 mm 0,0 km/h (0 Bft) S-SW 213 ° 0 min 0,000 mm 3,4 UV-I 564 W/m² 8,7 °C 13,4 °C 0,0 km/h (0 Bft)
21.09.2019 10:56 13,4 °C 73 % 1020,7 hPa 0,0 mm 0,4 km/h (0 Bft) S-SW 213 ° 0 min 0,000 mm 3,4 UV-I 568 W/m² 8,7 °C 13,4 °C 1,6 km/h (1 Bft)
21.09.2019 10:57 13,4 °C 74 % 1020,8 hPa 0,0 mm 1,7 km/h (1 Bft) S-SW 213 ° 0 min 0,000 mm 3,4 UV-I 570 W/m² 8,9 °C 13,4 °C 3,2 km/h (1 Bft)
21.09.2019 10:58 13,6 °C 76 % 1020,8 hPa 0,0 mm 0,1 km/h (0 Bft) S-SW 213 ° 0 min 0,000 mm 3,4 UV-I 570 W/m² 9,4 °C 13,6 °C 1,6 km/h (1 Bft)
21.09.2019 10:59 13,7 °C 75 % 1020,8 hPa 0,0 mm 0,0 km/h (0 Bft) S-SW 213 ° 0 min 0,000 mm 3,4 UV-I 575 W/m² 9,3 °C 13,7 °C 0,0 km/h (0 Bft)
21.09.2019 11:00 13,9 °C 78 % 1020,8 hPa 0,0 mm 0,0 km/h (0 Bft) S-SW 213 ° 0 min 0,254 mm 3,5 UV-I 575 W/m² 10,1 °C 13,9 °C 0,0 km/h (0 Bft)
21.09.2019 11:01 14,1 °C 77 % 1020,8 hPa 0,0 mm 0,0 km/h (0 Bft) S-SW 213 ° 0 min 0,000 mm 3,5 UV-I 578 W/m² 10,1 °C 14,1 °C 0,0 km/h (0 Bft)
21.09.2019 11:02 14,2 °C 74 % 1020,8 hPa 0,0 mm 0,5 km/h (0 Bft) S-SW 213 ° 0 min 0,000 mm 3,5 UV-I 580 W/m² 9,6 °C 14,2 °C 1,6 km/h (1 Bft)
21.09.2019 11:03 14,3 °C 72 % 1020,8 hPa 0,0 mm 0,3 km/h (0 Bft) S-SW 213 ° 0 min 0,000 mm 3,5 UV-I 582 W/m² 9,3 °C 14,3 °C 1,6 km/h (1 Bft)
21.09.2019 11:04 14,4 °C 69 % 1020,7 hPa 0,0 mm 5,7 km/h (1 Bft) W-SW 247 ° 0 min 0,000 mm 3,5 UV-I 582 W/m² 8,8 °C 14,4 °C 12,9 km/h (3 Bft)
21.09.2019 11:05 14,6 °C 68 % 1020,7 hPa 0,0 mm 6,8 km/h (2 Bft) W-NW 290 ° 0 min 0,000 mm 3,6 UV-I 585 W/m² 8,8 °C 14,6 °C 12,9 km/h (3 Bft)
21.09.2019 11:06 14,9 °C 67 % 1020,8 hPa 0,0 mm 4,0 km/h (1 Bft) W-NW 293 ° 0 min 0,000 mm 3,6 UV-I 585 W/m² 8,8 °C 14,9 °C 6,4 km/h (2 Bft)
21.09.2019 11:07 15,2 °C 67 % 1020,7 hPa 0,0 mm 4,7 km/h (1 Bft) W-NW 299 ° 0 min 0,000 mm 3,6 UV-I 587 W/m² 9,1 °C 15,2 °C 9,7 km/h (2 Bft)
21.09.2019 11:08 15,3 °C 65 % 1020,7 hPa 0,0 mm 2,9 km/h (1 Bft) W 279 ° 0 min 0,000 mm 3,6 UV-I 589 W/m² 8,8 °C 15,3 °C 4,8 km/h (1 Bft)
21.09.2019 11:09 15,4 °C 64 % 1020,7 hPa 0,0 mm 1,6 km/h (1 Bft) W 279 ° 0 min 0,000 mm 3,6 UV-I 591 W/m² 8,6 °C 15,4 °C 3,2 km/h (1 Bft)
21.09.2019 11:10 15,7 °C 68 % 1020,6 hPa 0,0 mm 2,1 km/h (1 Bft) NW 313 ° 0 min 0,000 mm 3,6 UV-I 592 W/m² 9,8 °C 15,7 °C 4,8 km/h (1 Bft)
21.09.2019 11:11 15,9 °C 69 % 1020,6 hPa 0,0 mm 2,5 km/h (1 Bft) NW 324 ° 0 min 0,000 mm 3,7 UV-I 594 W/m² 10,2 °C 15,9 °C 4,8 km/h (1 Bft)
21.09.2019 11:12 16,1 °C 65 % 1020,6 hPa 0,0 mm 0,1 km/h (0 Bft) NW 324 ° 0 min 0,000 mm 3,7 UV-I 594 W/m² 9,5 °C 16,1 °C 1,6 km/h (1 Bft)
21.09.2019 11:13 16,0 °C 67 % 1020,6 hPa 0,0 mm 4,1 km/h (1 Bft) NW 324 ° 0 min 0,000 mm 3,7 UV-I 596 W/m² 9,9 °C 16,0 °C 6,4 km/h (2 Bft)
21.09.2019 11:14 15,9 °C 68 % 1020,6 hPa 0,0 mm 4,6 km/h (1 Bft) NW 311 ° 0 min 0,000 mm 3,7 UV-I 598 W/m² 10,0 °C 15,9 °C 6,4 km/h (2 Bft)
21.09.2019 11:15 15,9 °C 67 % 1020,6 hPa 0,0 mm 3,5 km/h (1 Bft) NW 306 ° 0 min 0,000 mm 3,7 UV-I 599 W/m² 9,8 °C 15,9 °C 4,8 km/h (1 Bft)
21.09.2019 11:16 15,9 °C 64 % 1020,5 hPa 0,0 mm 2,4 km/h (1 Bft) NW 311 ° 0 min 0,000 mm 3,7 UV-I 599 W/m² 9,1 °C 15,9 °C 6,4 km/h (2 Bft)
21.09.2019 11:17 16,0 °C 70 % 1020,6 hPa 0,0 mm 3,6 km/h (1 Bft) N 350 ° 1 min 0,000 mm 3,8 UV-I 603 W/m² 10,5 °C 16,0 °C 6,4 km/h (2 Bft)
21.09.2019 11:18 16,0 °C 63 % 1020,5 hPa 0,0 mm 3,9 km/h (1 Bft) N 355 ° 1 min 0,000 mm 3,8 UV-I 605 W/m² 9,0 °C 16,0 °C 6,4 km/h (2 Bft)
21.09.2019 11:19 16,1 °C 66 % 1020,5 hPa 0,0 mm 3,8 km/h (1 Bft) W-NW 290 ° 1 min 0,000 mm 3,8 UV-I 605 W/m² 9,7 °C 16,1 °C 6,4 km/h (2 Bft)
21.09.2019 11:20 16,1 °C 61 % 1020,5 hPa 0,0 mm 1,5 km/h (1 Bft) W-NW 290 ° 1 min 0,000 mm 3,8 UV-I 606 W/m² 8,6 °C 16,1 °C 3,2 km/h (1 Bft)
21.09.2019 11:21 16,1 °C 63 % 1020,5 hPa 0,0 mm 3,1 km/h (1 Bft) NW 313 ° 1 min 0,000 mm 3,8 UV-I 610 W/m² 9,1 °C 16,1 °C 4,8 km/h (1 Bft)
21.09.2019 11:22 16,1 °C 62 % 1020,5 hPa 0,0 mm 7,1 km/h (2 Bft) N-NW 336 ° 1 min 0,000 mm 3,8 UV-I 612 W/m² 8,8 °C 16,1 °C 9,7 km/h (2 Bft)
21.09.2019 11:23 16,3 °C 63 % 1020,5 hPa 0,0 mm 4,2 km/h (1 Bft) NW 319 ° 1 min 0,000 mm 3,8 UV-I 613 W/m² 9,2 °C 16,3 °C 6,4 km/h (2 Bft)
21.09.2019 11:24 16,2 °C 61 % 1020,5 hPa 0,0 mm 4,2 km/h (1 Bft) W-NW 285 ° 1 min 0,000 mm 3,9 UV-I 615 W/m² 8,7 °C 16,2 °C 6,4 km/h (2 Bft)
21.09.2019 11:25 16,3 °C 62 % 1020,4 hPa 0,0 mm 4,1 km/h (1 Bft) NW 318 ° 1 min 0,000 mm 3,9 UV-I 617 W/m² 9,0 °C 16,3 °C 6,4 km/h (2 Bft)
21.09.2019 11:26 16,3 °C 63 % 1020,4 hPa 0,0 mm 5,4 km/h (1 Bft) NW 326 ° 1 min 0,000 mm 3,9 UV-I 619 W/m² 9,2 °C 16,3 °C 6,4 km/h (2 Bft)
21.09.2019 11:27 16,3 °C 61 % 1020,4 hPa 0,0 mm 2,7 km/h (1 Bft) NW 326 ° 1 min 0,000 mm 3,9 UV-I 619 W/m² 8,8 °C 16,3 °C 6,4 km/h (2 Bft)
21.09.2019 11:28 16,2 °C 64 % 1020,5 hPa 0,0 mm 3,1 km/h (1 Bft) NW 321 ° 1 min 0,000 mm 3,9 UV-I 619 W/m² 9,4 °C 16,2 °C 4,8 km/h (1 Bft)
21.09.2019 11:29 16,3 °C 64 % 1020,4 hPa 0,0 mm 2,4 km/h (1 Bft) N 355 ° 1 min 0,000 mm 3,9 UV-I 622 W/m² 9,5 °C 16,3 °C 4,8 km/h (1 Bft)
21.09.2019 11:30 16,3 °C 65 % 1020,5 hPa 0,0 mm 3,1 km/h (1 Bft) N 355 ° 1 min 0,000 mm 4,0 UV-I 624 W/m² 9,7 °C 16,3 °C 4,8 km/h (1 Bft)
21.09.2019 11:31 16,4 °C 66 % 1020,4 hPa 0,0 mm 3,8 km/h (1 Bft) W 273 ° 1 min 0,000 mm 4,0 UV-I 624 W/m² 10,0 °C 16,4 °C 9,7 km/h (2 Bft)
21.09.2019 11:32 16,3 °C 62 % 1020,4 hPa 0,0 mm 4,4 km/h (1 Bft) W 273 ° 1 min 0,000 mm 4,0 UV-I 626 W/m² 9,0 °C 16,3 °C 6,4 km/h (2 Bft)
21.09.2019 11:33 16,2 °C 61 % 1020,4 hPa 0,0 mm 3,2 km/h (1 Bft) W 273 ° 1 min 0,000 mm 4,0 UV-I 629 W/m² 8,7 °C 16,2 °C 4,8 km/h (1 Bft)
21.09.2019 11:34 16,3 °C 63 % 1020,5 hPa 0,0 mm 1,8 km/h (1 Bft) W 273 ° 1 min 0,000 mm 4,0 UV-I 629 W/m² 9,2 °C 16,3 °C 3,2 km/h (1 Bft)
21.09.2019 11:35 16,2 °C 61 % 1020,4 hPa 0,0 mm 1,8 km/h (1 Bft) W 273 ° 1 min 0,000 mm 4,0 UV-I 631 W/m² 8,7 °C 16,2 °C 4,8 km/h (1 Bft)
21.09.2019 11:36 16,4 °C 68 % 1020,4 hPa 0,0 mm 3,3 km/h (1 Bft) W 273 ° 1 min 0,000 mm 4,0 UV-I 633 W/m² 10,5 °C 16,4 °C 6,4 km/h (2 Bft)
21.09.2019 11:37 16,4 °C 64 % 1020,4 hPa 0,0 mm 3,2 km/h (1 Bft) W 273 ° 1 min 0,000 mm 4,1 UV-I 633 W/m² 9,6 °C 16,4 °C 4,8 km/h (1 Bft)
21.09.2019 11:38 16,6 °C 68 % 1020,4 hPa 0,0 mm 4,0 km/h (1 Bft) NW 321 ° 1 min 0,000 mm 4,1 UV-I 635 W/m² 10,7 °C 16,6 °C 6,4 km/h (2 Bft)
21.09.2019 11:39 16,6 °C 68 % 1020,4 hPa 0,0 mm 4,4 km/h (1 Bft) W-NW 290 ° 1 min 0,000 mm 4,1 UV-I 636 W/m² 10,7 °C 16,6 °C 6,4 km/h (2 Bft)
21.09.2019 11:40 16,6 °C 63 % 1020,4 hPa 0,0 mm 3,5 km/h (1 Bft) NW 313 ° 1 min 0,000 mm 4,1 UV-I 638 W/m² 9,5 °C 16,6 °C 6,4 km/h (2 Bft)
21.09.2019 11:41 16,6 °C 62 % 1020,4 hPa 0,0 mm 3,3 km/h (1 Bft) NW 317 ° 1 min 0,000 mm 4,1 UV-I 638 W/m² 9,3 °C 16,6 °C 4,8 km/h (1 Bft)
21.09.2019 11:42 16,6 °C 63 % 1020,4 hPa 0,0 mm 1,9 km/h (1 Bft) NW 317 ° 1 min 0,000 mm 4,2 UV-I 640 W/m² 9,5 °C 16,6 °C 3,2 km/h (1 Bft)
21.09.2019 11:43 16,7 °C 64 % 1020,4 hPa 0,0 mm 1,3 km/h (1 Bft) NW 317 ° 1 min 0,000 mm 4,2 UV-I 642 W/m² 9,9 °C 16,7 °C 3,2 km/h (1 Bft)
21.09.2019 11:44 16,6 °C 61 % 1020,4 hPa 0,0 mm 1,0 km/h (0 Bft) NW 317 ° 1 min 0,000 mm 4,2 UV-I 642 W/m² 9,0 °C 16,6 °C 3,2 km/h (1 Bft)
21.09.2019 11:45 16,4 °C 65 % 1020,4 hPa 0,0 mm 0,5 km/h (0 Bft) NW 317 ° 1 min 0,000 mm 4,2 UV-I 645 W/m² 9,8 °C 16,4 °C 3,2 km/h (1 Bft)
21.09.2019 11:46 16,1 °C 64 % 1020,4 hPa 0,0 mm 0,7 km/h (0 Bft) NW 317 ° 1 min 0,000 mm 4,2 UV-I 645 W/m² 9,3 °C 16,1 °C 3,2 km/h (1 Bft)
21.09.2019 11:47 15,8 °C 65 % 1020,4 hPa 0,0 mm 4,6 km/h (1 Bft) N-NW 340 ° 1 min 0,000 mm 4,2 UV-I 649 W/m² 9,2 °C 15,8 °C 6,4 km/h (2 Bft)
21.09.2019 11:48 15,9 °C 66 % 1020,5 hPa 0,0 mm 3,1 km/h (1 Bft) N-NW 339 ° 1 min 0,000 mm 4,2 UV-I 650 W/m² 9,6 °C 15,9 °C 6,4 km/h (2 Bft)
21.09.2019 11:49 16,1 °C 65 % 1020,4 hPa 0,0 mm 0,2 km/h (0 Bft) N-NW 339 ° 1 min 0,000 mm 4,2 UV-I 649 W/m² 9,5 °C 16,1 °C 1,6 km/h (1 Bft)
21.09.2019 11:50 16,3 °C 66 % 1020,4 hPa 0,0 mm 3,9 km/h (1 Bft) NW 322 ° 1 min 0,000 mm 4,2 UV-I 652 W/m² 9,9 °C 16,3 °C 8,0 km/h (2 Bft)
21.09.2019 11:51 16,4 °C 64 % 1020,5 hPa 0,0 mm 4,6 km/h (1 Bft) N-NW 327 ° 1 min 0,000 mm 4,2 UV-I 652 W/m² 9,6 °C 16,4 °C 8,0 km/h (2 Bft)
21.09.2019 11:52 16,6 °C 63 % 1020,4 hPa 0,0 mm 2,3 km/h (1 Bft) NW 321 ° 1 min 0,000 mm 4,2 UV-I 654 W/m² 9,5 °C 16,6 °C 4,8 km/h (1 Bft)
21.09.2019 11:53 16,7 °C 64 % 1020,5 hPa 0,0 mm 2,8 km/h (1 Bft) N 349 ° 1 min 0,000 mm 4,3 UV-I 657 W/m² 9,9 °C 16,7 °C 4,8 km/h (1 Bft)
21.09.2019 11:54 16,8 °C 63 % 1020,4 hPa 0,0 mm 3,2 km/h (1 Bft) N-NO 21 ° 1 min 0,000 mm 4,3 UV-I 656 W/m² 9,7 °C 16,8 °C 4,8 km/h (1 Bft)
21.09.2019 11:55 16,7 °C 61 % 1020,4 hPa 0,0 mm 2,1 km/h (1 Bft) N-NO 21 ° 1 min 0,000 mm 4,3 UV-I 657 W/m² 9,1 °C 16,7 °C 3,2 km/h (1 Bft)
21.09.2019 11:56 16,6 °C 62 % 1020,4 hPa 0,0 mm 2,5 km/h (1 Bft) N-NO 29 ° 1 min 0,000 mm 4,3 UV-I 657 W/m² 9,3 °C 16,6 °C 4,8 km/h (1 Bft)
21.09.2019 11:57 16,6 °C 62 % 1020,4 hPa 0,0 mm 2,3 km/h (1 Bft) N-NO 29 ° 1 min 0,000 mm 4,3 UV-I 661 W/m² 9,3 °C 16,6 °C 3,2 km/h (1 Bft)
21.09.2019 11:58 16,4 °C 63 % 1020,4 hPa 0,0 mm 1,9 km/h (1 Bft) N-NO 29 ° 1 min 0,000 mm 4,3 UV-I 661 W/m² 9,3 °C 16,4 °C 3,2 km/h (1 Bft)
21.09.2019 11:59 16,0 °C 64 % 1020,4 hPa 0,0 mm 0,0 km/h (0 Bft) N-NO 29 ° 1 min 0,000 mm 4,3 UV-I 664 W/m² 9,2 °C 16,0 °C 0,0 km/h (0 Bft)
21.09.2019 12:00 15,9 °C 67 % 1020,4 hPa 0,0 mm 0,3 km/h (0 Bft) N-NO 29 ° 1 min 0,000 mm 4,3 UV-I 664 W/m² 9,8 °C 15,9 °C 1,6 km/h (1 Bft)
21.09.2019 12:01 15,9 °C 70 % 1020,3 hPa 0,0 mm 0,0 km/h (0 Bft) N-NO 29 ° 1 min 0,355 mm 4,3 UV-I 666 W/m² 10,4 °C 15,9 °C 0,0 km/h (0 Bft)
21.09.2019 12:02 15,9 °C 68 % 1020,3 hPa 0,0 mm 0,0 km/h (0 Bft) N-NO 29 ° 1 min 0,000 mm 4,3 UV-I 666 W/m² 10,0 °C 15,9 °C 0,0 km/h (0 Bft)
21.09.2019 12:03 15,9 °C 67 % 1020,3 hPa 0,0 mm 1,0 km/h (0 Bft) N-NO 28 ° 1 min 0,000 mm 4,4 UV-I 668 W/m² 9,8 °C 15,9 °C 3,2 km/h (1 Bft)
21.09.2019 12:04 16,0 °C 65 % 1020,3 hPa 0,0 mm 0,1 km/h (0 Bft) N-NO 28 ° 1 min 0,000 mm 4,4 UV-I 668 W/m² 9,4 °C 16,0 °C 3,2 km/h (1 Bft)
21.09.2019 12:05 16,0 °C 65 % 1020,3 hPa 0,0 mm 1,7 km/h (1 Bft) NO 45 ° 1 min 0,000 mm 4,4 UV-I 668 W/m² 9,4 °C 16,0 °C 3,2 km/h (1 Bft)
21.09.2019 12:06 16,0 °C 64 % 1020,2 hPa 0,0 mm 0,9 km/h (0 Bft) NO 45 ° 1 min 0,000 mm 4,4 UV-I 671 W/m² 9,2 °C 16,0 °C 1,6 km/h (1 Bft)
21.09.2019 12:07 16,0 °C 64 % 1020,3 hPa 0,0 mm 1,2 km/h (1 Bft) NO 45 ° 1 min 0,000 mm 4,4 UV-I 671 W/m² 9,2 °C 16,0 °C 3,2 km/h (1 Bft)
21.09.2019 12:08 16,2 °C 70 % 1020,2 hPa 0,0 mm 2,9 km/h (1 Bft) NO 36 ° 1 min 0,000 mm 4,4 UV-I 671 W/m² 10,7 °C 16,2 °C 4,8 km/h (1 Bft)
21.09.2019 12:09 16,3 °C 66 % 1020,2 hPa 0,0 mm 1,8 km/h (1 Bft) N 5 ° 1 min 0,000 mm 4,4 UV-I 673 W/m² 9,9 °C 16,3 °C 4,8 km/h (1 Bft)
21.09.2019 12:10 16,3 °C 66 % 1020,2 hPa 0,0 mm 3,0 km/h (1 Bft) N 5 ° 1 min 0,000 mm 4,4 UV-I 673 W/m² 9,9 °C 16,3 °C 6,4 km/h (2 Bft)
21.09.2019 12:11 16,6 °C 64 % 1020,2 hPa 0,0 mm 0,0 km/h (0 Bft) N 5 ° 1 min 0,000 mm 4,4 UV-I 675 W/m² 9,8 °C 16,6 °C 0,0 km/h (0 Bft)
21.09.2019 12:12 16,8 °C 66 % 1020,1 hPa 0,0 mm 2,4 km/h (1 Bft) N 5 ° 1 min 0,000 mm 4,5 UV-I 675 W/m² 10,4 °C 16,8 °C 4,8 km/h (1 Bft)
21.09.2019 12:13 16,9 °C 65 % 1020,1 hPa 0,0 mm 1,9 km/h (1 Bft) N 5 ° 1 min 0,000 mm 4,5 UV-I 675 W/m² 10,3 °C 16,9 °C 3,2 km/h (1 Bft)
21.09.2019 12:14 16,9 °C 67 % 1020,2 hPa 0,0 mm 2,9 km/h (1 Bft) N 5 ° 1 min 0,000 mm 4,5 UV-I 677 W/m² 10,7 °C 16,9 °C 4,8 km/h (1 Bft)
21.09.2019 12:15 17,1 °C 66 % 1020,2 hPa 0,0 mm 2,5 km/h (1 Bft) N 5 ° 1 min 0,000 mm 4,5 UV-I 679 W/m² 10,7 °C 17,1 °C 4,8 km/h (1 Bft)
21.09.2019 12:16 17,1 °C 65 % 1020,3 hPa 0,0 mm 1,6 km/h (1 Bft) N 360 ° 1 min 0,000 mm 4,5 UV-I 679 W/m² 10,5 °C 17,1 °C 4,8 km/h (1 Bft)
21.09.2019 12:17 17,2 °C 64 % 1020,2 hPa 0,0 mm 3,1 km/h (1 Bft) N 351 ° 1 min 0,000 mm 4,5 UV-I 679 W/m² 10,3 °C 17,2 °C 6,4 km/h (2 Bft)
21.09.2019 12:18 17,2 °C 59 % 1020,1 hPa 0,0 mm 2,0 km/h (1 Bft) N 351 ° 1 min 0,000 mm 4,5 UV-I 680 W/m² 9,1 °C 17,2 °C 3,2 km/h (1 Bft)
21.09.2019 12:19 17,3 °C 61 % 1020,2 hPa 0,0 mm 3,2 km/h (1 Bft) N 351 ° 1 min 0,000 mm 4,5 UV-I 679 W/m² 9,7 °C 17,3 °C 4,8 km/h (1 Bft)
21.09.2019 12:20 17,2 °C 65 % 1020,2 hPa 0,0 mm 0,4 km/h (0 Bft) N 351 ° 1 min 0,000 mm 4,6 UV-I 679 W/m² 10,6 °C 17,2 °C 3,2 km/h (1 Bft)
21.09.2019 12:21 16,9 °C 62 % 1020,1 hPa 0,0 mm 0,3 km/h (0 Bft) N 351 ° 1 min 0,000 mm 4,6 UV-I 684 W/m² 9,6 °C 16,9 °C 3,2 km/h (1 Bft)
21.09.2019 12:22 16,8 °C 64 % 1020,1 hPa 0,0 mm 5,7 km/h (1 Bft) N-NO 15 ° 1 min 0,000 mm 4,6 UV-I 684 W/m² 10,0 °C 16,8 °C 8,0 km/h (2 Bft)
21.09.2019 12:23 16,8 °C 63 % 1020,1 hPa 0,0 mm 3,9 km/h (1 Bft) N-NO 13 ° 1 min 0,000 mm 4,6 UV-I 687 W/m² 9,7 °C 16,8 °C 6,4 km/h (2 Bft)
21.09.2019 12:24 17,1 °C 63 % 1020,1 hPa 0,0 mm 2,1 km/h (1 Bft) N-NO 13 ° 1 min 0,000 mm 4,6 UV-I 686 W/m² 10,0 °C 17,1 °C 4,8 km/h (1 Bft)
21.09.2019 12:25 17,3 °C 63 % 1020,1 hPa 0,0 mm 0,4 km/h (0 Bft) N-NO 13 ° 1 min 0,000 mm 4,6 UV-I 687 W/m² 10,2 °C 17,3 °C 3,2 km/h (1 Bft)
21.09.2019 12:26 17,3 °C 59 % 1020,1 hPa 0,0 mm 0,1 km/h (0 Bft) N-NO 13 ° 1 min 0,000 mm 4,6 UV-I 686 W/m² 9,2 °C 17,3 °C 1,6 km/h (1 Bft)
21.09.2019 12:27 17,2 °C 59 % 1020,1 hPa 0,0 mm 1,9 km/h (1 Bft) N-NO 13 ° 1 min 0,000 mm 4,6 UV-I 687 W/m² 9,1 °C 17,2 °C 3,2 km/h (1 Bft)
21.09.2019 12:28 17,1 °C 59 % 1020,0 hPa 0,0 mm 4,7 km/h (1 Bft) O-NO 71 ° 1 min 0,000 mm 4,6 UV-I 689 W/m² 9,0 °C 17,1 °C 6,4 km/h (2 Bft)
21.09.2019 12:29 17,2 °C 64 % 1020,1 hPa 0,0 mm 1,4 km/h (1 Bft) O-NO 71 ° 1 min 0,000 mm 4,6 UV-I 689 W/m² 10,3 °C 17,2 °C 3,2 km/h (1 Bft)
21.09.2019 12:30 17,1 °C 62 % 1020,1 hPa 0,0 mm 4,3 km/h (1 Bft) O 94 ° 1 min 0,000 mm 4,6 UV-I 689 W/m² 9,8 °C 17,1 °C 6,4 km/h (2 Bft)
21.09.2019 12:31 17,0 °C 66 % 1020,0 hPa 0,0 mm 4,2 km/h (1 Bft) O-NO 74 ° 1 min 0,000 mm 4,6 UV-I 689 W/m² 10,6 °C 17,0 °C 6,4 km/h (2 Bft)
21.09.2019 12:32 17,1 °C 66 % 1020,0 hPa 0,0 mm 1,5 km/h (1 Bft) O-NO 74 ° 1 min 0,000 mm 4,6 UV-I 689 W/m² 10,7 °C 17,1 °C 3,2 km/h (1 Bft)
21.09.2019 12:33 16,9 °C 62 % 1020,0 hPa 0,0 mm 2,3 km/h (1 Bft) O-NO 74 ° 1 min 0,000 mm 4,6 UV-I 689 W/m² 9,6 °C 16,9 °C 3,2 km/h (1 Bft)
21.09.2019 12:34 16,7 °C 64 % 1020,0 hPa 0,0 mm 0,7 km/h (0 Bft) O-NO 74 ° 1 min 0,000 mm 4,6 UV-I 693 W/m² 9,9 °C 16,7 °C 3,2 km/h (1 Bft)
21.09.2019 12:35 16,7 °C 63 % 1020,0 hPa 0,0 mm 2,7 km/h (1 Bft) O-NO 74 ° 1 min 0,000 mm 4,6 UV-I 693 W/m² 9,6 °C 16,7 °C 4,8 km/h (1 Bft)
21.09.2019 12:36 16,8 °C 64 % 1019,9 hPa 0,0 mm 0,1 km/h (0 Bft) O-NO 74 ° 1 min 0,000 mm 4,6 UV-I 694 W/m² 10,0 °C 16,8 °C 1,6 km/h (1 Bft)
21.09.2019 12:37 16,8 °C 64 % 1019,9 hPa 0,0 mm 2,0 km/h (1 Bft) NO 55 ° 1 min 0,000 mm 4,7 UV-I 694 W/m² 10,0 °C 16,8 °C 3,2 km/h (1 Bft)
21.09.2019 12:38 16,9 °C 63 % 1019,9 hPa 0,0 mm 2,0 km/h (1 Bft) N 355 ° 1 min 0,000 mm 4,7 UV-I 696 W/m² 9,8 °C 16,9 °C 4,8 km/h (1 Bft)
21.09.2019 12:39 17,1 °C 65 % 1019,9 hPa 0,0 mm 0,0 km/h (0 Bft) N 355 ° 1 min 0,000 mm 4,7 UV-I 696 W/m² 10,5 °C 17,1 °C 0,0 km/h (0 Bft)
21.09.2019 12:40 17,3 °C 70 % 1019,9 hPa 0,0 mm 2,5 km/h (1 Bft) NO 52 ° 1 min 0,000 mm 4,7 UV-I 696 W/m² 11,8 °C 17,3 °C 4,8 km/h (1 Bft)
21.09.2019 12:41 17,3 °C 64 % 1019,9 hPa 0,0 mm 0,5 km/h (0 Bft) NO 52 ° 1 min 0,000 mm 4,7 UV-I 698 W/m² 10,4 °C 17,3 °C 1,6 km/h (1 Bft)
21.09.2019 12:42 17,4 °C 63 % 1019,9 hPa 0,0 mm 3,7 km/h (1 Bft) O 84 ° 1 min 0,000 mm 4,7 UV-I 700 W/m² 10,3 °C 17,4 °C 6,4 km/h (2 Bft)
21.09.2019 12:43 17,3 °C 63 % 1019,9 hPa 0,0 mm 4,6 km/h (1 Bft) O 81 ° 1 min 0,000 mm 4,7 UV-I 700 W/m² 10,2 °C 17,3 °C 6,4 km/h (2 Bft)
21.09.2019 12:44 17,2 °C 61 % 1019,9 hPa 0,0 mm 1,6 km/h (1 Bft) O 81 ° 1 min 0,000 mm 4,7 UV-I 700 W/m² 9,6 °C 17,2 °C 3,2 km/h (1 Bft)
21.09.2019 12:45 17,3 °C 60 % 1019,9 hPa 0,0 mm 0,0 km/h (0 Bft) O 81 ° 1 min 0,000 mm 4,7 UV-I 698 W/m² 9,5 °C 17,3 °C 0,0 km/h (0 Bft)
21.09.2019 12:46 17,4 °C 63 % 1020,0 hPa 0,0 mm 0,0 km/h (0 Bft) O 81 ° 1 min 0,000 mm 4,7 UV-I 698 W/m² 10,3 °C 17,4 °C 0,0 km/h (0 Bft)
21.09.2019 12:47 17,5 °C 60 % 1019,9 hPa 0,0 mm 1,6 km/h (1 Bft) O 81 ° 1 min 0,000 mm 4,7 UV-I 700 W/m² 9,6 °C 17,5 °C 3,2 km/h (1 Bft)
21.09.2019 12:48 17,5 °C 65 % 1019,9 hPa 0,0 mm 0,2 km/h (0 Bft) O 81 ° 1 min 0,000 mm 4,7 UV-I 698 W/m² 10,8 °C 17,5 °C 1,6 km/h (1 Bft)
21.09.2019 12:49 17,5 °C 61 % 1019,8 hPa 0,0 mm 0,0 km/h (0 Bft) O 81 ° 1 min 0,000 mm 4,7 UV-I 701 W/m² 9,9 °C 17,5 °C 0,0 km/h (0 Bft)
21.09.2019 12:50 17,5 °C 65 % 1019,8 hPa 0,0 mm 0,2 km/h (0 Bft) O 81 ° 1 min 0,000 mm 4,7 UV-I 701 W/m² 10,8 °C 17,5 °C 1,6 km/h (1 Bft)
21.09.2019 12:51 17,4 °C 65 % 1019,8 hPa 0,0 mm 1,3 km/h (1 Bft) O 81 ° 1 min 0,000 mm 4,7 UV-I 701 W/m² 10,8 °C 17,4 °C 3,2 km/h (1 Bft)
21.09.2019 12:52 17,3 °C 64 % 1019,9 hPa 0,0 mm 0,0 km/h (0 Bft) O 81 ° 1 min 0,000 mm 4,7 UV-I 701 W/m² 10,4 °C 17,3 °C 0,0 km/h (0 Bft)
21.09.2019 12:53 17,3 °C 64 % 1019,8 hPa 0,0 mm 6,0 km/h (2 Bft) N 9 ° 1 min 0,000 mm 4,7 UV-I 700 W/m² 10,4 °C 17,3 °C 11,3 km/h (2 Bft)
21.09.2019 12:54 17,6 °C 62 % 1019,8 hPa 0,0 mm 4,7 km/h (1 Bft) N-NW 341 ° 1 min 0,000 mm 4,7 UV-I 700 W/m² 10,2 °C 17,6 °C 6,4 km/h (2 Bft)
21.09.2019 12:55 17,8 °C 63 % 1019,8 hPa 0,0 mm 4,6 km/h (1 Bft) N-NO 17 ° 1 min 0,000 mm 4,7 UV-I 700 W/m² 10,7 °C 17,8 °C 8,0 km/h (2 Bft)
21.09.2019 12:56 17,9 °C 64 % 1019,8 hPa 0,0 mm 5,3 km/h (1 Bft) N-NO 12 ° 1 min 0,000 mm 4,7 UV-I 696 W/m² 11,0 °C 17,9 °C 8,0 km/h (2 Bft)
21.09.2019 12:57 17,9 °C 65 % 1019,8 hPa 0,0 mm 5,9 km/h (2 Bft) NO 34 ° 1 min 0,000 mm 4,7 UV-I 698 W/m² 11,2 °C 17,9 °C 9,7 km/h (2 Bft)
21.09.2019 12:58 18,1 °C 65 % 1019,8 hPa 0,0 mm 6,2 km/h (2 Bft) O-SO 103 ° 1 min 0,000 mm 4,7 UV-I 698 W/m² 11,4 °C 18,1 °C 12,9 km/h (3 Bft)
21.09.2019 12:59 18,1 °C 64 % 1019,8 hPa 0,0 mm 3,6 km/h (1 Bft) O-SO 102 ° 1 min 0,000 mm 4,7 UV-I 698 W/m² 11,2 °C 18,1 °C 6,4 km/h (2 Bft)
21.09.2019 13:00 18,0 °C 66 % 1019,9 hPa 0,0 mm 0,6 km/h (0 Bft) O-SO 102 ° 1 min 0,000 mm 4,7 UV-I 700 W/m² 11,6 °C 18,0 °C 1,6 km/h (1 Bft)
21.09.2019 13:01 18,0 °C 67 % 1019,8 hPa 0,0 mm 3,8 km/h (1 Bft) O 98 ° 1 min 0,381 mm 4,7 UV-I 700 W/m² 11,8 °C 18,0 °C 6,4 km/h (2 Bft)
21.09.2019 13:02 17,9 °C 64 % 1019,8 hPa 0,0 mm 1,1 km/h (1 Bft) O 98 ° 1 min 0,000 mm 4,7 UV-I 701 W/m² 11,0 °C 17,9 °C 3,2 km/h (1 Bft)
21.09.2019 13:03 17,9 °C 62 % 1019,8 hPa 0,0 mm 1,5 km/h (1 Bft) O 98 ° 1 min 0,000 mm 4,7 UV-I 701 W/m² 10,5 °C 17,9 °C 4,8 km/h (1 Bft)
21.09.2019 13:04 17,9 °C 63 % 1019,8 hPa 0,0 mm 1,1 km/h (1 Bft) O 98 ° 1 min 0,000 mm 4,7 UV-I 701 W/m² 10,8 °C 17,9 °C 4,8 km/h (1 Bft)
21.09.2019 13:05 17,8 °C 67 % 1019,7 hPa 0,0 mm 6,4 km/h (2 Bft) O-SO 123 ° 1 min 0,000 mm 4,7 UV-I 701 W/m² 11,6 °C 17,8 °C 9,7 km/h (2 Bft)
21.09.2019 13:06 17,8 °C 64 % 1019,7 hPa 0,0 mm 3,0 km/h (1 Bft) O-SO 123 ° 1 min 0,000 mm 4,7 UV-I 701 W/m² 10,9 °C 17,8 °C 8,0 km/h (2 Bft)
21.09.2019 13:07 17,8 °C 64 % 1019,7 hPa 0,0 mm 1,2 km/h (1 Bft) O-NO 65 ° 1 min 0,000 mm 4,7 UV-I 700 W/m² 10,9 °C 17,8 °C 8,0 km/h (2 Bft)
21.09.2019 13:08 17,8 °C 68 % 1019,7 hPa 0,0 mm 5,1 km/h (1 Bft) O-NO 67 ° 1 min 0,000 mm 4,7 UV-I 701 W/m² 11,8 °C 17,8 °C 6,4 km/h (2 Bft)
21.09.2019 13:09 17,7 °C 63 % 1019,7 hPa 0,0 mm 6,7 km/h (2 Bft) O-NO 71 ° 1 min 0,000 mm 4,7 UV-I 701 W/m² 10,6 °C 17,7 °C 8,0 km/h (2 Bft)
21.09.2019 13:10 17,7 °C 62 % 1019,6 hPa 0,0 mm 4,3 km/h (1 Bft) O-NO 71 ° 1 min 0,000 mm 4,7 UV-I 701 W/m² 10,3 °C 17,7 °C 6,4 km/h (2 Bft)
21.09.2019 13:11 17,7 °C 66 % 1019,7 hPa 0,0 mm 3,9 km/h (1 Bft) O 98 ° 1 min 0,000 mm 4,7 UV-I 701 W/m² 11,3 °C 17,7 °C 6,4 km/h (2 Bft)
21.09.2019 13:12 17,7 °C 64 % 1019,6 hPa 0,0 mm 0,0 km/h (0 Bft) O 98 ° 1 min 0,000 mm 4,7 UV-I 701 W/m² 10,8 °C 17,7 °C 0,0 km/h (0 Bft)
21.09.2019 13:13 17,8 °C 67 % 1019,6 hPa 0,0 mm 1,8 km/h (1 Bft) NO 47 ° 1 min 0,000 mm 4,7 UV-I 701 W/m² 11,6 °C 17,8 °C 4,8 km/h (1 Bft)
21.09.2019 13:14 17,8 °C 67 % 1019,6 hPa 0,0 mm 5,2 km/h (1 Bft) N-NO 12 ° 1 min 0,000 mm 4,7 UV-I 701 W/m² 11,6 °C 17,8 °C 8,0 km/h (2 Bft)
21.09.2019 13:15 17,8 °C 68 % 1019,5 hPa 0,0 mm 5,6 km/h (1 Bft) N 360 ° 1 min 0,000 mm 4,7 UV-I 701 W/m² 11,8 °C 17,8 °C 6,4 km/h (2 Bft)
21.09.2019 13:16 17,9 °C 65 % 1019,5 hPa 0,0 mm 3,8 km/h (1 Bft) N 360 ° 1 min 0,000 mm 4,7 UV-I 700 W/m² 11,2 °C 17,9 °C 4,8 km/h (1 Bft)
21.09.2019 13:17 18,1 °C 65 % 1019,5 hPa 0,0 mm 4,3 km/h (1 Bft) NO 38 ° 1 min 0,000 mm 4,7 UV-I 700 W/m² 11,4 °C 18,1 °C 9,7 km/h (2 Bft)
21.09.2019 13:18 18,3 °C 63 % 1019,5 hPa 0,0 mm 7,5 km/h (2 Bft) NO 50 ° 1 min 0,000 mm 4,7 UV-I 700 W/m² 11,1 °C 18,3 °C 9,7 km/h (2 Bft)
21.09.2019 13:19 18,3 °C 62 % 1019,5 hPa 0,0 mm 5,0 km/h (1 Bft) O-NO 71 ° 1 min 0,000 mm 4,7 UV-I 700 W/m² 10,9 °C 18,3 °C 6,4 km/h (2 Bft)
21.09.2019 13:20 18,3 °C 62 % 1019,5 hPa 0,0 mm 3,5 km/h (1 Bft) O-NO 65 ° 1 min 0,000 mm 4,7 UV-I 701 W/m² 10,9 °C 18,3 °C 4,8 km/h (1 Bft)
21.09.2019 13:21 18,3 °C 64 % 1019,5 hPa 0,0 mm 3,7 km/h (1 Bft) O-NO 64 ° 1 min 0,000 mm 4,7 UV-I 700 W/m² 11,4 °C 18,3 °C 6,4 km/h (2 Bft)
21.09.2019 13:22 18,2 °C 63 % 1019,5 hPa 0,0 mm 3,4 km/h (1 Bft) O-NO 64 ° 1 min 0,000 mm 4,7 UV-I 700 W/m² 11,0 °C 18,2 °C 4,8 km/h (1 Bft)
21.09.2019 13:23 18,1 °C 68 % 1019,5 hPa 0,0 mm 6,0 km/h (2 Bft) N-NO 25 ° 1 min 0,000 mm 4,7 UV-I 700 W/m² 12,1 °C 18,1 °C 8,0 km/h (2 Bft)
21.09.2019 13:24 18,1 °C 62 % 1019,5 hPa 0,0 mm 4,6 km/h (1 Bft) NO 42 ° 1 min 0,000 mm 4,7 UV-I 698 W/m² 10,7 °C 18,1 °C 6,4 km/h (2 Bft)
21.09.2019 13:25 18,2 °C 66 % 1019,4 hPa 0,0 mm 4,9 km/h (1 Bft) N-NO 25 ° 1 min 0,000 mm 4,7 UV-I 696 W/m² 11,7 °C 18,2 °C 8,0 km/h (2 Bft)
21.09.2019 13:26 18,2 °C 67 % 1019,5 hPa 0,0 mm 5,8 km/h (2 Bft) N 360 ° 1 min 0,000 mm 4,7 UV-I 698 W/m² 12,0 °C 18,2 °C 6,4 km/h (2 Bft)
21.09.2019 13:27 18,3 °C 66 % 1019,4 hPa 0,0 mm 4,0 km/h (1 Bft) O-NO 59 ° 1 min 0,000 mm 4,7 UV-I 698 W/m² 11,8 °C 18,3 °C 6,4 km/h (2 Bft)
21.09.2019 13:28 18,3 °C 63 % 1019,4 hPa 0,0 mm 7,4 km/h (2 Bft) O 83 ° 1 min 0,000 mm 4,7 UV-I 698 W/m² 11,1 °C 18,3 °C 11,3 km/h (2 Bft)
21.09.2019 13:29 18,2 °C 63 % 1019,4 hPa 0,0 mm 4,0 km/h (1 Bft) O-NO 67 ° 1 min 0,000 mm 4,7 UV-I 700 W/m² 11,0 °C 18,2 °C 6,4 km/h (2 Bft)
21.09.2019 13:30 18,2 °C 63 % 1019,4 hPa 0,0 mm 3,7 km/h (1 Bft) O-SO 115 ° 1 min 0,000 mm 4,6 UV-I 698 W/m² 11,0 °C 18,2 °C 6,4 km/h (2 Bft)
21.09.2019 13:31 18,1 °C 63 % 1019,4 hPa 0,0 mm 1,4 km/h (1 Bft) O-SO 115 ° 1 min 0,000 mm 4,6 UV-I 700 W/m² 10,9 °C 18,1 °C 3,2 km/h (1 Bft)
21.09.2019 13:32 18,2 °C 63 % 1019,3 hPa 0,0 mm 0,1 km/h (0 Bft) O-SO 115 ° 1 min 0,000 mm 4,6 UV-I 700 W/m² 11,0 °C 18,2 °C 1,6 km/h (1 Bft)
21.09.2019 13:33 18,1 °C 64 % 1019,3 hPa 0,0 mm 2,5 km/h (1 Bft) O-NO 74 ° 1 min 0,000 mm 4,6 UV-I 698 W/m² 11,2 °C 18,1 °C 6,4 km/h (2 Bft)
21.09.2019 13:34 17,9 °C 67 % 1019,4 hPa 0,0 mm 6,9 km/h (2 Bft) NO 36 ° 1 min 0,000 mm 4,6 UV-I 698 W/m² 11,7 °C 17,9 °C 9,7 km/h (2 Bft)
21.09.2019 13:35 17,7 °C 69 % 1019,3 hPa 0,0 mm 4,9 km/h (1 Bft) O-NO 69 ° 1 min 0,000 mm 4,6 UV-I 698 W/m² 11,9 °C 17,7 °C 9,7 km/h (2 Bft)
21.09.2019 13:36 17,7 °C 67 % 1019,3 hPa 0,0 mm 3,6 km/h (1 Bft) O-NO 58 ° 1 min 0,000 mm 4,6 UV-I 698 W/m² 11,5 °C 17,7 °C 6,4 km/h (2 Bft)
21.09.2019 13:37 17,7 °C 67 % 1019,3 hPa 0,0 mm 0,8 km/h (0 Bft) O-NO 58 ° 1 min 0,000 mm 4,6 UV-I 696 W/m² 11,5 °C 17,7 °C 3,2 km/h (1 Bft)
21.09.2019 13:38 17,8 °C 66 % 1019,3 hPa 0,0 mm 0,0 km/h (0 Bft) O-NO 58 ° 1 min 0,000 mm 4,6 UV-I 696 W/m² 11,4 °C 17,8 °C 0,0 km/h (0 Bft)
21.09.2019 13:39 17,8 °C 67 % 1019,3 hPa 0,0 mm 0,0 km/h (0 Bft) O-NO 58 ° 1 min 0,000 mm 4,6 UV-I 696 W/m² 11,6 °C 17,8 °C 0,0 km/h (0 Bft)
21.09.2019 13:40 17,9 °C 63 % 1019,3 hPa 0,0 mm 0,9 km/h (0 Bft) O-NO 58 ° 1 min 0,000 mm 4,6 UV-I 696 W/m² 10,8 °C 17,9 °C 1,6 km/h (1 Bft)
21.09.2019 13:41 18,0 °C 65 % 1019,3 hPa 0,0 mm 4,3 km/h (1 Bft) O 88 ° 1 min 0,000 mm 4,6 UV-I 696 W/m² 11,3 °C 18,0 °C 6,4 km/h (2 Bft)
21.09.2019 13:42 18,1 °C 66 % 1019,3 hPa 0,0 mm 4,9 km/h (1 Bft) NO 42 ° 1 min 0,000 mm 4,6 UV-I 696 W/m² 11,6 °C 18,1 °C 6,4 km/h (2 Bft)
21.09.2019 13:43 18,2 °C 65 % 1019,3 hPa 0,0 mm 5,1 km/h (1 Bft) O-NO 78 ° 1 min 0,000 mm 4,6 UV-I 694 W/m² 11,5 °C 18,2 °C 6,4 km/h (2 Bft)
21.09.2019 13:44 18,2 °C 68 % 1019,2 hPa 0,0 mm 1,4 km/h (1 Bft) O-NO 78 ° 1 min 0,000 mm 4,6 UV-I 691 W/m² 12,2 °C 18,2 °C 3,2 km/h (1 Bft)
21.09.2019 13:45 18,2 °C 65 % 1019,2 hPa 0,0 mm 1,2 km/h (1 Bft) O-NO 78 ° 1 min 0,000 mm 4,6 UV-I 691 W/m² 11,5 °C 18,2 °C 6,4 km/h (2 Bft)
21.09.2019 13:46 18,2 °C 67 % 1019,2 hPa 0,0 mm 3,0 km/h (1 Bft) O-NO 78 ° 1 min 0,000 mm 4,6 UV-I 691 W/m² 12,0 °C 18,2 °C 6,4 km/h (2 Bft)
21.09.2019 13:47 18,2 °C 69 % 1019,2 hPa 0,0 mm 5,7 km/h (1 Bft) O 85 ° 1 min 0,000 mm 4,6 UV-I 689 W/m² 12,4 °C 18,2 °C 8,0 km/h (2 Bft)
21.09.2019 13:48 18,2 °C 67 % 1019,2 hPa 0,0 mm 4,0 km/h (1 Bft) SO 136 ° 1 min 0,000 mm 4,6 UV-I 691 W/m² 12,0 °C 18,2 °C 4,8 km/h (1 Bft)
21.09.2019 13:49 18,1 °C 63 % 1019,2 hPa 0,0 mm 3,1 km/h (1 Bft) S 173 ° 1 min 0,000 mm 4,6 UV-I 691 W/m² 10,9 °C 18,1 °C 4,8 km/h (1 Bft)
21.09.2019 13:50 18,1 °C 64 % 1019,2 hPa 0,0 mm 0,3 km/h (0 Bft) S 172 ° 1 min 0,000 mm 4,6 UV-I 689 W/m² 11,2 °C 18,1 °C 1,6 km/h (1 Bft)
21.09.2019 13:51 18,2 °C 65 % 1019,2 hPa 0,0 mm 1,2 km/h (1 Bft) O-SO 105 ° 1 min 0,000 mm 4,6 UV-I 691 W/m² 11,5 °C 18,2 °C 3,2 km/h (1 Bft)
21.09.2019 13:52 18,1 °C 67 % 1019,2 hPa 0,0 mm 2,0 km/h (1 Bft) O-SO 105 ° 1 min 0,000 mm 4,6 UV-I 689 W/m² 11,9 °C 18,1 °C 3,2 km/h (1 Bft)
21.09.2019 13:53 18,1 °C 65 % 1019,1 hPa 0,0 mm 0,9 km/h (0 Bft) O-SO 105 ° 1 min 0,000 mm 4,6 UV-I 689 W/m² 11,4 °C 18,1 °C 3,2 km/h (1 Bft)
21.09.2019 13:54 18,1 °C 67 % 1019,2 hPa 0,0 mm 1,1 km/h (1 Bft) O-NO 72 ° 1 min 0,000 mm 4,5 UV-I 689 W/m² 11,9 °C 18,1 °C 4,8 km/h (1 Bft)
21.09.2019 13:55 18,1 °C 69 % 1019,1 hPa 0,0 mm 7,0 km/h (2 Bft) O 81 ° 1 min 0,000 mm 4,5 UV-I 686 W/m² 12,3 °C 18,1 °C 9,7 km/h (2 Bft)
21.09.2019 13:56 18,2 °C 67 % 1019,2 hPa 0,0 mm 6,4 km/h (2 Bft) NO 37 ° 1 min 0,000 mm 4,5 UV-I 684 W/m² 12,0 °C 18,2 °C 9,7 km/h (2 Bft)
21.09.2019 13:57 18,3 °C 64 % 1019,2 hPa 0,0 mm 5,6 km/h (1 Bft) O-NO 67 ° 1 min 0,000 mm 4,5 UV-I 686 W/m² 11,4 °C 18,3 °C 8,0 km/h (2 Bft)
21.09.2019 13:58 18,4 °C 64 % 1019,1 hPa 0,0 mm 2,7 km/h (1 Bft) O 80 ° 1 min 0,000 mm 4,5 UV-I 682 W/m² 11,5 °C 18,4 °C 6,4 km/h (2 Bft)
21.09.2019 13:59 18,4 °C 63 % 1019,2 hPa 0,0 mm 6,4 km/h (2 Bft) NO 38 ° 1 min 0,000 mm 4,5 UV-I 680 W/m² 11,2 °C 18,4 °C 8,0 km/h (2 Bft)
21.09.2019 14:00 18,6 °C 62 % 1019,1 hPa 0,0 mm 4,6 km/h (1 Bft) O-NO 65 ° 1 min 0,000 mm 4,5 UV-I 680 W/m² 11,2 °C 18,6 °C 8,0 km/h (2 Bft)
21.09.2019 14:01 18,7 °C 63 % 1019,2 hPa 0,0 mm 2,3 km/h (1 Bft) NO 55 ° 1 min 0,407 mm 4,5 UV-I 680 W/m² 11,5 °C 18,7 °C 4,8 km/h (1 Bft)
21.09.2019 14:02 18,8 °C 64 % 1019,1 hPa 0,0 mm 5,4 km/h (1 Bft) NO 52 ° 1 min 0,000 mm 4,4 UV-I 680 W/m² 11,8 °C 18,8 °C 9,7 km/h (2 Bft)
21.09.2019 14:03 18,9 °C 63 % 1019,1 hPa 0,0 mm 4,6 km/h (1 Bft) NO 39 ° 1 min 0,000 mm 4,4 UV-I 680 W/m² 11,7 °C 18,9 °C 8,0 km/h (2 Bft)
21.09.2019 14:04 18,9 °C 62 % 1019,1 hPa 0,0 mm 5,9 km/h (2 Bft) NO 40 ° 1 min 0,000 mm 4,4 UV-I 679 W/m² 11,5 °C 18,9 °C 8,0 km/h (2 Bft)
21.09.2019 14:05 18,9 °C 61 % 1019,1 hPa 0,0 mm 6,5 km/h (2 Bft) O 89 ° 1 min 0,000 mm 4,4 UV-I 677 W/m² 11,2 °C 18,9 °C 11,3 km/h (2 Bft)
21.09.2019 14:06 18,8 °C 64 % 1019,0 hPa 0,0 mm 4,1 km/h (1 Bft) N 5 ° 1 min 0,000 mm 4,4 UV-I 675 W/m² 11,8 °C 18,8 °C 4,8 km/h (1 Bft)
21.09.2019 14:07 18,8 °C 63 % 1019,0 hPa 0,0 mm 2,5 km/h (1 Bft) NW 314 ° 1 min 0,000 mm 4,4 UV-I 675 W/m² 11,6 °C 18,8 °C 4,8 km/h (1 Bft)
21.09.2019 14:08 18,8 °C 64 % 1018,9 hPa 0,0 mm 3,9 km/h (1 Bft) NO 54 ° 1 min 0,000 mm 4,4 UV-I 675 W/m² 11,8 °C 18,8 °C 4,8 km/h (1 Bft)
21.09.2019 14:09 18,9 °C 65 % 1018,9 hPa 0,0 mm 4,8 km/h (1 Bft) N-NO 29 ° 1 min 0,000 mm 4,4 UV-I 675 W/m² 12,2 °C 18,9 °C 6,4 km/h (2 Bft)
21.09.2019 14:10 19,0 °C 62 % 1018,9 hPa 0,0 mm 6,3 km/h (2 Bft) O-SO 102 ° 1 min 0,000 mm 4,4 UV-I 673 W/m² 11,6 °C 19,0 °C 11,3 km/h (2 Bft)
21.09.2019 14:11 18,9 °C 63 % 1018,9 hPa 0,0 mm 2,1 km/h (1 Bft) NO 46 ° 1 min 0,000 mm 4,4 UV-I 673 W/m² 11,7 °C 18,9 °C 3,2 km/h (1 Bft)
21.09.2019 14:12 18,9 °C 64 % 1018,9 hPa 0,0 mm 6,1 km/h (2 Bft) O 94 ° 1 min 0,000 mm 4,3 UV-I 671 W/m² 11,9 °C 18,9 °C 8,0 km/h (2 Bft)
21.09.2019 14:13 18,7 °C 62 % 1018,9 hPa 0,0 mm 1,4 km/h (1 Bft) O 92 ° 1 min 0,000 mm 4,3 UV-I 670 W/m² 11,3 °C 18,7 °C 4,8 km/h (1 Bft)
21.09.2019 14:14 18,6 °C 64 % 1019,0 hPa 0,0 mm 7,0 km/h (2 Bft) N-NO 22 ° 1 min 0,000 mm 4,3 UV-I 670 W/m² 11,7 °C 18,6 °C 9,7 km/h (2 Bft)
21.09.2019 14:15 18,6 °C 62 % 1018,8 hPa 0,0 mm 4,7 km/h (1 Bft) N-NO 33 ° 1 min 0,000 mm 4,3 UV-I 668 W/m² 11,2 °C 18,6 °C 8,0 km/h (2 Bft)
21.09.2019 14:16 18,6 °C 64 % 1018,8 hPa 0,0 mm 2,8 km/h (1 Bft) N-NO 33 ° 1 min 0,000 mm 4,3 UV-I 666 W/m² 11,7 °C 18,6 °C 4,8 km/h (1 Bft)
21.09.2019 14:17 18,3 °C 66 % 1018,8 hPa 0,0 mm 4,5 km/h (1 Bft) O-NO 71 ° 1 min 0,000 mm 4,3 UV-I 666 W/m² 11,8 °C 18,3 °C 6,4 km/h (2 Bft)
21.09.2019 14:18 18,2 °C 64 % 1018,8 hPa 0,0 mm 1,4 km/h (1 Bft) O-NO 71 ° 1 min 0,000 mm 4,3 UV-I 666 W/m² 11,3 °C 18,2 °C 4,8 km/h (1 Bft)
21.09.2019 14:19 18,3 °C 64 % 1018,8 hPa 0,0 mm 3,1 km/h (1 Bft) O-NO 59 ° 1 min 0,000 mm 4,3 UV-I 663 W/m² 11,4 °C 18,3 °C 8,0 km/h (2 Bft)
21.09.2019 14:20 18,3 °C 67 % 1018,8 hPa 0,0 mm 4,4 km/h (1 Bft) NO 55 ° 1 min 0,000 mm 4,3 UV-I 661 W/m² 12,1 °C 18,3 °C 8,0 km/h (2 Bft)
21.09.2019 14:21 18,4 °C 63 % 1018,8 hPa 0,0 mm 4,0 km/h (1 Bft) N-NO 31 ° 1 min 0,000 mm 4,3 UV-I 661 W/m² 11,2 °C 18,4 °C 4,8 km/h (1 Bft)
21.09.2019 14:22 18,6 °C 64 % 1018,8 hPa 0,0 mm 4,9 km/h (1 Bft) NO 42 ° 1 min 0,000 mm 4,2 UV-I 661 W/m² 11,7 °C 18,6 °C 8,0 km/h (2 Bft)
21.09.2019 14:23 18,7 °C 62 % 1018,8 hPa 0,0 mm 4,8 km/h (1 Bft) O-NO 71 ° 1 min 0,000 mm 4,2 UV-I 659 W/m² 11,3 °C 18,7 °C 6,4 km/h (2 Bft)
21.09.2019 14:24 18,8 °C 62 % 1018,8 hPa 0,0 mm 4,6 km/h (1 Bft) NO 43 ° 1 min 0,000 mm 4,2 UV-I 659 W/m² 11,4 °C 18,8 °C 6,4 km/h (2 Bft)
21.09.2019 14:25 18,8 °C 61 % 1018,8 hPa 0,0 mm 3,2 km/h (1 Bft) O 80 ° 1 min 0,000 mm 4,2 UV-I 657 W/m² 11,1 °C 18,8 °C 4,8 km/h (1 Bft)
21.09.2019 14:26 18,8 °C 64 % 1018,8 hPa 0,0 mm 3,8 km/h (1 Bft) O 84 ° 1 min 0,000 mm 4,2 UV-I 656 W/m² 11,8 °C 18,8 °C 8,0 km/h (2 Bft)
21.09.2019 14:27 18,8 °C 63 % 1018,8 hPa 0,0 mm 5,7 km/h (1 Bft) NO 49 ° 1 min 0,000 mm 4,2 UV-I 654 W/m² 11,6 °C 18,8 °C 11,3 km/h (2 Bft)
21.09.2019 14:28 18,8 °C 62 % 1018,8 hPa 0,0 mm 5,7 km/h (1 Bft) O-SO 120 ° 1 min 0,000 mm 4,2 UV-I 654 W/m² 11,4 °C 18,8 °C 9,7 km/h (2 Bft)
21.09.2019 14:29 18,7 °C 61 % 1018,8 hPa 0,0 mm 1,1 km/h (1 Bft) SO 127 ° 1 min 0,000 mm 4,2 UV-I 652 W/m² 11,0 °C 18,7 °C 4,8 km/h (1 Bft)
21.09.2019 14:30 18,7 °C 61 % 1018,8 hPa 0,0 mm 1,8 km/h (1 Bft) NO 42 ° 1 min 0,000 mm 4,2 UV-I 652 W/m² 11,0 °C 18,7 °C 4,8 km/h (1 Bft)
21.09.2019 14:31 18,6 °C 63 % 1018,8 hPa 0,0 mm 5,0 km/h (1 Bft) O-NO 71 ° 1 min 0,000 mm 4,1 UV-I 650 W/m² 11,4 °C 18,6 °C 8,0 km/h (2 Bft)
21.09.2019 14:32 18,7 °C 66 % 1018,8 hPa 0,0 mm 0,6 km/h (0 Bft) O-NO 71 ° 1 min 0,000 mm 4,1 UV-I 649 W/m² 12,2 °C 18,7 °C 3,2 km/h (1 Bft)
21.09.2019 14:33 18,7 °C 64 % 1018,8 hPa 0,0 mm 4,0 km/h (1 Bft) NO 36 ° 1 min 0,000 mm 4,1 UV-I 647 W/m² 11,7 °C 18,7 °C 6,4 km/h (2 Bft)
21.09.2019 14:34 18,8 °C 62 % 1018,8 hPa 0,0 mm 5,9 km/h (2 Bft) NO 36 ° 1 min 0,000 mm 4,1 UV-I 647 W/m² 11,4 °C 18,8 °C 9,7 km/h (2 Bft)
21.09.2019 14:35 18,9 °C 63 % 1018,7 hPa 0,0 mm 4,2 km/h (1 Bft) NO 49 ° 1 min 0,000 mm 4,1 UV-I 647 W/m² 11,7 °C 18,9 °C 6,4 km/h (2 Bft)
21.09.2019 14:36 18,8 °C 61 % 1018,7 hPa 0,0 mm 5,2 km/h (1 Bft) NO 50 ° 1 min 0,000 mm 4,1 UV-I 645 W/m² 11,1 °C 18,8 °C 6,4 km/h (2 Bft)
21.09.2019 14:37 18,8 °C 63 % 1018,7 hPa 0,0 mm 1,5 km/h (1 Bft) NO 50 ° 1 min 0,000 mm 4,1 UV-I 643 W/m² 11,6 °C 18,8 °C 4,8 km/h (1 Bft)
21.09.2019 14:38 18,9 °C 64 % 1018,6 hPa 0,0 mm 1,4 km/h (1 Bft) NO 50 ° 1 min 0,000 mm 4,1 UV-I 642 W/m² 11,9 °C 18,9 °C 4,8 km/h (1 Bft)
21.09.2019 14:39 18,9 °C 61 % 1018,6 hPa 0,0 mm 2,1 km/h (1 Bft) NO 53 ° 1 min 0,000 mm 4,0 UV-I 642 W/m² 11,2 °C 18,9 °C 4,8 km/h (1 Bft)
21.09.2019 14:40 18,9 °C 63 % 1018,6 hPa 0,0 mm 1,4 km/h (1 Bft) NO 53 ° 1 min 0,000 mm 4,0 UV-I 638 W/m² 11,7 °C 18,9 °C 3,2 km/h (1 Bft)
21.09.2019 14:41 19,1 °C 62 % 1018,6 hPa 0,0 mm 3,2 km/h (1 Bft) NO 49 ° 1 min 0,000 mm 4,0 UV-I 636 W/m² 11,6 °C 19,1 °C 6,4 km/h (2 Bft)
21.09.2019 14:42 19,2 °C 60 % 1018,6 hPa 0,0 mm 5,5 km/h (1 Bft) NO 51 ° 1 min 0,000 mm 4,0 UV-I 633 W/m² 11,2 °C 19,2 °C 8,0 km/h (2 Bft)
21.09.2019 14:43 19,2 °C 58 % 1018,6 hPa 0,0 mm 3,8 km/h (1 Bft) NO 51 ° 1 min 0,000 mm 4,0 UV-I 633 W/m² 10,7 °C 19,2 °C 4,8 km/h (1 Bft)
21.09.2019 14:44 19,2 °C 58 % 1018,5 hPa 0,0 mm 0,3 km/h (0 Bft) NO 51 ° 1 min 0,000 mm 4,0 UV-I 633 W/m² 10,7 °C 19,2 °C 1,6 km/h (1 Bft)
21.09.2019 14:45 19,2 °C 60 % 1018,6 hPa 0,0 mm 0,9 km/h (0 Bft) O-SO 105 ° 1 min 0,000 mm 4,0 UV-I 631 W/m² 11,2 °C 19,2 °C 4,8 km/h (1 Bft)
21.09.2019 14:46 19,1 °C 62 % 1018,6 hPa 0,0 mm 4,6 km/h (1 Bft) S-SO 166 ° 1 min 0,000 mm 4,0 UV-I 629 W/m² 11,6 °C 19,1 °C 6,4 km/h (2 Bft)
21.09.2019 14:47 18,9 °C 62 % 1018,5 hPa 0,0 mm 3,6 km/h (1 Bft) NO 35 ° 1 min 0,000 mm 4,0 UV-I 629 W/m² 11,5 °C 18,9 °C 9,7 km/h (2 Bft)
21.09.2019 14:48 18,9 °C 62 % 1018,5 hPa 0,0 mm 5,2 km/h (1 Bft) NO 39 ° 1 min 0,000 mm 3,9 UV-I 628 W/m² 11,5 °C 18,9 °C 8,0 km/h (2 Bft)
21.09.2019 14:49 19,1 °C 61 % 1018,5 hPa 0,0 mm 5,9 km/h (2 Bft) N 350 ° 1 min 0,000 mm 3,9 UV-I 626 W/m² 11,4 °C 19,1 °C 8,0 km/h (2 Bft)
21.09.2019 14:50 19,2 °C 63 % 1018,6 hPa 0,0 mm 5,9 km/h (2 Bft) N 11 ° 1 min 0,000 mm 3,9 UV-I 626 W/m² 12,0 °C 19,2 °C 8,0 km/h (2 Bft)
21.09.2019 14:51 19,3 °C 60 % 1018,5 hPa 0,0 mm 5,3 km/h (1 Bft) NO 36 ° 1 min 0,000 mm 3,9 UV-I 622 W/m² 11,3 °C 19,3 °C 6,4 km/h (2 Bft)
21.09.2019 14:52 19,3 °C 59 % 1018,5 hPa 0,0 mm 3,8 km/h (1 Bft) N-NW 348 ° 1 min 0,000 mm 3,9 UV-I 622 W/m² 11,1 °C 19,3 °C 8,0 km/h (2 Bft)
21.09.2019 14:53 19,3 °C 60 % 1018,5 hPa 0,0 mm 4,4 km/h (1 Bft) N 360 ° 1 min 0,000 mm 3,9 UV-I 619 W/m² 11,3 °C 19,3 °C 8,0 km/h (2 Bft)
21.09.2019 14:54 19,3 °C 60 % 1018,5 hPa 0,0 mm 3,1 km/h (1 Bft) N 355 ° 1 min 0,000 mm 3,9 UV-I 617 W/m² 11,3 °C 19,3 °C 4,8 km/h (1 Bft)
21.09.2019 14:55 19,3 °C 58 % 1018,5 hPa 0,0 mm 3,3 km/h (1 Bft) N 360 ° 1 min 0,000 mm 3,8 UV-I 617 W/m² 10,8 °C 19,3 °C 6,4 km/h (2 Bft)
21.09.2019 14:56 19,3 °C 59 % 1018,4 hPa 0,0 mm 1,3 km/h (1 Bft) O-NO 62 ° 1 min 0,000 mm 3,8 UV-I 615 W/m² 11,1 °C 19,3 °C 8,0 km/h (2 Bft)
21.09.2019 14:57 19,3 °C 61 % 1018,4 hPa 0,0 mm 4,7 km/h (1 Bft) O-NO 57 ° 1 min 0,000 mm 3,8 UV-I 613 W/m² 11,6 °C 19,3 °C 9,7 km/h (2 Bft)
21.09.2019 14:58 19,3 °C 61 % 1018,4 hPa 0,0 mm 5,3 km/h (1 Bft) O-NO 65 ° 1 min 0,000 mm 3,8 UV-I 612 W/m² 11,6 °C 19,3 °C 6,4 km/h (2 Bft)
21.09.2019 14:59 19,2 °C 60 % 1018,5 hPa 0,0 mm 4,2 km/h (1 Bft) NO 36 ° 1 min 0,000 mm 3,8 UV-I 610 W/m² 11,2 °C 19,2 °C 8,0 km/h (2 Bft)
21.09.2019 15:00 19,2 °C 64 % 1018,5 hPa 0,0 mm 4,6 km/h (1 Bft) NO 38 ° 1 min 0,000 mm 3,7 UV-I 608 W/m² 12,2 °C 19,2 °C 6,4 km/h (2 Bft)
21.09.2019 15:01 19,1 °C 63 % 1018,4 hPa 0,0 mm 1,7 km/h (1 Bft) S-SO 166 ° 1 min 0,381 mm 3,7 UV-I 606 W/m² 11,9 °C 19,1 °C 4,8 km/h (1 Bft)
21.09.2019 15:02 18,9 °C 62 % 1018,4 hPa 0,0 mm 0,2 km/h (0 Bft) S-SO 166 ° 1 min 0,000 mm 3,7 UV-I 606 W/m² 11,5 °C 18,9 °C 1,6 km/h (1 Bft)
21.09.2019 15:03 18,8 °C 64 % 1018,4 hPa 0,0 mm 0,1 km/h (0 Bft) S-SO 163 ° 1 min 0,000 mm 3,7 UV-I 605 W/m² 11,8 °C 18,8 °C 1,6 km/h (1 Bft)
21.09.2019 15:04 18,9 °C 63 % 1018,4 hPa 0,0 mm 1,6 km/h (1 Bft) O 94 ° 1 min 0,000 mm 3,7 UV-I 603 W/m² 11,7 °C 18,9 °C 6,4 km/h (2 Bft)
21.09.2019 15:05 18,9 °C 64 % 1018,4 hPa 0,0 mm 5,3 km/h (1 Bft) O-NO 71 ° 1 min 0,000 mm 3,7 UV-I 601 W/m² 11,9 °C 18,9 °C 8,0 km/h (2 Bft)
21.09.2019 15:06 18,9 °C 61 % 1018,4 hPa 0,0 mm 7,1 km/h (2 Bft) N-NO 19 ° 0 min 0,000 mm 3,7 UV-I 598 W/m² 11,2 °C 18,9 °C 12,9 km/h (3 Bft)
21.09.2019 15:07 19,1 °C 61 % 1018,4 hPa 0,0 mm 10,3 km/h (2 Bft) O 86 ° 0 min 0,000 mm 3,6 UV-I 598 W/m² 11,4 °C 19,1 °C 16,1 km/h (3 Bft)
21.09.2019 15:08 18,9 °C 64 % 1018,4 hPa 0,0 mm 5,4 km/h (1 Bft) NO 46 ° 0 min 0,000 mm 3,6 UV-I 598 W/m² 11,9 °C 18,9 °C 6,4 km/h (2 Bft)
21.09.2019 15:09 18,8 °C 68 % 1018,3 hPa 0,0 mm 3,9 km/h (1 Bft) NO 34 ° 0 min 0,000 mm 3,6 UV-I 594 W/m² 12,8 °C 18,8 °C 6,4 km/h (2 Bft)
21.09.2019 15:10 18,9 °C 62 % 1018,3 hPa 0,0 mm 6,3 km/h (2 Bft) O-NO 59 ° 0 min 0,000 mm 3,6 UV-I 592 W/m² 11,5 °C 18,9 °C 11,3 km/h (2 Bft)
21.09.2019 15:11 19,1 °C 61 % 1018,3 hPa 0,0 mm 6,4 km/h (2 Bft) N-NO 12 ° 0 min 0,000 mm 3,6 UV-I 589 W/m² 11,4 °C 19,1 °C 11,3 km/h (2 Bft)
21.09.2019 15:12 19,2 °C 60 % 1018,2 hPa 0,0 mm 4,9 km/h (1 Bft) O-NO 63 ° 0 min 0,000 mm 3,5 UV-I 587 W/m² 11,2 °C 19,2 °C 11,3 km/h (2 Bft)
21.09.2019 15:13 19,2 °C 63 % 1018,2 hPa 0,0 mm 5,9 km/h (2 Bft) N-NO 19 ° 0 min 0,000 mm 3,5 UV-I 587 W/m² 12,0 °C 19,2 °C 8,0 km/h (2 Bft)
21.09.2019 15:14 19,2 °C 65 % 1018,2 hPa 0,0 mm 4,7 km/h (1 Bft) NO 45 ° 0 min 0,000 mm 3,5 UV-I 585 W/m² 12,5 °C 19,2 °C 8,0 km/h (2 Bft)
21.09.2019 15:15 19,1 °C 63 % 1018,2 hPa 0,0 mm 4,9 km/h (1 Bft) O-NO 59 ° 0 min 0,000 mm 3,5 UV-I 582 W/m² 11,9 °C 19,1 °C 8,0 km/h (2 Bft)
21.09.2019 15:16 19,1 °C 62 % 1018,2 hPa 0,0 mm 4,2 km/h (1 Bft) NO 41 ° 0 min 0,000 mm 3,5 UV-I 582 W/m² 11,6 °C 19,1 °C 4,8 km/h (1 Bft)
21.09.2019 15:17 19,1 °C 66 % 1018,2 hPa 0,0 mm 2,3 km/h (1 Bft) O-NO 66 ° 0 min 0,000 mm 3,5 UV-I 578 W/m² 12,6 °C 19,1 °C 4,8 km/h (1 Bft)
21.09.2019 15:18 19,2 °C 61 % 1018,2 hPa 0,0 mm 3,0 km/h (1 Bft) O 88 ° 0 min 0,000 mm 3,4 UV-I 577 W/m² 11,5 °C 19,2 °C 4,8 km/h (1 Bft)
21.09.2019 15:19 18,9 °C 62 % 1018,2 hPa 0,0 mm 2,1 km/h (1 Bft) O-NO 59 ° 0 min 0,000 mm 3,4 UV-I 575 W/m² 11,5 °C 18,9 °C 4,8 km/h (1 Bft)
21.09.2019 15:20 18,9 °C 62 % 1018,2 hPa 0,0 mm 2,8 km/h (1 Bft) O-NO 63 ° 0 min 0,000 mm 3,4 UV-I 573 W/m² 11,5 °C 18,9 °C 4,8 km/h (1 Bft)
21.09.2019 15:21 19,1 °C 64 % 1018,1 hPa 0,0 mm 6,2 km/h (2 Bft) N 11 ° 0 min 0,000 mm 3,4 UV-I 570 W/m² 12,1 °C 19,1 °C 11,3 km/h (2 Bft)
21.09.2019 15:22 19,1 °C 60 % 1018,1 hPa 0,0 mm 6,0 km/h (2 Bft) NO 36 ° 0 min 0,000 mm 3,3 UV-I 566 W/m² 11,1 °C 19,1 °C 8,0 km/h (2 Bft)
21.09.2019 15:23 19,1 °C 59 % 1018,1 hPa 0,0 mm 5,0 km/h (1 Bft) O 91 ° 0 min 0,000 mm 3,3 UV-I 564 W/m² 10,9 °C 19,1 °C 6,4 km/h (2 Bft)
21.09.2019 15:24 19,2 °C 60 % 1018,1 hPa 0,0 mm 6,4 km/h (2 Bft) NO 38 ° 0 min 0,000 mm 3,3 UV-I 563 W/m² 11,2 °C 19,2 °C 9,7 km/h (2 Bft)
21.09.2019 15:25 19,2 °C 59 % 1018,1 hPa 0,0 mm 5,2 km/h (1 Bft) NO 43 ° 0 min 0,000 mm 3,3 UV-I 559 W/m² 11,0 °C 19,2 °C 8,0 km/h (2 Bft)
21.09.2019 15:26 19,3 °C 60 % 1018,1 hPa 0,0 mm 3,1 km/h (1 Bft) NO 42 ° 0 min 0,000 mm 3,3 UV-I 557 W/m² 11,3 °C 19,3 °C 4,8 km/h (1 Bft)
21.09.2019 15:27 19,3 °C 61 % 1018,1 hPa 0,0 mm 5,2 km/h (1 Bft) S-SO 149 ° 0 min 0,000 mm 3,2 UV-I 557 W/m² 11,6 °C 19,3 °C 6,4 km/h (2 Bft)
21.09.2019 15:28 19,3 °C 60 % 1018,0 hPa 0,0 mm 1,7 km/h (1 Bft) S-SO 149 ° 0 min 0,000 mm 3,2 UV-I 555 W/m² 11,3 °C 19,3 °C 4,8 km/h (1 Bft)
21.09.2019 15:29 19,2 °C 62 % 1018,0 hPa 0,0 mm 3,0 km/h (1 Bft) NO 36 ° 0 min 0,000 mm 3,2 UV-I 552 W/m² 11,7 °C 19,2 °C 6,4 km/h (2 Bft)
21.09.2019 15:30 19,1 °C 63 % 1018,1 hPa 0,0 mm 1,1 km/h (1 Bft) O-NO 63 ° 0 min 0,000 mm 3,2 UV-I 550 W/m² 11,9 °C 19,1 °C 4,8 km/h (1 Bft)
21.09.2019 15:31 19,1 °C 62 % 1018,1 hPa 0,0 mm 4,2 km/h (1 Bft) O 93 ° 0 min 0,000 mm 3,2 UV-I 548 W/m² 11,6 °C 19,1 °C 6,4 km/h (2 Bft)
21.09.2019 15:32 19,2 °C 63 % 1018,1 hPa 0,0 mm 3,3 km/h (1 Bft) N-NO 30 ° 0 min 0,000 mm 3,2 UV-I 548 W/m² 12,0 °C 19,2 °C 4,8 km/h (1 Bft)
21.09.2019 15:33 19,3 °C 64 % 1018,0 hPa 0,0 mm 3,7 km/h (1 Bft) O-NO 69 ° 0 min 0,000 mm 3,1 UV-I 545 W/m² 12,3 °C 19,3 °C 6,4 km/h (2 Bft)
21.09.2019 15:34 19,2 °C 62 % 1018,0 hPa 0,0 mm 9,7 km/h (2 Bft) O-NO 62 ° 0 min 0,000 mm 3,1 UV-I 543 W/m² 11,7 °C 19,2 °C 14,5 km/h (3 Bft)
21.09.2019 15:35 19,1 °C 66 % 1018,0 hPa 0,0 mm 5,0 km/h (1 Bft) NO 44 ° 0 min 0,000 mm 3,1 UV-I 543 W/m² 12,6 °C 19,1 °C 8,0 km/h (2 Bft)
21.09.2019 15:36 19,0 °C 65 % 1017,9 hPa 0,0 mm 4,3 km/h (1 Bft) NO 36 ° 0 min 0,000 mm 3,1 UV-I 538 W/m² 12,3 °C 19,0 °C 8,0 km/h (2 Bft)
21.09.2019 15:37 18,9 °C 63 % 1017,9 hPa 0,0 mm 6,8 km/h (2 Bft) N 5 ° 0 min 0,000 mm 3,1 UV-I 536 W/m² 11,7 °C 18,9 °C 12,9 km/h (3 Bft)
21.09.2019 15:38 19,0 °C 63 % 1017,9 hPa 0,0 mm 4,4 km/h (1 Bft) NO 42 ° 0 min 0,000 mm 3,1 UV-I 533 W/m² 11,8 °C 19,0 °C 8,0 km/h (2 Bft)
21.09.2019 15:39 19,1 °C 64 % 1017,8 hPa 0,0 mm 1,4 km/h (1 Bft) N 355 ° 0 min 0,000 mm 3,0 UV-I 531 W/m² 12,1 °C 19,1 °C 4,8 km/h (1 Bft)
21.09.2019 15:40 19,1 °C 62 % 1017,8 hPa 0,0 mm 3,6 km/h (1 Bft) O 88 ° 0 min 0,000 mm 3,0 UV-I 527 W/m² 11,6 °C 19,1 °C 6,4 km/h (2 Bft)
21.09.2019 15:41 19,2 °C 66 % 1017,9 hPa 0,0 mm 7,0 km/h (2 Bft) N-NO 29 ° 0 min 0,000 mm 3,0 UV-I 526 W/m² 12,7 °C 19,2 °C 12,9 km/h (3 Bft)
21.09.2019 15:42 19,2 °C 61 % 1017,8 hPa 0,0 mm 7,1 km/h (2 Bft) NO 40 ° 0 min 0,000 mm 3,0 UV-I 524 W/m² 11,5 °C 19,2 °C 14,5 km/h (3 Bft)
21.09.2019 15:43 19,2 °C 61 % 1017,8 hPa 0,0 mm 8,4 km/h (2 Bft) NO 42 ° 0 min 0,000 mm 3,0 UV-I 520 W/m² 11,5 °C 19,2 °C 16,1 km/h (3 Bft)
21.09.2019 15:44 19,2 °C 61 % 1017,7 hPa 0,0 mm 4,9 km/h (1 Bft) O-NO 68 ° 0 min 0,000 mm 2,9 UV-I 519 W/m² 11,5 °C 19,2 °C 6,4 km/h (2 Bft)
21.09.2019 15:45 19,2 °C 63 % 1017,7 hPa 0,0 mm 6,1 km/h (2 Bft) N 5 ° 0 min 0,000 mm 2,9 UV-I 519 W/m² 12,0 °C 19,2 °C 9,7 km/h (2 Bft)
21.09.2019 15:46 19,2 °C 62 % 1017,7 hPa 0,0 mm 3,2 km/h (1 Bft) O 90 ° 0 min 0,000 mm 2,9 UV-I 513 W/m² 11,7 °C 19,2 °C 4,8 km/h (1 Bft)
21.09.2019 15:47 19,2 °C 62 % 1017,7 hPa 0,0 mm 3,2 km/h (1 Bft) NW 321 ° 0 min 0,000 mm 2,9 UV-I 513 W/m² 11,7 °C 19,2 °C 6,4 km/h (2 Bft)
21.09.2019 15:48 19,2 °C 63 % 1017,6 hPa 0,0 mm 5,8 km/h (2 Bft) N-NO 28 ° 0 min 0,000 mm 2,9 UV-I 512 W/m² 12,0 °C 19,2 °C 14,5 km/h (3 Bft)
21.09.2019 15:49 19,2 °C 66 % 1017,6 hPa 0,0 mm 5,4 km/h (1 Bft) O 84 ° 0 min 0,000 mm 2,8 UV-I 508 W/m² 12,7 °C 19,2 °C 8,0 km/h (2 Bft)
21.09.2019 15:50 19,2 °C 62 % 1017,6 hPa 0,0 mm 6,3 km/h (2 Bft) O-NO 65 ° 0 min 0,000 mm 2,8 UV-I 506 W/m² 11,7 °C 19,2 °C 11,3 km/h (2 Bft)
21.09.2019 15:51 19,1 °C 65 % 1017,6 hPa 0,0 mm 6,8 km/h (2 Bft) O-NO 63 ° 0 min 0,000 mm 2,8 UV-I 504 W/m² 12,4 °C 19,1 °C 9,7 km/h (2 Bft)
21.09.2019 15:52 19,1 °C 63 % 1017,6 hPa 0,0 mm 8,1 km/h (2 Bft) O-NO 78 ° 0 min 0,000 mm 2,8 UV-I 501 W/m² 11,9 °C 19,1 °C 14,5 km/h (3 Bft)
21.09.2019 15:53 19,1 °C 62 % 1017,6 hPa 0,0 mm 10,6 km/h (2 Bft) N-NO 21 ° 0 min 0,000 mm 2,7 UV-I 501 W/m² 11,6 °C 19,1 °C 17,7 km/h (3 Bft)
21.09.2019 15:54 19,1 °C 62 % 1017,7 hPa 0,0 mm 7,8 km/h (2 Bft) NO 49 ° 0 min 0,000 mm 2,7 UV-I 499 W/m² 11,6 °C 19,1 °C 12,9 km/h (3 Bft)
21.09.2019 15:55 19,1 °C 60 % 1017,7 hPa 0,0 mm 5,3 km/h (1 Bft) NO 34 ° 0 min 0,000 mm 2,7 UV-I 496 W/m² 11,1 °C 19,1 °C 11,3 km/h (2 Bft)
21.09.2019 15:56 19,1 °C 60 % 1017,7 hPa 0,0 mm 6,8 km/h (2 Bft) NO 46 ° 0 min 0,000 mm 2,6 UV-I 494 W/m² 11,1 °C 19,1 °C 14,5 km/h (3 Bft)
21.09.2019 15:57 19,2 °C 60 % 1017,7 hPa 0,0 mm 5,8 km/h (2 Bft) O-NO 69 ° 0 min 0,000 mm 2,6 UV-I 492 W/m² 11,2 °C 19,2 °C 11,3 km/h (2 Bft)
21.09.2019 15:58 19,1 °C 60 % 1017,7 hPa 0,0 mm 4,1 km/h (1 Bft) O-NO 70 ° 0 min 0,000 mm 2,6 UV-I 489 W/m² 11,1 °C 19,1 °C 6,4 km/h (2 Bft)
21.09.2019 15:59 19,1 °C 60 % 1017,7 hPa 0,0 mm 4,6 km/h (1 Bft) S-SW 207 ° 0 min 0,000 mm 2,5 UV-I 485 W/m² 11,1 °C 19,1 °C 9,7 km/h (2 Bft)
21.09.2019 16:00 18,9 °C 59 % 1017,7 hPa 0,0 mm 3,6 km/h (1 Bft) O-NO 76 ° 0 min 0,330 mm 2,4 UV-I 485 W/m² 10,7 °C 18,9 °C 6,4 km/h (2 Bft)
21.09.2019 16:01 18,8 °C 60 % 1017,7 hPa 0,0 mm 5,2 km/h (1 Bft) NO 56 ° 0 min 0,000 mm 2,4 UV-I 483 W/m² 10,9 °C 18,8 °C 8,0 km/h (2 Bft)
21.09.2019 16:02 18,8 °C 61 % 1017,7 hPa 0,0 mm 5,3 km/h (1 Bft) NO 44 ° 0 min 0,000 mm 2,4 UV-I 483 W/m² 11,1 °C 18,8 °C 9,7 km/h (2 Bft)
21.09.2019 16:03 18,8 °C 60 % 1017,7 hPa 0,0 mm 7,6 km/h (2 Bft) NO 36 ° 0 min 0,000 mm 2,4 UV-I 478 W/m² 10,9 °C 18,8 °C 12,9 km/h (3 Bft)
21.09.2019 16:04 18,8 °C 60 % 1017,6 hPa 0,0 mm 6,6 km/h (2 Bft) N-NO 33 ° 0 min 0,000 mm 2,3 UV-I 475 W/m² 10,9 °C 18,8 °C 9,7 km/h (2 Bft)
21.09.2019 16:05 18,8 °C 59 % 1017,6 hPa 0,0 mm 3,6 km/h (1 Bft) N-NO 25 ° 0 min 0,000 mm 2,3 UV-I 473 W/m² 10,6 °C 18,8 °C 6,4 km/h (2 Bft)
21.09.2019 16:06 18,8 °C 61 % 1017,6 hPa 0,0 mm 5,5 km/h (1 Bft) NO 46 ° 0 min 0,000 mm 2,3 UV-I 469 W/m² 11,1 °C 18,8 °C 8,0 km/h (2 Bft)
21.09.2019 16:07 18,8 °C 59 % 1017,6 hPa 0,0 mm 3,2 km/h (1 Bft) N-NW 339 ° 0 min 0,000 mm 2,3 UV-I 468 W/m² 10,6 °C 18,8 °C 4,8 km/h (1 Bft)
21.09.2019 16:08 18,8 °C 61 % 1017,5 hPa 0,0 mm 3,8 km/h (1 Bft) NW 324 ° 0 min 0,000 mm 2,3 UV-I 466 W/m² 11,1 °C 18,8 °C 8,0 km/h (2 Bft)
21.09.2019 16:09 18,8 °C 61 % 1017,5 hPa 0,0 mm 6,9 km/h (2 Bft) O 80 ° 0 min 0,000 mm 2,3 UV-I 464 W/m² 11,1 °C 18,8 °C 11,3 km/h (2 Bft)
21.09.2019 16:10 18,8 °C 62 % 1017,5 hPa 0,0 mm 4,2 km/h (1 Bft) O-NO 71 ° 0 min 0,000 mm 2,2 UV-I 459 W/m² 11,4 °C 18,8 °C 9,7 km/h (2 Bft)
21.09.2019 16:11 18,9 °C 61 % 1017,5 hPa 0,0 mm 5,2 km/h (1 Bft) NO 46 ° 0 min 0,000 mm 2,2 UV-I 459 W/m² 11,2 °C 18,9 °C 6,4 km/h (2 Bft)
21.09.2019 16:12 18,9 °C 59 % 1017,5 hPa 0,0 mm 3,7 km/h (1 Bft) O 96 ° 0 min 0,000 mm 2,2 UV-I 455 W/m² 10,7 °C 18,9 °C 4,8 km/h (1 Bft)
21.09.2019 16:13 18,9 °C 60 % 1017,5 hPa 0,0 mm 4,6 km/h (1 Bft) O-SO 107 ° 0 min 0,000 mm 2,2 UV-I 454 W/m² 11,0 °C 18,9 °C 9,7 km/h (2 Bft)
21.09.2019 16:14 18,8 °C 61 % 1017,5 hPa 0,0 mm 5,4 km/h (1 Bft) O 90 ° 0 min 0,000 mm 2,2 UV-I 452 W/m² 11,1 °C 18,8 °C 8,0 km/h (2 Bft)
21.09.2019 16:15 18,8 °C 60 % 1017,5 hPa 0,0 mm 6,4 km/h (2 Bft) N-NO 31 ° 0 min 0,000 mm 2,2 UV-I 446 W/m² 10,9 °C 18,8 °C 8,0 km/h (2 Bft)
21.09.2019 16:16 18,8 °C 59 % 1017,5 hPa 0,0 mm 6,4 km/h (2 Bft) NO 35 ° 0 min 0,000 mm 2,2 UV-I 445 W/m² 10,6 °C 18,8 °C 9,7 km/h (2 Bft)
21.09.2019 16:17 18,8 °C 58 % 1017,5 hPa 0,0 mm 7,3 km/h (2 Bft) O-NO 59 ° 0 min 0,000 mm 2,1 UV-I 443 W/m² 10,4 °C 18,8 °C 12,9 km/h (3 Bft)
21.09.2019 16:18 18,8 °C 58 % 1017,5 hPa 0,0 mm 9,0 km/h (2 Bft) O-NO 75 ° 0 min 0,000 mm 2,1 UV-I 439 W/m² 10,4 °C 18,8 °C 14,5 km/h (3 Bft)
21.09.2019 16:19 18,8 °C 60 % 1017,5 hPa 0,0 mm 3,0 km/h (1 Bft) O-NO 59 ° 0 min 0,000 mm 2,1 UV-I 438 W/m² 10,9 °C 18,8 °C 8,0 km/h (2 Bft)
21.09.2019 16:20 18,8 °C 62 % 1017,5 hPa 0,0 mm 2,7 km/h (1 Bft) N-NO 30 ° 0 min 0,000 mm 2,1 UV-I 436 W/m² 11,4 °C 18,8 °C 8,0 km/h (2 Bft)
21.09.2019 16:21 18,7 °C 59 % 1017,5 hPa 0,0 mm 2,1 km/h (1 Bft) NO 46 ° 0 min 0,000 mm 2,1 UV-I 431 W/m² 10,5 °C 18,7 °C 4,8 km/h (1 Bft)
21.09.2019 16:22 18,8 °C 60 % 1017,5 hPa 0,0 mm 2,5 km/h (1 Bft) O-NO 74 ° 0 min 0,000 mm 2,0 UV-I 429 W/m² 10,9 °C 18,8 °C 4,8 km/h (1 Bft)
21.09.2019 16:23 18,7 °C 60 % 1017,4 hPa 0,0 mm 4,6 km/h (1 Bft) O-NO 61 ° 0 min 0,000 mm 2,0 UV-I 427 W/m² 10,8 °C 18,7 °C 6,4 km/h (2 Bft)
21.09.2019 16:24 18,7 °C 60 % 1017,5 hPa 0,0 mm 5,2 km/h (1 Bft) O-NO 57 ° 0 min 0,000 mm 2,0 UV-I 425 W/m² 10,8 °C 18,7 °C 6,4 km/h (2 Bft)
21.09.2019 16:25 18,7 °C 60 % 1017,4 hPa 0,0 mm 5,4 km/h (1 Bft) O 86 ° 0 min 0,000 mm 2,0 UV-I 422 W/m² 10,8 °C 18,7 °C 9,7 km/h (2 Bft)
21.09.2019 16:26 18,6 °C 60 % 1017,4 hPa 0,0 mm 3,6 km/h (1 Bft) N-NW 338 ° 0 min 0,000 mm 1,9 UV-I 420 W/m² 10,7 °C 18,6 °C 4,8 km/h (1 Bft)
21.09.2019 16:27 18,6 °C 60 % 1017,4 hPa 0,0 mm 4,3 km/h (1 Bft) NO 50 ° 0 min 0,000 mm 1,9 UV-I 413 W/m² 10,7 °C 18,6 °C 8,0 km/h (2 Bft)
21.09.2019 16:28 18,6 °C 64 % 1017,4 hPa 0,0 mm 4,1 km/h (1 Bft) O-SO 108 ° 0 min 0,000 mm 1,9 UV-I 373 W/m² 11,7 °C 18,6 °C 6,4 km/h (2 Bft)
21.09.2019 16:29 18,4 °C 62 % 1017,4 hPa 0,0 mm 0,6 km/h (0 Bft) O 90 ° 0 min 0,000 mm 1,6 UV-I 373 W/m² 11,0 °C 18,4 °C 3,2 km/h (1 Bft)
21.09.2019 16:30 18,4 °C 62 % 1017,4 hPa 0,0 mm 1,9 km/h (1 Bft) O 81 ° 0 min 0,000 mm 1,3 UV-I 169 W/m² 11,0 °C 18,4 °C 4,8 km/h (1 Bft)
21.09.2019 16:31 18,3 °C 66 % 1017,4 hPa 0,0 mm 5,0 km/h (1 Bft) O-NO 64 ° 0 min 0,000 mm 1,3 UV-I 98 W/m² 11,8 °C 18,3 °C 6,4 km/h (2 Bft)
21.09.2019 16:32 18,3 °C 65 % 1017,4 hPa 0,0 mm 4,7 km/h (1 Bft) O 88 ° 0 min 0,000 mm 0,0 UV-I 54 W/m² 11,6 °C 18,3 °C 6,4 km/h (2 Bft)
21.09.2019 16:33 18,3 °C 63 % 1017,4 hPa 0,0 mm 3,6 km/h (1 Bft) O-NO 69 ° 0 min 0,000 mm 1,3 UV-I 113 W/m² 11,1 °C 18,3 °C 4,8 km/h (1 Bft)
21.09.2019 16:34 18,2 °C 63 % 1017,3 hPa 0,0 mm 5,3 km/h (1 Bft) N-NO 15 ° 0 min 0,000 mm 1,3 UV-I 97 W/m² 11,0 °C 18,2 °C 8,0 km/h (2 Bft)
21.09.2019 16:35 18,3 °C 63 % 1017,3 hPa 0,0 mm 3,3 km/h (1 Bft) N 10 ° 0 min 0,000 mm 1,3 UV-I 70 W/m² 11,1 °C 18,3 °C 6,4 km/h (2 Bft)
21.09.2019 16:36 18,3 °C 64 % 1017,3 hPa 0,0 mm 3,0 km/h (1 Bft) N-NO 21 ° 0 min 0,000 mm 0,0 UV-I 42 W/m² 11,4 °C 18,3 °C 4,8 km/h (1 Bft)
21.09.2019 16:37 18,4 °C 65 % 1017,3 hPa 0,0 mm 3,0 km/h (1 Bft) O-NO 68 ° 0 min 0,000 mm 0,0 UV-I 47 W/m² 11,7 °C 18,4 °C 6,4 km/h (2 Bft)
21.09.2019 16:38 18,3 °C 67 % 1017,3 hPa 0,0 mm 4,4 km/h (1 Bft) NO 38 ° 0 min 0,000 mm 1,2 UV-I 86 W/m² 12,1 °C 18,3 °C 6,4 km/h (2 Bft)
21.09.2019 16:39 18,3 °C 66 % 1017,3 hPa 0,0 mm 2,8 km/h (1 Bft) O 90 ° 0 min 0,000 mm 1,3 UV-I 202 W/m² 11,8 °C 18,3 °C 6,4 km/h (2 Bft)
21.09.2019 16:40 18,2 °C 66 % 1017,3 hPa 0,0 mm 1,2 km/h (1 Bft) O 90 ° 0 min 0,000 mm 1,3 UV-I 158 W/m² 11,7 °C 18,2 °C 3,2 km/h (1 Bft)
21.09.2019 16:41 18,2 °C 65 % 1017,3 hPa 0,0 mm 3,4 km/h (1 Bft) O-SO 109 ° 0 min 0,000 mm 0,0 UV-I 158 W/m² 11,5 °C 18,2 °C 11,3 km/h (2 Bft)
21.09.2019 16:42 18,2 °C 66 % 1017,3 hPa 0,0 mm 8,0 km/h (2 Bft) NO 53 ° 0 min 0,000 mm 0,0 UV-I 39 W/m² 11,7 °C 18,2 °C 11,3 km/h (2 Bft)
21.09.2019 16:43 18,2 °C 64 % 1017,3 hPa 0,0 mm 5,9 km/h (2 Bft) O-NO 67 ° 0 min 0,000 mm 0,0 UV-I 39 W/m² 11,3 °C 18,2 °C 9,7 km/h (2 Bft)
21.09.2019 16:44 18,3 °C 63 % 1017,4 hPa 0,0 mm 5,8 km/h (2 Bft) O 81 ° 0 min 0,000 mm 0,0 UV-I 39 W/m² 11,1 °C 18,3 °C 12,9 km/h (3 Bft)
21.09.2019 16:45 18,3 °C 65 % 1017,3 hPa 0,0 mm 4,8 km/h (1 Bft) N-NO 32 ° 0 min 0,000 mm 0,0 UV-I 40 W/m² 11,6 °C 18,3 °C 9,7 km/h (2 Bft)
21.09.2019 16:46 18,3 °C 65 % 1017,3 hPa 0,0 mm 8,1 km/h (2 Bft) NO 34 ° 0 min 0,000 mm 0,0 UV-I 42 W/m² 11,6 °C 18,3 °C 11,3 km/h (2 Bft)
21.09.2019 16:47 18,3 °C 64 % 1017,2 hPa 0,0 mm 7,4 km/h (2 Bft) NO 41 ° 0 min 0,000 mm 0,0 UV-I 44 W/m² 11,4 °C 18,3 °C 9,7 km/h (2 Bft)
21.09.2019 16:48 18,3 °C 63 % 1017,2 hPa 0,0 mm 7,0 km/h (2 Bft) NO 43 ° 0 min 0,000 mm 0,0 UV-I 42 W/m² 11,1 °C 18,3 °C 8,0 km/h (2 Bft)
21.09.2019 16:49 18,4 °C 65 % 1017,2 hPa 0,0 mm 3,4 km/h (1 Bft) O 86 ° 0 min 0,000 mm 0,0 UV-I 39 W/m² 11,7 °C 18,4 °C 6,4 km/h (2 Bft)
21.09.2019 16:50 18,3 °C 65 % 1017,2 hPa 0,0 mm 5,3 km/h (1 Bft) O 83 ° 0 min 0,000 mm 0,0 UV-I 39 W/m² 11,6 °C 18,3 °C 9,7 km/h (2 Bft)
21.09.2019 16:51 18,3 °C 67 % 1017,1 hPa 0,0 mm 3,1 km/h (1 Bft) O 85 ° 0 min 0,000 mm 0,0 UV-I 39 W/m² 12,1 °C 18,3 °C 8,0 km/h (2 Bft)
21.09.2019 16:52 18,2 °C 66 % 1017,1 hPa 0,0 mm 4,7 km/h (1 Bft) O 92 ° 0 min 0,000 mm 0,0 UV-I 39 W/m² 11,7 °C 18,2 °C 9,7 km/h (2 Bft)
21.09.2019 16:53 18,1 °C 67 % 1017,1 hPa 0,0 mm 4,7 km/h (1 Bft) NO 36 ° 0 min 0,000 mm 0,0 UV-I 37 W/m² 11,9 °C 18,1 °C 8,0 km/h (2 Bft)
21.09.2019 16:54 18,1 °C 68 % 1017,1 hPa 0,0 mm 3,8 km/h (1 Bft) O-NO 59 ° 0 min 0,000 mm 0,0 UV-I 39 W/m² 12,1 °C 18,1 °C 6,4 km/h (2 Bft)
21.09.2019 16:55 18,0 °C 67 % 1017,1 hPa 0,0 mm 3,6 km/h (1 Bft) N-NO 26 ° 0 min 0,000 mm 0,0 UV-I 42 W/m² 11,8 °C 18,0 °C 4,8 km/h (1 Bft)
21.09.2019 16:56 18,1 °C 66 % 1017,1 hPa 0,0 mm 6,6 km/h (2 Bft) O-NO 69 ° 0 min 0,000 mm 0,0 UV-I 37 W/m² 11,6 °C 18,1 °C 11,3 km/h (2 Bft)
21.09.2019 16:57 18,0 °C 67 % 1017,0 hPa 0,0 mm 4,0 km/h (1 Bft) NO 52 ° 0 min 0,000 mm 0,0 UV-I 37 W/m² 11,8 °C 18,0 °C 6,4 km/h (2 Bft)
21.09.2019 16:58 18,0 °C 67 % 1017,0 hPa 0,0 mm 4,0 km/h (1 Bft) O-NO 66 ° 0 min 0,000 mm 0,0 UV-I 37 W/m² 11,8 °C 18,0 °C 6,4 km/h (2 Bft)
21.09.2019 16:59 18,1 °C 66 % 1017,0 hPa 0,0 mm 7,1 km/h (2 Bft) O-NO 74 ° 0 min 0,000 mm 0,0 UV-I 37 W/m² 11,6 °C 18,1 °C 11,3 km/h (2 Bft)
21.09.2019 17:00 18,1 °C 66 % 1017,0 hPa 0,0 mm 4,5 km/h (1 Bft) O-NO 67 ° 0 min 0,000 mm 0,0 UV-I 37 W/m² 11,6 °C 18,1 °C 6,4 km/h (2 Bft)
21.09.2019 17:01 18,2 °C 67 % 1017,0 hPa 0,0 mm 4,9 km/h (1 Bft) SO 127 ° 0 min 0,152 mm 0,0 UV-I 37 W/m² 12,0 °C 18,2 °C 9,7 km/h (2 Bft)
21.09.2019 17:02 18,2 °C 66 % 1016,9 hPa 0,0 mm 4,9 km/h (1 Bft) O-NO 77 ° 0 min 0,000 mm 0,0 UV-I 37 W/m² 11,7 °C 18,2 °C 9,7 km/h (2 Bft)
21.09.2019 17:03 18,2 °C 66 % 1016,9 hPa 0,0 mm 5,2 km/h (1 Bft) O 89 ° 0 min 0,000 mm 0,0 UV-I 37 W/m² 11,7 °C 18,2 °C 11,3 km/h (2 Bft)
21.09.2019 17:04 18,1 °C 67 % 1016,9 hPa 0,0 mm 8,2 km/h (2 Bft) O-NO 61 ° 0 min 0,000 mm 0,0 UV-I 37 W/m² 11,9 °C 18,1 °C 12,9 km/h (3 Bft)
21.09.2019 17:05 18,1 °C 67 % 1016,9 hPa 0,0 mm 5,4 km/h (1 Bft) NO 49 ° 0 min 0,000 mm 0,0 UV-I 39 W/m² 11,9 °C 18,1 °C 6,4 km/h (2 Bft)
21.09.2019 17:06 17,9 °C 69 % 1016,9 hPa 0,0 mm 4,1 km/h (1 Bft) NO 34 ° 0 min 0,000 mm 0,0 UV-I 39 W/m² 12,1 °C 17,9 °C 6,4 km/h (2 Bft)
21.09.2019 17:07 17,9 °C 68 % 1016,9 hPa 0,0 mm 4,9 km/h (1 Bft) O-NO 65 ° 0 min 0,000 mm 0,0 UV-I 35 W/m² 11,9 °C 17,9 °C 8,0 km/h (2 Bft)
21.09.2019 17:08 17,9 °C 68 % 1016,9 hPa 0,0 mm 6,5 km/h (2 Bft) O-NO 66 ° 0 min 0,000 mm 0,0 UV-I 35 W/m² 11,9 °C 17,9 °C 9,7 km/h (2 Bft)
21.09.2019 17:09 17,9 °C 68 % 1016,8 hPa 0,0 mm 5,3 km/h (1 Bft) O 80 ° 0 min 0,000 mm 0,0 UV-I 35 W/m² 11,9 °C 17,9 °C 8,0 km/h (2 Bft)
21.09.2019 17:10 17,9 °C 68 % 1016,9 hPa 0,0 mm 6,9 km/h (2 Bft) N-NO 32 ° 0 min 0,000 mm 0,0 UV-I 35 W/m² 11,9 °C 17,9 °C 12,9 km/h (3 Bft)
21.09.2019 17:11 18,0 °C 67 % 1016,9 hPa 0,0 mm 10,4 km/h (2 Bft) NO 36 ° 0 min 0,000 mm 0,0 UV-I 37 W/m² 11,8 °C 18,0 °C 17,7 km/h (3 Bft)
21.09.2019 17:12 18,1 °C 68 % 1016,8 hPa 0,0 mm 5,6 km/h (1 Bft) NO 38 ° 0 min 0,000 mm 0,0 UV-I 53 W/m² 12,1 °C 18,1 °C 9,7 km/h (2 Bft)
21.09.2019 17:13 18,1 °C 66 % 1016,8 hPa 0,0 mm 8,1 km/h (2 Bft) O-NO 66 ° 0 min 0,000 mm 0,0 UV-I 54 W/m² 11,6 °C 18,1 °C 9,7 km/h (2 Bft)
21.09.2019 17:14 18,1 °C 68 % 1016,9 hPa 0,0 mm 7,4 km/h (2 Bft) NO 50 ° 0 min 0,000 mm 0,9 UV-I 65 W/m² 12,1 °C 18,1 °C 12,9 km/h (3 Bft)
21.09.2019 17:15 18,2 °C 67 % 1016,8 hPa 0,0 mm 7,4 km/h (2 Bft) O-NO 63 ° 0 min 0,000 mm 0,9 UV-I 90 W/m² 12,0 °C 18,2 °C 16,1 km/h (3 Bft)
21.09.2019 17:16 18,2 °C 66 % 1016,8 hPa 0,0 mm 8,9 km/h (2 Bft) NO 36 ° 0 min 0,000 mm 0,9 UV-I 84 W/m² 11,7 °C 18,2 °C 16,1 km/h (3 Bft)
21.09.2019 17:17 18,2 °C 67 % 1016,8 hPa 0,0 mm 2,8 km/h (1 Bft) O 81 ° 0 min 0,000 mm 0,0 UV-I 44 W/m² 12,0 °C 18,2 °C 4,8 km/h (1 Bft)
21.09.2019 17:18 18,2 °C 67 % 1016,8 hPa 0,0 mm 2,5 km/h (1 Bft) O 85 ° 0 min 0,000 mm 0,0 UV-I 39 W/m² 12,0 °C 18,2 °C 6,4 km/h (2 Bft)
21.09.2019 17:19 18,2 °C 67 % 1016,8 hPa 0,0 mm 5,6 km/h (1 Bft) O-NO 76 ° 0 min 0,000 mm 0,0 UV-I 35 W/m² 12,0 °C 18,2 °C 11,3 km/h (2 Bft)
21.09.2019 17:20 18,1 °C 68 % 1016,8 hPa 0,0 mm 5,2 km/h (1 Bft) O 82 ° 0 min 0,000 mm 0,0 UV-I 33 W/m² 12,1 °C 18,1 °C 11,3 km/h (2 Bft)
21.09.2019 17:21 18,1 °C 67 % 1016,8 hPa 0,0 mm 4,7 km/h (1 Bft) NO 36 ° 0 min 0,000 mm 0,0 UV-I 33 W/m² 11,9 °C 18,1 °C 9,7 km/h (2 Bft)
21.09.2019 17:22 18,1 °C 68 % 1016,8 hPa 0,0 mm 4,7 km/h (1 Bft) O-NO 62 ° 0 min 0,000 mm 0,0 UV-I 33 W/m² 12,1 °C 18,1 °C 6,4 km/h (2 Bft)
21.09.2019 17:23 17,9 °C 67 % 1016,8 hPa 0,0 mm 3,5 km/h (1 Bft) O 82 ° 0 min 0,000 mm 0,0 UV-I 33 W/m² 11,7 °C 17,9 °C 4,8 km/h (1 Bft)
21.09.2019 17:24 18,0 °C 68 % 1016,8 hPa 0,0 mm 6,4 km/h (2 Bft) NO 43 ° 0 min 0,000 mm 0,0 UV-I 33 W/m² 12,0 °C 18,0 °C 11,3 km/h (2 Bft)
21.09.2019 17:25 17,9 °C 67 % 1016,8 hPa 0,0 mm 8,0 km/h (2 Bft) O 86 ° 0 min 0,000 mm 0,0 UV-I 33 W/m² 11,7 °C 17,9 °C 14,5 km/h (3 Bft)
21.09.2019 17:26 18,0 °C 67 % 1016,8 hPa 0,0 mm 0,2 km/h (0 Bft) O 86 ° 0 min 0,000 mm 0,0 UV-I 33 W/m² 11,8 °C 18,0 °C 1,6 km/h (1 Bft)
21.09.2019 17:27 17,9 °C 68 % 1016,7 hPa 0,0 mm 3,2 km/h (1 Bft) O-NO 60 ° 0 min 0,000 mm 0,0 UV-I 33 W/m² 11,9 °C 17,9 °C 6,4 km/h (2 Bft)
21.09.2019 17:28 17,9 °C 69 % 1016,7 hPa 0,0 mm 0,0 km/h (0 Bft) O-NO 59 ° 0 min 0,000 mm 0,0 UV-I 33 W/m² 12,1 °C 17,9 °C 0,0 km/h (0 Bft)
21.09.2019 17:29 17,8 °C 70 % 1016,7 hPa 0,0 mm 3,9 km/h (1 Bft) O-NO 62 ° 0 min 0,000 mm 0,0 UV-I 33 W/m² 12,3 °C 17,8 °C 4,8 km/h (1 Bft)
21.09.2019 17:30 17,7 °C 71 % 1016,7 hPa 0,0 mm 1,7 km/h (1 Bft) O-NO 71 ° 0 min 0,000 mm 0,0 UV-I 33 W/m² 12,4 °C 17,7 °C 4,8 km/h (1 Bft)
21.09.2019 17:31 17,6 °C 70 % 1016,7 hPa 0,0 mm 6,6 km/h (2 Bft) NO 34 ° 0 min 0,000 mm 0,0 UV-I 32 W/m² 12,1 °C 17,6 °C 8,0 km/h (2 Bft)
21.09.2019 17:32 17,6 °C 71 % 1016,6 hPa 0,0 mm 4,4 km/h (1 Bft) NO 39 ° 0 min 0,000 mm 0,0 UV-I 32 W/m² 12,3 °C 17,6 °C 8,0 km/h (2 Bft)
21.09.2019 17:33 17,7 °C 69 % 1016,6 hPa 0,0 mm 7,6 km/h (2 Bft) O-NO 62 ° 0 min 0,000 mm 0,0 UV-I 32 W/m² 11,9 °C 17,7 °C 9,7 km/h (2 Bft)
21.09.2019 17:34 17,7 °C 69 % 1016,6 hPa 0,0 mm 5,2 km/h (1 Bft) O-NO 60 ° 0 min 0,000 mm 0,0 UV-I 32 W/m² 11,9 °C 17,7 °C 11,3 km/h (2 Bft)
21.09.2019 17:35 17,7 °C 70 % 1016,6 hPa 0,0 mm 1,1 km/h (1 Bft) O-NO 60 ° 0 min 0,000 mm 0,0 UV-I 32 W/m² 12,2 °C 17,7 °C 4,8 km/h (1 Bft)
21.09.2019 17:36 17,7 °C 70 % 1016,6 hPa 0,0 mm 0,0 km/h (0 Bft) O-NO 60 ° 0 min 0,000 mm 0,0 UV-I 32 W/m² 12,2 °C 17,7 °C 0,0 km/h (0 Bft)
21.09.2019 17:37 17,6 °C 71 % 1016,5 hPa 0,0 mm 4,1 km/h (1 Bft) O 92 ° 0 min 0,000 mm 0,0 UV-I 32 W/m² 12,3 °C 17,6 °C 6,4 km/h (2 Bft)
21.09.2019 17:38 17,5 °C 70 % 1016,5 hPa 0,0 mm 0,9 km/h (0 Bft) O 92 ° 0 min 0,000 mm 0,0 UV-I 30 W/m² 12,0 °C 17,5 °C 3,2 km/h (1 Bft)
21.09.2019 17:39 17,4 °C 71 % 1016,6 hPa 0,0 mm 0,0 km/h (0 Bft) O 92 ° 0 min 0,000 mm 0,0 UV-I 30 W/m² 12,1 °C 17,4 °C 0,0 km/h (0 Bft)
21.09.2019 17:40 17,4 °C 70 % 1016,6 hPa 0,0 mm 0,0 km/h (0 Bft) O-SO 107 ° 0 min 0,000 mm 0,0 UV-I 30 W/m² 11,9 °C 17,4 °C 0,0 km/h (0 Bft)
21.09.2019 17:41 17,3 °C 71 % 1016,6 hPa 0,0 mm 0,0 km/h (0 Bft) O-SO 107 ° 0 min 0,000 mm 0,0 UV-I 30 W/m² 12,0 °C 17,3 °C 0,0 km/h (0 Bft)
21.09.2019 17:42 17,3 °C 71 % 1016,6 hPa 0,0 mm 0,0 km/h (0 Bft) O-SO 107 ° 0 min 0,000 mm 0,0 UV-I 30 W/m² 12,0 °C 17,3 °C 0,0 km/h (0 Bft)
21.09.2019 17:43 17,3 °C 71 % 1016,6 hPa 0,0 mm 0,7 km/h (0 Bft) NO 53 ° 0 min 0,000 mm 0,0 UV-I 30 W/m² 12,0 °C 17,3 °C 3,2 km/h (1 Bft)
21.09.2019 17:44 17,2 °C 71 % 1016,5 hPa 0,0 mm 2,5 km/h (1 Bft) NO 53 ° 0 min 0,000 mm 0,0 UV-I 30 W/m² 11,9 °C 17,2 °C 3,2 km/h (1 Bft)
21.09.2019 17:45 17,0 °C 73 % 1016,5 hPa 0,0 mm 0,1 km/h (0 Bft) NO 53 ° 0 min 0,000 mm 0,0 UV-I 30 W/m² 12,1 °C 17,0 °C 1,6 km/h (1 Bft)
21.09.2019 17:46 16,9 °C 73 % 1016,5 hPa 0,0 mm 2,4 km/h (1 Bft) SO 131 ° 0 min 0,000 mm 0,0 UV-I 30 W/m² 12,0 °C 16,9 °C 4,8 km/h (1 Bft)
21.09.2019 17:47 16,9 °C 71 % 1016,5 hPa 0,0 mm 0,0 km/h (0 Bft) SO 128 ° 0 min 0,000 mm 0,0 UV-I 30 W/m² 11,6 °C 16,9 °C 0,0 km/h (0 Bft)
21.09.2019 17:48 16,9 °C 72 % 1016,5 hPa 0,0 mm 0,0 km/h (0 Bft) SO 128 ° 0 min 0,000 mm 0,0 UV-I 28 W/m² 11,8 °C 16,9 °C 0,0 km/h (0 Bft)
21.09.2019 17:49 16,9 °C 71 % 1016,5 hPa 0,0 mm 1,1 km/h (1 Bft) O-NO 57 ° 0 min 0,000 mm 0,0 UV-I 28 W/m² 11,6 °C 16,9 °C 6,4 km/h (2 Bft)
21.09.2019 17:50 16,9 °C 72 % 1016,5 hPa 0,0 mm 2,2 km/h (1 Bft) NO 55 ° 0 min 0,000 mm 0,0 UV-I 28 W/m² 11,8 °C 16,9 °C 6,4 km/h (2 Bft)
21.09.2019 17:51 16,9 °C 71 % 1016,5 hPa 0,0 mm 0,0 km/h (0 Bft) NO 55 ° 0 min 0,000 mm 0,0 UV-I 28 W/m² 11,6 °C 16,9 °C 0,0 km/h (0 Bft)
21.09.2019 17:52 17,0 °C 71 % 1016,4 hPa 0,0 mm 0,0 km/h (0 Bft) NO 55 ° 0 min 0,000 mm 0,0 UV-I 28 W/m² 11,7 °C 17,0 °C 0,0 km/h (0 Bft)
21.09.2019 17:53 17,0 °C 71 % 1016,5 hPa 0,0 mm 0,0 km/h (0 Bft) NO 55 ° 0 min 0,000 mm 0,0 UV-I 28 W/m² 11,7 °C 17,0 °C 0,0 km/h (0 Bft)
21.09.2019 17:54 16,9 °C 71 % 1016,5 hPa 0,0 mm 0,0 km/h (0 Bft) NO 55 ° 0 min 0,000 mm 0,0 UV-I 28 W/m² 11,6 °C 16,9 °C 0,0 km/h (0 Bft)
21.09.2019 17:55 17,0 °C 70 % 1016,4 hPa 0,0 mm 0,0 km/h (0 Bft) NO 55 ° 0 min 0,000 mm 0,0 UV-I 28 W/m² 11,5 °C 17,0 °C 0,0 km/h (0 Bft)
21.09.2019 17:56 16,9 °C 71 % 1016,5 hPa 0,0 mm 0,0 km/h (0 Bft) NO 55 ° 0 min 0,000 mm 0,0 UV-I 28 W/m² 11,6 °C 16,9 °C 0,0 km/h (0 Bft)
21.09.2019 17:57 16,8 °C 72 % 1016,5 hPa 0,0 mm 0,0 km/h (0 Bft) NO 55 ° 0 min 0,000 mm 0,0 UV-I 28 W/m² 11,7 °C 16,8 °C 0,0 km/h (0 Bft)
21.09.2019 17:58 16,8 °C 72 % 1016,5 hPa 0,0 mm 0,0 km/h (0 Bft) NO 55 ° 0 min 0,000 mm 0,0 UV-I 28 W/m² 11,7 °C 16,8 °C 0,0 km/h (0 Bft)
21.09.2019 17:59 16,8 °C 71 % 1016,5 hPa 0,0 mm 0,0 km/h (0 Bft) NO 55 ° 0 min 0,000 mm 0,0 UV-I 26 W/m² 11,5 °C 16,8 °C 0,0 km/h (0 Bft)
21.09.2019 18:00 16,8 °C 71 % 1016,5 hPa 0,0 mm 0,1 km/h (0 Bft) NO 55 ° 0 min 0,000 mm 0,0 UV-I 26 W/m² 11,5 °C 16,8 °C 1,6 km/h (1 Bft)
21.09.2019 18:01 16,8 °C 71 % 1016,4 hPa 0,0 mm 3,0 km/h (1 Bft) O-NO 70 ° 0 min 0,026 mm 0,0 UV-I 26 W/m² 11,5 °C 16,8 °C 4,8 km/h (1 Bft)
21.09.2019 18:02 16,8 °C 70 % 1016,4 hPa 0,0 mm 3,4 km/h (1 Bft) O-NO 70 ° 0 min 0,000 mm 0,0 UV-I 26 W/m² 11,3 °C 16,8 °C 4,8 km/h (1 Bft)
21.09.2019 18:03 16,8 °C 70 % 1016,4 hPa 0,0 mm 0,5 km/h (0 Bft) O-NO 70 ° 0 min 0,000 mm 0,0 UV-I 26 W/m² 11,3 °C 16,8 °C 3,2 km/h (1 Bft)
21.09.2019 18:04 16,7 °C 71 % 1016,3 hPa 0,0 mm 1,4 km/h (1 Bft) O-NO 70 ° 0 min 0,000 mm 0,0 UV-I 26 W/m² 11,4 °C 16,7 °C 4,8 km/h (1 Bft)
21.09.2019 18:05 16,6 °C 71 % 1016,4 hPa 0,0 mm 0,2 km/h (0 Bft) O-NO 70 ° 0 min 0,000 mm 0,0 UV-I 26 W/m² 11,3 °C 16,6 °C 1,6 km/h (1 Bft)
21.09.2019 18:06 16,6 °C 71 % 1016,3 hPa 0,0 mm 0,0 km/h (0 Bft) O-NO 70 ° 0 min 0,000 mm 0,0 UV-I 26 W/m² 11,3 °C 16,6 °C 0,0 km/h (0 Bft)
21.09.2019 18:07 16,6 °C 71 % 1016,3 hPa 0,0 mm 0,0 km/h (0 Bft) O-NO 70 ° 0 min 0,000 mm 0,0 UV-I 26 W/m² 11,3 °C 16,6 °C 0,0 km/h (0 Bft)
21.09.2019 18:08 16,6 °C 72 % 1016,3 hPa 0,0 mm 0,0 km/h (0 Bft) W 275 ° 0 min 0,000 mm 0,0 UV-I 26 W/m² 11,5 °C 16,6 °C 0,0 km/h (0 Bft)
21.09.2019 18:09 16,6 °C 71 % 1016,3 hPa 0,0 mm 0,0 km/h (0 Bft) SW 223 ° 0 min 0,000 mm 0,0 UV-I 26 W/m² 11,3 °C 16,6 °C 0,0 km/h (0 Bft)
21.09.2019 18:10 16,5 °C 72 % 1016,3 hPa 0,0 mm 0,9 km/h (0 Bft) O 101 ° 0 min 0,000 mm 0,0 UV-I 26 W/m² 11,4 °C 16,5 °C 3,2 km/h (1 Bft)
21.09.2019 18:11 16,4 °C 72 % 1016,3 hPa 0,0 mm 1,8 km/h (1 Bft) O 90 ° 0 min 0,000 mm 0,0 UV-I 25 W/m² 11,3 °C 16,4 °C 3,2 km/h (1 Bft)
21.09.2019 18:12 16,3 °C 74 % 1016,3 hPa 0,0 mm 0,7 km/h (0 Bft) O 90 ° 0 min 0,000 mm 0,0 UV-I 25 W/m² 11,7 °C 16,3 °C 1,6 km/h (1 Bft)
21.09.2019 18:13 16,3 °C 73 % 1016,4 hPa 0,0 mm 2,5 km/h (1 Bft) NO 44 ° 0 min 0,000 mm 0,0 UV-I 25 W/m² 11,4 °C 16,3 °C 4,8 km/h (1 Bft)
21.09.2019 18:14 16,2 °C 74 % 1016,4 hPa 0,0 mm 2,0 km/h (1 Bft) O-NO 59 ° 0 min 0,000 mm 0,0 UV-I 25 W/m² 11,6 °C 16,2 °C 4,8 km/h (1 Bft)
21.09.2019 18:15 16,2 °C 74 % 1016,3 hPa 0,0 mm 1,5 km/h (1 Bft) NO 44 ° 0 min 0,000 mm 0,0 UV-I 25 W/m² 11,6 °C 16,2 °C 3,2 km/h (1 Bft)
21.09.2019 18:16 16,2 °C 74 % 1016,4 hPa 0,0 mm 1,4 km/h (1 Bft) O-NO 67 ° 0 min 0,000 mm 0,0 UV-I 25 W/m² 11,6 °C 16,2 °C 4,8 km/h (1 Bft)
21.09.2019 18:17 16,2 °C 74 % 1016,3 hPa 0,0 mm 3,2 km/h (1 Bft) O-NO 63 ° 0 min 0,000 mm 0,0 UV-I 25 W/m² 11,6 °C 16,2 °C 6,4 km/h (2 Bft)
21.09.2019 18:18 16,2 °C 74 % 1016,4 hPa 0,0 mm 0,1 km/h (0 Bft) O-NO 63 ° 0 min 0,000 mm 0,0 UV-I 25 W/m² 11,6 °C 16,2 °C 1,6 km/h (1 Bft)
21.09.2019 18:19 16,2 °C 74 % 1016,3 hPa 0,0 mm 0,0 km/h (0 Bft) O-NO 63 ° 0 min 0,000 mm 0,0 UV-I 25 W/m² 11,6 °C 16,2 °C 0,0 km/h (0 Bft)
21.09.2019 18:20 16,2 °C 73 % 1016,3 hPa 0,0 mm 0,6 km/h (0 Bft) O-NO 71 ° 0 min 0,000 mm 0,0 UV-I 23 W/m² 11,4 °C 16,2 °C 6,4 km/h (2 Bft)
21.09.2019 18:21 16,2 °C 74 % 1016,3 hPa 0,0 mm 3,4 km/h (1 Bft) NO 47 ° 0 min 0,000 mm 0,0 UV-I 23 W/m² 11,6 °C 16,2 °C 6,4 km/h (2 Bft)
21.09.2019 18:22 16,2 °C 74 % 1016,3 hPa 0,0 mm 0,0 km/h (0 Bft) NO 47 ° 0 min 0,000 mm 0,0 UV-I 23 W/m² 11,6 °C 16,2 °C 0,0 km/h (0 Bft)
21.09.2019 18:23 16,1 °C 75 % 1016,2 hPa 0,0 mm 0,5 km/h (0 Bft) O-SO 118 ° 0 min 0,000 mm 0,0 UV-I 23 W/m² 11,7 °C 16,1 °C 3,2 km/h (1 Bft)
21.09.2019 18:24 15,9 °C 75 % 1016,2 hPa 0,0 mm 0,7 km/h (0 Bft) O-SO 118 ° 0 min 0,000 mm 0,0 UV-I 23 W/m² 11,5 °C 15,9 °C 3,2 km/h (1 Bft)
21.09.2019 18:25 15,8 °C 75 % 1016,2 hPa 0,0 mm 0,0 km/h (0 Bft) O-SO 118 ° 0 min 0,000 mm 0,0 UV-I 23 W/m² 11,4 °C 15,8 °C 0,0 km/h (0 Bft)
21.09.2019 18:26 15,8 °C 76 % 1016,2 hPa 0,0 mm 0,0 km/h (0 Bft) O-SO 118 ° 0 min 0,000 mm 0,0 UV-I 23 W/m² 11,6 °C 15,8 °C 0,0 km/h (0 Bft)
21.09.2019 18:27 15,9 °C 76 % 1016,2 hPa 0,0 mm 0,0 km/h (0 Bft) O-SO 118 ° 0 min 0,000 mm 0,0 UV-I 21 W/m² 11,7 °C 15,9 °C 0,0 km/h (0 Bft)
21.09.2019 18:28 15,9 °C 75 % 1016,2 hPa 0,0 mm 0,0 km/h (0 Bft) O-SO 118 ° 0 min 0,000 mm 0,0 UV-I 21 W/m² 11,5 °C 15,9 °C 0,0 km/h (0 Bft)
21.09.2019 18:29 16,0 °C 75 % 1016,2 hPa 0,0 mm 0,9 km/h (0 Bft) O-SO 111 ° 0 min 0,000 mm 0,0 UV-I 21 W/m² 11,6 °C 16,0 °C 1,6 km/h (1 Bft)
21.09.2019 18:30 16,1 °C 75 % 1016,2 hPa 0,0 mm 0,1 km/h (0 Bft) O-SO 111 ° 0 min 0,000 mm 0,0 UV-I 21 W/m² 11,7 °C 16,1 °C 1,6 km/h (1 Bft)
21.09.2019 18:31 16,1 °C 75 % 1016,2 hPa 0,0 mm 0,0 km/h (0 Bft) O-SO 111 ° 0 min 0,000 mm 0,0 UV-I 21 W/m² 11,7 °C 16,1 °C 0,0 km/h (0 Bft)
21.09.2019 18:32 16,1 °C 75 % 1016,2 hPa 0,0 mm 0,0 km/h (0 Bft) O-SO 111 ° 0 min 0,000 mm 0,0 UV-I 21 W/m² 11,7 °C 16,1 °C 0,0 km/h (0 Bft)
21.09.2019 18:33 16,0 °C 75 % 1016,1 hPa 0,0 mm 0,0 km/h (0 Bft) O-SO 111 ° 0 min 0,000 mm 0,0 UV-I 21 W/m² 11,6 °C 16,0 °C 0,0 km/h (0 Bft)
21.09.2019 18:34 15,9 °C 75 % 1016,1 hPa 0,0 mm 0,9 km/h (0 Bft) O-SO 111 ° 0 min 0,000 mm 0,0 UV-I 21 W/m² 11,5 °C 15,9 °C 3,2 km/h (1 Bft)
21.09.2019 18:35 15,8 °C 76 % 1016,1 hPa 0,0 mm 0,0 km/h (0 Bft) O-SO 111 ° 0 min 0,000 mm 0,0 UV-I 19 W/m² 11,6 °C 15,8 °C 0,0 km/h (0 Bft)
21.09.2019 18:36 15,8 °C 76 % 1016,0 hPa 0,0 mm 0,0 km/h (0 Bft) O-SO 111 ° 0 min 0,000 mm 0,0 UV-I 19 W/m² 11,6 °C 15,8 °C 0,0 km/h (0 Bft)
21.09.2019 18:37 15,7 °C 76 % 1016,1 hPa 0,0 mm 0,0 km/h (0 Bft) O-SO 111 ° 0 min 0,000 mm 0,0 UV-I 19 W/m² 11,5 °C 15,7 °C 0,0 km/h (0 Bft)
21.09.2019 18:38 15,7 °C 76 % 1016,0 hPa 0,0 mm 0,0 km/h (0 Bft) O-SO 111 ° 0 min 0,000 mm 0,0 UV-I 19 W/m² 11,5 °C 15,7 °C 0,0 km/h (0 Bft)
21.09.2019 18:39 15,7 °C 77 % 1016,0 hPa 0,0 mm 0,0 km/h (0 Bft) O-SO 111 ° 0 min 0,000 mm 0,0 UV-I 19 W/m² 11,7 °C 15,7 °C 0,0 km/h (0 Bft)
21.09.2019 18:40 15,7 °C 76 % 1015,9 hPa 0,0 mm 0,0 km/h (0 Bft) O 93 ° 0 min 0,000 mm 0,0 UV-I 19 W/m² 11,5 °C 15,7 °C 0,0 km/h (0 Bft)
21.09.2019 18:41 15,6 °C 77 % 1015,9 hPa 0,0 mm 0,0 km/h (0 Bft) O 93 ° 0 min 0,000 mm 0,0 UV-I 19 W/m² 11,6 °C 15,6 °C 0,0 km/h (0 Bft)
21.09.2019 18:42 15,4 °C 77 % 1015,9 hPa 0,0 mm 0,0 km/h (0 Bft) O 93 ° 0 min 0,000 mm 0,0 UV-I 18 W/m² 11,4 °C 15,4 °C 0,0 km/h (0 Bft)
21.09.2019 18:43 15,4 °C 77 % 1016,0 hPa 0,0 mm 0,0 km/h (0 Bft) O 93 ° 0 min 0,000 mm 0,0 UV-I 18 W/m² 11,4 °C 15,4 °C 0,0 km/h (0 Bft)
21.09.2019 18:44 15,4 °C 78 % 1015,9 hPa 0,0 mm 0,0 km/h (0 Bft) O 93 ° 0 min 0,000 mm 0,0 UV-I 18 W/m² 11,6 °C 15,4 °C 0,0 km/h (0 Bft)
21.09.2019 18:45 15,2 °C 78 % 1016,0 hPa 0,0 mm 4,5 km/h (1 Bft) O-SO 119 ° 0 min 0,000 mm 0,0 UV-I 18 W/m² 11,4 °C 15,2 °C 6,4 km/h (2 Bft)
21.09.2019 18:46 15,2 °C 78 % 1016,0 hPa 0,0 mm 1,3 km/h (1 Bft) O-SO 119 ° 0 min 0,000 mm 0,0 UV-I 19 W/m² 11,4 °C 15,2 °C 3,2 km/h (1 Bft)
21.09.2019 18:47 15,3 °C 78 % 1016,0 hPa 0,0 mm 0,0 km/h (0 Bft) O-SO 119 ° 0 min 0,000 mm 0,0 UV-I 21 W/m² 11,5 °C 15,3 °C 0,0 km/h (0 Bft)
21.09.2019 18:48 15,3 °C 78 % 1016,0 hPa 0,0 mm 0,3 km/h (0 Bft) O-SO 119 ° 0 min 0,000 mm 0,0 UV-I 19 W/m² 11,5 °C 15,3 °C 3,2 km/h (1 Bft)
21.09.2019 18:49 15,3 °C 78 % 1016,0 hPa 0,0 mm 0,7 km/h (0 Bft) O-SO 119 ° 0 min 0,000 mm 0,0 UV-I 19 W/m² 11,5 °C 15,3 °C 3,2 km/h (1 Bft)
21.09.2019 18:50 15,2 °C 77 % 1016,1 hPa 0,0 mm 2,8 km/h (1 Bft) O-SO 119 ° 0 min 0,000 mm 0,0 UV-I 21 W/m² 11,2 °C 15,2 °C 4,8 km/h (1 Bft)
21.09.2019 18:51 15,2 °C 78 % 1016,0 hPa 0,0 mm 0,5 km/h (0 Bft) O-SO 119 ° 0 min 0,000 mm 0,0 UV-I 19 W/m² 11,4 °C 15,2 °C 3,2 km/h (1 Bft)
21.09.2019 18:52 15,2 °C 78 % 1016,0 hPa 0,0 mm 1,0 km/h (0 Bft) O-SO 119 ° 0 min 0,000 mm 0,0 UV-I 19 W/m² 11,4 °C 15,2 °C 3,2 km/h (1 Bft)
21.09.2019 18:53 15,2 °C 77 % 1016,0 hPa 0,0 mm 0,0 km/h (0 Bft) O-SO 119 ° 0 min 0,000 mm 0,0 UV-I 18 W/m² 11,2 °C 15,2 °C 0,0 km/h (0 Bft)
21.09.2019 18:54 15,1 °C 78 % 1016,0 hPa 0,0 mm 0,0 km/h (0 Bft) O-SO 119 ° 0 min 0,000 mm 0,0 UV-I 14 W/m² 11,3 °C 15,1 °C 0,0 km/h (0 Bft)
21.09.2019 18:55 15,1 °C 78 % 1016,0 hPa 0,0 mm 0,0 km/h (0 Bft) O-SO 119 ° 0 min 0,000 mm 0,0 UV-I 14 W/m² 11,3 °C 15,1 °C 0,0 km/h (0 Bft)
21.09.2019 18:56 15,0 °C 78 % 1016,0 hPa 0,0 mm 0,0 km/h (0 Bft) O-SO 119 ° 0 min 0,000 mm 0,0 UV-I 12 W/m² 11,2 °C 15,0 °C 0,0 km/h (0 Bft)
21.09.2019 18:57 14,9 °C 78 % 1016,0 hPa 0,0 mm 0,0 km/h (0 Bft) O-SO 119 ° 0 min 0,000 mm 0,0 UV-I 12 W/m² 11,1 °C 14,9 °C 0,0 km/h (0 Bft)
21.09.2019 18:58 14,9 °C 78 % 1016,0 hPa 0,0 mm 0,1 km/h (0 Bft) O-SO 119 ° 0 min 0,000 mm 0,0 UV-I 12 W/m² 11,1 °C 14,9 °C 1,6 km/h (1 Bft)
21.09.2019 18:59 14,9 °C 79 % 1016,0 hPa 0,0 mm 0,0 km/h (0 Bft) O-SO 119 ° 0 min 0,000 mm 0,0 UV-I 12 W/m² 11,3 °C 14,9 °C 0,0 km/h (0 Bft)
21.09.2019 19:00 14,8 °C 79 % 1015,9 hPa 0,0 mm 0,0 km/h (0 Bft) O-SO 119 ° 0 min 0,000 mm 0,0 UV-I 11 W/m² 11,2 °C 14,8 °C 0,0 km/h (0 Bft)
21.09.2019 19:01 14,7 °C 79 % 1016,0 hPa 0,0 mm 0,0 km/h (0 Bft) O-SO 119 ° 0 min 0,025 mm 0,0 UV-I 11 W/m² 11,1 °C 14,7 °C 0,0 km/h (0 Bft)
21.09.2019 19:02 14,7 °C 79 % 1016,0 hPa 0,0 mm 0,0 km/h (0 Bft) O-SO 119 ° 0 min 0,000 mm 0,0 UV-I 11 W/m² 11,1 °C 14,7 °C 0,0 km/h (0 Bft)
21.09.2019 19:03 14,7 °C 79 % 1016,0 hPa 0,0 mm 0,0 km/h (0 Bft) O-SO 119 ° 0 min 0,000 mm 0,0 UV-I 11 W/m² 11,1 °C 14,7 °C 0,0 km/h (0 Bft)
21.09.2019 19:04 14,7 °C 79 % 1016,0 hPa 0,0 mm 0,0 km/h (0 Bft) O-SO 119 ° 0 min 0,000 mm 0,0 UV-I 9 W/m² 11,1 °C 14,7 °C 0,0 km/h (0 Bft)
21.09.2019 19:05 14,7 °C 79 % 1016,0 hPa 0,0 mm 0,0 km/h (0 Bft) O-SO 119 ° 0 min 0,000 mm 0,0 UV-I 9 W/m² 11,1 °C 14,7 °C 0,0 km/h (0 Bft)
21.09.2019 19:06 14,6 °C 79 % 1016,0 hPa 0,0 mm 1,9 km/h (1 Bft) O-SO 119 ° 0 min 0,000 mm 0,0 UV-I 9 W/m² 11,0 °C 14,6 °C 4,8 km/h (1 Bft)
21.09.2019 19:07 14,6 °C 79 % 1016,0 hPa 0,0 mm 2,1 km/h (1 Bft) O-SO 119 ° 0 min 0,000 mm 0,0 UV-I 7 W/m² 11,0 °C 14,6 °C 3,2 km/h (1 Bft)
21.09.2019 19:08 14,6 °C 79 % 1016,0 hPa 0,0 mm 1,9 km/h (1 Bft) O-SO 123 ° 0 min 0,000 mm 0,0 UV-I 7 W/m² 11,0 °C 14,6 °C 4,8 km/h (1 Bft)
21.09.2019 19:09 14,6 °C 79 % 1016,0 hPa 0,0 mm 1,9 km/h (1 Bft) O-SO 123 ° 0 min 0,000 mm 0,0 UV-I 7 W/m² 11,0 °C 14,6 °C 4,8 km/h (1 Bft)
21.09.2019 19:10 14,5 °C 79 % 1016,0 hPa 0,0 mm 0,9 km/h (0 Bft) O-SO 123 ° 0 min 0,000 mm 0,0 UV-I 7 W/m² 10,9 °C 14,5 °C 3,2 km/h (1 Bft)
21.09.2019 19:11 14,4 °C 79 % 1016,0 hPa 0,0 mm 1,7 km/h (1 Bft) O-SO 123 ° 0 min 0,000 mm 0,0 UV-I 7 W/m² 10,8 °C 14,4 °C 3,2 km/h (1 Bft)
21.09.2019 19:12 14,4 °C 79 % 1016,1 hPa 0,0 mm 0,6 km/h (0 Bft) O-SO 123 ° 0 min 0,000 mm 0,0 UV-I 5 W/m² 10,8 °C 14,4 °C 3,2 km/h (1 Bft)
21.09.2019 19:13 14,4 °C 79 % 1016,1 hPa 0,0 mm 0,0 km/h (0 Bft) O-SO 123 ° 0 min 0,000 mm 0,0 UV-I 5 W/m² 10,8 °C 14,4 °C 0,0 km/h (0 Bft)
21.09.2019 19:14 14,4 °C 79 % 1016,0 hPa 0,0 mm 0,9 km/h (0 Bft) O-SO 123 ° 0 min 0,000 mm 0,0 UV-I 5 W/m² 10,8 °C 14,4 °C 4,8 km/h (1 Bft)
21.09.2019 19:15 14,4 °C 79 % 1016,1 hPa 0,0 mm 0,3 km/h (0 Bft) O-SO 123 ° 0 min 0,000 mm 0,0 UV-I 5 W/m² 10,8 °C 14,4 °C 1,6 km/h (1 Bft)
21.09.2019 19:16 14,3 °C 79 % 1016,1 hPa 0,0 mm 3,0 km/h (1 Bft) O-SO 123 ° 0 min 0,000 mm 0,0 UV-I 5 W/m² 10,7 °C 14,3 °C 4,8 km/h (1 Bft)
21.09.2019 19:17 14,2 °C 79 % 1016,1 hPa 0,0 mm 0,6 km/h (0 Bft) O-SO 123 ° 0 min 0,000 mm 0,0 UV-I 0 W/m² 10,6 °C 14,2 °C 3,2 km/h (1 Bft)
21.09.2019 19:18 14,2 °C 79 % 1016,0 hPa 0,0 mm 0,0 km/h (0 Bft) O-SO 123 ° 0 min 0,000 mm 0,0 UV-I 0 W/m² 10,6 °C 14,2 °C 0,0 km/h (0 Bft)
21.09.2019 19:19 14,2 °C 80 % 1016,0 hPa 0,0 mm 0,0 km/h (0 Bft) O-SO 121 ° 0 min 0,000 mm 0,0 UV-I 0 W/m² 10,8 °C 14,2 °C 0,0 km/h (0 Bft)
21.09.2019 19:20 14,1 °C 79 % 1016,0 hPa 0,0 mm 0,0 km/h (0 Bft) O-SO 122 ° 0 min 0,000 mm 0,0 UV-I 0 W/m² 10,5 °C 14,1 °C 0,0 km/h (0 Bft)
21.09.2019 19:21 13,9 °C 80 % 1016,0 hPa 0,0 mm 0,0 km/h (0 Bft) O-SO 122 ° 0 min 0,000 mm 0,0 UV-I 0 W/m² 10,5 °C 13,9 °C 0,0 km/h (0 Bft)
21.09.2019 19:22 13,8 °C 80 % 1016,1 hPa 0,0 mm 0,0 km/h (0 Bft) O-SO 122 ° 0 min 0,000 mm 0,0 UV-I 0 W/m² 10,4 °C 13,8 °C 0,0 km/h (0 Bft)
21.09.2019 19:23 13,8 °C 80 % 1016,1 hPa 0,0 mm 0,0 km/h (0 Bft) O-SO 122 ° 0 min 0,000 mm 0,0 UV-I 0 W/m² 10,4 °C 13,8 °C 0,0 km/h (0 Bft)
21.09.2019 19:24 13,8 °C 80 % 1016,1 hPa 0,0 mm 0,0 km/h (0 Bft) O-SO 122 ° 0 min 0,000 mm 0,0 UV-I 0 W/m² 10,4 °C 13,8 °C 0,0 km/h (0 Bft)
21.09.2019 19:25 13,7 °C 80 % 1016,1 hPa 0,0 mm 0,0 km/h (0 Bft) O-SO 123 ° 0 min 0,000 mm 0,0 UV-I 0 W/m² 10,3 °C 13,7 °C 0,0 km/h (0 Bft)
21.09.2019 19:26 13,6 °C 80 % 1016,1 hPa 0,0 mm 0,0 km/h (0 Bft) O-SO 123 ° 0 min 0,000 mm 0,0 UV-I 0 W/m² 10,2 °C 13,6 °C 0,0 km/h (0 Bft)
21.09.2019 19:27 13,6 °C 81 % 1016,1 hPa 0,0 mm 0,0 km/h (0 Bft) O-SO 123 ° 0 min 0,000 mm 0,0 UV-I 0 W/m² 10,4 °C 13,6 °C 0,0 km/h (0 Bft)
21.09.2019 19:28 13,5 °C 80 % 1016,1 hPa 0,0 mm 0,0 km/h (0 Bft) O-SO 123 ° 0 min 0,000 mm 0,0 UV-I 0 W/m² 10,1 °C 13,5 °C 0,0 km/h (0 Bft)
21.09.2019 19:29 13,5 °C 81 % 1016,1 hPa 0,0 mm 0,0 km/h (0 Bft) O-SO 123 ° 0 min 0,000 mm 0,0 UV-I 0 W/m² 10,3 °C 13,5 °C 0,0 km/h (0 Bft)
21.09.2019 19:30 13,4 °C 81 % 1016,1 hPa 0,0 mm 0,0 km/h (0 Bft) O-SO 123 ° 0 min 0,000 mm 0,0 UV-I 0 W/m² 10,2 °C 13,4 °C 0,0 km/h (0 Bft)
21.09.2019 19:31 13,4 °C 81 % 1016,1 hPa 0,0 mm 0,0 km/h (0 Bft) O-SO 123 ° 0 min 0,000 mm 0,0 UV-I 0 W/m² 10,2 °C 13,4 °C 0,0 km/h (0 Bft)
21.09.2019 19:32 13,4 °C 81 % 1016,1 hPa 0,0 mm 0,0 km/h (0 Bft) O-SO 123 ° 0 min 0,000 mm 0,0 UV-I 0 W/m² 10,2 °C 13,4 °C 0,0 km/h (0 Bft)
21.09.2019 19:33 13,4 °C 82 % 1016,0 hPa 0,0 mm 0,0 km/h (0 Bft) O-SO 123 ° 0 min 0,000 mm 0,0 UV-I 0 W/m² 10,4 °C 13,4 °C 0,0 km/h (0 Bft)
21.09.2019 19:34 13,4 °C 82 % 1016,1 hPa 0,0 mm 0,0 km/h (0 Bft) O-SO 123 ° 0 min 0,000 mm 0,0 UV-I 0 W/m² 10,4 °C 13,4 °C 0,0 km/h (0 Bft)
21.09.2019 19:35 13,4 °C 82 % 1016,0 hPa 0,0 mm 0,0 km/h (0 Bft) O-SO 123 ° 0 min 0,000 mm 0,0 UV-I 0 W/m² 10,4 °C 13,4 °C 0,0 km/h (0 Bft)
21.09.2019 19:36 13,4 °C 82 % 1016,0 hPa 0,0 mm 0,0 km/h (0 Bft) O-SO 123 ° 0 min 0,000 mm 0,0 UV-I 0 W/m² 10,4 °C 13,4 °C 0,0 km/h (0 Bft)
21.09.2019 19:37 13,3 °C 82 % 1016,0 hPa 0,0 mm 0,0 km/h (0 Bft) O-SO 123 ° 0 min 0,000 mm 0,0 UV-I 0 W/m² 10,3 °C 13,3 °C 0,0 km/h (0 Bft)
21.09.2019 19:38 13,3 °C 81 % 1015,9 hPa 0,0 mm 0,0 km/h (0 Bft) O-SO 123 ° 0 min 0,000 mm 0,0 UV-I 0 W/m² 10,1 °C 13,3 °C 0,0 km/h (0 Bft)
21.09.2019 19:39 13,4 °C 81 % 1016,0 hPa 0,0 mm 1,4 km/h (1 Bft) O-SO 123 ° 0 min 0,000 mm 0,0 UV-I 0 W/m² 10,2 °C 13,4 °C 3,2 km/h (1 Bft)
21.09.2019 19:40 13,3 °C 81 % 1016,0 hPa 0,0 mm 2,3 km/h (1 Bft) O-SO 123 ° 0 min 0,000 mm 0,0 UV-I 0 W/m² 10,1 °C 13,3 °C 3,2 km/h (1 Bft)
21.09.2019 19:41 13,2 °C 81 % 1016,0 hPa 0,0 mm 0,0 km/h (0 Bft) O-SO 123 ° 0 min 0,000 mm 0,0 UV-I 0 W/m² 10,0 °C 13,2 °C 0,0 km/h (0 Bft)
21.09.2019 19:42 13,2 °C 81 % 1016,1 hPa 0,0 mm 0,0 km/h (0 Bft) O-SO 123 ° 0 min 0,000 mm 0,0 UV-I 0 W/m² 10,0 °C 13,2 °C 0,0 km/h (0 Bft)
21.09.2019 19:43 13,1 °C 81 % 1016,1 hPa 0,0 mm 0,0 km/h (0 Bft) O-SO 123 ° 0 min 0,000 mm 0,0 UV-I 0 W/m² 9,9 °C 13,1 °C 0,0 km/h (0 Bft)
21.09.2019 19:44 13,1 °C 82 % 1016,1 hPa 0,0 mm 0,1 km/h (0 Bft) O-SO 123 ° 0 min 0,000 mm 0,0 UV-I 0 W/m² 10,1 °C 13,1 °C 1,6 km/h (1 Bft)
21.09.2019 19:45 13,1 °C 82 % 1016,2 hPa 0,0 mm 2,0 km/h (1 Bft) O-SO 123 ° 0 min 0,000 mm 0,0 UV-I 0 W/m² 10,1 °C 13,1 °C 3,2 km/h (1 Bft)
21.09.2019 19:46 13,1 °C 82 % 1016,1 hPa 0,0 mm 2,3 km/h (1 Bft) O-SO 123 ° 0 min 0,000 mm 0,0 UV-I 0 W/m² 10,1 °C 13,1 °C 4,8 km/h (1 Bft)
21.09.2019 19:47 13,1 °C 82 % 1016,1 hPa 0,0 mm 2,2 km/h (1 Bft) O-SO 123 ° 0 min 0,000 mm 0,0 UV-I 0 W/m² 10,1 °C 13,1 °C 3,2 km/h (1 Bft)
21.09.2019 19:48 13,1 °C 82 % 1016,1 hPa 0,0 mm 0,6 km/h (0 Bft) O-SO 123 ° 0 min 0,000 mm 0,0 UV-I 0 W/m² 10,1 °C 13,1 °C 1,6 km/h (1 Bft)
21.09.2019 19:49 13,1 °C 82 % 1016,1 hPa 0,0 mm 2,6 km/h (1 Bft) O-SO 123 ° 0 min 0,000 mm 0,0 UV-I 0 W/m² 10,1 °C 13,1 °C 3,2 km/h (1 Bft)
21.09.2019 19:50 13,0 °C 82 % 1016,1 hPa 0,0 mm 2,6 km/h (1 Bft) O-SO 123 ° 0 min 0,000 mm 0,0 UV-I 0 W/m² 10,0 °C 13,0 °C 4,8 km/h (1 Bft)
21.09.2019 19:51 13,0 °C 82 % 1016,1 hPa 0,0 mm 0,8 km/h (0 Bft) O-SO 123 ° 0 min 0,000 mm 0,0 UV-I 0 W/m² 10,0 °C 13,0 °C 3,2 km/h (1 Bft)
21.09.2019 19:52 13,0 °C 82 % 1016,1 hPa 0,0 mm 0,6 km/h (0 Bft) O-SO 123 ° 0 min 0,000 mm 0,0 UV-I 0 W/m² 10,0 °C 13,0 °C 3,2 km/h (1 Bft)
21.09.2019 19:53 12,9 °C 82 % 1016,1 hPa 0,0 mm 0,9 km/h (0 Bft) O-SO 123 ° 0 min 0,000 mm 0,0 UV-I 0 W/m² 9,9 °C 12,9 °C 3,2 km/h (1 Bft)
21.09.2019 19:54 12,8 °C 82 % 1016,1 hPa 0,0 mm 1,6 km/h (1 Bft) O-SO 123 ° 0 min 0,000 mm 0,0 UV-I 0 W/m² 9,8 °C 12,8 °C 3,2 km/h (1 Bft)
21.09.2019 19:55 12,8 °C 82 % 1016,1 hPa 0,0 mm 1,9 km/h (1 Bft) O-SO 123 ° 0 min 0,000 mm 0,0 UV-I 0 W/m² 9,8 °C 12,8 °C 3,2 km/h (1 Bft)
21.09.2019 19:56 12,8 °C 82 % 1016,1 hPa 0,0 mm 1,8 km/h (1 Bft) O-SO 123 ° 0 min 0,000 mm 0,0 UV-I 0 W/m² 9,8 °C 12,8 °C 4,8 km/h (1 Bft)
21.09.2019 19:57 12,8 °C 82 % 1016,0 hPa 0,0 mm 0,0 km/h (0 Bft) O-SO 123 ° 0 min 0,000 mm 0,0 UV-I 0 W/m² 9,8 °C 12,8 °C 0,0 km/h (0 Bft)
21.09.2019 19:58 12,7 °C 82 % 1016,1 hPa 0,0 mm 0,0 km/h (0 Bft) O-SO 123 ° 0 min 0,000 mm 0,0 UV-I 0 W/m² 9,7 °C 12,7 °C 0,0 km/h (0 Bft)
21.09.2019 19:59 12,7 °C 82 % 1016,1 hPa 0,0 mm 0,0 km/h (0 Bft) O-SO 123 ° 0 min 0,000 mm 0,0 UV-I 0 W/m² 9,7 °C 12,7 °C 0,0 km/h (0 Bft)
21.09.2019 20:00 12,7 °C 82 % 1016,0 hPa 0,0 mm 0,0 km/h (0 Bft) O-SO 123 ° 0 min 0,000 mm 0,0 UV-I 0 W/m² 9,7 °C 12,7 °C 0,0 km/h (0 Bft)
21.09.2019 20:01 12,7 °C 82 % 1016,0 hPa 0,0 mm 0,0 km/h (0 Bft) O-SO 123 ° 0 min 0,000 mm 0,0 UV-I 0 W/m² 9,7 °C 12,7 °C 0,0 km/h (0 Bft)
21.09.2019 20:02 12,6 °C 82 % 1016,0 hPa 0,0 mm 0,0 km/h (0 Bft) O-SO 123 ° 0 min 0,000 mm 0,0 UV-I 0 W/m² 9,6 °C 12,6 °C 0,0 km/h (0 Bft)
21.09.2019 20:03 12,6 °C 83 % 1016,0 hPa 0,0 mm 0,0 km/h (0 Bft) O-SO 123 ° 0 min 0,000 mm 0,0 UV-I 0 W/m² 9,8 °C 12,6 °C 0,0 km/h (0 Bft)
21.09.2019 20:04 12,6 °C 83 % 1016,0 hPa 0,0 mm 0,1 km/h (0 Bft) O-SO 123 ° 0 min 0,000 mm 0,0 UV-I 0 W/m² 9,8 °C 12,6 °C 1,6 km/h (1 Bft)
21.09.2019 20:05 12,6 °C 83 % 1016,0 hPa 0,0 mm 0,0 km/h (0 Bft) O-SO 123 ° 0 min 0,000 mm 0,0 UV-I 0 W/m² 9,8 °C 12,6 °C 0,0 km/h (0 Bft)
21.09.2019 20:06 12,5 °C 83 % 1016,0 hPa 0,0 mm 0,0 km/h (0 Bft) SO 124 ° 0 min 0,000 mm 0,0 UV-I 0 W/m² 9,7 °C 12,5 °C 0,0 km/h (0 Bft)
21.09.2019 20:07 12,5 °C 83 % 1016,0 hPa 0,0 mm 3,0 km/h (1 Bft) S-SW 202 ° 0 min 0,000 mm 0,0 UV-I 0 W/m² 9,7 °C 12,5 °C 4,8 km/h (1 Bft)
21.09.2019 20:08 12,5 °C 83 % 1016,1 hPa 0,0 mm 5,0 km/h (1 Bft) S-SO 163 ° 0 min 0,000 mm 0,0 UV-I 0 W/m² 9,7 °C 12,5 °C 8,0 km/h (2 Bft)
21.09.2019 20:09 12,4 °C 83 % 1016,1 hPa 0,0 mm 4,1 km/h (1 Bft) S-SO 164 ° 0 min 0,000 mm 0,0 UV-I 0 W/m² 9,6 °C 12,4 °C 8,0 km/h (2 Bft)
21.09.2019 20:10 12,4 °C 83 % 1016,0 hPa 0,0 mm 3,2 km/h (1 Bft) S-SO 161 ° 0 min 0,000 mm 0,0 UV-I 0 W/m² 9,6 °C 12,4 °C 6,4 km/h (2 Bft)
21.09.2019 20:11 12,3 °C 83 % 1016,0 hPa 0,0 mm 1,2 km/h (1 Bft) S-SO 157 ° 0 min 0,000 mm 0,0 UV-I 0 W/m² 9,5 °C 12,3 °C 3,2 km/h (1 Bft)
21.09.2019 20:12 12,3 °C 83 % 1016,1 hPa 0,0 mm 2,6 km/h (1 Bft) S-SO 150 ° 0 min 0,000 mm 0,0 UV-I 0 W/m² 9,5 °C 12,3 °C 3,2 km/h (1 Bft)
21.09.2019 20:13 12,3 °C 83 % 1016,0 hPa 0,0 mm 1,3 km/h (1 Bft) S-SO 150 ° 0 min 0,000 mm 0,0 UV-I 0 W/m² 9,5 °C 12,3 °C 4,8 km/h (1 Bft)
21.09.2019 20:14 12,4 °C 84 % 1016,0 hPa 0,0 mm 0,8 km/h (0 Bft) S-SO 147 ° 0 min 0,000 mm 0,0 UV-I 0 W/m² 9,8 °C 12,4 °C 3,2 km/h (1 Bft)
21.09.2019 20:15 12,4 °C 83 % 1015,9 hPa 0,0 mm 0,0 km/h (0 Bft) S-SO 147 ° 0 min 0,000 mm 0,0 UV-I 0 W/m² 9,6 °C 12,4 °C 0,0 km/h (0 Bft)
21.09.2019 20:16 12,4 °C 83 % 1015,9 hPa 0,0 mm 0,0 km/h (0 Bft) S-SO 147 ° 0 min 0,000 mm 0,0 UV-I 0 W/m² 9,6 °C 12,4 °C 0,0 km/h (0 Bft)
21.09.2019 20:17 12,3 °C 83 % 1015,9 hPa 0,0 mm 0,0 km/h (0 Bft) S-SO 147 ° 0 min 0,000 mm 0,0 UV-I 0 W/m² 9,5 °C 12,3 °C 0,0 km/h (0 Bft)
21.09.2019 20:18 12,3 °C 83 % 1015,9 hPa 0,0 mm 0,0 km/h (0 Bft) S-SO 147 ° 0 min 0,000 mm 0,0 UV-I 0 W/m² 9,5 °C 12,3 °C 0,0 km/h (0 Bft)
21.09.2019 20:19 12,3 °C 83 % 1015,9 hPa 0,0 mm 0,1 km/h (0 Bft) S-SO 147 ° 0 min 0,000 mm 0,0 UV-I 0 W/m² 9,5 °C 12,3 °C 1,6 km/h (1 Bft)
21.09.2019 20:20 12,3 °C 83 % 1015,8 hPa 0,0 mm 0,0 km/h (0 Bft) S-SO 148 ° 0 min 0,000 mm 0,0 UV-I 0 W/m² 9,5 °C 12,3 °C 0,0 km/h (0 Bft)
21.09.2019 20:21 12,2 °C 83 % 1015,9 hPa 0,0 mm 0,0 km/h (0 Bft) S-SO 147 ° 0 min 0,000 mm 0,0 UV-I 0 W/m² 9,4 °C 12,2 °C 0,0 km/h (0 Bft)
21.09.2019 20:22 12,1 °C 84 % 1015,8 hPa 0,0 mm 0,0 km/h (0 Bft) S-SO 147 ° 0 min 0,000 mm 0,0 UV-I 0 W/m² 9,5 °C 12,1 °C 0,0 km/h (0 Bft)
21.09.2019 20:23 12,0 °C 84 % 1015,8 hPa 0,0 mm 0,0 km/h (0 Bft) S-SO 148 ° 0 min 0,000 mm 0,0 UV-I 0 W/m² 9,4 °C 12,0 °C 0,0 km/h (0 Bft)
21.09.2019 20:24 11,9 °C 84 % 1015,8 hPa 0,0 mm 0,0 km/h (0 Bft) S-SO 147 ° 0 min 0,000 mm 0,0 UV-I 0 W/m² 9,3 °C 11,9 °C 0,0 km/h (0 Bft)
21.09.2019 20:25 11,9 °C 85 % 1015,8 hPa 0,0 mm 0,0 km/h (0 Bft) S-SO 147 ° 0 min 0,000 mm 0,0 UV-I 0 W/m² 9,5 °C 11,9 °C 0,0 km/h (0 Bft)
21.09.2019 20:26 11,9 °C 84 % 1015,8 hPa 0,0 mm 0,0 km/h (0 Bft) S-SO 147 ° 0 min 0,000 mm 0,0 UV-I 0 W/m² 9,3 °C 11,9 °C 0,0 km/h (0 Bft)
21.09.2019 20:27 11,7 °C 84 % 1015,8 hPa 0,0 mm 0,0 km/h (0 Bft) S-SO 147 ° 0 min 0,000 mm 0,0 UV-I 0 W/m² 9,1 °C 11,7 °C 0,0 km/h (0 Bft)
21.09.2019 20:28 11,6 °C 84 % 1015,8 hPa 0,0 mm 0,0 km/h (0 Bft) S-SO 147 ° 0 min 0,000 mm 0,0 UV-I 0 W/m² 9,0 °C 11,6 °C 0,0 km/h (0 Bft)
21.09.2019 20:29 11,4 °C 84 % 1015,8 hPa 0,0 mm 0,0 km/h (0 Bft) S-SO 147 ° 0 min 0,000 mm 0,0 UV-I 0 W/m² 8,8 °C 11,4 °C 0,0 km/h (0 Bft)
21.09.2019 20:30 11,3 °C 85 % 1015,8 hPa 0,0 mm 0,0 km/h (0 Bft) S-SO 148 ° 0 min 0,000 mm 0,0 UV-I 0 W/m² 8,9 °C 11,3 °C 0,0 km/h (0 Bft)
21.09.2019 20:31 11,2 °C 85 % 1015,9 hPa 0,0 mm 0,0 km/h (0 Bft) S-SO 148 ° 0 min 0,000 mm 0,0 UV-I 0 W/m² 8,8 °C 11,2 °C 0,0 km/h (0 Bft)
21.09.2019 20:32 11,1 °C 86 % 1015,9 hPa 0,0 mm 0,0 km/h (0 Bft) S-SO 147 ° 0 min 0,000 mm 0,0 UV-I 0 W/m² 8,8 °C 11,1 °C 0,0 km/h (0 Bft)
21.09.2019 20:33 10,9 °C 86 % 1015,9 hPa 0,0 mm 0,0 km/h (0 Bft) S-SO 147 ° 0 min 0,000 mm 0,0 UV-I 0 W/m² 8,7 °C 10,9 °C 0,0 km/h (0 Bft)
21.09.2019 20:34 10,9 °C 86 % 1015,9 hPa 0,0 mm 0,0 km/h (0 Bft) S-SO 147 ° 0 min 0,000 mm 0,0 UV-I 0 W/m² 8,7 °C 10,9 °C 0,0 km/h (0 Bft)
21.09.2019 20:35 10,8 °C 86 % 1015,8 hPa 0,0 mm 0,0 km/h (0 Bft) S-SO 148 ° 0 min 0,000 mm 0,0 UV-I 0 W/m² 8,6 °C 10,8 °C 0,0 km/h (0 Bft)
21.09.2019 20:36 10,7 °C 87 % 1015,8 hPa 0,0 mm 0,0 km/h (0 Bft) S-SO 148 ° 0 min 0,000 mm 0,0 UV-I 0 W/m² 8,6 °C 10,7 °C 0,0 km/h (0 Bft)
21.09.2019 20:37 10,6 °C 87 % 1015,8 hPa 0,0 mm 0,0 km/h (0 Bft) S-SO 147 ° 0 min 0,000 mm 0,0 UV-I 0 W/m² 8,5 °C 10,6 °C 0,0 km/h (0 Bft)
21.09.2019 20:38 10,5 °C 88 % 1015,8 hPa 0,0 mm 0,0 km/h (0 Bft) S-SO 147 ° 0 min 0,000 mm 0,0 UV-I 0 W/m² 8,6 °C 10,5 °C 0,0 km/h (0 Bft)
21.09.2019 20:39 10,5 °C 88 % 1015,8 hPa 0,0 mm 0,0 km/h (0 Bft) S-SO 147 ° 0 min 0,000 mm 0,0 UV-I 0 W/m² 8,6 °C 10,5 °C 0,0 km/h (0 Bft)
21.09.2019 20:40 10,4 °C 88 % 1015,8 hPa 0,0 mm 0,0 km/h (0 Bft) S-SO 147 ° 0 min 0,000 mm 0,0 UV-I 0 W/m² 8,5 °C 10,4 °C 0,0 km/h (0 Bft)
21.09.2019 20:41 10,4 °C 88 % 1015,8 hPa 0,0 mm 0,0 km/h (0 Bft) S-SO 147 ° 0 min 0,000 mm 0,0 UV-I 0 W/m² 8,5 °C 10,4 °C 0,0 km/h (0 Bft)
21.09.2019 20:42 10,4 °C 89 % 1015,9 hPa 0,0 mm 0,0 km/h (0 Bft) S-SO 147 ° 0 min 0,000 mm 0,0 UV-I 0 W/m² 8,7 °C 10,4 °C 0,0 km/h (0 Bft)
21.09.2019 20:43 10,4 °C 89 % 1015,8 hPa 0,0 mm 0,0 km/h (0 Bft) S-SO 147 ° 0 min 0,000 mm 0,0 UV-I 0 W/m² 8,7 °C 10,4 °C 0,0 km/h (0 Bft)
21.09.2019 20:44 10,4 °C 89 % 1015,9 hPa 0,0 mm 0,0 km/h (0 Bft) S-SO 147 ° 0 min 0,000 mm 0,0 UV-I 0 W/m² 8,7 °C 10,4 °C 0,0 km/h (0 Bft)
21.09.2019 20:45 10,4 °C 89 % 1015,9 hPa 0,0 mm 0,0 km/h (0 Bft) S-SO 147 ° 0 min 0,000 mm 0,0 UV-I 0 W/m² 8,7 °C 10,4 °C 0,0 km/h (0 Bft)
21.09.2019 20:46 10,4 °C 89 % 1015,9 hPa 0,0 mm 0,0 km/h (0 Bft) S-SO 147 ° 0 min 0,000 mm 0,0 UV-I 0 W/m² 8,7 °C 10,4 °C 0,0 km/h (0 Bft)
21.09.2019 20:47 10,4 °C 89 % 1015,9 hPa 0,0 mm 0,0 km/h (0 Bft) S-SO 147 ° 0 min 0,000 mm 0,0 UV-I 0 W/m² 8,7 °C 10,4 °C 0,0 km/h (0 Bft)
21.09.2019 20:48 10,4 °C 89 % 1015,8 hPa 0,0 mm 0,0 km/h (0 Bft) S-SO 147 ° 0 min 0,000 mm 0,0 UV-I 0 W/m² 8,7 °C 10,4 °C 0,0 km/h (0 Bft)
21.09.2019 20:49 10,4 °C 89 % 1015,8 hPa 0,0 mm 0,0 km/h (0 Bft) S-SO 147 ° 0 min 0,000 mm 0,0 UV-I 0 W/m² 8,7 °C 10,4 °C 0,0 km/h (0 Bft)
21.09.2019 20:50 10,3 °C 89 % 1015,8 hPa 0,0 mm 0,0 km/h (0 Bft) S-SO 147 ° 0 min 0,000 mm 0,0 UV-I 0 W/m² 8,6 °C 10,3 °C 0,0 km/h (0 Bft)
21.09.2019 20:51 10,4 °C 89 % 1015,8 hPa 0,0 mm 0,0 km/h (0 Bft) S-SO 147 ° 0 min 0,000 mm 0,0 UV-I 0 W/m² 8,7 °C 10,4 °C 0,0 km/h (0 Bft)
21.09.2019 20:52 10,4 °C 89 % 1015,8 hPa 0,0 mm 0,0 km/h (0 Bft) S-SO 147 ° 0 min 0,000 mm 0,0 UV-I 0 W/m² 8,7 °C 10,4 °C 0,0 km/h (0 Bft)
21.09.2019 20:53 10,3 °C 89 % 1015,8 hPa 0,0 mm 0,0 km/h (0 Bft) S-SO 148 ° 0 min 0,000 mm 0,0 UV-I 0 W/m² 8,6 °C 10,3 °C 0,0 km/h (0 Bft)
21.09.2019 20:54 10,3 °C 89 % 1015,7 hPa 0,0 mm 0,0 km/h (0 Bft) S-SO 147 ° 0 min 0,000 mm 0,0 UV-I 0 W/m² 8,6 °C 10,3 °C 0,0 km/h (0 Bft)
21.09.2019 20:55 10,3 °C 89 % 1015,8 hPa 0,0 mm 0,0 km/h (0 Bft) S-SO 147 ° 0 min 0,000 mm 0,0 UV-I 0 W/m² 8,6 °C 10,3 °C 0,0 km/h (0 Bft)
21.09.2019 20:56 10,3 °C 89 % 1015,8 hPa 0,0 mm 0,0 km/h (0 Bft) S-SO 147 ° 0 min 0,000 mm 0,0 UV-I 0 W/m² 8,6 °C 10,3 °C 0,0 km/h (0 Bft)
21.09.2019 20:57 10,2 °C 89 % 1015,8 hPa 0,0 mm 0,0 km/h (0 Bft) S-SO 148 ° 0 min 0,000 mm 0,0 UV-I 0 W/m² 8,5 °C 10,2 °C 0,0 km/h (0 Bft)
21.09.2019 20:58 10,2 °C 89 % 1015,8 hPa 0,0 mm 0,0 km/h (0 Bft) S-SO 147 ° 0 min 0,000 mm 0,0 UV-I 0 W/m² 8,5 °C 10,2 °C 0,0 km/h (0 Bft)
21.09.2019 20:59 10,1 °C 89 % 1015,8 hPa 0,0 mm 0,0 km/h (0 Bft) S-SO 148 ° 0 min 0,000 mm 0,0 UV-I 0 W/m² 8,4 °C 10,1 °C 0,0 km/h (0 Bft)
21.09.2019 21:00 10,1 °C 90 % 1015,9 hPa 0,0 mm 0,0 km/h (0 Bft) S-SO 147 ° 0 min 0,000 mm 0,0 UV-I 0 W/m² 8,5 °C 10,1 °C 0,0 km/h (0 Bft)
21.09.2019 21:01 10,2 °C 90 % 1015,9 hPa 0,0 mm 0,0 km/h (0 Bft) S-SO 148 ° 0 min 0,000 mm 0,0 UV-I 0 W/m² 8,6 °C 10,2 °C 0,0 km/h (0 Bft)
21.09.2019 21:02 10,2 °C 90 % 1015,9 hPa 0,0 mm 0,0 km/h (0 Bft) S-SO 148 ° 0 min 0,000 mm 0,0 UV-I 0 W/m² 8,6 °C 10,2 °C 0,0 km/h (0 Bft)
21.09.2019 21:03 10,3 °C 90 % 1015,9 hPa 0,0 mm 0,0 km/h (0 Bft) S-SO 148 ° 0 min 0,000 mm 0,0 UV-I 0 W/m² 8,7 °C 10,3 °C 0,0 km/h (0 Bft)
21.09.2019 21:04 10,4 °C 90 % 1015,9 hPa 0,0 mm 3,5 km/h (1 Bft) S-SO 148 ° 0 min 0,000 mm 0,0 UV-I 0 W/m² 8,8 °C 10,4 °C 4,8 km/h (1 Bft)
21.09.2019 21:05 10,4 °C 90 % 1015,9 hPa 0,0 mm 2,1 km/h (1 Bft) S-SO 148 ° 0 min 0,000 mm 0,0 UV-I 0 W/m² 8,8 °C 10,4 °C 3,2 km/h (1 Bft)
21.09.2019 21:06 10,4 °C 89 % 1015,9 hPa 0,0 mm 0,1 km/h (0 Bft) S-SO 148 ° 0 min 0,000 mm 0,0 UV-I 0 W/m² 8,7 °C 10,4 °C 1,6 km/h (1 Bft)
21.09.2019 21:07 10,4 °C 90 % 1015,8 hPa 0,0 mm 0,1 km/h (0 Bft) S-SO 148 ° 0 min 0,000 mm 0,0 UV-I 0 W/m² 8,8 °C 10,4 °C 1,6 km/h (1 Bft)
21.09.2019 21:08 10,4 °C 90 % 1015,9 hPa 0,0 mm 0,0 km/h (0 Bft) S-SO 148 ° 0 min 0,000 mm 0,0 UV-I 0 W/m² 8,8 °C 10,4 °C 0,0 km/h (0 Bft)
21.09.2019 21:09 10,4 °C 90 % 1015,8 hPa 0,0 mm 1,1 km/h (1 Bft) S-SO 148 ° 0 min 0,000 mm 0,0 UV-I 0 W/m² 8,8 °C 10,4 °C 4,8 km/h (1 Bft)
21.09.2019 21:10 10,4 °C 89 % 1015,8 hPa 0,0 mm 2,9 km/h (1 Bft) S-SO 148 ° 0 min 0,000 mm 0,0 UV-I 0 W/m² 8,7 °C 10,4 °C 4,8 km/h (1 Bft)
21.09.2019 21:11 10,3 °C 89 % 1015,8 hPa 0,0 mm 2,0 km/h (1 Bft) S-SO 148 ° 0 min 0,000 mm 0,0 UV-I 0 W/m² 8,6 °C 10,3 °C 3,2 km/h (1 Bft)
21.09.2019 21:12 10,2 °C 89 % 1015,8 hPa 0,0 mm 0,8 km/h (0 Bft) S-SO 148 ° 0 min 0,000 mm 0,0 UV-I 0 W/m² 8,5 °C 10,2 °C 3,2 km/h (1 Bft)
21.09.2019 21:13 10,3 °C 89 % 1015,7 hPa 0,0 mm 0,5 km/h (0 Bft) S-SO 148 ° 0 min 0,000 mm 0,0 UV-I 0 W/m² 8,6 °C 10,3 °C 1,6 km/h (1 Bft)
21.09.2019 21:14 10,3 °C 89 % 1015,8 hPa 0,0 mm 2,5 km/h (1 Bft) S-SO 148 ° 0 min 0,000 mm 0,0 UV-I 0 W/m² 8,6 °C 10,3 °C 4,8 km/h (1 Bft)
21.09.2019 21:15 10,2 °C 89 % 1015,8 hPa 0,0 mm 4,0 km/h (1 Bft) S-SO 148 ° 0 min 0,000 mm 0,0 UV-I 0 W/m² 8,5 °C 10,2 °C 4,8 km/h (1 Bft)
21.09.2019 21:16 10,1 °C 89 % 1015,7 hPa 0,0 mm 5,1 km/h (1 Bft) S-SO 148 ° 0 min 0,000 mm 0,0 UV-I 0 W/m² 8,4 °C 10,1 °C 6,4 km/h (2 Bft)
21.09.2019 21:17 10,1 °C 89 % 1015,8 hPa 0,0 mm 5,7 km/h (1 Bft) S-SO 149 ° 0 min 0,000 mm 0,0 UV-I 0 W/m² 8,4 °C 10,1 °C 6,4 km/h (2 Bft)
21.09.2019 21:18 9,9 °C 89 % 1015,8 hPa 0,0 mm 3,8 km/h (1 Bft) S-SO 149 ° 0 min 0,000 mm 0,0 UV-I 0 W/m² 8,2 °C 9,9 °C 4,8 km/h (1 Bft)
21.09.2019 21:19 9,8 °C 89 % 1015,7 hPa 0,0 mm 3,5 km/h (1 Bft) S-SO 149 ° 0 min 0,000 mm 0,0 UV-I 0 W/m² 8,1 °C 9,8 °C 4,8 km/h (1 Bft)
21.09.2019 21:20 9,7 °C 89 % 1015,7 hPa 0,0 mm 0,1 km/h (0 Bft) S-SO 149 ° 0 min 0,000 mm 0,0 UV-I 0 W/m² 8,0 °C 9,7 °C 1,6 km/h (1 Bft)
21.09.2019 21:21 9,7 °C 90 % 1015,7 hPa 0,0 mm 0,0 km/h (0 Bft) S-SO 149 ° 0 min 0,000 mm 0,0 UV-I 0 W/m² 8,1 °C 9,7 °C 0,0 km/h (0 Bft)
21.09.2019 21:22 9,6 °C 89 % 1015,7 hPa 0,0 mm 1,5 km/h (1 Bft) S-SO 149 ° 0 min 0,000 mm 0,0 UV-I 0 W/m² 7,9 °C 9,6 °C 3,2 km/h (1 Bft)
21.09.2019 21:23 9,5 °C 90 % 1015,7 hPa 0,0 mm 0,1 km/h (0 Bft) S-SO 149 ° 0 min 0,000 mm 0,0 UV-I 0 W/m² 7,9 °C 9,5 °C 1,6 km/h (1 Bft)
21.09.2019 21:24 9,4 °C 90 % 1015,7 hPa 0,0 mm 0,1 km/h (0 Bft) S-SO 149 ° 0 min 0,000 mm 0,0 UV-I 0 W/m² 7,8 °C 9,4 °C 1,6 km/h (1 Bft)
21.09.2019 21:25 9,4 °C 91 % 1015,7 hPa 0,0 mm 0,0 km/h (0 Bft) S-SO 149 ° 0 min 0,000 mm 0,0 UV-I 0 W/m² 8,0 °C 9,4 °C 0,0 km/h (0 Bft)
21.09.2019 21:26 9,6 °C 91 % 1015,7 hPa 0,0 mm 0,0 km/h (0 Bft) S-SO 149 ° 0 min 0,000 mm 0,0 UV-I 0 W/m² 8,2 °C 9,6 °C 0,0 km/h (0 Bft)
21.09.2019 21:27 9,7 °C 91 % 1015,7 hPa 0,0 mm 0,0 km/h (0 Bft) S-SO 149 ° 0 min 0,000 mm 0,0 UV-I 0 W/m² 8,3 °C 9,7 °C 0,0 km/h (0 Bft)
21.09.2019 21:28 9,8 °C 91 % 1015,6 hPa 0,0 mm 0,0 km/h (0 Bft) S-SO 149 ° 0 min 0,000 mm 0,0 UV-I 0 W/m² 8,4 °C 9,8 °C 0,0 km/h (0 Bft)
21.09.2019 21:29 9,9 °C 91 % 1015,6 hPa 0,0 mm 0,0 km/h (0 Bft) S-SO 149 ° 0 min 0,000 mm 0,0 UV-I 0 W/m² 8,5 °C 9,9 °C 0,0 km/h (0 Bft)
21.09.2019 21:30 10,0 °C 91 % 1015,7 hPa 0,0 mm 0,0 km/h (0 Bft) S-SO 149 ° 0 min 0,000 mm 0,0 UV-I 0 W/m² 8,6 °C 10,0 °C 0,0 km/h (0 Bft)
21.09.2019 21:31 10,1 °C 91 % 1015,6 hPa 0,0 mm 0,0 km/h (0 Bft) S-SO 149 ° 0 min 0,000 mm 0,0 UV-I 0 W/m² 8,7 °C 10,1 °C 0,0 km/h (0 Bft)
21.09.2019 21:32 10,1 °C 91 % 1015,6 hPa 0,0 mm 1,1 km/h (1 Bft) S-SO 149 ° 0 min 0,000 mm 0,0 UV-I 0 W/m² 8,7 °C 10,1 °C 3,2 km/h (1 Bft)
21.09.2019 21:33 10,1 °C 91 % 1015,6 hPa 0,0 mm 2,1 km/h (1 Bft) S-SO 149 ° 0 min 0,000 mm 0,0 UV-I 0 W/m² 8,7 °C 10,1 °C 3,2 km/h (1 Bft)
21.09.2019 21:34 10,1 °C 91 % 1015,6 hPa 0,0 mm 2,4 km/h (1 Bft) S-SO 149 ° 0 min 0,000 mm 0,0 UV-I 0 W/m² 8,7 °C 10,1 °C 3,2 km/h (1 Bft)
21.09.2019 21:35 10,1 °C 90 % 1015,5 hPa 0,0 mm 0,6 km/h (0 Bft) S-SO 149 ° 0 min 0,000 mm 0,0 UV-I 0 W/m² 8,5 °C 10,1 °C 3,2 km/h (1 Bft)
21.09.2019 21:36 10,2 °C 90 % 1015,5 hPa 0,0 mm 1,5 km/h (1 Bft) S-SO 149 ° 0 min 0,000 mm 0,0 UV-I 0 W/m² 8,6 °C 10,2 °C 4,8 km/h (1 Bft)
21.09.2019 21:37 10,2 °C 90 % 1015,6 hPa 0,0 mm 4,2 km/h (1 Bft) S-SO 149 ° 0 min 0,000 mm 0,0 UV-I 0 W/m² 8,6 °C 10,2 °C 6,4 km/h (2 Bft)
21.09.2019 21:38 10,2 °C 90 % 1015,6 hPa 0,0 mm 3,8 km/h (1 Bft) S-SO 149 ° 0 min 0,000 mm 0,0 UV-I 0 W/m² 8,6 °C 10,2 °C 4,8 km/h (1 Bft)
21.09.2019 21:39 10,2 °C 91 % 1015,6 hPa 0,0 mm 3,2 km/h (1 Bft) S-SO 149 ° 0 min 0,000 mm 0,0 UV-I 0 W/m² 8,8 °C 10,2 °C 4,8 km/h (1 Bft)
21.09.2019 21:40 10,1 °C 90 % 1015,6 hPa 0,0 mm 0,4 km/h (0 Bft) S-SO 149 ° 0 min 0,000 mm 0,0 UV-I 0 W/m² 8,5 °C 10,1 °C 1,6 km/h (1 Bft)
21.09.2019 21:41 10,1 °C 90 % 1015,6 hPa 0,0 mm 2,6 km/h (1 Bft) S-SO 149 ° 0 min 0,000 mm 0,0 UV-I 0 W/m² 8,5 °C 10,1 °C 3,2 km/h (1 Bft)
21.09.2019 21:42 10,1 °C 90 % 1015,6 hPa 0,0 mm 2,6 km/h (1 Bft) S-SO 149 ° 0 min 0,000 mm 0,0 UV-I 0 W/m² 8,5 °C 10,1 °C 3,2 km/h (1 Bft)
21.09.2019 21:43 10,0 °C 90 % 1015,6 hPa 0,0 mm 1,5 km/h (1 Bft) S-SO 149 ° 0 min 0,000 mm 0,0 UV-I 0 W/m² 8,4 °C 10,0 °C 3,2 km/h (1 Bft)
21.09.2019 21:44 10,0 °C 90 % 1015,6 hPa 0,0 mm 0,6 km/h (0 Bft) S-SO 149 ° 0 min 0,000 mm 0,0 UV-I 0 W/m² 8,4 °C 10,0 °C 1,6 km/h (1 Bft)
21.09.2019 21:45 10,0 °C 90 % 1015,6 hPa 0,0 mm 0,0 km/h (0 Bft) S-SO 149 ° 0 min 0,000 mm 0,0 UV-I 0 W/m² 8,4 °C 10,0 °C 0,0 km/h (0 Bft)
21.09.2019 21:46 10,0 °C 90 % 1015,5 hPa 0,0 mm 0,0 km/h (0 Bft) S-SO 149 ° 0 min 0,000 mm 0,0 UV-I 0 W/m² 8,4 °C 10,0 °C 0,0 km/h (0 Bft)
21.09.2019 21:47 10,0 °C 90 % 1015,5 hPa 0,0 mm 0,0 km/h (0 Bft) S-SO 149 ° 0 min 0,000 mm 0,0 UV-I 0 W/m² 8,4 °C 10,0 °C 0,0 km/h (0 Bft)
21.09.2019 21:48 9,9 °C 90 % 1015,5 hPa 0,0 mm 0,0 km/h (0 Bft) S-SO 149 ° 0 min 0,000 mm 0,0 UV-I 0 W/m² 8,3 °C 9,9 °C 0,0 km/h (0 Bft)
21.09.2019 21:49 9,8 °C 90 % 1015,5 hPa 0,0 mm 0,0 km/h (0 Bft) S-SO 149 ° 0 min 0,000 mm 0,0 UV-I 0 W/m² 8,2 °C 9,8 °C 0,0 km/h (0 Bft)
21.09.2019 21:50 9,6 °C 90 % 1015,5 hPa 0,0 mm 0,0 km/h (0 Bft) S-SO 149 ° 0 min 0,000 mm 0,0 UV-I 0 W/m² 8,0 °C 9,6 °C 0,0 km/h (0 Bft)
21.09.2019 21:51 9,5 °C 90 % 1015,5 hPa 0,0 mm 0,0 km/h (0 Bft) S-SO 149 ° 0 min 0,000 mm 0,0 UV-I 0 W/m² 7,9 °C 9,5 °C 0,0 km/h (0 Bft)
21.09.2019 21:52 9,4 °C 90 % 1015,5 hPa 0,0 mm 0,0 km/h (0 Bft) S-SO 149 ° 0 min 0,000 mm 0,0 UV-I 0 W/m² 7,8 °C 9,4 °C 0,0 km/h (0 Bft)
21.09.2019 21:53 9,3 °C 90 % 1015,6 hPa 0,0 mm 0,0 km/h (0 Bft) S-SO 149 ° 0 min 0,000 mm 0,0 UV-I 0 W/m² 7,7 °C 9,3 °C 0,0 km/h (0 Bft)
21.09.2019 21:54 9,3 °C 91 % 1015,6 hPa 0,0 mm 0,0 km/h (0 Bft) S-SO 149 ° 0 min 0,000 mm 0,0 UV-I 0 W/m² 7,9 °C 9,3 °C 0,0 km/h (0 Bft)
21.09.2019 21:55 9,3 °C 91 % 1015,6 hPa 0,0 mm 0,0 km/h (0 Bft) S-SO 149 ° 0 min 0,000 mm 0,0 UV-I 0 W/m² 7,9 °C 9,3 °C 0,0 km/h (0 Bft)
21.09.2019 21:56 9,2 °C 90 % 1015,5 hPa 0,0 mm 0,0 km/h (0 Bft) S-SO 149 ° 0 min 0,000 mm 0,0 UV-I 0 W/m² 7,6 °C 9,2 °C 0,0 km/h (0 Bft)
21.09.2019 21:57 9,2 °C 91 % 1015,5 hPa 0,0 mm 0,0 km/h (0 Bft) S-SO 149 ° 0 min 0,000 mm 0,0 UV-I 0 W/m² 7,8 °C 9,2 °C 0,0 km/h (0 Bft)
21.09.2019 21:58 9,2 °C 91 % 1015,5 hPa 0,0 mm 0,0 km/h (0 Bft) S-SO 149 ° 0 min 0,000 mm 0,0 UV-I 0 W/m² 7,8 °C 9,2 °C 0,0 km/h (0 Bft)
21.09.2019 21:59 9,2 °C 91 % 1015,4 hPa 0,0 mm 0,0 km/h (0 Bft) S-SO 149 ° 0 min 0,000 mm 0,0 UV-I 0 W/m² 7,8 °C 9,2 °C 0,0 km/h (0 Bft)
21.09.2019 22:00 9,1 °C 91 % 1015,5 hPa 0,0 mm 0,0 km/h (0 Bft) S-SO 149 ° 0 min 0,000 mm 0,0 UV-I 0 W/m² 7,7 °C 9,1 °C 0,0 km/h (0 Bft)
21.09.2019 22:01 9,1 °C 91 % 1015,5 hPa 0,0 mm 0,0 km/h (0 Bft) S-SO 149 ° 0 min 0,000 mm 0,0 UV-I 0 W/m² 7,7 °C 9,1 °C 0,0 km/h (0 Bft)
21.09.2019 22:02 9,1 °C 91 % 1015,4 hPa 0,0 mm 0,0 km/h (0 Bft) S-SO 149 ° 0 min 0,000 mm 0,0 UV-I 0 W/m² 7,7 °C 9,1 °C 0,0 km/h (0 Bft)
21.09.2019 22:03 9,1 °C 91 % 1015,4 hPa 0,0 mm 0,0 km/h (0 Bft) S-SO 149 ° 0 min 0,000 mm 0,0 UV-I 0 W/m² 7,7 °C 9,1 °C 0,0 km/h (0 Bft)
21.09.2019 22:04 9,1 °C 91 % 1015,4 hPa 0,0 mm 0,0 km/h (0 Bft) S-SO 149 ° 0 min 0,000 mm 0,0 UV-I 0 W/m² 7,7 °C 9,1 °C 0,0 km/h (0 Bft)
21.09.2019 22:05 9,2 °C 92 % 1015,4 hPa 0,0 mm 0,0 km/h (0 Bft) S-SO 149 ° 0 min 0,000 mm 0,0 UV-I 0 W/m² 8,0 °C 9,2 °C 0,0 km/h (0 Bft)
21.09.2019 22:06 9,3 °C 92 % 1015,4 hPa 0,0 mm 0,0 km/h (0 Bft) S-SO 149 ° 0 min 0,000 mm 0,0 UV-I 0 W/m² 8,1 °C 9,3 °C 0,0 km/h (0 Bft)
21.09.2019 22:07 9,4 °C 92 % 1015,4 hPa 0,0 mm 0,0 km/h (0 Bft) S-SO 149 ° 0 min 0,000 mm 0,0 UV-I 0 W/m² 8,2 °C 9,4 °C 0,0 km/h (0 Bft)
21.09.2019 22:08 9,4 °C 92 % 1015,4 hPa 0,0 mm 0,0 km/h (0 Bft) S-SO 149 ° 0 min 0,000 mm 0,0 UV-I 0 W/m² 8,2 °C 9,4 °C 0,0 km/h (0 Bft)
21.09.2019 22:09 9,4 °C 92 % 1015,4 hPa 0,0 mm 0,0 km/h (0 Bft) S-SO 149 ° 0 min 0,000 mm 0,0 UV-I 0 W/m² 8,2 °C 9,4 °C 0,0 km/h (0 Bft)
21.09.2019 22:10 9,2 °C 91 % 1015,4 hPa 0,0 mm 0,0 km/h (0 Bft) S-SO 149 ° 0 min 0,000 mm 0,0 UV-I 0 W/m² 7,8 °C 9,2 °C 0,0 km/h (0 Bft)
21.09.2019 22:11 9,1 °C 91 % 1015,4 hPa 0,0 mm 0,0 km/h (0 Bft) S-SO 149 ° 0 min 0,000 mm 0,0 UV-I 0 W/m² 7,7 °C 9,1 °C 0,0 km/h (0 Bft)
21.09.2019 22:12 9,1 °C 91 % 1015,4 hPa 0,0 mm 0,0 km/h (0 Bft) S-SO 149 ° 0 min 0,000 mm 0,0 UV-I 0 W/m² 7,7 °C 9,1 °C 0,0 km/h (0 Bft)
21.09.2019 22:13 9,0 °C 91 % 1015,4 hPa 0,0 mm 0,0 km/h (0 Bft) S-SO 149 ° 0 min 0,000 mm 0,0 UV-I 0 W/m² 7,6 °C 9,0 °C 0,0 km/h (0 Bft)
21.09.2019 22:14 8,9 °C 91 % 1015,4 hPa 0,0 mm 0,0 km/h (0 Bft) S-SO 149 ° 0 min 0,000 mm 0,0 UV-I 0 W/m² 7,5 °C 8,9 °C 0,0 km/h (0 Bft)
21.09.2019 22:15 8,9 °C 92 % 1015,4 hPa 0,0 mm 0,0 km/h (0 Bft) S-SO 149 ° 0 min 0,000 mm 0,0 UV-I 0 W/m² 7,7 °C 8,9 °C 0,0 km/h (0 Bft)
21.09.2019 22:16 9,0 °C 92 % 1015,4 hPa 0,0 mm 0,0 km/h (0 Bft) S-SO 149 ° 0 min 0,000 mm 0,0 UV-I 0 W/m² 7,8 °C 9,0 °C 0,0 km/h (0 Bft)
21.09.2019 22:17 8,9 °C 92 % 1015,4 hPa 0,0 mm 3,1 km/h (1 Bft) S-SO 149 ° 0 min 0,000 mm 0,0 UV-I 0 W/m² 7,7 °C 8,9 °C 4,8 km/h (1 Bft)
21.09.2019 22:18 8,9 °C 91 % 1015,4 hPa 0,0 mm 3,7 km/h (1 Bft) S-SO 149 ° 0 min 0,000 mm 0,0 UV-I 0 W/m² 7,5 °C 8,9 °C 6,4 km/h (2 Bft)
21.09.2019 22:19 8,9 °C 92 % 1015,4 hPa 0,0 mm 3,0 km/h (1 Bft) S-SO 149 ° 0 min 0,000 mm 0,0 UV-I 0 W/m² 7,7 °C 8,9 °C 4,8 km/h (1 Bft)
21.09.2019 22:20 8,9 °C 92 % 1015,4 hPa 0,0 mm 1,1 km/h (1 Bft) S-SO 149 ° 0 min 0,000 mm 0,0 UV-I 0 W/m² 7,7 °C 8,9 °C 3,2 km/h (1 Bft)
21.09.2019 22:21 9,0 °C 92 % 1015,5 hPa 0,0 mm 2,1 km/h (1 Bft) S-SO 149 ° 0 min 0,000 mm 0,0 UV-I 0 W/m² 7,8 °C 9,0 °C 4,8 km/h (1 Bft)
21.09.2019 22:22 9,1 °C 92 % 1015,5 hPa 0,0 mm 2,8 km/h (1 Bft) S-SO 149 ° 0 min 0,000 mm 0,0 UV-I 0 W/m² 7,9 °C 9,1 °C 4,8 km/h (1 Bft)
21.09.2019 22:23 9,2 °C 92 % 1015,4 hPa 0,0 mm 2,6 km/h (1 Bft) S-SO 149 ° 0 min 0,000 mm 0,0 UV-I 0 W/m² 8,0 °C 9,2 °C 4,8 km/h (1 Bft)
21.09.2019 22:24 9,2 °C 92 % 1015,4 hPa 0,0 mm 5,2 km/h (1 Bft) S 188 ° 0 min 0,000 mm 0,0 UV-I 0 W/m² 8,0 °C 8,8 °C 9,7 km/h (2 Bft)
21.09.2019 22:25 9,2 °C 92 % 1015,4 hPa 0,0 mm 6,4 km/h (2 Bft) S 186 ° 0 min 0,000 mm 0,0 UV-I 0 W/m² 8,0 °C 8,4 °C 9,7 km/h (2 Bft)
21.09.2019 22:26 9,3 °C 92 % 1015,4 hPa 0,0 mm 3,3 km/h (1 Bft) S 186 ° 0 min 0,000 mm 0,0 UV-I 0 W/m² 8,1 °C 9,3 °C 4,8 km/h (1 Bft)
21.09.2019 22:27 9,4 °C 92 % 1015,4 hPa 0,0 mm 3,1 km/h (1 Bft) S 187 ° 0 min 0,000 mm 0,0 UV-I 0 W/m² 8,2 °C 9,4 °C 4,8 km/h (1 Bft)
21.09.2019 22:28 9,5 °C 92 % 1015,4 hPa 0,0 mm 2,5 km/h (1 Bft) S 187 ° 0 min 0,000 mm 0,0 UV-I 0 W/m² 8,3 °C 9,5 °C 4,8 km/h (1 Bft)
21.09.2019 22:29 9,6 °C 92 % 1015,4 hPa 0,0 mm 0,0 km/h (0 Bft) S 187 ° 0 min 0,000 mm 0,0 UV-I 0 W/m² 8,4 °C 9,6 °C 0,0 km/h (0 Bft)
21.09.2019 22:30 9,6 °C 92 % 1015,4 hPa 0,0 mm 0,3 km/h (0 Bft) S 186 ° 0 min 0,000 mm 0,0 UV-I 0 W/m² 8,4 °C 9,6 °C 1,6 km/h (1 Bft)
21.09.2019 22:31 9,6 °C 92 % 1015,4 hPa 0,0 mm 0,0 km/h (0 Bft) S 186 ° 0 min 0,000 mm 0,0 UV-I 0 W/m² 8,4 °C 9,6 °C 0,0 km/h (0 Bft)
21.09.2019 22:32 9,5 °C 92 % 1015,5 hPa 0,0 mm 0,0 km/h (0 Bft) S 187 ° 0 min 0,000 mm 0,0 UV-I 0 W/m² 8,3 °C 9,5 °C 0,0 km/h (0 Bft)
21.09.2019 22:33 9,3 °C 91 % 1015,4 hPa 0,0 mm 0,0 km/h (0 Bft) S 187 ° 0 min 0,000 mm 0,0 UV-I 0 W/m² 7,9 °C 9,3 °C 0,0 km/h (0 Bft)
21.09.2019 22:34 9,2 °C 91 % 1015,4 hPa 0,0 mm 0,0 km/h (0 Bft) S 186 ° 0 min 0,000 mm 0,0 UV-I 0 W/m² 7,8 °C 9,2 °C 0,0 km/h (0 Bft)
21.09.2019 22:35 9,0 °C 91 % 1015,4 hPa 0,0 mm 0,0 km/h (0 Bft) S 187 ° 0 min 0,000 mm 0,0 UV-I 0 W/m² 7,6 °C 9,0 °C 0,0 km/h (0 Bft)
21.09.2019 22:36 8,9 °C 91 % 1015,4 hPa 0,0 mm 0,0 km/h (0 Bft) S 187 ° 0 min 0,000 mm 0,0 UV-I 0 W/m² 7,5 °C 8,9 °C 0,0 km/h (0 Bft)
21.09.2019 22:37 8,9 °C 92 % 1015,4 hPa 0,0 mm 0,0 km/h (0 Bft) S 186 ° 0 min 0,000 mm 0,0 UV-I 0 W/m² 7,7 °C 8,9 °C 0,0 km/h (0 Bft)
21.09.2019 22:38 8,9 °C 91 % 1015,4 hPa 0,0 mm 0,0 km/h (0 Bft) S 187 ° 0 min 0,000 mm 0,0 UV-I 0 W/m² 7,5 °C 8,9 °C 0,0 km/h (0 Bft)
21.09.2019 22:39 8,9 °C 92 % 1015,4 hPa 0,0 mm 0,0 km/h (0 Bft) S 187 ° 0 min 0,000 mm 0,0 UV-I 0 W/m² 7,7 °C 8,9 °C 0,0 km/h (0 Bft)
21.09.2019 22:40 8,8 °C 92 % 1015,4 hPa 0,0 mm 0,0 km/h (0 Bft) S 187 ° 0 min 0,000 mm 0,0 UV-I 0 W/m² 7,6 °C 8,8 °C 0,0 km/h (0 Bft)
21.09.2019 22:41 8,8 °C 92 % 1015,4 hPa 0,0 mm 0,0 km/h (0 Bft) S 187 ° 0 min 0,000 mm 0,0 UV-I 0 W/m² 7,6 °C 8,8 °C 0,0 km/h (0 Bft)
21.09.2019 22:42 8,8 °C 92 % 1015,3 hPa 0,0 mm 0,0 km/h (0 Bft) S 186 ° 0 min 0,000 mm 0,0 UV-I 0 W/m² 7,6 °C 8,8 °C 0,0 km/h (0 Bft)
21.09.2019 22:43 8,7 °C 92 % 1015,3 hPa 0,0 mm 0,0 km/h (0 Bft) S 186 ° 0 min 0,000 mm 0,0 UV-I 0 W/m² 7,5 °C 8,7 °C 0,0 km/h (0 Bft)
21.09.2019 22:44 8,7 °C 92 % 1015,2 hPa 0,0 mm 0,0 km/h (0 Bft) S 186 ° 0 min 0,000 mm 0,0 UV-I 0 W/m² 7,5 °C 8,7 °C 0,0 km/h (0 Bft)
21.09.2019 22:45 8,7 °C 92 % 1015,3 hPa 0,0 mm 0,0 km/h (0 Bft) S 187 ° 0 min 0,000 mm 0,0 UV-I 0 W/m² 7,5 °C 8,7 °C 0,0 km/h (0 Bft)
21.09.2019 22:46 8,7 °C 92 % 1015,3 hPa 0,0 mm 0,0 km/h (0 Bft) S 186 ° 0 min 0,000 mm 0,0 UV-I 0 W/m² 7,5 °C 8,7 °C 0,0 km/h (0 Bft)
21.09.2019 22:47 8,7 °C 92 % 1015,2 hPa 0,0 mm 0,0 km/h (0 Bft) S 187 ° 0 min 0,000 mm 0,0 UV-I 0 W/m² 7,5 °C 8,7 °C 0,0 km/h (0 Bft)
21.09.2019 22:48 8,7 °C 92 % 1015,3 hPa 0,0 mm 0,0 km/h (0 Bft) S 187 ° 0 min 0,000 mm 0,0 UV-I 0 W/m² 7,5 °C 8,7 °C 0,0 km/h (0 Bft)
21.09.2019 22:49 8,7 °C 92 % 1015,2 hPa 0,0 mm 0,0 km/h (0 Bft) S 187 ° 0 min 0,000 mm 0,0 UV-I 0 W/m² 7,5 °C 8,7 °C 0,0 km/h (0 Bft)
21.09.2019 22:50 8,7 °C 93 % 1015,2 hPa 0,0 mm 0,0 km/h (0 Bft) S 186 ° 0 min 0,000 mm 0,0 UV-I 0 W/m² 7,6 °C 8,7 °C 0,0 km/h (0 Bft)
21.09.2019 22:51 8,7 °C 93 % 1015,2 hPa 0,0 mm 0,0 km/h (0 Bft) S 187 ° 0 min 0,000 mm 0,0 UV-I 0 W/m² 7,6 °C 8,7 °C 0,0 km/h (0 Bft)
21.09.2019 22:52 8,7 °C 92 % 1015,2 hPa 0,0 mm 0,0 km/h (0 Bft) S 186 ° 0 min 0,000 mm 0,0 UV-I 0 W/m² 7,5 °C 8,7 °C 0,0 km/h (0 Bft)
21.09.2019 22:53 8,7 °C 92 % 1015,2 hPa 0,0 mm 0,0 km/h (0 Bft) S 187 ° 0 min 0,000 mm 0,0 UV-I 0 W/m² 7,5 °C 8,7 °C 0,0 km/h (0 Bft)
21.09.2019 22:54 8,6 °C 93 % 1015,2 hPa 0,0 mm 0,0 km/h (0 Bft) S 187 ° 0 min 0,000 mm 0,0 UV-I 0 W/m² 7,5 °C 8,6 °C 0,0 km/h (0 Bft)
21.09.2019 22:55 8,6 °C 93 % 1015,2 hPa 0,0 mm 0,0 km/h (0 Bft) S 187 ° 0 min 0,000 mm 0,0 UV-I 0 W/m² 7,5 °C 8,6 °C 0,0 km/h (0 Bft)
21.09.2019 22:56 8,6 °C 93 % 1015,2 hPa 0,0 mm 0,0 km/h (0 Bft) S 186 ° 0 min 0,000 mm 0,0 UV-I 0 W/m² 7,5 °C 8,6 °C 0,0 km/h (0 Bft)
21.09.2019 22:57 8,6 °C 93 % 1015,1 hPa 0,0 mm 0,0 km/h (0 Bft) S 186 ° 0 min 0,000 mm 0,0 UV-I 0 W/m² 7,5 °C 8,6 °C 0,0 km/h (0 Bft)
21.09.2019 22:58 8,7 °C 93 % 1015,1 hPa 0,0 mm 0,0 km/h (0 Bft) S 187 ° 0 min 0,000 mm 0,0 UV-I 0 W/m² 7,6 °C 8,7 °C 0,0 km/h (0 Bft)
21.09.2019 22:59 8,7 °C 93 % 1015,1 hPa 0,0 mm 0,0 km/h (0 Bft) S 186 ° 0 min 0,000 mm 0,0 UV-I 0 W/m² 7,6 °C 8,7 °C 0,0 km/h (0 Bft)
21.09.2019 23:00 8,6 °C 93 % 1015,1 hPa 0,0 mm 0,0 km/h (0 Bft) S 187 ° 0 min 0,000 mm 0,0 UV-I 0 W/m² 7,5 °C 8,6 °C 0,0 km/h (0 Bft)
21.09.2019 23:01 8,6 °C 93 % 1015,0 hPa 0,0 mm 0,0 km/h (0 Bft) S 187 ° 0 min 0,000 mm 0,0 UV-I 0 W/m² 7,5 °C 8,6 °C 0,0 km/h (0 Bft)
21.09.2019 23:02 8,6 °C 93 % 1015,0 hPa 0,0 mm 0,0 km/h (0 Bft) S 187 ° 0 min 0,000 mm 0,0 UV-I 0 W/m² 7,5 °C 8,6 °C 0,0 km/h (0 Bft)
21.09.2019 23:03 8,4 °C 93 % 1015,0 hPa 0,0 mm 0,0 km/h (0 Bft) S 186 ° 0 min 0,000 mm 0,0 UV-I 0 W/m² 7,3 °C 8,4 °C 0,0 km/h (0 Bft)
21.09.2019 23:04 8,4 °C 93 % 1015,0 hPa 0,0 mm 0,0 km/h (0 Bft) S 186 ° 0 min 0,000 mm 0,0 UV-I 0 W/m² 7,3 °C 8,4 °C 0,0 km/h (0 Bft)
21.09.2019 23:05 8,3 °C 93 % 1015,0 hPa 0,0 mm 0,0 km/h (0 Bft) S 186 ° 0 min 0,000 mm 0,0 UV-I 0 W/m² 7,2 °C 8,3 °C 0,0 km/h (0 Bft)
21.09.2019 23:06 8,3 °C 93 % 1015,0 hPa 0,0 mm 0,0 km/h (0 Bft) S 186 ° 0 min 0,000 mm 0,0 UV-I 0 W/m² 7,2 °C 8,3 °C 0,0 km/h (0 Bft)
21.09.2019 23:07 8,3 °C 93 % 1015,0 hPa 0,0 mm 0,0 km/h (0 Bft) S 186 ° 0 min 0,000 mm 0,0 UV-I 0 W/m² 7,2 °C 8,3 °C 0,0 km/h (0 Bft)
21.09.2019 23:08 8,3 °C 93 % 1015,0 hPa 0,0 mm 0,0 km/h (0 Bft) S 186 ° 0 min 0,000 mm 0,0 UV-I 0 W/m² 7,2 °C 8,3 °C 0,0 km/h (0 Bft)
21.09.2019 23:09 8,4 °C 93 % 1015,0 hPa 0,0 mm 0,0 km/h (0 Bft) S 186 ° 0 min 0,000 mm 0,0 UV-I 0 W/m² 7,3 °C 8,4 °C 0,0 km/h (0 Bft)
21.09.2019 23:10 8,6 °C 93 % 1015,0 hPa 0,0 mm 0,0 km/h (0 Bft) S 186 ° 0 min 0,000 mm 0,0 UV-I 0 W/m² 7,5 °C 8,6 °C 0,0 km/h (0 Bft)
21.09.2019 23:11 8,6 °C 93 % 1015,0 hPa 0,0 mm 0,0 km/h (0 Bft) S 186 ° 0 min 0,000 mm 0,0 UV-I 0 W/m² 7,5 °C 8,6 °C 0,0 km/h (0 Bft)
21.09.2019 23:12 8,4 °C 93 % 1015,0 hPa 0,0 mm 0,0 km/h (0 Bft) S 186 ° 0 min 0,000 mm 0,0 UV-I 0 W/m² 7,3 °C 8,4 °C 0,0 km/h (0 Bft)
21.09.2019 23:13 8,4 °C 93 % 1015,0 hPa 0,0 mm 0,0 km/h (0 Bft) S 186 ° 0 min 0,000 mm 0,0 UV-I 0 W/m² 7,3 °C 8,4 °C 0,0 km/h (0 Bft)
21.09.2019 23:14 8,4 °C 93 % 1015,0 hPa 0,0 mm 0,0 km/h (0 Bft) S 186 ° 0 min 0,000 mm 0,0 UV-I 0 W/m² 7,3 °C 8,4 °C 0,0 km/h (0 Bft)
21.09.2019 23:15 8,4 °C 93 % 1014,9 hPa 0,0 mm 0,0 km/h (0 Bft) S 186 ° 0 min 0,000 mm 0,0 UV-I 0 W/m² 7,3 °C 8,4 °C 0,0 km/h (0 Bft)
21.09.2019 23:16 8,4 °C 93 % 1015,0 hPa 0,0 mm 0,0 km/h (0 Bft) S 186 ° 0 min 0,000 mm 0,0 UV-I 0 W/m² 7,3 °C 8,4 °C 0,0 km/h (0 Bft)
21.09.2019 23:17 8,6 °C 93 % 1015,0 hPa 0,0 mm 0,0 km/h (0 Bft) S 186 ° 0 min 0,000 mm 0,0 UV-I 0 W/m² 7,5 °C 8,6 °C 0,0 km/h (0 Bft)
21.09.2019 23:18 8,4 °C 93 % 1015,0 hPa 0,0 mm 0,0 km/h (0 Bft) S 186 ° 0 min 0,000 mm 0,0 UV-I 0 W/m² 7,3 °C 8,4 °C 0,0 km/h (0 Bft)
21.09.2019 23:19 8,4 °C 93 % 1015,0 hPa 0,0 mm 0,0 km/h (0 Bft) S 186 ° 0 min 0,000 mm 0,0 UV-I 0 W/m² 7,3 °C 8,4 °C 0,0 km/h (0 Bft)
21.09.2019 23:20 8,3 °C 93 % 1014,9 hPa 0,0 mm 0,0 km/h (0 Bft) S 186 ° 0 min 0,000 mm 0,0 UV-I 0 W/m² 7,2 °C 8,3 °C 0,0 km/h (0 Bft)
21.09.2019 23:21 8,2 °C 93 % 1015,0 hPa 0,0 mm 0,0 km/h (0 Bft) S 186 ° 0 min 0,000 mm 0,0 UV-I 0 W/m² 7,1 °C 8,2 °C 0,0 km/h (0 Bft)
21.09.2019 23:22 8,2 °C 93 % 1015,0 hPa 0,0 mm 0,0 km/h (0 Bft) S 186 ° 0 min 0,000 mm 0,0 UV-I 0 W/m² 7,1 °C 8,2 °C 0,0 km/h (0 Bft)
21.09.2019 23:23 8,2 °C 93 % 1015,0 hPa 0,0 mm 0,0 km/h (0 Bft) S 186 ° 0 min 0,000 mm 0,0 UV-I 0 W/m² 7,1 °C 8,2 °C 0,0 km/h (0 Bft)
21.09.2019 23:24 8,1 °C 93 % 1015,0 hPa 0,0 mm 0,0 km/h (0 Bft) S 186 ° 0 min 0,000 mm 0,0 UV-I 0 W/m² 7,0 °C 8,1 °C 0,0 km/h (0 Bft)
21.09.2019 23:25 8,1 °C 93 % 1015,0 hPa 0,0 mm 0,0 km/h (0 Bft) S 186 ° 0 min 0,000 mm 0,0 UV-I 0 W/m² 7,0 °C 8,1 °C 0,0 km/h (0 Bft)
21.09.2019 23:26 8,1 °C 93 % 1015,0 hPa 0,0 mm 0,0 km/h (0 Bft) S 186 ° 0 min 0,000 mm 0,0 UV-I 0 W/m² 7,0 °C 8,1 °C 0,0 km/h (0 Bft)
21.09.2019 23:27 8,1 °C 93 % 1015,0 hPa 0,0 mm 0,0 km/h (0 Bft) S 186 ° 0 min 0,000 mm 0,0 UV-I 0 W/m² 7,0 °C 8,1 °C 0,0 km/h (0 Bft)
21.09.2019 23:28 8,1 °C 93 % 1015,0 hPa 0,0 mm 0,0 km/h (0 Bft) S 186 ° 0 min 0,000 mm 0,0 UV-I 0 W/m² 7,0 °C 8,1 °C 0,0 km/h (0 Bft)
21.09.2019 23:29 8,1 °C 93 % 1014,9 hPa 0,0 mm 0,0 km/h (0 Bft) S 186 ° 0 min 0,000 mm 0,0 UV-I 0 W/m² 7,0 °C 8,1 °C 0,0 km/h (0 Bft)
21.09.2019 23:30 8,1 °C 93 % 1014,9 hPa 0,0 mm 0,0 km/h (0 Bft) S 186 ° 0 min 0,000 mm 0,0 UV-I 0 W/m² 7,0 °C 8,1 °C 0,0 km/h (0 Bft)
21.09.2019 23:31 8,1 °C 93 % 1014,9 hPa 0,0 mm 0,0 km/h (0 Bft) S 186 ° 0 min 0,000 mm 0,0 UV-I 0 W/m² 7,0 °C 8,1 °C 0,0 km/h (0 Bft)
21.09.2019 23:32 8,1 °C 93 % 1014,9 hPa 0,0 mm 0,0 km/h (0 Bft) S 186 ° 0 min 0,000 mm 0,0 UV-I 0 W/m² 7,0 °C 8,1 °C 0,0 km/h (0 Bft)
21.09.2019 23:33 8,0 °C 93 % 1014,9 hPa 0,0 mm 0,0 km/h (0 Bft) S 186 ° 0 min 0,000 mm 0,0 UV-I 0 W/m² 6,9 °C 8,0 °C 0,0 km/h (0 Bft)
21.09.2019 23:34 8,0 °C 93 % 1014,9 hPa 0,0 mm 0,0 km/h (0 Bft) S 190 ° 0 min 0,000 mm 0,0 UV-I 0 W/m² 6,9 °C 8,0 °C 0,0 km/h (0 Bft)
21.09.2019 23:35 7,9 °C 93 % 1014,9 hPa 0,0 mm 0,0 km/h (0 Bft) S 190 ° 0 min 0,000 mm 0,0 UV-I 0 W/m² 6,8 °C 7,9 °C 0,0 km/h (0 Bft)
21.09.2019 23:36 7,9 °C 93 % 1014,9 hPa 0,0 mm 0,0 km/h (0 Bft) S 190 ° 0 min 0,000 mm 0,0 UV-I 0 W/m² 6,8 °C 7,9 °C 0,0 km/h (0 Bft)
21.09.2019 23:37 7,9 °C 93 % 1014,8 hPa 0,0 mm 0,0 km/h (0 Bft) S 190 ° 0 min 0,000 mm 0,0 UV-I 0 W/m² 6,8 °C 7,9 °C 0,0 km/h (0 Bft)
21.09.2019 23:38 7,9 °C 93 % 1014,9 hPa 0,0 mm 0,0 km/h (0 Bft) S 190 ° 0 min 0,000 mm 0,0 UV-I 0 W/m² 6,8 °C 7,9 °C 0,0 km/h (0 Bft)
21.09.2019 23:39 7,8 °C 93 % 1014,8 hPa 0,0 mm 0,0 km/h (0 Bft) S 190 ° 0 min 0,000 mm 0,0 UV-I 0 W/m² 6,7 °C 7,8 °C 0,0 km/h (0 Bft)
21.09.2019 23:40 7,8 °C 93 % 1014,8 hPa 0,0 mm 0,0 km/h (0 Bft) S 190 ° 0 min 0,000 mm 0,0 UV-I 0 W/m² 6,7 °C 7,8 °C 0,0 km/h (0 Bft)
21.09.2019 23:41 7,7 °C 93 % 1014,8 hPa 0,0 mm 0,0 km/h (0 Bft) S 190 ° 0 min 0,000 mm 0,0 UV-I 0 W/m² 6,6 °C 7,7 °C 0,0 km/h (0 Bft)
21.09.2019 23:42 7,7 °C 93 % 1014,8 hPa 0,0 mm 0,0 km/h (0 Bft) S 190 ° 0 min 0,000 mm 0,0 UV-I 0 W/m² 6,6 °C 7,7 °C 0,0 km/h (0 Bft)
21.09.2019 23:43 7,8 °C 93 % 1014,8 hPa 0,0 mm 0,0 km/h (0 Bft) S 190 ° 0 min 0,000 mm 0,0 UV-I 0 W/m² 6,7 °C 7,8 °C 0,0 km/h (0 Bft)
21.09.2019 23:44 7,8 °C 93 % 1014,8 hPa 0,0 mm 0,0 km/h (0 Bft) S 190 ° 0 min 0,000 mm 0,0 UV-I 0 W/m² 6,7 °C 7,8 °C 0,0 km/h (0 Bft)
21.09.2019 23:45 7,8 °C 93 % 1014,8 hPa 0,0 mm 0,0 km/h (0 Bft) S 190 ° 0 min 0,000 mm 0,0 UV-I 0 W/m² 6,7 °C 7,8 °C 0,0 km/h (0 Bft)
21.09.2019 23:46 7,8 °C 93 % 1014,8 hPa 0,0 mm 0,0 km/h (0 Bft) S 190 ° 0 min 0,000 mm 0,0 UV-I 0 W/m² 6,7 °C 7,8 °C 0,0 km/h (0 Bft)
21.09.2019 23:47 7,7 °C 93 % 1014,8 hPa 0,0 mm 0,0 km/h (0 Bft) S 190 ° 0 min 0,000 mm 0,0 UV-I 0 W/m² 6,6 °C 7,7 °C 0,0 km/h (0 Bft)
21.09.2019 23:48 7,7 °C 93 % 1014,8 hPa 0,0 mm 0,0 km/h (0 Bft) S 190 ° 0 min 0,000 mm 0,0 UV-I 0 W/m² 6,6 °C 7,7 °C 0,0 km/h (0 Bft)
21.09.2019 23:49 7,7 °C 93 % 1014,8 hPa 0,0 mm 0,0 km/h (0 Bft) S 190 ° 0 min 0,000 mm 0,0 UV-I 0 W/m² 6,6 °C 7,7 °C 0,0 km/h (0 Bft)
21.09.2019 23:50 7,7 °C 94 % 1014,8 hPa 0,0 mm 0,0 km/h (0 Bft) S 190 ° 0 min 0,000 mm 0,0 UV-I 0 W/m² 6,8 °C 7,7 °C 0,0 km/h (0 Bft)
21.09.2019 23:51 7,8 °C 94 % 1014,7 hPa 0,0 mm 0,0 km/h (0 Bft) S 190 ° 0 min 0,000 mm 0,0 UV-I 0 W/m² 6,9 °C 7,8 °C 0,0 km/h (0 Bft)
21.09.2019 23:52 7,8 °C 94 % 1014,7 hPa 0,0 mm 0,0 km/h (0 Bft) S 190 ° 0 min 0,000 mm 0,0 UV-I 0 W/m² 6,9 °C 7,8 °C 0,0 km/h (0 Bft)
21.09.2019 23:53 7,8 °C 94 % 1014,7 hPa 0,0 mm 0,0 km/h (0 Bft) S 190 ° 0 min 0,000 mm 0,0 UV-I 0 W/m² 6,9 °C 7,8 °C 0,0 km/h (0 Bft)
21.09.2019 23:54 7,8 °C 94 % 1014,7 hPa 0,0 mm 0,0 km/h (0 Bft) S 190 ° 0 min 0,000 mm 0,0 UV-I 0 W/m² 6,9 °C 7,8 °C 0,0 km/h (0 Bft)
21.09.2019 23:55 7,9 °C 94 % 1014,6 hPa 0,0 mm 0,0 km/h (0 Bft) S 190 ° 0 min 0,000 mm 0,0 UV-I 0 W/m² 7,0 °C 7,9 °C 0,0 km/h (0 Bft)
21.09.2019 23:56 7,9 °C 94 % 1014,7 hPa 0,0 mm 0,0 km/h (0 Bft) S 190 ° 0 min 0,000 mm 0,0 UV-I 0 W/m² 7,0 °C 7,9 °C 0,0 km/h (0 Bft)
21.09.2019 23:57 7,8 °C 94 % 1014,6 hPa 0,0 mm 0,0 km/h (0 Bft) S 190 ° 0 min 0,000 mm 0,0 UV-I 0 W/m² 6,9 °C 7,8 °C 0,0 km/h (0 Bft)
21.09.2019 23:58 7,8 °C 94 % 1014,6 hPa 0,0 mm 0,0 km/h (0 Bft) S 190 ° 0 min 0,000 mm 0,0 UV-I 0 W/m² 6,9 °C 7,8 °C 0,0 km/h (0 Bft)
21.09.2019 23:59 7,8 °C 94 % 1014,6 hPa 0,0 mm 0,0 km/h (0 Bft) S 190 ° 0 min 0,000 mm 0,0 UV-I 0 W/m² 6,9 °C 7,8 °C 0,0 km/h (0 Bft)
_ Min-Zeit 06:32 16:18 23:59 - 23:59 - - - - - - 06:32 06:32 23:59
Minimum _ 0,8 °C 58 % 1014,6 hPa - 0,0 km/h (0 Bft) - - - - - - -0,1 °C 0,8 °C 0,0 km/h (0 Bft)
_ Max-Zeit 14:56 09:17 00:02 23:59 15:53 - - 15:05 14:01 13:29 13:20 15:09 15:33 17:11
Maximum _ 19,4 °C 95 % 1023,7 hPa 0,0 mm 10,6 km/h
N-NO (2 Bft)
- - 1 min 0,407 mm 4,7 UV-I 701 W/m² 12,8 °C 19,3 °C 17,7 km/h
N-NO (3 Bft)
Durchschnitt _ 9,8 °C 83 % 1019,3 hPa #0,0 mm 1,2 km/h (1 Bft) NO - #3:49 h #2,489 mm 3,4 UV-I 184 W/m² 6,6 °C 9,8 °C 2,2 km/h (1 Bft)